<?xml version='1.0' encoding='UTF-8'?><gpx version="1.1" creator="JPX - https://github.com/jenetics/jpx" xmlns="http://www.topografix.com/GPX/1/1"><trk><trkseg><trkpt lat="45.71853107305508" lon="9.771029978950441"><ele>338.0</ele><time>2026-04-05T07:00:57Z</time></trkpt><trkpt lat="45.718456617417715" lon="9.770954843740116"><ele>337.0</ele><time>2026-04-05T07:00:59Z</time></trkpt><trkpt lat="45.71839808257454" lon="9.77091603654237"><ele>336.0</ele><time>2026-04-05T07:01:00Z</time></trkpt><trkpt lat="45.71833354529936" lon="9.770873763188913"><ele>335.0</ele><time>2026-04-05T07:01:01Z</time></trkpt><trkpt lat="45.71827302250692" lon="9.77083135236798"><ele>334.0</ele><time>2026-04-05T07:01:02Z</time></trkpt><trkpt lat="45.718167089004986" lon="9.77075239309228"><ele>333.0</ele><time>2026-04-05T07:01:04Z</time></trkpt><trkpt lat="45.71805824277132" lon="9.770693011061905"><ele>333.0</ele><time>2026-04-05T07:01:06Z</time></trkpt><trkpt lat="45.717971598407885" lon="9.770597067227126"><ele>333.0</ele><time>2026-04-05T07:01:08Z</time></trkpt><trkpt lat="45.717880231676055" lon="9.770573231085258"><ele>333.0</ele><time>2026-04-05T07:01:10Z</time></trkpt><trkpt lat="45.7178145467833" lon="9.770670278276596"><ele>333.0</ele><time>2026-04-05T07:01:13Z</time></trkpt><trkpt lat="45.71777640745072" lon="9.770762204284242"><ele>333.0</ele><time>2026-04-05T07:01:15Z</time></trkpt><trkpt lat="45.717719165339865" lon="9.770865050464137"><ele>332.3333333333333</ele><time>2026-04-05T07:01:17Z</time></trkpt><trkpt lat="45.7176555885804" lon="9.770963523926726"><ele>331.6666666666667</ele><time>2026-04-05T07:01:19Z</time></trkpt><trkpt lat="45.7176070807132" lon="9.771050652794813"><ele>331.0</ele><time>2026-04-05T07:01:21Z</time></trkpt><trkpt lat="45.71757604490201" lon="9.771167969566546"><ele>330.33333333333337</ele><time>2026-04-05T07:01:24Z</time></trkpt><trkpt lat="45.71753408532867" lon="9.771271174588575"><ele>329.6666666666667</ele><time>2026-04-05T07:01:27Z</time></trkpt><trkpt lat="45.71751603365719" lon="9.771381315246487"><ele>329.0</ele><time>2026-04-05T07:01:30Z</time></trkpt><trkpt lat="45.7174812841796" lon="9.771470537963348"><ele>329.0</ele><time>2026-04-05T07:01:34Z</time></trkpt><trkpt lat="45.71741972989172" lon="9.771511006566103"><ele>329.0</ele><time>2026-04-05T07:01:37Z</time></trkpt><trkpt lat="45.71735772133743" lon="9.771487351415363"><ele>329.0</ele><time>2026-04-05T07:01:39Z</time></trkpt><trkpt lat="45.717277614862994" lon="9.771451875210799"><ele>329.0</ele><time>2026-04-05T07:01:41Z</time></trkpt><trkpt lat="45.71717211537573" lon="9.771405884844796"><ele>329.0</ele><time>2026-04-05T07:01:43Z</time></trkpt><trkpt lat="45.71704925764684" lon="9.771372310499627"><ele>329.0</ele><time>2026-04-05T07:01:45Z</time></trkpt><trkpt lat="45.71698654529821" lon="9.771358195961088"><ele>329.0</ele><time>2026-04-05T07:01:46Z</time></trkpt><trkpt lat="45.71689405940985" lon="9.771330215576311"><ele>329.0</ele><time>2026-04-05T07:01:48Z</time></trkpt><trkpt lat="45.71687111597792" lon="9.771244528080803"><ele>329.0</ele><time>2026-04-05T07:01:50Z</time></trkpt><trkpt lat="45.71691629817944" lon="9.771132861797868"><ele>329.0</ele><time>2026-04-05T07:01:52Z</time></trkpt><trkpt lat="45.716997122393494" lon="9.771024274234684"><ele>329.0</ele><time>2026-04-05T07:01:54Z</time></trkpt><trkpt lat="45.71706944011388" lon="9.77091440920836"><ele>328.4</ele><time>2026-04-05T07:01:56Z</time></trkpt><trkpt lat="45.71713505235906" lon="9.770805031515502"><ele>327.79999999999995</ele><time>2026-04-05T07:01:58Z</time></trkpt><trkpt lat="45.71720060623444" lon="9.77070185981967"><ele>327.20000000000005</ele><time>2026-04-05T07:02:00Z</time></trkpt><trkpt lat="45.71726284652648" lon="9.770595189144034"><ele>326.6</ele><time>2026-04-05T07:02:02Z</time></trkpt><trkpt lat="45.71732337853471" lon="9.770495184411455"><ele>326.0</ele><time>2026-04-05T07:02:04Z</time></trkpt><trkpt lat="45.71738468873248" lon="9.770391872263344"><ele>326.0</ele><time>2026-04-05T07:02:06Z</time></trkpt><trkpt lat="45.71744682734842" lon="9.770290177368084"><ele>326.0</ele><time>2026-04-05T07:02:08Z</time></trkpt><trkpt lat="45.71750622656348" lon="9.770195611951014"><ele>326.0</ele><time>2026-04-05T07:02:10Z</time></trkpt><trkpt lat="45.71756448177163" lon="9.7701006880074"><ele>326.0</ele><time>2026-04-05T07:02:12Z</time></trkpt><trkpt lat="45.717625066107054" lon="9.770014667786674"><ele>326.0</ele><time>2026-04-05T07:02:14Z</time></trkpt><trkpt lat="45.7176839021689" lon="9.76992198934962"><ele>326.0</ele><time>2026-04-05T07:02:16Z</time></trkpt><trkpt lat="45.71774163802045" lon="9.769832183736145"><ele>326.4</ele><time>2026-04-05T07:02:18Z</time></trkpt><trkpt lat="45.717800881054366" lon="9.769746079009309"><ele>326.8</ele><time>2026-04-05T07:02:20Z</time></trkpt><trkpt lat="45.71786469591342" lon="9.769637426838068"><ele>327.2</ele><time>2026-04-05T07:02:22Z</time></trkpt><trkpt lat="45.71794024633773" lon="9.769534923699869"><ele>327.59999999999997</ele><time>2026-04-05T07:02:24Z</time></trkpt><trkpt lat="45.718006162937456" lon="9.76942819726063"><ele>328.0</ele><time>2026-04-05T07:02:26Z</time></trkpt><trkpt lat="45.71807143421769" lon="9.769323004598077"><ele>326.79999999999995</ele><time>2026-04-05T07:02:28Z</time></trkpt><trkpt lat="45.71813222531596" lon="9.769217460046535"><ele>325.6</ele><time>2026-04-05T07:02:30Z</time></trkpt><trkpt lat="45.71820705125324" lon="9.769118711504285"><ele>324.4</ele><time>2026-04-05T07:02:32Z</time></trkpt><trkpt lat="45.718284335071516" lon="9.769017574763234"><ele>323.20000000000005</ele><time>2026-04-05T07:02:34Z</time></trkpt><trkpt lat="45.71836594118093" lon="9.768913102273721"><ele>322.0</ele><time>2026-04-05T07:02:36Z</time></trkpt><trkpt lat="45.71845960871354" lon="9.768825052656549"><ele>322.0</ele><time>2026-04-05T07:02:38Z</time></trkpt><trkpt lat="45.7185526807493" lon="9.768735545586766"><ele>322.0</ele><time>2026-04-05T07:02:40Z</time></trkpt><trkpt lat="45.718651876662705" lon="9.768639618062275"><ele>322.0</ele><time>2026-04-05T07:02:42Z</time></trkpt><trkpt lat="45.71874824026383" lon="9.768542419536226"><ele>322.0</ele><time>2026-04-05T07:02:44Z</time></trkpt><trkpt lat="45.71884759313395" lon="9.768444018778247"><ele>322.20000000000005</ele><time>2026-04-05T07:02:46Z</time></trkpt><trkpt lat="45.71894732663031" lon="9.768348131397508"><ele>322.4</ele><time>2026-04-05T07:02:48Z</time></trkpt><trkpt lat="45.71904163929642" lon="9.76824959954597"><ele>322.6</ele><time>2026-04-05T07:02:50Z</time></trkpt><trkpt lat="45.719134625381606" lon="9.768160438449435"><ele>322.79999999999995</ele><time>2026-04-05T07:02:52Z</time></trkpt><trkpt lat="45.71922153970211" lon="9.768087560934072"><ele>323.0</ele><time>2026-04-05T07:02:54Z</time></trkpt><trkpt lat="45.7192947550598" lon="9.768034696039118"><ele>323.0</ele><time>2026-04-05T07:03:14Z</time></trkpt><trkpt lat="45.7193542867301" lon="9.76796045973848"><ele>323.0</ele><time>2026-04-05T07:03:16Z</time></trkpt><trkpt lat="45.71941083426289" lon="9.76788819581269"><ele>323.0</ele><time>2026-04-05T07:03:18Z</time></trkpt><trkpt lat="45.7194800931951" lon="9.76782452364321"><ele>323.0</ele><time>2026-04-05T07:03:20Z</time></trkpt><trkpt lat="45.719554173575574" lon="9.76774784568718"><ele>323.0</ele><time>2026-04-05T07:03:22Z</time></trkpt><trkpt lat="45.7196279371334" lon="9.767674146474757"><ele>323.0</ele><time>2026-04-05T07:03:24Z</time></trkpt><trkpt lat="45.71970254502252" lon="9.767604969182988"><ele>323.59999999999997</ele><time>2026-04-05T07:03:26Z</time></trkpt><trkpt lat="45.71977131809493" lon="9.767541952523413"><ele>324.2</ele><time>2026-04-05T07:03:28Z</time></trkpt><trkpt lat="45.71985476676578" lon="9.767461396273244"><ele>324.8</ele><time>2026-04-05T07:03:30Z</time></trkpt><trkpt lat="45.71993125804737" lon="9.767372562781722"><ele>325.4</ele><time>2026-04-05T07:03:32Z</time></trkpt><trkpt lat="45.72002411143438" lon="9.767267268233436"><ele>326.0</ele><time>2026-04-05T07:03:34Z</time></trkpt><trkpt lat="45.72008205948478" lon="9.767220591478921"><ele>326.0</ele><time>2026-04-05T07:03:35Z</time></trkpt><trkpt lat="45.72017923043531" lon="9.767122320301906"><ele>326.0</ele><time>2026-04-05T07:03:37Z</time></trkpt><trkpt lat="45.72027020820332" lon="9.767025615451745"><ele>326.0</ele><time>2026-04-05T07:03:39Z</time></trkpt><trkpt lat="45.720323081160025" lon="9.766965716696575"><ele>326.0</ele><time>2026-04-05T07:03:40Z</time></trkpt><trkpt lat="45.72043134173826" lon="9.76687260512782"><ele>326.0</ele><time>2026-04-05T07:03:42Z</time></trkpt><trkpt lat="45.72049858838834" lon="9.766815433370764"><ele>325.42857142857144</ele><time>2026-04-05T07:03:43Z</time></trkpt><trkpt lat="45.72059657700924" lon="9.766717930733101"><ele>324.85714285714283</ele><time>2026-04-05T07:03:45Z</time></trkpt><trkpt lat="45.72064640457755" lon="9.766657139993901"><ele>324.2857142857143</ele><time>2026-04-05T07:03:46Z</time></trkpt><trkpt lat="45.72069505789007" lon="9.766597191699928"><ele>323.7142857142857</ele><time>2026-04-05T07:03:47Z</time></trkpt><trkpt lat="45.72074195844896" lon="9.766532120586128"><ele>323.1428571428571</ele><time>2026-04-05T07:03:48Z</time></trkpt><trkpt lat="45.72078709731983" lon="9.766465097754274"><ele>322.57142857142856</ele><time>2026-04-05T07:03:49Z</time></trkpt><trkpt lat="45.7208373210661" lon="9.766402739082986"><ele>322.0</ele><time>2026-04-05T07:03:50Z</time></trkpt><trkpt lat="45.72088523554949" lon="9.766335401803492"><ele>322.0</ele><time>2026-04-05T07:03:51Z</time></trkpt><trkpt lat="45.72093548183409" lon="9.766274991086771"><ele>322.0</ele><time>2026-04-05T07:03:52Z</time></trkpt><trkpt lat="45.720982846202844" lon="9.766214230762435"><ele>322.0</ele><time>2026-04-05T07:03:53Z</time></trkpt><trkpt lat="45.72103592670666" lon="9.766147520033353"><ele>322.0</ele><time>2026-04-05T07:03:54Z</time></trkpt><trkpt lat="45.72112556834967" lon="9.76603095551664"><ele>322.0</ele><time>2026-04-05T07:03:56Z</time></trkpt><trkpt lat="45.72117736690876" lon="9.765972078549149"><ele>322.0</ele><time>2026-04-05T07:03:57Z</time></trkpt><trkpt lat="45.72127808984249" lon="9.765862081393541"><ele>321.40000000000003</ele><time>2026-04-05T07:03:59Z</time></trkpt><trkpt lat="45.72137931485018" lon="9.765750415743163"><ele>320.8</ele><time>2026-04-05T07:04:01Z</time></trkpt><trkpt lat="45.72147734862347" lon="9.76563906660074"><ele>320.2</ele><time>2026-04-05T07:04:03Z</time></trkpt><trkpt lat="45.72153281909889" lon="9.765588304644721"><ele>319.6</ele><time>2026-04-05T07:04:04Z</time></trkpt><trkpt lat="45.72163365367056" lon="9.765477739866206"><ele>319.0</ele><time>2026-04-05T07:04:06Z</time></trkpt><trkpt lat="45.72173567051409" lon="9.765372028361465"><ele>319.0</ele><time>2026-04-05T07:04:08Z</time></trkpt><trkpt lat="45.72178904718554" lon="9.7653204803878"><ele>319.0</ele><time>2026-04-05T07:04:09Z</time></trkpt><trkpt lat="45.721843951025335" lon="9.765269788440149"><ele>319.0</ele><time>2026-04-05T07:04:10Z</time></trkpt><trkpt lat="45.72189742566784" lon="9.765214941317272"><ele>319.0</ele><time>2026-04-05T07:04:11.001Z</time></trkpt><trkpt lat="45.72195251663326" lon="9.765157860555727"><ele>319.0</ele><time>2026-04-05T07:04:12.001Z</time></trkpt><trkpt lat="45.72200670086119" lon="9.765100810438511"><ele>319.0</ele><time>2026-04-05T07:04:13.001Z</time></trkpt><trkpt lat="45.72206441762883" lon="9.765043994421289"><ele>319.0</ele><time>2026-04-05T07:04:14Z</time></trkpt><trkpt lat="45.72212335375581" lon="9.764988656362124"><ele>319.0</ele><time>2026-04-05T07:04:15Z</time></trkpt><trkpt lat="45.72218207425451" lon="9.764929423289137"><ele>319.0</ele><time>2026-04-05T07:04:16Z</time></trkpt><trkpt lat="45.722242287788845" lon="9.764876715712846"><ele>319.0</ele><time>2026-04-05T07:04:17Z</time></trkpt><trkpt lat="45.722292915230796" lon="9.764818163908204"><ele>319.0</ele><time>2026-04-05T07:04:18Z</time></trkpt><trkpt lat="45.722347962592984" lon="9.76476302576983"><ele>319.0</ele><time>2026-04-05T07:04:19Z</time></trkpt><trkpt lat="45.7224149312385" lon="9.764710568542343"><ele>319.0</ele><time>2026-04-05T07:04:20Z</time></trkpt><trkpt lat="45.72247182240775" lon="9.764649436797999"><ele>319.0</ele><time>2026-04-05T07:04:21Z</time></trkpt><trkpt lat="45.722531645065565" lon="9.764594044930085"><ele>319.0</ele><time>2026-04-05T07:04:22Z</time></trkpt><trkpt lat="45.72259383901914" lon="9.764532098188853"><ele>319.0</ele><time>2026-04-05T07:04:23Z</time></trkpt><trkpt lat="45.72263969393912" lon="9.76446678932326"><ele>319.0</ele><time>2026-04-05T07:04:24Z</time></trkpt><trkpt lat="45.7226860979412" lon="9.764400929047978"><ele>319.0</ele><time>2026-04-05T07:04:25Z</time></trkpt><trkpt lat="45.72275102173817" lon="9.764359150533934"><ele>319.0</ele><time>2026-04-05T07:04:26Z</time></trkpt><trkpt lat="45.72281305794333" lon="9.76430410679448"><ele>319.0</ele><time>2026-04-05T07:04:27Z</time></trkpt><trkpt lat="45.72287009750982" lon="9.764252443434057"><ele>319.0</ele><time>2026-04-05T07:04:28Z</time></trkpt><trkpt lat="45.72292556990786" lon="9.764194567394215"><ele>318.16666666666663</ele><time>2026-04-05T07:04:29Z</time></trkpt><trkpt lat="45.72297666765623" lon="9.76412966269255"><ele>317.3333333333333</ele><time>2026-04-05T07:04:30Z</time></trkpt><trkpt lat="45.7230271292796" lon="9.764073983398392"><ele>316.5</ele><time>2026-04-05T07:04:31Z</time></trkpt><trkpt lat="45.723079389592485" lon="9.764016026058181"><ele>315.6666666666667</ele><time>2026-04-05T07:04:32Z</time></trkpt><trkpt lat="45.723131122431894" lon="9.763948472636581"><ele>314.83333333333337</ele><time>2026-04-05T07:04:33Z</time></trkpt><trkpt lat="45.72322547789313" lon="9.763825648922511"><ele>314.0</ele><time>2026-04-05T07:04:35Z</time></trkpt><trkpt lat="45.72327419387787" lon="9.763761239298983"><ele>314.0</ele><time>2026-04-05T07:04:36Z</time></trkpt><trkpt lat="45.72336876617792" lon="9.76363819763894"><ele>314.0</ele><time>2026-04-05T07:04:38Z</time></trkpt><trkpt lat="45.72341535659993" lon="9.763567786211828"><ele>314.0</ele><time>2026-04-05T07:04:39Z</time></trkpt><trkpt lat="45.723511255339794" lon="9.763448298622349"><ele>314.0</ele><time>2026-04-05T07:04:41Z</time></trkpt><trkpt lat="45.723556557527466" lon="9.76336915054741"><ele>314.0</ele><time>2026-04-05T07:04:42Z</time></trkpt><trkpt lat="45.723602459982374" lon="9.763307065517228"><ele>314.5</ele><time>2026-04-05T07:04:43Z</time></trkpt><trkpt lat="45.723649110980055" lon="9.76324312449732"><ele>315.0</ele><time>2026-04-05T07:04:44Z</time></trkpt><trkpt lat="45.723701127688386" lon="9.763189480177886"><ele>315.5</ele><time>2026-04-05T07:04:45Z</time></trkpt><trkpt lat="45.72375341785088" lon="9.763136738272387"><ele>316.0</ele><time>2026-04-05T07:04:46Z</time></trkpt><trkpt lat="45.723804843877176" lon="9.763084530700995"><ele>316.5</ele><time>2026-04-05T07:04:47Z</time></trkpt><trkpt lat="45.72386673311421" lon="9.763024114996233"><ele>317.0</ele><time>2026-04-05T07:04:48Z</time></trkpt><trkpt lat="45.723961711351286" lon="9.762917422241603"><ele>317.0</ele><time>2026-04-05T07:04:50Z</time></trkpt><trkpt lat="45.72401788734124" lon="9.762864958362188"><ele>317.0</ele><time>2026-04-05T07:04:51Z</time></trkpt><trkpt lat="45.72411882673137" lon="9.762750590027744"><ele>317.0</ele><time>2026-04-05T07:04:53Z</time></trkpt><trkpt lat="45.724166920430946" lon="9.762690853305825"><ele>317.0</ele><time>2026-04-05T07:04:54Z</time></trkpt><trkpt lat="45.72420858649226" lon="9.76262229161008"><ele>317.0</ele><time>2026-04-05T07:04:55Z</time></trkpt><trkpt lat="45.72425593736558" lon="9.76255219100953"><ele>317.0</ele><time>2026-04-05T07:04:56Z</time></trkpt><trkpt lat="45.72429735735644" lon="9.76248036993791"><ele>316.7142857142857</ele><time>2026-04-05T07:04:57Z</time></trkpt><trkpt lat="45.72433328561081" lon="9.76240133455559"><ele>316.42857142857144</ele><time>2026-04-05T07:04:58Z</time></trkpt><trkpt lat="45.72437025110016" lon="9.762322496054306"><ele>316.1428571428571</ele><time>2026-04-05T07:04:59Z</time></trkpt><trkpt lat="45.72440588554984" lon="9.762241625177753"><ele>315.8571428571429</ele><time>2026-04-05T07:05:00Z</time></trkpt><trkpt lat="45.724440656524074" lon="9.762161615975359"><ele>315.57142857142856</ele><time>2026-04-05T07:05:01Z</time></trkpt><trkpt lat="45.7244687287026" lon="9.762074462767423"><ele>315.2857142857143</ele><time>2026-04-05T07:05:02Z</time></trkpt><trkpt lat="45.724510565150226" lon="9.761989137965044"><ele>315.0</ele><time>2026-04-05T07:05:03Z</time></trkpt><trkpt lat="45.72458139752625" lon="9.761823219232943"><ele>315.0</ele><time>2026-04-05T07:05:05Z</time></trkpt><trkpt lat="45.72465452175609" lon="9.761671973031424"><ele>315.0</ele><time>2026-04-05T07:05:07Z</time></trkpt><trkpt lat="45.72469380663837" lon="9.761598556989329"><ele>315.0</ele><time>2026-04-05T07:05:08Z</time></trkpt><trkpt lat="45.724736883796" lon="9.761528549114297"><ele>315.0</ele><time>2026-04-05T07:05:09Z</time></trkpt><trkpt lat="45.72478452843555" lon="9.761462063038305"><ele>315.0</ele><time>2026-04-05T07:05:10Z</time></trkpt><trkpt lat="45.72482894571091" lon="9.761397221590817"><ele>315.0</ele><time>2026-04-05T07:05:11Z</time></trkpt><trkpt lat="45.72488621003606" lon="9.761344569823521"><ele>315.0</ele><time>2026-04-05T07:05:12Z</time></trkpt><trkpt lat="45.724944531663525" lon="9.761292317444587"><ele>315.0</ele><time>2026-04-05T07:05:13Z</time></trkpt><trkpt lat="45.72500274175012" lon="9.7612492322795"><ele>315.0</ele><time>2026-04-05T07:05:14Z</time></trkpt><trkpt lat="45.72506350492891" lon="9.761210835569134"><ele>315.0</ele><time>2026-04-05T07:05:15Z</time></trkpt><trkpt lat="45.72512677634714" lon="9.761172214317648"><ele>315.0</ele><time>2026-04-05T07:05:16Z</time></trkpt><trkpt lat="45.72518702937878" lon="9.761137996472874"><ele>315.0</ele><time>2026-04-05T07:05:17Z</time></trkpt><trkpt lat="45.725247227963365" lon="9.761096929343221"><ele>315.0</ele><time>2026-04-05T07:05:18Z</time></trkpt><trkpt lat="45.72531093891523" lon="9.76105735337966"><ele>314.0</ele><time>2026-04-05T07:05:19Z</time></trkpt><trkpt lat="45.72537072612153" lon="9.761025902196977"><ele>313.0</ele><time>2026-04-05T07:05:20Z</time></trkpt><trkpt lat="45.72543382338751" lon="9.760996261360841"><ele>312.0</ele><time>2026-04-05T07:05:21Z</time></trkpt><trkpt lat="45.72549956427793" lon="9.7609676631153"><ele>311.0</ele><time>2026-04-05T07:05:22Z</time></trkpt><trkpt lat="45.72562458544485" lon="9.760916909561002"><ele>310.0</ele><time>2026-04-05T07:05:24Z</time></trkpt><trkpt lat="45.72574698459653" lon="9.760868248317259"><ele>310.0</ele><time>2026-04-05T07:05:26Z</time></trkpt><trkpt lat="45.72587147789454" lon="9.760820990310892"><ele>310.0</ele><time>2026-04-05T07:05:28Z</time></trkpt><trkpt lat="45.725934809332614" lon="9.76079513203441"><ele>310.0</ele><time>2026-04-05T07:05:29Z</time></trkpt><trkpt lat="45.72600105333268" lon="9.760765334868607"><ele>310.0</ele><time>2026-04-05T07:05:30Z</time></trkpt><trkpt lat="45.726124801437884" lon="9.760720993730205"><ele>310.0</ele><time>2026-04-05T07:05:32Z</time></trkpt><trkpt lat="45.726245748566605" lon="9.760671134004877"><ele>310.5</ele><time>2026-04-05T07:05:34Z</time></trkpt><trkpt lat="45.726312438488264" lon="9.760643512189601"><ele>311.0</ele><time>2026-04-05T07:05:35Z</time></trkpt><trkpt lat="45.72643745116543" lon="9.760591259917728"><ele>311.5</ele><time>2026-04-05T07:05:37Z</time></trkpt><trkpt lat="45.72650054579036" lon="9.76056563710893"><ele>312.0</ele><time>2026-04-05T07:05:38Z</time></trkpt><trkpt lat="45.72656375335904" lon="9.760540897152183"><ele>312.5</ele><time>2026-04-05T07:05:39Z</time></trkpt><trkpt lat="45.72662701323345" lon="9.760513951416636"><ele>313.0</ele><time>2026-04-05T07:05:40Z</time></trkpt><trkpt lat="45.726691710497796" lon="9.760486952965286"><ele>313.0</ele><time>2026-04-05T07:05:41Z</time></trkpt><trkpt lat="45.726753351490636" lon="9.760464152582676"><ele>313.0</ele><time>2026-04-05T07:05:42Z</time></trkpt><trkpt lat="45.726818014262825" lon="9.760440249379961"><ele>313.0</ele><time>2026-04-05T07:05:43Z</time></trkpt><trkpt lat="45.72688380660305" lon="9.76042159227011"><ele>313.0</ele><time>2026-04-05T07:05:44Z</time></trkpt><trkpt lat="45.72694691266632" lon="9.760402033481077"><ele>313.0</ele><time>2026-04-05T07:05:45Z</time></trkpt><trkpt lat="45.727011677933284" lon="9.760384918220993"><ele>313.0</ele><time>2026-04-05T07:05:46Z</time></trkpt><trkpt lat="45.727074843579864" lon="9.76037401508708"><ele>313.0</ele><time>2026-04-05T07:05:47Z</time></trkpt><trkpt lat="45.72714054615488" lon="9.760362589022167"><ele>312.57142857142856</ele><time>2026-04-05T07:05:48Z</time></trkpt><trkpt lat="45.72720462162405" lon="9.760345034164141"><ele>312.14285714285717</ele><time>2026-04-05T07:05:49Z</time></trkpt><trkpt lat="45.72726906710224" lon="9.760323325792212"><ele>311.7142857142857</ele><time>2026-04-05T07:05:50Z</time></trkpt><trkpt lat="45.727331190920665" lon="9.760302132844123"><ele>311.2857142857143</ele><time>2026-04-05T07:05:51Z</time></trkpt><trkpt lat="45.72739604335243" lon="9.76027724905206"><ele>310.85714285714283</ele><time>2026-04-05T07:05:52Z</time></trkpt><trkpt lat="45.72745881413206" lon="9.760255165734124"><ele>310.42857142857144</ele><time>2026-04-05T07:05:53Z</time></trkpt><trkpt lat="45.727519218711755" lon="9.760218837023864"><ele>310.0</ele><time>2026-04-05T07:05:54Z</time></trkpt><trkpt lat="45.7275802916428" lon="9.760188906597898"><ele>310.0</ele><time>2026-04-05T07:05:55Z</time></trkpt><trkpt lat="45.72764106270035" lon="9.76016037029979"><ele>310.0</ele><time>2026-04-05T07:05:56Z</time></trkpt><trkpt lat="45.72770468045864" lon="9.760130218643857"><ele>310.0</ele><time>2026-04-05T07:05:57Z</time></trkpt><trkpt lat="45.72776256764279" lon="9.760089710818178"><ele>310.0</ele><time>2026-04-05T07:05:58Z</time></trkpt><trkpt lat="45.72788308833196" lon="9.760029800957497"><ele>310.0</ele><time>2026-04-05T07:06:00Z</time></trkpt><trkpt lat="45.72794272423474" lon="9.759995992023613"><ele>310.0</ele><time>2026-04-05T07:06:01Z</time></trkpt><trkpt lat="45.72800331726132" lon="9.75996628308761"><ele>310.0</ele><time>2026-04-05T07:06:02Z</time></trkpt><trkpt lat="45.72806239430554" lon="9.759932790595084"><ele>310.0</ele><time>2026-04-05T07:06:03Z</time></trkpt><trkpt lat="45.72812320241144" lon="9.759903293685802"><ele>310.0</ele><time>2026-04-05T07:06:04Z</time></trkpt><trkpt lat="45.72818078676628" lon="9.759866801567647"><ele>310.0</ele><time>2026-04-05T07:06:05Z</time></trkpt><trkpt lat="45.72830192528411" lon="9.759811430166051"><ele>310.0</ele><time>2026-04-05T07:06:07Z</time></trkpt><trkpt lat="45.72836261875019" lon="9.759772100137267"><ele>310.0</ele><time>2026-04-05T07:06:08Z</time></trkpt><trkpt lat="45.728423043008554" lon="9.75974067651015"><ele>310.0</ele><time>2026-04-05T07:06:09Z</time></trkpt><trkpt lat="45.72848196659904" lon="9.759708926158305"><ele>310.0</ele><time>2026-04-05T07:06:10Z</time></trkpt><trkpt lat="45.72854331980004" lon="9.759678465493248"><ele>310.0</ele><time>2026-04-05T07:06:11Z</time></trkpt><trkpt lat="45.7286015470306" lon="9.759643602671623"><ele>310.0</ele><time>2026-04-05T07:06:12Z</time></trkpt><trkpt lat="45.72866201809821" lon="9.759613059705583"><ele>310.0</ele><time>2026-04-05T07:06:13Z</time></trkpt><trkpt lat="45.72878139830638" lon="9.759549026235938"><ele>310.0</ele><time>2026-04-05T07:06:15Z</time></trkpt><trkpt lat="45.72884100562289" lon="9.759515062189028"><ele>310.0</ele><time>2026-04-05T07:06:16Z</time></trkpt><trkpt lat="45.72890536826972" lon="9.759485191183819"><ele>310.66666666666663</ele><time>2026-04-05T07:06:17Z</time></trkpt><trkpt lat="45.72902697642151" lon="9.759433744283424"><ele>311.3333333333333</ele><time>2026-04-05T07:06:19Z</time></trkpt><trkpt lat="45.72909067357231" lon="9.759421585292676"><ele>312.0</ele><time>2026-04-05T07:06:20Z</time></trkpt><trkpt lat="45.729155498728474" lon="9.759402684046954"><ele>312.6666666666667</ele><time>2026-04-05T07:06:21Z</time></trkpt><trkpt lat="45.72921837830289" lon="9.759394956855482"><ele>313.33333333333337</ele><time>2026-04-05T07:06:22Z</time></trkpt><trkpt lat="45.72934445666409" lon="9.759381475549516"><ele>314.0</ele><time>2026-04-05T07:06:24Z</time></trkpt><trkpt lat="45.72947123365482" lon="9.759367175070382"><ele>314.2</ele><time>2026-04-05T07:06:26Z</time></trkpt><trkpt lat="45.729598236988565" lon="9.759377869744132"><ele>314.4</ele><time>2026-04-05T07:06:28Z</time></trkpt><trkpt lat="45.72966486526534" lon="9.759376867914867"><ele>314.6</ele><time>2026-04-05T07:06:29Z</time></trkpt><trkpt lat="45.729729012693944" lon="9.759362856223188"><ele>314.8</ele><time>2026-04-05T07:06:30Z</time></trkpt><trkpt lat="45.729857929336696" lon="9.759357606312616"><ele>315.0</ele><time>2026-04-05T07:06:32Z</time></trkpt><trkpt lat="45.7299814369799" lon="9.759341523224704"><ele>313.5</ele><time>2026-04-05T07:06:34Z</time></trkpt><trkpt lat="45.73010804544925" lon="9.75932940453822"><ele>312.0</ele><time>2026-04-05T07:06:36Z</time></trkpt><trkpt lat="45.73017243016146" lon="9.759314174628893"><ele>310.5</ele><time>2026-04-05T07:06:37Z</time></trkpt><trkpt lat="45.73023585796267" lon="9.759300275578738"><ele>309.0</ele><time>2026-04-05T07:06:38Z</time></trkpt><trkpt lat="45.73030043788264" lon="9.759290212291994"><ele>307.5</ele><time>2026-04-05T07:06:39Z</time></trkpt><trkpt lat="45.73036544025025" lon="9.759273559671866"><ele>306.0</ele><time>2026-04-05T07:06:40Z</time></trkpt><trkpt lat="45.730434619607024" lon="9.759259810785206"><ele>306.0</ele><time>2026-04-05T07:06:41Z</time></trkpt><trkpt lat="45.730498832743685" lon="9.759240016532429"><ele>306.0</ele><time>2026-04-05T07:06:42Z</time></trkpt><trkpt lat="45.73056270197055" lon="9.759221539850907"><ele>306.0</ele><time>2026-04-05T07:06:43Z</time></trkpt><trkpt lat="45.73062467739781" lon="9.759197024210643"><ele>306.0</ele><time>2026-04-05T07:06:44Z</time></trkpt><trkpt lat="45.73073962153342" lon="9.759136415038148"><ele>306.0</ele><time>2026-04-05T07:06:46Z</time></trkpt><trkpt lat="45.730804010978154" lon="9.759099158821375"><ele>306.0</ele><time>2026-04-05T07:06:47Z</time></trkpt><trkpt lat="45.730863075377485" lon="9.759056848430761"><ele>306.0</ele><time>2026-04-05T07:06:48Z</time></trkpt><trkpt lat="45.73092363028532" lon="9.759012816768095"><ele>306.0</ele><time>2026-04-05T07:06:49Z</time></trkpt><trkpt lat="45.73098355440568" lon="9.758966026534914"><ele>306.0</ele><time>2026-04-05T07:06:50Z</time></trkpt><trkpt lat="45.73104677660973" lon="9.75892553724523"><ele>306.0</ele><time>2026-04-05T07:06:51Z</time></trkpt><trkpt lat="45.7311188657852" lon="9.758892981570744"><ele>306.0</ele><time>2026-04-05T07:06:52Z</time></trkpt><trkpt lat="45.731192280483555" lon="9.758865305463981"><ele>306.0</ele><time>2026-04-05T07:06:53Z</time></trkpt><trkpt lat="45.73126575856767" lon="9.758849670746972"><ele>306.0</ele><time>2026-04-05T07:06:54Z</time></trkpt><trkpt lat="45.73133251622212" lon="9.758829774994906"><ele>306.0</ele><time>2026-04-05T07:06:55Z</time></trkpt><trkpt lat="45.731400051929754" lon="9.758750847476522"><ele>306.0</ele><time>2026-04-05T07:06:57Z</time></trkpt><trkpt lat="45.731425487869075" lon="9.75861403585125"><ele>306.0</ele><time>2026-04-05T07:06:59Z</time></trkpt><trkpt lat="45.731411587578556" lon="9.758462243995824"><ele>306.0</ele><time>2026-04-05T07:07:01Z</time></trkpt><trkpt lat="45.73143152779872" lon="9.758347342197943"><ele>306.0</ele><time>2026-04-05T07:07:03Z</time></trkpt><trkpt lat="45.731531999212194" lon="9.758294183481503"><ele>306.0</ele><time>2026-04-05T07:07:05Z</time></trkpt><trkpt lat="45.731618545969255" lon="9.758221126540185"><ele>306.0</ele><time>2026-04-05T07:07:07Z</time></trkpt><trkpt lat="45.731674661834404" lon="9.758165314672928"><ele>306.0</ele><time>2026-04-05T07:07:10Z</time></trkpt><trkpt lat="45.73176355863119" lon="9.758077442198582"><ele>306.0</ele><time>2026-04-05T07:07:14Z</time></trkpt><trkpt lat="45.73184192935834" lon="9.75804339737755"><ele>306.0</ele><time>2026-04-05T07:07:15Z</time></trkpt><trkpt lat="45.73190630276984" lon="9.758004441128707"><ele>306.0</ele><time>2026-04-05T07:07:16Z</time></trkpt><trkpt lat="45.731964658733666" lon="9.757954926199272"><ele>306.0</ele><time>2026-04-05T07:07:17Z</time></trkpt><trkpt lat="45.732015693340465" lon="9.757892989314266"><ele>306.0</ele><time>2026-04-05T07:07:18Z</time></trkpt><trkpt lat="45.732067849176644" lon="9.757830640271095"><ele>306.0</ele><time>2026-04-05T07:07:19Z</time></trkpt><trkpt lat="45.73216318956992" lon="9.757735234015765"><ele>306.0</ele><time>2026-04-05T07:07:21Z</time></trkpt><trkpt lat="45.73222466616317" lon="9.757713418887791"><ele>306.0</ele><time>2026-04-05T07:07:22Z</time></trkpt><trkpt lat="45.732339366186835" lon="9.757676157762774"><ele>306.0</ele><time>2026-04-05T07:07:24Z</time></trkpt><trkpt lat="45.732449812584406" lon="9.757614733999349"><ele>306.0</ele><time>2026-04-05T07:07:26Z</time></trkpt><trkpt lat="45.732565554778006" lon="9.757560560977291"><ele>306.0</ele><time>2026-04-05T07:07:28Z</time></trkpt><trkpt lat="45.732628791382865" lon="9.757535567809095"><ele>306.0</ele><time>2026-04-05T07:07:29Z</time></trkpt><trkpt lat="45.73269203889569" lon="9.757512667563589"><ele>306.0</ele><time>2026-04-05T07:07:30Z</time></trkpt><trkpt lat="45.732759622119204" lon="9.757488376366965"><ele>306.0</ele><time>2026-04-05T07:07:31Z</time></trkpt><trkpt lat="45.732828320612796" lon="9.757465172349315"><ele>306.0</ele><time>2026-04-05T07:07:32Z</time></trkpt><trkpt lat="45.73289408624419" lon="9.757443061477643"><ele>305.42857142857144</ele><time>2026-04-05T07:07:33Z</time></trkpt><trkpt lat="45.73296775769436" lon="9.757424265991222"><ele>304.8571428571429</ele><time>2026-04-05T07:07:34Z</time></trkpt><trkpt lat="45.733042555098876" lon="9.757402758981"><ele>304.28571428571433</ele><time>2026-04-05T07:07:35Z</time></trkpt><trkpt lat="45.73310788105876" lon="9.757372214606429"><ele>303.7142857142857</ele><time>2026-04-05T07:07:36Z</time></trkpt><trkpt lat="45.733181408978595" lon="9.757326851632454"><ele>303.14285714285717</ele><time>2026-04-05T07:07:37Z</time></trkpt><trkpt lat="45.733233381617744" lon="9.757268766775553"><ele>302.5714285714286</ele><time>2026-04-05T07:07:38Z</time></trkpt><trkpt lat="45.73328695065117" lon="9.757202050622412"><ele>302.0</ele><time>2026-04-05T07:07:39Z</time></trkpt><trkpt lat="45.733367956701926" lon="9.757063862508293"><ele>302.0</ele><time>2026-04-05T07:07:41Z</time></trkpt><trkpt lat="45.73344448110325" lon="9.756962142040457"><ele>302.0</ele><time>2026-04-05T07:07:43Z</time></trkpt><trkpt lat="45.73351296421062" lon="9.756940857723391"><ele>302.0</ele><time>2026-04-05T07:07:44Z</time></trkpt><trkpt lat="45.733576053116934" lon="9.756915706150464"><ele>302.0</ele><time>2026-04-05T07:07:45Z</time></trkpt><trkpt lat="45.73369660086744" lon="9.756846355859315"><ele>302.0</ele><time>2026-04-05T07:07:47Z</time></trkpt><trkpt lat="45.73381069527114" lon="9.756773565044384"><ele>302.0</ele><time>2026-04-05T07:07:49Z</time></trkpt><trkpt lat="45.73386871207448" lon="9.756737711210848"><ele>302.0</ele><time>2026-04-05T07:07:50Z</time></trkpt><trkpt lat="45.733932048693546" lon="9.756708170409611"><ele>302.0</ele><time>2026-04-05T07:07:51Z</time></trkpt><trkpt lat="45.73399298570384" lon="9.756683304048988"><ele>302.0</ele><time>2026-04-05T07:07:52Z</time></trkpt><trkpt lat="45.734107992683256" lon="9.75664206925917"><ele>302.0</ele><time>2026-04-05T07:07:54Z</time></trkpt><trkpt lat="45.734170838845294" lon="9.756608017428492"><ele>302.0</ele><time>2026-04-05T07:07:55Z</time></trkpt><trkpt lat="45.734266434566166" lon="9.756493019009708"><ele>302.0</ele><time>2026-04-05T07:07:57Z</time></trkpt><trkpt lat="45.73428072395566" lon="9.75631128551571"><ele>302.0</ele><time>2026-04-05T07:07:59Z</time></trkpt><trkpt lat="45.73431387917555" lon="9.756144248186414"><ele>302.0</ele><time>2026-04-05T07:08:01Z</time></trkpt><trkpt lat="45.73434975320668" lon="9.75606221239853"><ele>302.0</ele><time>2026-04-05T07:08:02Z</time></trkpt><trkpt lat="45.73440444670785" lon="9.756009542628277"><ele>302.0</ele><time>2026-04-05T07:08:03Z</time></trkpt><trkpt lat="45.73447402615298" lon="9.755977447708547"><ele>300.6</ele><time>2026-04-05T07:08:04Z</time></trkpt><trkpt lat="45.73455360766104" lon="9.755971231603734"><ele>299.2</ele><time>2026-04-05T07:08:05Z</time></trkpt><trkpt lat="45.734673852823484" lon="9.75592649581584"><ele>297.8</ele><time>2026-04-05T07:08:07Z</time></trkpt><trkpt lat="45.73479670106885" lon="9.75588425009014"><ele>296.4</ele><time>2026-04-05T07:08:09Z</time></trkpt><trkpt lat="45.73486057766053" lon="9.75586257018881"><ele>295.0</ele><time>2026-04-05T07:08:10Z</time></trkpt><trkpt lat="45.73498396259161" lon="9.755819297848744"><ele>295.0</ele><time>2026-04-05T07:08:12Z</time></trkpt><trkpt lat="45.73504652043852" lon="9.75579910469112"><ele>295.0</ele><time>2026-04-05T07:08:13Z</time></trkpt><trkpt lat="45.73510672810138" lon="9.755757608664418"><ele>295.0</ele><time>2026-04-05T07:08:14Z</time></trkpt><trkpt lat="45.735158025012474" lon="9.755699224678724"><ele>295.0</ele><time>2026-04-05T07:08:15Z</time></trkpt><trkpt lat="45.73519911335367" lon="9.75562646588509"><ele>295.0</ele><time>2026-04-05T07:08:16Z</time></trkpt><trkpt lat="45.73530497397371" lon="9.755534076487299"><ele>295.0</ele><time>2026-04-05T07:08:18Z</time></trkpt><trkpt lat="45.73537116269162" lon="9.755518833960323"><ele>294.3333333333333</ele><time>2026-04-05T07:08:19Z</time></trkpt><trkpt lat="45.7354335675945" lon="9.755541637734373"><ele>293.66666666666663</ele><time>2026-04-05T07:08:20Z</time></trkpt><trkpt lat="45.73554549197829" lon="9.755540390661958"><ele>293.0</ele><time>2026-04-05T07:08:22Z</time></trkpt><trkpt lat="45.73560332465103" lon="9.755453026550946"><ele>292.3333333333333</ele><time>2026-04-05T07:08:23Z</time></trkpt><trkpt lat="45.735685496692334" lon="9.755381649755261"><ele>291.6666666666667</ele><time>2026-04-05T07:08:25Z</time></trkpt><trkpt lat="45.73575263239744" lon="9.75544520500984"><ele>291.0</ele><time>2026-04-05T07:08:27Z</time></trkpt><trkpt lat="45.73578889411785" lon="9.75552601703357"><ele>291.0</ele><time>2026-04-05T07:08:28Z</time></trkpt><trkpt lat="45.735818579659735" lon="9.75562775926502"><ele>291.0</ele><time>2026-04-05T07:08:29Z</time></trkpt><trkpt lat="45.735844656454674" lon="9.755713832355026"><ele>291.0</ele><time>2026-04-05T07:08:30Z</time></trkpt><trkpt lat="45.73588337967491" lon="9.755789918833962"><ele>291.0</ele><time>2026-04-05T07:08:31Z</time></trkpt><trkpt lat="45.73592368677579" lon="9.755875896628588"><ele>291.0</ele><time>2026-04-05T07:08:32Z</time></trkpt><trkpt lat="45.7359573855234" lon="9.75595657163419"><ele>291.0</ele><time>2026-04-05T07:08:33Z</time></trkpt><trkpt lat="45.73599909881616" lon="9.756036157735824"><ele>291.0</ele><time>2026-04-05T07:08:34Z</time></trkpt><trkpt lat="45.73604231659254" lon="9.756118852607285"><ele>291.1428571428571</ele><time>2026-04-05T07:08:35Z</time></trkpt><trkpt lat="45.736082699207" lon="9.756193722683253"><ele>291.2857142857143</ele><time>2026-04-05T07:08:36Z</time></trkpt><trkpt lat="45.73614267857146" lon="9.756274212652357"><ele>291.42857142857144</ele><time>2026-04-05T07:08:37Z</time></trkpt><trkpt lat="45.73618419038552" lon="9.756342022963937"><ele>291.57142857142856</ele><time>2026-04-05T07:08:38Z</time></trkpt><trkpt lat="45.736238322102544" lon="9.756407771172418"><ele>291.7142857142857</ele><time>2026-04-05T07:08:39Z</time></trkpt><trkpt lat="45.73629517459274" lon="9.756475709934653"><ele>291.85714285714283</ele><time>2026-04-05T07:08:40Z</time></trkpt><trkpt lat="45.73634487316428" lon="9.756547999894387"><ele>292.0</ele><time>2026-04-05T07:08:41Z</time></trkpt><trkpt lat="45.73640280891498" lon="9.756622631497615"><ele>292.0</ele><time>2026-04-05T07:08:42Z</time></trkpt><trkpt lat="45.73645805606597" lon="9.756693192725015"><ele>292.0</ele><time>2026-04-05T07:08:43Z</time></trkpt><trkpt lat="45.73651293477037" lon="9.756760707736612"><ele>292.0</ele><time>2026-04-05T07:08:44Z</time></trkpt><trkpt lat="45.73656769987497" lon="9.756833706331236"><ele>292.0</ele><time>2026-04-05T07:08:45Z</time></trkpt><trkpt lat="45.736617650464666" lon="9.756907844195753"><ele>292.0</ele><time>2026-04-05T07:08:46Z</time></trkpt><trkpt lat="45.73666342245089" lon="9.756980848610919"><ele>292.0</ele><time>2026-04-05T07:08:47Z</time></trkpt><trkpt lat="45.736709577055336" lon="9.757059566616753"><ele>292.0</ele><time>2026-04-05T07:08:48Z</time></trkpt><trkpt lat="45.736741990850035" lon="9.757140897159031"><ele>292.0</ele><time>2026-04-05T07:08:49Z</time></trkpt><trkpt lat="45.73677273005463" lon="9.757228513646824"><ele>292.0</ele><time>2026-04-05T07:08:50Z</time></trkpt><trkpt lat="45.73679461192584" lon="9.757315755903932"><ele>292.0</ele><time>2026-04-05T07:08:51Z</time></trkpt><trkpt lat="45.73682117483373" lon="9.757403843779782"><ele>292.0</ele><time>2026-04-05T07:08:52Z</time></trkpt><trkpt lat="45.73687551888576" lon="9.75756549185735"><ele>292.0</ele><time>2026-04-05T07:08:54Z</time></trkpt><trkpt lat="45.73690048599489" lon="9.757654130792366"><ele>292.0</ele><time>2026-04-05T07:08:55Z</time></trkpt><trkpt lat="45.73695597968455" lon="9.757813913376395"><ele>292.5</ele><time>2026-04-05T07:08:57Z</time></trkpt><trkpt lat="45.73698326937995" lon="9.757898715524815"><ele>293.0</ele><time>2026-04-05T07:08:58Z</time></trkpt><trkpt lat="45.73702499702561" lon="9.75797150273765"><ele>293.5</ele><time>2026-04-05T07:08:59Z</time></trkpt><trkpt lat="45.73705196545176" lon="9.758056650505507"><ele>294.0</ele><time>2026-04-05T07:09:00Z</time></trkpt><trkpt lat="45.73707615143287" lon="9.758140506382885"><ele>294.5</ele><time>2026-04-05T07:09:01Z</time></trkpt><trkpt lat="45.73714555207768" lon="9.758286660051468"><ele>295.0</ele><time>2026-04-05T07:09:03Z</time></trkpt><trkpt lat="45.73717526971398" lon="9.758379394476664"><ele>295.0</ele><time>2026-04-05T07:09:04Z</time></trkpt><trkpt lat="45.737232866920266" lon="9.758530532464931"><ele>295.0</ele><time>2026-04-05T07:09:06Z</time></trkpt><trkpt lat="45.7372619143297" lon="9.758615782858847"><ele>295.0</ele><time>2026-04-05T07:09:07Z</time></trkpt><trkpt lat="45.737323533656465" lon="9.758776813281598"><ele>295.0</ele><time>2026-04-05T07:09:09Z</time></trkpt><trkpt lat="45.737378689370885" lon="9.75892767093484"><ele>295.0</ele><time>2026-04-05T07:09:11Z</time></trkpt><trkpt lat="45.73740871219653" lon="9.759012886659356"><ele>294.8</ele><time>2026-04-05T07:09:12Z</time></trkpt><trkpt lat="45.737458400414035" lon="9.759167880548619"><ele>294.6</ele><time>2026-04-05T07:09:14Z</time></trkpt><trkpt lat="45.73748367916971" lon="9.759253059679418"><ele>294.4</ele><time>2026-04-05T07:09:15Z</time></trkpt><trkpt lat="45.7375355540699" lon="9.759416377878456"><ele>294.2</ele><time>2026-04-05T07:09:17Z</time></trkpt><trkpt lat="45.73759166782721" lon="9.759570424034749"><ele>294.0</ele><time>2026-04-05T07:09:19Z</time></trkpt><trkpt lat="45.73761854019299" lon="9.759662066048447"><ele>293.8333333333333</ele><time>2026-04-05T07:09:20Z</time></trkpt><trkpt lat="45.73765312843107" lon="9.759826861869763"><ele>293.6666666666667</ele><time>2026-04-05T07:09:22Z</time></trkpt><trkpt lat="45.73768801722401" lon="9.759902143878596"><ele>293.5</ele><time>2026-04-05T07:09:23Z</time></trkpt><trkpt lat="45.73771375949382" lon="9.759987747918949"><ele>293.33333333333337</ele><time>2026-04-05T07:09:24Z</time></trkpt><trkpt lat="45.737739639893455" lon="9.760071002688457"><ele>293.1666666666667</ele><time>2026-04-05T07:09:25Z</time></trkpt><trkpt lat="45.73776123872911" lon="9.76015584653233"><ele>293.0</ele><time>2026-04-05T07:09:26Z</time></trkpt><trkpt lat="45.737797429201436" lon="9.760323945406421"><ele>292.8</ele><time>2026-04-05T07:09:28Z</time></trkpt><trkpt lat="45.737833698410114" lon="9.76049314248929"><ele>292.6</ele><time>2026-04-05T07:09:30Z</time></trkpt><trkpt lat="45.73787132752278" lon="9.760656915996556"><ele>292.4</ele><time>2026-04-05T07:09:32Z</time></trkpt><trkpt lat="45.73788959441076" lon="9.760744346960703"><ele>292.2</ele><time>2026-04-05T07:09:33Z</time></trkpt><trkpt lat="45.73791959687138" lon="9.760914923180747"><ele>292.0</ele><time>2026-04-05T07:09:35Z</time></trkpt><trkpt lat="45.73794011655868" lon="9.761093243634425"><ele>292.0</ele><time>2026-04-05T07:09:37Z</time></trkpt><trkpt lat="45.7379157777555" lon="9.761257812153616"><ele>292.0</ele><time>2026-04-05T07:09:39Z</time></trkpt><trkpt lat="45.73791231571436" lon="9.761359337981936"><ele>292.0</ele><time>2026-04-05T07:09:40Z</time></trkpt><trkpt lat="45.73789056483973" lon="9.761530176660688"><ele>292.0</ele><time>2026-04-05T07:09:42Z</time></trkpt><trkpt lat="45.737899584296294" lon="9.76170909704526"><ele>292.0</ele><time>2026-04-05T07:09:44Z</time></trkpt><trkpt lat="45.737911936232756" lon="9.761800168103534"><ele>292.0</ele><time>2026-04-05T07:09:45Z</time></trkpt><trkpt lat="45.73792998319896" lon="9.761888711982165"><ele>292.0</ele><time>2026-04-05T07:09:46Z</time></trkpt><trkpt lat="45.737930366143" lon="9.76203258303448"><ele>292.0</ele><time>2026-04-05T07:09:48Z</time></trkpt><trkpt lat="45.73784286904992" lon="9.762059422762075"><ele>292.0</ele><time>2026-04-05T07:09:50Z</time></trkpt><trkpt lat="45.73779797503545" lon="9.762146790532787"><ele>292.0</ele><time>2026-04-05T07:09:52Z</time></trkpt><trkpt lat="45.73782590845547" lon="9.762239763119865"><ele>292.0</ele><time>2026-04-05T07:09:53Z</time></trkpt><trkpt lat="45.73784831404113" lon="9.762339457951903"><ele>292.0</ele><time>2026-04-05T07:09:54Z</time></trkpt><trkpt lat="45.73785960581916" lon="9.762435619899351"><ele>292.0</ele><time>2026-04-05T07:09:55Z</time></trkpt><trkpt lat="45.737871452322324" lon="9.762527244261051"><ele>292.0</ele><time>2026-04-05T07:09:56Z</time></trkpt><trkpt lat="45.737886938634624" lon="9.76261907166923"><ele>292.0</ele><time>2026-04-05T07:09:57Z</time></trkpt><trkpt lat="45.737906006004216" lon="9.762705384873279"><ele>292.0</ele><time>2026-04-05T07:09:58Z</time></trkpt><trkpt lat="45.73793674067577" lon="9.762883002459452"><ele>292.0</ele><time>2026-04-05T07:10:00Z</time></trkpt><trkpt lat="45.737969664411224" lon="9.763054979682298"><ele>292.3333333333333</ele><time>2026-04-05T07:10:02Z</time></trkpt><trkpt lat="45.73799144957931" lon="9.763141818659962"><ele>292.66666666666663</ele><time>2026-04-05T07:10:03Z</time></trkpt><trkpt lat="45.738015698632914" lon="9.763228461960761"><ele>293.0</ele><time>2026-04-05T07:10:04Z</time></trkpt><trkpt lat="45.73805881809727" lon="9.763391354869082"><ele>293.3333333333333</ele><time>2026-04-05T07:10:06Z</time></trkpt><trkpt lat="45.73808288784853" lon="9.763480408633338"><ele>293.6666666666667</ele><time>2026-04-05T07:10:07Z</time></trkpt><trkpt lat="45.73812836559072" lon="9.763637218278621"><ele>294.0</ele><time>2026-04-05T07:10:09Z</time></trkpt><trkpt lat="45.73818315183597" lon="9.76379863301227"><ele>294.7142857142857</ele><time>2026-04-05T07:10:11Z</time></trkpt><trkpt lat="45.73820613441707" lon="9.763882777694702"><ele>295.42857142857144</ele><time>2026-04-05T07:10:12Z</time></trkpt><trkpt lat="45.73823121729847" lon="9.763967477627356"><ele>296.1428571428571</ele><time>2026-04-05T07:10:13Z</time></trkpt><trkpt lat="45.738263358662294" lon="9.764049926525967"><ele>296.8571428571429</ele><time>2026-04-05T07:10:14Z</time></trkpt><trkpt lat="45.738295743840986" lon="9.764130957563596"><ele>297.57142857142856</ele><time>2026-04-05T07:10:15Z</time></trkpt><trkpt lat="45.73832791347521" lon="9.76421005961218"><ele>298.2857142857143</ele><time>2026-04-05T07:10:16Z</time></trkpt><trkpt lat="45.73836440896888" lon="9.764288112260507"><ele>299.0</ele><time>2026-04-05T07:10:17Z</time></trkpt><trkpt lat="45.73841092396217" lon="9.764452141502714"><ele>298.4</ele><time>2026-04-05T07:10:19Z</time></trkpt><trkpt lat="45.73845225681984" lon="9.764605172921202"><ele>297.79999999999995</ele><time>2026-04-05T07:10:21Z</time></trkpt><trkpt lat="45.738481652787364" lon="9.764690217527056"><ele>297.20000000000005</ele><time>2026-04-05T07:10:22Z</time></trkpt><trkpt lat="45.738526147382984" lon="9.764841454794572"><ele>296.6</ele><time>2026-04-05T07:10:24Z</time></trkpt><trkpt lat="45.738574046093206" lon="9.765004721937832"><ele>296.0</ele><time>2026-04-05T07:10:26Z</time></trkpt><trkpt lat="45.73859038278355" lon="9.765098406437593"><ele>296.0</ele><time>2026-04-05T07:10:28Z</time></trkpt><trkpt lat="45.73870305169621" lon="9.76513970934691"><ele>296.0</ele><time>2026-04-05T07:10:30Z</time></trkpt><trkpt lat="45.73877128310552" lon="9.765127703267764"><ele>296.0</ele><time>2026-04-05T07:10:31Z</time></trkpt><trkpt lat="45.73883839550713" lon="9.765116637473756"><ele>296.0</ele><time>2026-04-05T07:10:32Z</time></trkpt><trkpt lat="45.738908330244826" lon="9.765129856985645"><ele>296.0</ele><time>2026-04-05T07:10:33Z</time></trkpt><trkpt lat="45.739029531302315" lon="9.765169566140269"><ele>296.0</ele><time>2026-04-05T07:10:35Z</time></trkpt><trkpt lat="45.739091485036006" lon="9.76519695902281"><ele>296.40000000000003</ele><time>2026-04-05T07:10:36Z</time></trkpt><trkpt lat="45.73915698600183" lon="9.765217754489568"><ele>296.8</ele><time>2026-04-05T07:10:37Z</time></trkpt><trkpt lat="45.73921963025947" lon="9.765231604371962"><ele>297.20000000000005</ele><time>2026-04-05T07:10:38Z</time></trkpt><trkpt lat="45.739343518729804" lon="9.76525401872816"><ele>297.6</ele><time>2026-04-05T07:10:40Z</time></trkpt><trkpt lat="45.7394699913298" lon="9.76527062217116"><ele>298.0</ele><time>2026-04-05T07:10:42Z</time></trkpt><trkpt lat="45.73959531898121" lon="9.765291718871735"><ele>298.0</ele><time>2026-04-05T07:10:44Z</time></trkpt><trkpt lat="45.73971845984253" lon="9.765332799318884"><ele>298.0</ele><time>2026-04-05T07:10:46Z</time></trkpt><trkpt lat="45.73978275207463" lon="9.7653589995469"><ele>298.0</ele><time>2026-04-05T07:10:47Z</time></trkpt><trkpt lat="45.73984095622373" lon="9.765400406401271"><ele>298.0</ele><time>2026-04-05T07:10:48Z</time></trkpt><trkpt lat="45.73990849500525" lon="9.765437695148531"><ele>298.0</ele><time>2026-04-05T07:10:49Z</time></trkpt><trkpt lat="45.73997209804942" lon="9.765439740923092"><ele>298.0</ele><time>2026-04-05T07:10:50Z</time></trkpt><trkpt lat="45.74003801141133" lon="9.765450685575908"><ele>298.0</ele><time>2026-04-05T07:10:51Z</time></trkpt><trkpt lat="45.74016540254922" lon="9.765469720010286"><ele>298.0</ele><time>2026-04-05T07:10:53Z</time></trkpt><trkpt lat="45.740291913378336" lon="9.765498904235482"><ele>298.0</ele><time>2026-04-05T07:10:55Z</time></trkpt><trkpt lat="45.740345352807545" lon="9.765552296336258"><ele>298.0</ele><time>2026-04-05T07:10:56Z</time></trkpt><trkpt lat="45.740444821742145" lon="9.765657331524022"><ele>298.0</ele><time>2026-04-05T07:10:58Z</time></trkpt><trkpt lat="45.740497257898824" lon="9.765713717736448"><ele>298.4</ele><time>2026-04-05T07:10:59Z</time></trkpt><trkpt lat="45.74060577723085" lon="9.765805896857403"><ele>298.8</ele><time>2026-04-05T07:11:01Z</time></trkpt><trkpt lat="45.74066427931597" lon="9.765852683187306"><ele>299.2</ele><time>2026-04-05T07:11:02Z</time></trkpt><trkpt lat="45.740763414345224" lon="9.76595803275056"><ele>299.6</ele><time>2026-04-05T07:11:04Z</time></trkpt><trkpt lat="45.740865316962356" lon="9.766063450477692"><ele>300.0</ele><time>2026-04-05T07:11:06Z</time></trkpt><trkpt lat="45.74091546647762" lon="9.76611866371986"><ele>300.0</ele><time>2026-04-05T07:11:07Z</time></trkpt><trkpt lat="45.74101168263903" lon="9.766230729484072"><ele>300.0</ele><time>2026-04-05T07:11:09Z</time></trkpt><trkpt lat="45.74110839663874" lon="9.766345988684233"><ele>300.0</ele><time>2026-04-05T07:11:11Z</time></trkpt><trkpt lat="45.74116171322472" lon="9.766405293774177"><ele>300.0</ele><time>2026-04-05T07:11:12Z</time></trkpt><trkpt lat="45.74125904753884" lon="9.766507291755895"><ele>300.0</ele><time>2026-04-05T07:11:14Z</time></trkpt><trkpt lat="45.741311126686824" lon="9.766562999201785"><ele>300.0</ele><time>2026-04-05T07:11:15Z</time></trkpt><trkpt lat="45.741358163781584" lon="9.766626152362102"><ele>300.0</ele><time>2026-04-05T07:11:16Z</time></trkpt><trkpt lat="45.74144928939254" lon="9.766746385981781"><ele>300.0</ele><time>2026-04-05T07:11:18Z</time></trkpt><trkpt lat="45.74153898296749" lon="9.766869190586192"><ele>300.0</ele><time>2026-04-05T07:11:20Z</time></trkpt><trkpt lat="45.741621542615114" lon="9.767000359914192"><ele>300.0</ele><time>2026-04-05T07:11:22Z</time></trkpt><trkpt lat="45.74166504096678" lon="9.767066999094002"><ele>299.8333333333333</ele><time>2026-04-05T07:11:23Z</time></trkpt><trkpt lat="45.74175999567235" lon="9.767185598736821"><ele>299.6666666666667</ele><time>2026-04-05T07:11:25Z</time></trkpt><trkpt lat="45.74180467793708" lon="9.767256729943718"><ele>299.5</ele><time>2026-04-05T07:11:26Z</time></trkpt><trkpt lat="45.7418450359724" lon="9.76732901973337"><ele>299.33333333333337</ele><time>2026-04-05T07:11:27Z</time></trkpt><trkpt lat="45.741911835231285" lon="9.767483450941219"><ele>299.1666666666667</ele><time>2026-04-05T07:11:29Z</time></trkpt><trkpt lat="45.741936947800184" lon="9.767568689412146"><ele>299.0</ele><time>2026-04-05T07:11:30Z</time></trkpt><trkpt lat="45.7419576905142" lon="9.767656082016158"><ele>299.33333333333337</ele><time>2026-04-05T07:11:31Z</time></trkpt><trkpt lat="45.741979683340546" lon="9.767741813544031"><ele>299.6666666666667</ele><time>2026-04-05T07:11:32Z</time></trkpt><trkpt lat="45.742030646939135" lon="9.767910171865022"><ele>300.0</ele><time>2026-04-05T07:11:34Z</time></trkpt><trkpt lat="45.742058084147736" lon="9.767992590483347"><ele>300.3333333333333</ele><time>2026-04-05T07:11:35Z</time></trkpt><trkpt lat="45.74210490202812" lon="9.768158801472424"><ele>300.66666666666663</ele><time>2026-04-05T07:11:37Z</time></trkpt><trkpt lat="45.74213841376946" lon="9.768235798756361"><ele>301.0</ele><time>2026-04-05T07:11:38Z</time></trkpt><trkpt lat="45.742163387846894" lon="9.76831956694743"><ele>301.0</ele><time>2026-04-05T07:11:39Z</time></trkpt><trkpt lat="45.7422055179369" lon="9.768484321649934"><ele>301.0</ele><time>2026-04-05T07:11:41Z</time></trkpt><trkpt lat="45.742249592616766" lon="9.768652395060462"><ele>301.0</ele><time>2026-04-05T07:11:43Z</time></trkpt><trkpt lat="45.742290207425555" lon="9.768817106855154"><ele>301.0</ele><time>2026-04-05T07:11:45Z</time></trkpt><trkpt lat="45.74230964676725" lon="9.768903061461833"><ele>301.0</ele><time>2026-04-05T07:11:46Z</time></trkpt><trkpt lat="45.7423362646851" lon="9.769075303203222"><ele>301.0</ele><time>2026-04-05T07:11:48Z</time></trkpt><trkpt lat="45.74233634386703" lon="9.769166469429827"><ele>301.0</ele><time>2026-04-05T07:11:49Z</time></trkpt><trkpt lat="45.7423288228978" lon="9.76925953756127"><ele>301.0</ele><time>2026-04-05T07:11:50Z</time></trkpt><trkpt lat="45.74232368880106" lon="9.769353012892052"><ele>301.0</ele><time>2026-04-05T07:11:51Z</time></trkpt><trkpt lat="45.742312495869946" lon="9.769445149262552"><ele>301.0</ele><time>2026-04-05T07:11:52Z</time></trkpt><trkpt lat="45.74230529220291" lon="9.76953903180426"><ele>301.0</ele><time>2026-04-05T07:11:53Z</time></trkpt><trkpt lat="45.74228772208881" lon="9.769714471486687"><ele>301.0</ele><time>2026-04-05T07:11:55Z</time></trkpt><trkpt lat="45.742278755856894" lon="9.769805629092751"><ele>301.0</ele><time>2026-04-05T07:11:56Z</time></trkpt><trkpt lat="45.742271511033344" lon="9.76998415213962"><ele>301.0</ele><time>2026-04-05T07:11:58Z</time></trkpt><trkpt lat="45.74227648602252" lon="9.770160066903804"><ele>301.0</ele><time>2026-04-05T07:12:00Z</time></trkpt><trkpt lat="45.74229333262573" lon="9.770252168165312"><ele>301.0</ele><time>2026-04-05T07:12:01Z</time></trkpt><trkpt lat="45.74235572517022" lon="9.770413145826145"><ele>301.0</ele><time>2026-04-05T07:12:03Z</time></trkpt><trkpt lat="45.74239145404285" lon="9.770490605443873"><ele>300.66666666666663</ele><time>2026-04-05T07:12:04Z</time></trkpt><trkpt lat="45.742426180050245" lon="9.77057177582924"><ele>300.3333333333333</ele><time>2026-04-05T07:12:05Z</time></trkpt><trkpt lat="45.74246523748989" lon="9.770646573224303"><ele>300.0</ele><time>2026-04-05T07:12:06Z</time></trkpt><trkpt lat="45.74250707750723" lon="9.77071468422044"><ele>299.6666666666667</ele><time>2026-04-05T07:12:07Z</time></trkpt><trkpt lat="45.742554846970584" lon="9.770791707245179"><ele>299.33333333333337</ele><time>2026-04-05T07:12:08Z</time></trkpt><trkpt lat="45.742662082820466" lon="9.770880393737812"><ele>299.0</ele><time>2026-04-05T07:12:10Z</time></trkpt><trkpt lat="45.742720311012654" lon="9.770915828031436"><ele>299.0</ele><time>2026-04-05T07:12:11Z</time></trkpt><trkpt lat="45.742784300315584" lon="9.770942747268267"><ele>299.0</ele><time>2026-04-05T07:12:12Z</time></trkpt><trkpt lat="45.74284288429218" lon="9.770987094691165"><ele>299.0</ele><time>2026-04-05T07:12:13Z</time></trkpt><trkpt lat="45.74295232329822" lon="9.771069959412124"><ele>299.0</ele><time>2026-04-05T07:12:15Z</time></trkpt><trkpt lat="45.74300683937391" lon="9.771117225498097"><ele>299.0</ele><time>2026-04-05T07:12:16Z</time></trkpt><trkpt lat="45.743054659410404" lon="9.771176726754813"><ele>299.0</ele><time>2026-04-05T07:12:17Z</time></trkpt><trkpt lat="45.74314615980687" lon="9.771291876906643"><ele>299.4</ele><time>2026-04-05T07:12:19Z</time></trkpt><trkpt lat="45.74320668360604" lon="9.771350287684868"><ele>299.79999999999995</ele><time>2026-04-05T07:12:20Z</time></trkpt><trkpt lat="45.743298325878634" lon="9.771475585740355"><ele>300.20000000000005</ele><time>2026-04-05T07:12:22Z</time></trkpt><trkpt lat="45.743371775973216" lon="9.771615778572022"><ele>300.6</ele><time>2026-04-05T07:12:24Z</time></trkpt><trkpt lat="45.743415530181366" lon="9.771682580124661"><ele>301.0</ele><time>2026-04-05T07:12:25Z</time></trkpt><trkpt lat="45.743460146937934" lon="9.77175601700836"><ele>301.0</ele><time>2026-04-05T07:12:26Z</time></trkpt><trkpt lat="45.743503134234025" lon="9.771824553523045"><ele>301.0</ele><time>2026-04-05T07:12:27Z</time></trkpt><trkpt lat="45.74357923001014" lon="9.771970114541784"><ele>301.0</ele><time>2026-04-05T07:12:29Z</time></trkpt><trkpt lat="45.74367065019939" lon="9.77209700613872"><ele>301.0</ele><time>2026-04-05T07:12:31Z</time></trkpt><trkpt lat="45.74377972651992" lon="9.772196006334923"><ele>301.0</ele><time>2026-04-05T07:12:33Z</time></trkpt><trkpt lat="45.743882027998374" lon="9.77229263832185"><ele>301.75</ele><time>2026-04-05T07:12:35Z</time></trkpt><trkpt lat="45.743981568836496" lon="9.77240601140885"><ele>302.5</ele><time>2026-04-05T07:12:37Z</time></trkpt><trkpt lat="45.7440652267844" lon="9.772528436488738"><ele>303.25</ele><time>2026-04-05T07:12:39Z</time></trkpt><trkpt lat="45.74414139181901" lon="9.772660830051704"><ele>304.0</ele><time>2026-04-05T07:12:41Z</time></trkpt><trkpt lat="45.744233884727706" lon="9.772772101971277"><ele>304.0</ele><time>2026-04-05T07:12:43Z</time></trkpt><trkpt lat="45.74433686028314" lon="9.772861396894113"><ele>304.0</ele><time>2026-04-05T07:12:45Z</time></trkpt><trkpt lat="45.74439343626999" lon="9.772906838413814"><ele>304.0</ele><time>2026-04-05T07:12:46Z</time></trkpt><trkpt lat="45.74450646066149" lon="9.772991312473945"><ele>304.0</ele><time>2026-04-05T07:12:48Z</time></trkpt><trkpt lat="45.744562248569395" lon="9.773033822280972"><ele>304.0</ele><time>2026-04-05T07:12:49Z</time></trkpt><trkpt lat="45.74467074617129" lon="9.773126231051517"><ele>304.0</ele><time>2026-04-05T07:12:51Z</time></trkpt><trkpt lat="45.74472464197989" lon="9.773176829230964"><ele>304.0</ele><time>2026-04-05T07:12:52Z</time></trkpt><trkpt lat="45.744777022343676" lon="9.773232630957285"><ele>304.0</ele><time>2026-04-05T07:12:53Z</time></trkpt><trkpt lat="45.74482836316436" lon="9.77329222997359"><ele>304.0</ele><time>2026-04-05T07:12:54Z</time></trkpt><trkpt lat="45.74493773796369" lon="9.773376347392947"><ele>304.0</ele><time>2026-04-05T07:12:56Z</time></trkpt><trkpt lat="45.74499604080217" lon="9.773413217647539"><ele>304.0</ele><time>2026-04-05T07:12:57Z</time></trkpt><trkpt lat="45.74511316234948" lon="9.773457421603444"><ele>303.75</ele><time>2026-04-05T07:12:59Z</time></trkpt><trkpt lat="45.74523521510492" lon="9.773501755975575"><ele>303.5</ele><time>2026-04-05T07:13:01Z</time></trkpt><trkpt lat="45.74535487859019" lon="9.773545237115911"><ele>303.25</ele><time>2026-04-05T07:13:03Z</time></trkpt><trkpt lat="45.745466788207565" lon="9.77361893653839"><ele>303.0</ele><time>2026-04-05T07:13:05Z</time></trkpt><trkpt lat="45.74558055178059" lon="9.773695364883661"><ele>303.2</ele><time>2026-04-05T07:13:07Z</time></trkpt><trkpt lat="45.74569020882487" lon="9.773783495751557"><ele>303.4</ele><time>2026-04-05T07:13:09Z</time></trkpt><trkpt lat="45.745751852381865" lon="9.773821033289162"><ele>303.59999999999997</ele><time>2026-04-05T07:13:10Z</time></trkpt><trkpt lat="45.74585916855734" lon="9.773909502604349"><ele>303.8</ele><time>2026-04-05T07:13:12Z</time></trkpt><trkpt lat="45.74595450535365" lon="9.774014591718148"><ele>304.0</ele><time>2026-04-05T07:13:14Z</time></trkpt><trkpt lat="45.746053999587296" lon="9.77411981789514"><ele>304.0</ele><time>2026-04-05T07:13:16Z</time></trkpt><trkpt lat="45.74614045928003" lon="9.774250609123765"><ele>304.0</ele><time>2026-04-05T07:13:18Z</time></trkpt><trkpt lat="45.74620944120029" lon="9.774383942431465"><ele>304.0</ele><time>2026-04-05T07:13:20Z</time></trkpt><trkpt lat="45.74628073392135" lon="9.77452865956456"><ele>304.0</ele><time>2026-04-05T07:13:22Z</time></trkpt><trkpt lat="45.74636382656888" lon="9.77466150679498"><ele>304.25</ele><time>2026-04-05T07:13:24Z</time></trkpt><trkpt lat="45.74646099512247" lon="9.774769113054901"><ele>304.5</ele><time>2026-04-05T07:13:26Z</time></trkpt><trkpt lat="45.7465694604472" lon="9.774890807921194"><ele>304.75</ele><time>2026-04-05T07:13:28Z</time></trkpt><trkpt lat="45.74665409152011" lon="9.774999275220656"><ele>305.0</ele><time>2026-04-05T07:13:30Z</time></trkpt><trkpt lat="45.74673951706704" lon="9.77511235419813"><ele>305.0</ele><time>2026-04-05T07:13:32Z</time></trkpt><trkpt lat="45.74677809184015" lon="9.775184365165508"><ele>305.0</ele><time>2026-04-05T07:13:33Z</time></trkpt><trkpt lat="45.74685727420237" lon="9.775320204340543"><ele>305.0</ele><time>2026-04-05T07:13:35Z</time></trkpt><trkpt lat="45.7468963860384" lon="9.775391749402742"><ele>305.0</ele><time>2026-04-05T07:13:36Z</time></trkpt><trkpt lat="45.74692779056237" lon="9.775475161334283"><ele>305.0</ele><time>2026-04-05T07:13:37Z</time></trkpt><trkpt lat="45.74699579997701" lon="9.775617394383929"><ele>305.0</ele><time>2026-04-05T07:13:39Z</time></trkpt><trkpt lat="45.7470660628023" lon="9.775748992038183"><ele>305.2</ele><time>2026-04-05T07:13:41Z</time></trkpt><trkpt lat="45.74711576069619" lon="9.775915111501067"><ele>305.4</ele><time>2026-04-05T07:13:43Z</time></trkpt><trkpt lat="45.74713569486872" lon="9.77608079500482"><ele>305.6</ele><time>2026-04-05T07:13:45Z</time></trkpt><trkpt lat="45.74717628645131" lon="9.776169755206574"><ele>305.8</ele><time>2026-04-05T07:13:46Z</time></trkpt><trkpt lat="45.74720419698141" lon="9.776264874202182"><ele>306.0</ele><time>2026-04-05T07:13:47Z</time></trkpt><trkpt lat="45.747241842244655" lon="9.776408906834474"><ele>306.0</ele><time>2026-04-05T07:13:49Z</time></trkpt><trkpt lat="45.747266333518226" lon="9.776502596986914"><ele>306.0</ele><time>2026-04-05T07:13:50Z</time></trkpt><trkpt lat="45.74730560572117" lon="9.776668219086826"><ele>306.0</ele><time>2026-04-05T07:13:52Z</time></trkpt><trkpt lat="45.7473160702613" lon="9.776758558425403"><ele>306.0</ele><time>2026-04-05T07:13:53Z</time></trkpt><trkpt lat="45.747320368694886" lon="9.77685082870008"><ele>306.0</ele><time>2026-04-05T07:13:54Z</time></trkpt><trkpt lat="45.74731249141366" lon="9.777033576076139"><ele>306.0</ele><time>2026-04-05T07:13:56Z</time></trkpt><trkpt lat="45.74728466475309" lon="9.777202129900772"><ele>305.8</ele><time>2026-04-05T07:13:58Z</time></trkpt><trkpt lat="45.747253112316784" lon="9.777377511661504"><ele>305.6</ele><time>2026-04-05T07:14:00Z</time></trkpt><trkpt lat="45.74722868355703" lon="9.777464536387455"><ele>305.4</ele><time>2026-04-05T07:14:01Z</time></trkpt><trkpt lat="45.7471574735564" lon="9.777614987150216"><ele>305.2</ele><time>2026-04-05T07:14:03Z</time></trkpt><trkpt lat="45.74709824015271" lon="9.777773380888416"><ele>305.0</ele><time>2026-04-05T07:14:05Z</time></trkpt><trkpt lat="45.74708419089337" lon="9.777862764161481"><ele>305.0</ele><time>2026-04-05T07:14:06Z</time></trkpt><trkpt lat="45.747037213799764" lon="9.778023989155988"><ele>305.0</ele><time>2026-04-05T07:14:08Z</time></trkpt><trkpt lat="45.74700611954206" lon="9.778190877796169"><ele>305.0</ele><time>2026-04-05T07:14:10Z</time></trkpt><trkpt lat="45.74698392639379" lon="9.778353756226421"><ele>305.0</ele><time>2026-04-05T07:14:12Z</time></trkpt><trkpt lat="45.74696269855894" lon="9.778521037402916"><ele>305.42857142857144</ele><time>2026-04-05T07:14:14Z</time></trkpt><trkpt lat="45.74696201893089" lon="9.778619645534699"><ele>305.85714285714283</ele><time>2026-04-05T07:14:15Z</time></trkpt><trkpt lat="45.74695517384846" lon="9.77871466573995"><ele>306.2857142857143</ele><time>2026-04-05T07:14:16Z</time></trkpt><trkpt lat="45.74695326133089" lon="9.778807796333911"><ele>306.7142857142857</ele><time>2026-04-05T07:14:17Z</time></trkpt><trkpt lat="45.74695529149876" lon="9.778902940451244"><ele>307.1428571428571</ele><time>2026-04-05T07:14:18Z</time></trkpt><trkpt lat="45.746960634211405" lon="9.778993084902014"><ele>307.57142857142856</ele><time>2026-04-05T07:14:19Z</time></trkpt><trkpt lat="45.746964462634125" lon="9.779085091236194"><ele>308.0</ele><time>2026-04-05T07:14:20Z</time></trkpt><trkpt lat="45.74696673150441" lon="9.779176132016275"><ele>308.0</ele><time>2026-04-05T07:14:21Z</time></trkpt><trkpt lat="45.74696444667269" lon="9.779273156427136"><ele>308.0</ele><time>2026-04-05T07:14:22Z</time></trkpt><trkpt lat="45.746982841800374" lon="9.779445883169238"><ele>308.0</ele><time>2026-04-05T07:14:24Z</time></trkpt><trkpt lat="45.74699183057464" lon="9.779618860723962"><ele>308.0</ele><time>2026-04-05T07:14:26Z</time></trkpt><trkpt lat="45.746999056835875" lon="9.77979839773186"><ele>308.0</ele><time>2026-04-05T07:14:28Z</time></trkpt><trkpt lat="45.74701077928051" lon="9.779974038127113"><ele>308.2</ele><time>2026-04-05T07:14:30Z</time></trkpt><trkpt lat="45.7470263237685" lon="9.780123892064424"><ele>308.4</ele><time>2026-04-05T07:14:32Z</time></trkpt><trkpt lat="45.74704844415991" lon="9.780273357351405"><ele>308.59999999999997</ele><time>2026-04-05T07:14:34Z</time></trkpt><trkpt lat="45.747061703666226" lon="9.780418657730138"><ele>308.8</ele><time>2026-04-05T07:14:36Z</time></trkpt><trkpt lat="45.747052484316974" lon="9.780566698198566"><ele>309.0</ele><time>2026-04-05T07:14:38Z</time></trkpt><trkpt lat="45.74700783307135" lon="9.780704777541148"><ele>309.0</ele><time>2026-04-05T07:14:40Z</time></trkpt><trkpt lat="45.747030908810906" lon="9.780819271782724"><ele>309.0</ele><time>2026-04-05T07:14:42Z</time></trkpt><trkpt lat="45.747110052757165" lon="9.780842743617724"><ele>309.0</ele><time>2026-04-05T07:14:43Z</time></trkpt><trkpt lat="45.74721035793921" lon="9.780954727721786"><ele>309.0</ele><time>2026-04-05T07:14:45Z</time></trkpt><trkpt lat="45.747265674646115" lon="9.781110481832958"><ele>309.0</ele><time>2026-04-05T07:14:47Z</time></trkpt><trkpt lat="45.74731818146544" lon="9.781269807847425"><ele>309.0</ele><time>2026-04-05T07:14:49Z</time></trkpt><trkpt lat="45.74732227941808" lon="9.781436567234081"><ele>309.0</ele><time>2026-04-05T07:14:51Z</time></trkpt><trkpt lat="45.74732446533834" lon="9.781530114000038"><ele>309.0</ele><time>2026-04-05T07:14:52Z</time></trkpt><trkpt lat="45.747359600797935" lon="9.781613082455355"><ele>309.0</ele><time>2026-04-05T07:14:53Z</time></trkpt><trkpt lat="45.74741291162437" lon="9.781685563250583"><ele>309.0</ele><time>2026-04-05T07:14:54Z</time></trkpt><trkpt lat="45.747462826414505" lon="9.781752237798166"><ele>309.0</ele><time>2026-04-05T07:14:55Z</time></trkpt><trkpt lat="45.74751121726066" lon="9.78182280511512"><ele>308.8333333333333</ele><time>2026-04-05T07:14:56Z</time></trkpt><trkpt lat="45.747559258218764" lon="9.781892085450979"><ele>308.6666666666667</ele><time>2026-04-05T07:14:57Z</time></trkpt><trkpt lat="45.74760512594613" lon="9.781961187156483"><ele>308.5</ele><time>2026-04-05T07:14:58Z</time></trkpt><trkpt lat="45.74764327640401" lon="9.782034197298866"><ele>308.33333333333337</ele><time>2026-04-05T07:14:59Z</time></trkpt><trkpt lat="45.74773347255381" lon="9.7821601132232"><ele>308.1666666666667</ele><time>2026-04-05T07:15:01Z</time></trkpt><trkpt lat="45.74777800246799" lon="9.782228700371741"><ele>308.0</ele><time>2026-04-05T07:15:02Z</time></trkpt><trkpt lat="45.74782085734953" lon="9.782299037384972"><ele>308.0</ele><time>2026-04-05T07:15:03Z</time></trkpt><trkpt lat="45.74785948079319" lon="9.782373408476516"><ele>308.0</ele><time>2026-04-05T07:15:04Z</time></trkpt><trkpt lat="45.74791496807373" lon="9.78253413844368"><ele>308.0</ele><time>2026-04-05T07:15:06Z</time></trkpt><trkpt lat="45.74796594035456" lon="9.78270184570281"><ele>308.0</ele><time>2026-04-05T07:15:08Z</time></trkpt><trkpt lat="45.74799626537954" lon="9.782790204075186"><ele>308.0</ele><time>2026-04-05T07:15:09Z</time></trkpt><trkpt lat="45.7480828280523" lon="9.782906689334869"><ele>308.33333333333337</ele><time>2026-04-05T07:15:11Z</time></trkpt><trkpt lat="45.74813132075495" lon="9.782969878369409"><ele>308.6666666666667</ele><time>2026-04-05T07:15:12Z</time></trkpt><trkpt lat="45.74817415765162" lon="9.783040666718904"><ele>309.0</ele><time>2026-04-05T07:15:13Z</time></trkpt><trkpt lat="45.748248918860455" lon="9.7831835237557"><ele>309.3333333333333</ele><time>2026-04-05T07:15:15Z</time></trkpt><trkpt lat="45.74831356910922" lon="9.783332072296933"><ele>309.66666666666663</ele><time>2026-04-05T07:15:17Z</time></trkpt><trkpt lat="45.74834926681312" lon="9.783408000362027"><ele>310.0</ele><time>2026-04-05T07:15:18Z</time></trkpt><trkpt lat="45.74838200199739" lon="9.783487289908194"><ele>310.0</ele><time>2026-04-05T07:15:19Z</time></trkpt><trkpt lat="45.74845770827895" lon="9.78362198770392"><ele>310.0</ele><time>2026-04-05T07:15:21Z</time></trkpt><trkpt lat="45.74849648203732" lon="9.783695729901174"><ele>310.0</ele><time>2026-04-05T07:15:22Z</time></trkpt><trkpt lat="45.74857705246618" lon="9.783831859981364"><ele>310.0</ele><time>2026-04-05T07:15:24Z</time></trkpt><trkpt lat="45.74862847211452" lon="9.783893756419218"><ele>310.0</ele><time>2026-04-05T07:15:25Z</time></trkpt><trkpt lat="45.748684718793385" lon="9.784032298930864"><ele>310.0</ele><time>2026-04-05T07:15:27Z</time></trkpt><trkpt lat="45.74878144738311" lon="9.784164118582439"><ele>310.0</ele><time>2026-04-05T07:15:29Z</time></trkpt><trkpt lat="45.748860612978234" lon="9.784292257203216"><ele>310.0</ele><time>2026-04-05T07:15:31Z</time></trkpt><trkpt lat="45.74890228308852" lon="9.784371202845149"><ele>310.0</ele><time>2026-04-05T07:15:32Z</time></trkpt><trkpt lat="45.74894596097942" lon="9.784440892813505"><ele>310.0</ele><time>2026-04-05T07:15:33Z</time></trkpt><trkpt lat="45.749028517230364" lon="9.784571842624397"><ele>310.16666666666663</ele><time>2026-04-05T07:15:35Z</time></trkpt><trkpt lat="45.749073904669686" lon="9.784638260711391"><ele>310.3333333333333</ele><time>2026-04-05T07:15:36Z</time></trkpt><trkpt lat="45.74912503149444" lon="9.784698796227278"><ele>310.5</ele><time>2026-04-05T07:15:37Z</time></trkpt><trkpt lat="45.74922098484677" lon="9.784807672360403"><ele>310.6666666666667</ele><time>2026-04-05T07:15:39Z</time></trkpt><trkpt lat="45.74932519325196" lon="9.784877394466397"><ele>310.83333333333337</ele><time>2026-04-05T07:15:41Z</time></trkpt><trkpt lat="45.749388440886285" lon="9.784883939248491"><ele>311.0</ele><time>2026-04-05T07:15:42Z</time></trkpt><trkpt lat="45.74945385415119" lon="9.784888018591845"><ele>311.0</ele><time>2026-04-05T07:15:43Z</time></trkpt><trkpt lat="45.749572819704404" lon="9.784954096345814"><ele>311.0</ele><time>2026-04-05T07:15:45Z</time></trkpt><trkpt lat="45.749622748382706" lon="9.785011450030433"><ele>311.0</ele><time>2026-04-05T07:15:46Z</time></trkpt><trkpt lat="45.74972234709113" lon="9.785113455842867"><ele>311.0</ele><time>2026-04-05T07:15:48Z</time></trkpt><trkpt lat="45.7498122734442" lon="9.785242017276028"><ele>311.0</ele><time>2026-04-05T07:15:50Z</time></trkpt><trkpt lat="45.74988683893372" lon="9.78536704232006"><ele>311.6</ele><time>2026-04-05T07:15:52Z</time></trkpt><trkpt lat="45.7499223981915" lon="9.785516152950532"><ele>312.20000000000005</ele><time>2026-04-05T07:15:54Z</time></trkpt><trkpt lat="45.74994338759349" lon="9.785661340667223"><ele>312.79999999999995</ele><time>2026-04-05T07:15:56Z</time></trkpt><trkpt lat="45.749922275319506" lon="9.785797109512533"><ele>313.4</ele><time>2026-04-05T07:15:58Z</time></trkpt><trkpt lat="45.74990280197509" lon="9.785905480685535"><ele>314.0</ele><time>2026-04-05T07:16:00Z</time></trkpt><trkpt lat="45.749967070510785" lon="9.785926063721066"><ele>314.0</ele><time>2026-04-05T07:16:01Z</time></trkpt><trkpt lat="45.74994706545095" lon="9.785830737214127"><ele>314.0</ele><time>2026-04-05T07:16:44Z</time></trkpt><trkpt lat="45.74986077240412" lon="9.785803822929054"><ele>314.0</ele><time>2026-04-05T07:16:46Z</time></trkpt><trkpt lat="45.74977341733881" lon="9.785845531854084"><ele>314.0</ele><time>2026-04-05T07:16:48Z</time></trkpt><trkpt lat="45.74966953357521" lon="9.785904285470618"><ele>314.0</ele><time>2026-04-05T07:16:50Z</time></trkpt><trkpt lat="45.749608322259185" lon="9.78593488166545"><ele>314.0</ele><time>2026-04-05T07:16:51Z</time></trkpt><trkpt lat="45.74950147297738" lon="9.786014138792186"><ele>314.6666666666667</ele><time>2026-04-05T07:16:53Z</time></trkpt><trkpt lat="45.74945375731975" lon="9.786075075617877"><ele>315.33333333333337</ele><time>2026-04-05T07:16:54Z</time></trkpt><trkpt lat="45.74936707693761" lon="9.786206693702342"><ele>316.0</ele><time>2026-04-05T07:16:56Z</time></trkpt><trkpt lat="45.74931922425328" lon="9.786273011739727"><ele>316.6666666666667</ele><time>2026-04-05T07:16:57Z</time></trkpt><trkpt lat="45.749271384102435" lon="9.786335478498598"><ele>317.3333333333333</ele><time>2026-04-05T07:16:58Z</time></trkpt><trkpt lat="45.74922743989084" lon="9.786400657127395"><ele>318.0</ele><time>2026-04-05T07:16:59Z</time></trkpt><trkpt lat="45.74915359575403" lon="9.786529289725625"><ele>318.5</ele><time>2026-04-05T07:17:01Z</time></trkpt><trkpt lat="45.74910691201327" lon="9.78670354996756"><ele>319.0</ele><time>2026-04-05T07:17:03Z</time></trkpt><trkpt lat="45.749055594889775" lon="9.786865699827974"><ele>319.5</ele><time>2026-04-05T07:17:05Z</time></trkpt><trkpt lat="45.74898397980981" lon="9.78700878175047"><ele>320.0</ele><time>2026-04-05T07:17:07Z</time></trkpt><trkpt lat="45.74889805956432" lon="9.787101025688012"><ele>321.6</ele><time>2026-04-05T07:17:09Z</time></trkpt><trkpt lat="45.74881203383894" lon="9.787158271467224"><ele>323.2</ele><time>2026-04-05T07:17:11Z</time></trkpt><trkpt lat="45.7487018027778" lon="9.787188478991842"><ele>324.79999999999995</ele><time>2026-04-05T07:17:13Z</time></trkpt><trkpt lat="45.748635025778846" lon="9.787184480948925"><ele>326.4</ele><time>2026-04-05T07:17:14Z</time></trkpt><trkpt lat="45.748508822462945" lon="9.787186849609277"><ele>328.0</ele><time>2026-04-05T07:17:16Z</time></trkpt><trkpt lat="45.748387128187936" lon="9.787185423168953"><ele>328.75</ele><time>2026-04-05T07:17:18Z</time></trkpt><trkpt lat="45.74827133826859" lon="9.787174139530125"><ele>329.5</ele><time>2026-04-05T07:17:20Z</time></trkpt><trkpt lat="45.748160901400276" lon="9.787153352856162"><ele>330.25</ele><time>2026-04-05T07:17:22Z</time></trkpt><trkpt lat="45.74803782477346" lon="9.787181359463764"><ele>331.0</ele><time>2026-04-05T07:17:24Z</time></trkpt><trkpt lat="45.74791553090434" lon="9.787161807051534"><ele>331.0</ele><time>2026-04-05T07:17:26Z</time></trkpt><trkpt lat="45.74779138460824" lon="9.787143189755165"><ele>331.0</ele><time>2026-04-05T07:17:28Z</time></trkpt><trkpt lat="45.74766914552676" lon="9.787158455278659"><ele>331.0</ele><time>2026-04-05T07:17:30Z</time></trkpt><trkpt lat="45.747607189735945" lon="9.787196691830857"><ele>331.0</ele><time>2026-04-05T07:17:31Z</time></trkpt><trkpt lat="45.74750046283774" lon="9.787278744785812"><ele>331.0</ele><time>2026-04-05T07:17:33Z</time></trkpt><trkpt lat="45.74739198035697" lon="9.787340947920963"><ele>331.20000000000005</ele><time>2026-04-05T07:17:35Z</time></trkpt><trkpt lat="45.74729497801126" lon="9.787413888129146"><ele>331.40000000000003</ele><time>2026-04-05T07:17:37Z</time></trkpt><trkpt lat="45.74720781877289" lon="9.787488326005969"><ele>331.6</ele><time>2026-04-05T07:17:39Z</time></trkpt><trkpt lat="45.74713133092214" lon="9.787468790319732"><ele>331.8</ele><time>2026-04-05T07:17:41Z</time></trkpt><trkpt lat="45.747120519264236" lon="9.787616365326786"><ele>332.0</ele><time>2026-04-05T07:17:44Z</time></trkpt><trkpt lat="45.74714514022961" lon="9.787741704919764"><ele>334.20000000000005</ele><time>2026-04-05T07:17:46Z</time></trkpt><trkpt lat="45.74718527927855" lon="9.787813786150222"><ele>336.4</ele><time>2026-04-05T07:17:47Z</time></trkpt><trkpt lat="45.747221779439705" lon="9.787965368051882"><ele>338.6</ele><time>2026-04-05T07:17:49Z</time></trkpt><trkpt lat="45.747204630740015" lon="9.788070688999401"><ele>340.79999999999995</ele><time>2026-04-05T07:17:51Z</time></trkpt><trkpt lat="45.74710621537114" lon="9.788083296434996"><ele>343.0</ele><time>2026-04-05T07:17:53Z</time></trkpt><trkpt lat="45.74698979336452" lon="9.788076780494974"><ele>342.2</ele><time>2026-04-05T07:17:55Z</time></trkpt><trkpt lat="45.746868684836734" lon="9.78808332431469"><ele>341.4</ele><time>2026-04-05T07:17:57Z</time></trkpt><trkpt lat="45.746761099426664" lon="9.788183973353638"><ele>340.59999999999997</ele><time>2026-04-05T07:17:59Z</time></trkpt><trkpt lat="45.746705329796505" lon="9.788262876616669"><ele>339.79999999999995</ele><time>2026-04-05T07:18:00Z</time></trkpt><trkpt lat="45.746626331082375" lon="9.788366289331405"><ele>339.0</ele><time>2026-04-05T07:18:02Z</time></trkpt><trkpt lat="45.746572851590685" lon="9.788417792992425"><ele>341.75</ele><time>2026-04-05T07:18:03Z</time></trkpt><trkpt lat="45.746475643396884" lon="9.788511925969596"><ele>344.5</ele><time>2026-04-05T07:18:05Z</time></trkpt><trkpt lat="45.74638561281633" lon="9.788624752629477"><ele>347.25</ele><time>2026-04-05T07:18:07Z</time></trkpt><trkpt lat="45.7463014103594" lon="9.788740072671231"><ele>350.0</ele><time>2026-04-05T07:18:09Z</time></trkpt><trkpt lat="45.746217620999644" lon="9.78886643910261"><ele>350.0</ele><time>2026-04-05T07:18:11Z</time></trkpt><trkpt lat="45.74612994342964" lon="9.788981153385574"><ele>350.0</ele><time>2026-04-05T07:18:13Z</time></trkpt><trkpt lat="45.746041389620274" lon="9.789085492320778"><ele>350.0</ele><time>2026-04-05T07:18:15Z</time></trkpt><trkpt lat="45.74595443038281" lon="9.789203745364123"><ele>350.0</ele><time>2026-04-05T07:18:17Z</time></trkpt><trkpt lat="45.74585863359944" lon="9.789299449393871"><ele>350.8</ele><time>2026-04-05T07:18:19Z</time></trkpt><trkpt lat="45.74581025560965" lon="9.789446333750494"><ele>351.6</ele><time>2026-04-05T07:18:21Z</time></trkpt><trkpt lat="45.745802368693276" lon="9.789602778895839"><ele>352.4</ele><time>2026-04-05T07:18:23Z</time></trkpt><trkpt lat="45.74578667366738" lon="9.789749968545367"><ele>353.2</ele><time>2026-04-05T07:18:25Z</time></trkpt><trkpt lat="45.74574301275797" lon="9.789869294005682"><ele>354.0</ele><time>2026-04-05T07:18:27Z</time></trkpt><trkpt lat="45.745672930307805" lon="9.789961684160549"><ele>354.0</ele><time>2026-04-05T07:18:29Z</time></trkpt><trkpt lat="45.745610607396316" lon="9.790066959460678"><ele>354.0</ele><time>2026-04-05T07:18:31Z</time></trkpt><trkpt lat="45.745549093170986" lon="9.790146667716979"><ele>354.0</ele><time>2026-04-05T07:18:33Z</time></trkpt><trkpt lat="45.745459537800656" lon="9.79016523510708"><ele>354.0</ele><time>2026-04-05T07:18:35Z</time></trkpt><trkpt lat="45.745371195468465" lon="9.790158897971262"><ele>354.0</ele><time>2026-04-05T07:18:37Z</time></trkpt><trkpt lat="45.74527656345207" lon="9.790112163600037"><ele>356.2</ele><time>2026-04-05T07:18:39Z</time></trkpt><trkpt lat="45.74521235205127" lon="9.790004533859419"><ele>358.4</ele><time>2026-04-05T07:18:41Z</time></trkpt><trkpt lat="45.745210750743745" lon="9.789850915342944"><ele>360.6</ele><time>2026-04-05T07:18:43Z</time></trkpt><trkpt lat="45.74510316662" lon="9.789789573836487"><ele>362.8</ele><time>2026-04-05T07:18:45Z</time></trkpt><trkpt lat="45.744999231860476" lon="9.789815277497018"><ele>365.0</ele><time>2026-04-05T07:18:47Z</time></trkpt><trkpt lat="45.744909179515695" lon="9.789870793993622"><ele>365.0</ele><time>2026-04-05T07:18:49Z</time></trkpt><trkpt lat="45.74482638539563" lon="9.789941393614331"><ele>365.0</ele><time>2026-04-05T07:18:51Z</time></trkpt><trkpt lat="45.74475942527971" lon="9.79004441960699"><ele>365.0</ele><time>2026-04-05T07:18:53Z</time></trkpt><trkpt lat="45.744696135102906" lon="9.790167751649117"><ele>365.0</ele><time>2026-04-05T07:18:55Z</time></trkpt><trkpt lat="45.74463884881451" lon="9.790277101455048"><ele>365.0</ele><time>2026-04-05T07:18:57Z</time></trkpt><trkpt lat="45.74456052681688" lon="9.790363415599288"><ele>365.8</ele><time>2026-04-05T07:18:59Z</time></trkpt><trkpt lat="45.74448120689866" lon="9.79045283236438"><ele>366.6</ele><time>2026-04-05T07:19:01Z</time></trkpt><trkpt lat="45.74442207458688" lon="9.790561260220484"><ele>367.4</ele><time>2026-04-05T07:19:03Z</time></trkpt><trkpt lat="45.74439520672008" lon="9.790689792130888"><ele>368.2</ele><time>2026-04-05T07:19:05Z</time></trkpt><trkpt lat="45.74444023512108" lon="9.790831950673699"><ele>369.0</ele><time>2026-04-05T07:19:07Z</time></trkpt><trkpt lat="45.7445298185031" lon="9.790915378519626"><ele>369.0</ele><time>2026-04-05T07:19:09Z</time></trkpt><trkpt lat="45.74461325454491" lon="9.790996199318489"><ele>369.0</ele><time>2026-04-05T07:19:11Z</time></trkpt><trkpt lat="45.74465188051768" lon="9.79112897238886"><ele>369.0</ele><time>2026-04-05T07:19:13Z</time></trkpt><trkpt lat="45.74464625518363" lon="9.791259922471125"><ele>369.0</ele><time>2026-04-05T07:19:15Z</time></trkpt><trkpt lat="45.74463220749086" lon="9.791386961186788"><ele>369.0</ele><time>2026-04-05T07:19:17Z</time></trkpt><trkpt lat="45.74459705972862" lon="9.791517614472617"><ele>370.6</ele><time>2026-04-05T07:19:19Z</time></trkpt><trkpt lat="45.744556400910206" lon="9.791644777541608"><ele>372.2</ele><time>2026-04-05T07:19:21Z</time></trkpt><trkpt lat="45.744499005421275" lon="9.791750191232863"><ele>373.8</ele><time>2026-04-05T07:19:23Z</time></trkpt><trkpt lat="45.74444368713007" lon="9.791853414005887"><ele>375.40000000000003</ele><time>2026-04-05T07:19:25Z</time></trkpt><trkpt lat="45.74439702824098" lon="9.791956329876946"><ele>377.0</ele><time>2026-04-05T07:19:27Z</time></trkpt><trkpt lat="45.744353759911746" lon="9.792065238971603"><ele>381.0</ele><time>2026-04-05T07:19:29Z</time></trkpt><trkpt lat="45.744305926709615" lon="9.792170010739106"><ele>385.0</ele><time>2026-04-05T07:19:31Z</time></trkpt><trkpt lat="45.74425946512677" lon="9.792267820468497"><ele>389.0</ele><time>2026-04-05T07:19:33Z</time></trkpt><trkpt lat="45.74422498759254" lon="9.792360800211803"><ele>393.0</ele><time>2026-04-05T07:19:35Z</time></trkpt><trkpt lat="45.74417595633581" lon="9.792452670914155"><ele>396.99999999999994</ele><time>2026-04-05T07:19:37Z</time></trkpt><trkpt lat="45.74411402918483" lon="9.792533305788012"><ele>401.0</ele><time>2026-04-05T07:19:39Z</time></trkpt><trkpt lat="45.744063714718045" lon="9.792601680062955"><ele>400.99999999999994</ele><time>2026-04-05T07:19:41Z</time></trkpt><trkpt lat="45.7439950885864" lon="9.792658306111301"><ele>401.0</ele><time>2026-04-05T07:19:43Z</time></trkpt><trkpt lat="45.74392062853256" lon="9.792690250692544"><ele>401.0</ele><time>2026-04-05T07:19:45Z</time></trkpt><trkpt lat="45.74383208857691" lon="9.792730477805396"><ele>401.0</ele><time>2026-04-05T07:19:48Z</time></trkpt><trkpt lat="45.743748565804886" lon="9.792759840971254"><ele>400.99999999999994</ele><time>2026-04-05T07:19:50Z</time></trkpt><trkpt lat="45.743678582814276" lon="9.792805001067316"><ele>401.0</ele><time>2026-04-05T07:19:52Z</time></trkpt><trkpt lat="45.743605139794006" lon="9.79283028933176"><ele>404.66666666666663</ele><time>2026-04-05T07:19:54Z</time></trkpt><trkpt lat="45.74353928964009" lon="9.792867981044937"><ele>408.3333333333333</ele><time>2026-04-05T07:19:56Z</time></trkpt><trkpt lat="45.74346080289517" lon="9.79290367368782"><ele>412.0</ele><time>2026-04-05T07:19:58Z</time></trkpt><trkpt lat="45.743368066705884" lon="9.792936028351372"><ele>415.66666666666663</ele><time>2026-04-05T07:20:00Z</time></trkpt><trkpt lat="45.7432895228101" lon="9.792978652826958"><ele>419.3333333333333</ele><time>2026-04-05T07:20:02Z</time></trkpt><trkpt lat="45.743215198747336" lon="9.793025770485164"><ele>423.0</ele><time>2026-04-05T07:20:04Z</time></trkpt><trkpt lat="45.74314520927503" lon="9.793079763157257"><ele>423.0</ele><time>2026-04-05T07:20:06Z</time></trkpt><trkpt lat="45.743081044825196" lon="9.793138377868141"><ele>423.0</ele><time>2026-04-05T07:20:08Z</time></trkpt><trkpt lat="45.74302429625962" lon="9.793248056754049"><ele>423.0</ele><time>2026-04-05T07:20:10Z</time></trkpt><trkpt lat="45.74296202909704" lon="9.79334219213301"><ele>423.0</ele><time>2026-04-05T07:20:12Z</time></trkpt><trkpt lat="45.74291561614766" lon="9.793434583770248"><ele>423.0</ele><time>2026-04-05T07:20:14Z</time></trkpt><trkpt lat="45.7429153073643" lon="9.793556655513813"><ele>423.0</ele><time>2026-04-05T07:20:16Z</time></trkpt><trkpt lat="45.742982199987296" lon="9.793614306963143"><ele>426.8333333333333</ele><time>2026-04-05T07:20:18Z</time></trkpt><trkpt lat="45.743100831070876" lon="9.793601064490565"><ele>430.66666666666663</ele><time>2026-04-05T07:20:20Z</time></trkpt><trkpt lat="45.74317449562464" lon="9.793597700335237"><ele>434.5</ele><time>2026-04-05T07:20:22Z</time></trkpt><trkpt lat="45.74326077734873" lon="9.79359681593878"><ele>438.3333333333333</ele><time>2026-04-05T07:20:24Z</time></trkpt><trkpt lat="45.74334410381866" lon="9.793595049051378"><ele>442.16666666666663</ele><time>2026-04-05T07:20:26Z</time></trkpt><trkpt lat="45.74342506250099" lon="9.793614063291143"><ele>446.0</ele><time>2026-04-05T07:20:28Z</time></trkpt><trkpt lat="45.743491031749436" lon="9.79365774581157"><ele>441.99999999999994</ele><time>2026-04-05T07:20:30Z</time></trkpt><trkpt lat="45.743551742716235" lon="9.793737099371716"><ele>438.0</ele><time>2026-04-05T07:20:32Z</time></trkpt><trkpt lat="45.74360271172188" lon="9.793819030665665"><ele>434.0</ele><time>2026-04-05T07:20:34Z</time></trkpt><trkpt lat="45.743637330301404" lon="9.79391906207376"><ele>430.0</ele><time>2026-04-05T07:20:36Z</time></trkpt><trkpt lat="45.7436711780029" lon="9.794027585479267"><ele>425.99999999999994</ele><time>2026-04-05T07:20:38Z</time></trkpt><trkpt lat="45.743690434128304" lon="9.794144776976148"><ele>422.0</ele><time>2026-04-05T07:20:40Z</time></trkpt><trkpt lat="45.743727979380616" lon="9.79426407934341"><ele>426.66666666666663</ele><time>2026-04-05T07:20:42Z</time></trkpt><trkpt lat="45.743774638385645" lon="9.794362288295938"><ele>431.3333333333333</ele><time>2026-04-05T07:20:44Z</time></trkpt><trkpt lat="45.74381006373207" lon="9.79445381816384"><ele>436.0</ele><time>2026-04-05T07:20:46Z</time></trkpt><trkpt lat="45.7438694056062" lon="9.794533544737332"><ele>440.66666666666663</ele><time>2026-04-05T07:20:48Z</time></trkpt><trkpt lat="45.74392331225411" lon="9.794619477588796"><ele>445.3333333333333</ele><time>2026-04-05T07:20:50Z</time></trkpt><trkpt lat="45.743959392711965" lon="9.794713826425614"><ele>450.0</ele><time>2026-04-05T07:20:52Z</time></trkpt><trkpt lat="45.743997958669816" lon="9.794809733922003"><ele>450.0</ele><time>2026-04-05T07:20:54Z</time></trkpt><trkpt lat="45.74404166690614" lon="9.794906877412922"><ele>450.0</ele><time>2026-04-05T07:20:56Z</time></trkpt><trkpt lat="45.744092938213534" lon="9.794991168197173"><ele>450.0</ele><time>2026-04-05T07:20:58Z</time></trkpt><trkpt lat="45.744152037135734" lon="9.795060747047962"><ele>450.0</ele><time>2026-04-05T07:21:00Z</time></trkpt><trkpt lat="45.74421869895969" lon="9.795112764999516"><ele>450.0</ele><time>2026-04-05T07:21:02Z</time></trkpt><trkpt lat="45.744298498910126" lon="9.795158447425873"><ele>450.0</ele><time>2026-04-05T07:21:04Z</time></trkpt><trkpt lat="45.744380809107355" lon="9.795169471818026"><ele>451.8333333333333</ele><time>2026-04-05T07:21:06Z</time></trkpt><trkpt lat="45.74446637182336" lon="9.795171188994074"><ele>453.66666666666663</ele><time>2026-04-05T07:21:08Z</time></trkpt><trkpt lat="45.74454584996957" lon="9.795144628112316"><ele>455.5</ele><time>2026-04-05T07:21:10Z</time></trkpt><trkpt lat="45.74462627832279" lon="9.795164187577399"><ele>457.3333333333333</ele><time>2026-04-05T07:21:12Z</time></trkpt><trkpt lat="45.74462695640823" lon="9.795294627150476"><ele>459.16666666666663</ele><time>2026-04-05T07:21:14Z</time></trkpt><trkpt lat="45.7445312801855" lon="9.795346515826916"><ele>461.0</ele><time>2026-04-05T07:21:16Z</time></trkpt><trkpt lat="45.744436384270266" lon="9.79535633678881"><ele>466.0</ele><time>2026-04-05T07:21:18Z</time></trkpt><trkpt lat="45.744342851844436" lon="9.79540091338599"><ele>471.0</ele><time>2026-04-05T07:21:20Z</time></trkpt><trkpt lat="45.744253945733604" lon="9.795420465669881"><ele>476.0</ele><time>2026-04-05T07:21:22Z</time></trkpt><trkpt lat="45.744162657737604" lon="9.795420378548611"><ele>481.0</ele><time>2026-04-05T07:21:24Z</time></trkpt><trkpt lat="45.744080892434184" lon="9.795392450566185"><ele>486.0</ele><time>2026-04-05T07:21:26Z</time></trkpt><trkpt lat="45.74399588356394" lon="9.795369339812481"><ele>486.0</ele><time>2026-04-05T07:21:28Z</time></trkpt><trkpt lat="45.743915277888796" lon="9.795333801787242"><ele>486.0</ele><time>2026-04-05T07:21:30Z</time></trkpt><trkpt lat="45.74384902375973" lon="9.795275073170137"><ele>486.0</ele><time>2026-04-05T07:21:32Z</time></trkpt><trkpt lat="45.74379129015732" lon="9.795202939448716"><ele>486.0</ele><time>2026-04-05T07:21:34Z</time></trkpt><trkpt lat="45.74372098611169" lon="9.795158813205745"><ele>486.0</ele><time>2026-04-05T07:21:36Z</time></trkpt><trkpt lat="45.74368312863744" lon="9.795267832618253"><ele>486.0</ele><time>2026-04-05T07:21:38Z</time></trkpt><trkpt lat="45.74374867656695" lon="9.795366603919243"><ele>486.0</ele><time>2026-04-05T07:21:40Z</time></trkpt><trkpt lat="45.74382497425647" lon="9.795448069837088"><ele>486.0</ele><time>2026-04-05T07:21:42Z</time></trkpt><trkpt lat="45.743879670406564" lon="9.795540748595068"><ele>486.0</ele><time>2026-04-05T07:21:44Z</time></trkpt><trkpt lat="45.74394107841647" lon="9.795623047249348"><ele>486.0</ele><time>2026-04-05T07:21:46Z</time></trkpt><trkpt lat="45.74401178978843" lon="9.795680438322437"><ele>486.0</ele><time>2026-04-05T07:21:48Z</time></trkpt><trkpt lat="45.744028300348305" lon="9.795782115004346"><ele>486.0</ele><time>2026-04-05T07:21:50Z</time></trkpt><trkpt lat="45.74394339590704" lon="9.795813743499497"><ele>486.0</ele><time>2026-04-05T07:21:52Z</time></trkpt><trkpt lat="45.74382717960277" lon="9.79572658605758"><ele>486.0</ele><time>2026-04-05T07:21:54Z</time></trkpt><trkpt lat="45.7437783553779" lon="9.795611122623114"><ele>486.0</ele><time>2026-04-05T07:21:56Z</time></trkpt><trkpt lat="45.743699666889434" lon="9.795539453151411"><ele>486.0</ele><time>2026-04-05T07:21:58Z</time></trkpt><trkpt lat="45.74361893056582" lon="9.795477837806052"><ele>486.0</ele><time>2026-04-05T07:22:00Z</time></trkpt><trkpt lat="45.74355265694322" lon="9.795410609028531"><ele>484.0</ele><time>2026-04-05T07:22:02Z</time></trkpt><trkpt lat="45.74349084201175" lon="9.79533976713762"><ele>482.0</ele><time>2026-04-05T07:22:04Z</time></trkpt><trkpt lat="45.743422402839414" lon="9.7952804746607"><ele>480.0</ele><time>2026-04-05T07:22:06Z</time></trkpt><trkpt lat="45.74335128898501" lon="9.79522339570815"><ele>478.0</ele><time>2026-04-05T07:22:08Z</time></trkpt><trkpt lat="45.74327787823156" lon="9.795173034525133"><ele>476.0</ele><time>2026-04-05T07:22:10Z</time></trkpt><trkpt lat="45.74320514986125" lon="9.795135552907356"><ele>474.0</ele><time>2026-04-05T07:22:12Z</time></trkpt><trkpt lat="45.743125787425164" lon="9.795111224997687"><ele>479.0</ele><time>2026-04-05T07:22:14Z</time></trkpt><trkpt lat="45.743051090722595" lon="9.795174994340165"><ele>484.0</ele><time>2026-04-05T07:22:16Z</time></trkpt><trkpt lat="45.74308482850051" lon="9.795258462546254"><ele>489.0</ele><time>2026-04-05T07:22:17Z</time></trkpt><trkpt lat="45.74319845261511" lon="9.795308306752752"><ele>494.0</ele><time>2026-04-05T07:22:19Z</time></trkpt><trkpt lat="45.74327040050427" lon="9.79536194936791"><ele>499.0</ele><time>2026-04-05T07:22:21Z</time></trkpt><trkpt lat="45.74331420026609" lon="9.795456508918587"><ele>504.0</ele><time>2026-04-05T07:22:23Z</time></trkpt><trkpt lat="45.74335800376697" lon="9.795560310762994"><ele>504.0</ele><time>2026-04-05T07:22:25Z</time></trkpt><trkpt lat="45.743400284720806" lon="9.795663498615799"><ele>504.0</ele><time>2026-04-05T07:22:27Z</time></trkpt><trkpt lat="45.74343534069542" lon="9.795777653532829"><ele>504.0</ele><time>2026-04-05T07:22:29Z</time></trkpt><trkpt lat="45.74348268115335" lon="9.795875956283014"><ele>504.0</ele><time>2026-04-05T07:22:31Z</time></trkpt><trkpt lat="45.743527967861006" lon="9.795975143040245"><ele>504.0</ele><time>2026-04-05T07:22:33Z</time></trkpt><trkpt lat="45.743566657177944" lon="9.796075491097024"><ele>504.0</ele><time>2026-04-05T07:22:35Z</time></trkpt><trkpt lat="45.743615968098716" lon="9.79615280869743"><ele>506.6666666666667</ele><time>2026-04-05T07:22:37Z</time></trkpt><trkpt lat="45.74367452477982" lon="9.796224596623489"><ele>509.33333333333337</ele><time>2026-04-05T07:22:39Z</time></trkpt><trkpt lat="45.74373298423075" lon="9.796306616349245"><ele>512.0</ele><time>2026-04-05T07:22:41Z</time></trkpt><trkpt lat="45.74379622568768" lon="9.796384345184018"><ele>514.6666666666667</ele><time>2026-04-05T07:22:43Z</time></trkpt><trkpt lat="45.74374014430278" lon="9.796497636389397"><ele>517.3333333333334</ele><time>2026-04-05T07:22:45Z</time></trkpt><trkpt lat="45.74365716603219" lon="9.796422792377694"><ele>520.0</ele><time>2026-04-05T07:22:47Z</time></trkpt><trkpt lat="45.74361354248941" lon="9.796301072603045"><ele>521.8</ele><time>2026-04-05T07:22:49Z</time></trkpt><trkpt lat="45.74354086390368" lon="9.796231016026194"><ele>523.6</ele><time>2026-04-05T07:22:51Z</time></trkpt><trkpt lat="45.74345670116041" lon="9.796179840953242"><ele>525.4</ele><time>2026-04-05T07:22:53Z</time></trkpt><trkpt lat="45.743367576800274" lon="9.79613706762719"><ele>527.2</ele><time>2026-04-05T07:22:55Z</time></trkpt><trkpt lat="45.743276074539445" lon="9.796101147601146"><ele>529.0</ele><time>2026-04-05T07:22:57Z</time></trkpt><trkpt lat="45.743188759867216" lon="9.796053745325148"><ele>529.0</ele><time>2026-04-05T07:22:59Z</time></trkpt><trkpt lat="45.74309718595046" lon="9.796021008862311"><ele>529.0</ele><time>2026-04-05T07:23:01Z</time></trkpt><trkpt lat="45.74300319434233" lon="9.796006148001226"><ele>529.0</ele><time>2026-04-05T07:23:03Z</time></trkpt><trkpt lat="45.74290858173888" lon="9.796040836850535"><ele>529.0</ele><time>2026-04-05T07:23:05Z</time></trkpt><trkpt lat="45.74282229663973" lon="9.796082721433677"><ele>529.0</ele><time>2026-04-05T07:23:07Z</time></trkpt><trkpt lat="45.74273779472711" lon="9.796115212328393"><ele>529.8333333333334</ele><time>2026-04-05T07:23:09Z</time></trkpt><trkpt lat="45.742661941798936" lon="9.796184285717784"><ele>530.6666666666667</ele><time>2026-04-05T07:23:11Z</time></trkpt><trkpt lat="45.74258786080329" lon="9.796246019984885"><ele>531.5</ele><time>2026-04-05T07:23:13Z</time></trkpt><trkpt lat="45.74252154432329" lon="9.796321222251072"><ele>532.3333333333334</ele><time>2026-04-05T07:23:15Z</time></trkpt><trkpt lat="45.74244878417161" lon="9.796393677141909"><ele>533.1666666666666</ele><time>2026-04-05T07:23:17Z</time></trkpt><trkpt lat="45.742377866047235" lon="9.796475245236378"><ele>534.0</ele><time>2026-04-05T07:23:19Z</time></trkpt><trkpt lat="45.74229126691397" lon="9.796536341706236"><ele>534.0</ele><time>2026-04-05T07:23:21Z</time></trkpt><trkpt lat="45.74223545856851" lon="9.796622585629663"><ele>534.0</ele><time>2026-04-05T07:23:23Z</time></trkpt><trkpt lat="45.7421790294776" lon="9.796700721748191"><ele>534.0</ele><time>2026-04-05T07:23:25Z</time></trkpt><trkpt lat="45.74211647339486" lon="9.796770053237807"><ele>534.0</ele><time>2026-04-05T07:23:27Z</time></trkpt><trkpt lat="45.742064611104176" lon="9.79684108108263"><ele>534.0</ele><time>2026-04-05T07:23:29Z</time></trkpt><trkpt lat="45.74205228991841" lon="9.796946956737926"><ele>534.0</ele><time>2026-04-05T07:23:31Z</time></trkpt><trkpt lat="45.742124690725184" lon="9.796943208862007"><ele>534.0</ele><time>2026-04-05T07:23:33Z</time></trkpt><trkpt lat="45.742212901379965" lon="9.796838038572316"><ele>534.0</ele><time>2026-04-05T07:23:35Z</time></trkpt><trkpt lat="45.74231197453858" lon="9.796780194513476"><ele>534.0</ele><time>2026-04-05T07:23:37Z</time></trkpt><trkpt lat="45.74242567818338" lon="9.7967407468096"><ele>534.0</ele><time>2026-04-05T07:23:39Z</time></trkpt><trkpt lat="45.742536807376425" lon="9.796720413871858"><ele>534.0</ele><time>2026-04-05T07:23:41Z</time></trkpt><trkpt lat="45.74265357326541" lon="9.796701784421538"><ele>534.0</ele><time>2026-04-05T07:23:43Z</time></trkpt><trkpt lat="45.742752967744615" lon="9.796724177431292"><ele>534.0</ele><time>2026-04-05T07:23:45Z</time></trkpt><trkpt lat="45.74284795021626" lon="9.796757736911834"><ele>534.0</ele><time>2026-04-05T07:23:47Z</time></trkpt><trkpt lat="45.742937871040425" lon="9.796799024248745"><ele>534.0</ele><time>2026-04-05T07:23:49Z</time></trkpt><trkpt lat="45.74302796602312" lon="9.796849555259056"><ele>538.0</ele><time>2026-04-05T07:23:51Z</time></trkpt><trkpt lat="45.74310034955323" lon="9.796907885794065"><ele>542.0</ele><time>2026-04-05T07:23:53Z</time></trkpt><trkpt lat="45.74315605594429" lon="9.79699457793056"><ele>546.0</ele><time>2026-04-05T07:23:55Z</time></trkpt><trkpt lat="45.74319455264038" lon="9.797099098951628"><ele>550.0</ele><time>2026-04-05T07:23:57Z</time></trkpt><trkpt lat="45.74322983742827" lon="9.797194000526044"><ele>554.0</ele><time>2026-04-05T07:23:59Z</time></trkpt><trkpt lat="45.74328434819708" lon="9.797275645355214"><ele>558.0</ele><time>2026-04-05T07:24:01Z</time></trkpt><trkpt lat="45.74333628024461" lon="9.797355221128717"><ele>558.0</ele><time>2026-04-05T07:24:03Z</time></trkpt><trkpt lat="45.743397121568805" lon="9.797408324735121"><ele>558.0</ele><time>2026-04-05T07:24:05Z</time></trkpt><trkpt lat="45.74346280655899" lon="9.797460532420049"><ele>558.0</ele><time>2026-04-05T07:24:07Z</time></trkpt><trkpt lat="45.743491990425454" lon="9.797554109794444"><ele>558.0</ele><time>2026-04-05T07:24:09Z</time></trkpt><trkpt lat="45.7434407689153" lon="9.797630850845426"><ele>558.0</ele><time>2026-04-05T07:24:11Z</time></trkpt><trkpt lat="45.74334069535389" lon="9.797578284895495"><ele>558.0</ele><time>2026-04-05T07:24:13Z</time></trkpt><trkpt lat="45.743272758934744" lon="9.797489195117652"><ele>558.0</ele><time>2026-04-05T07:24:15Z</time></trkpt><trkpt lat="45.743208041965126" lon="9.797412207913796"><ele>558.0</ele><time>2026-04-05T07:24:17Z</time></trkpt><trkpt lat="45.743136145841845" lon="9.797346863119625"><ele>558.0</ele><time>2026-04-05T07:24:19Z</time></trkpt><trkpt lat="45.7430579358554" lon="9.79730456922514"><ele>558.0</ele><time>2026-04-05T07:24:21Z</time></trkpt><trkpt lat="45.7429827736131" lon="9.797282808632946"><ele>558.0</ele><time>2026-04-05T07:24:23Z</time></trkpt><trkpt lat="45.74290826097852" lon="9.797296770587238"><ele>558.0</ele><time>2026-04-05T07:24:25Z</time></trkpt><trkpt lat="45.742838398628166" lon="9.797333819018597"><ele>557.9999999999999</ele><time>2026-04-05T07:24:27Z</time></trkpt><trkpt lat="45.74277815868817" lon="9.7973904064249"><ele>558.0</ele><time>2026-04-05T07:24:29Z</time></trkpt><trkpt lat="45.74271216541713" lon="9.79743483203721"><ele>558.0</ele><time>2026-04-05T07:24:31Z</time></trkpt><trkpt lat="45.74264894610823" lon="9.797484370083373"><ele>558.0</ele><time>2026-04-05T07:24:33Z</time></trkpt><trkpt lat="45.742593858224346" lon="9.797547447759857"><ele>558.0</ele><time>2026-04-05T07:24:35Z</time></trkpt><trkpt lat="45.742524462917174" lon="9.797591127580334"><ele>557.9999999999999</ele><time>2026-04-05T07:24:37Z</time></trkpt><trkpt lat="45.74245846167536" lon="9.79764893449843"><ele>558.0</ele><time>2026-04-05T07:24:39Z</time></trkpt><trkpt lat="45.742395482689076" lon="9.797709873111963"><ele>563.9999999999999</ele><time>2026-04-05T07:24:41Z</time></trkpt><trkpt lat="45.74233160609949" lon="9.797766533323303"><ele>570.0</ele><time>2026-04-05T07:24:43Z</time></trkpt><trkpt lat="45.74225641338276" lon="9.797825452152598"><ele>576.0</ele><time>2026-04-05T07:24:45Z</time></trkpt><trkpt lat="45.74219803825143" lon="9.79786582364814"><ele>582.0</ele><time>2026-04-05T07:24:47Z</time></trkpt><trkpt lat="45.742135629588034" lon="9.797902916407068"><ele>588.0</ele><time>2026-04-05T07:24:49Z</time></trkpt><trkpt lat="45.742087345117675" lon="9.797973205739664"><ele>593.9999999999999</ele><time>2026-04-05T07:24:51Z</time></trkpt><trkpt lat="45.74202844810047" lon="9.798019791880705"><ele>600.0</ele><time>2026-04-05T07:24:53Z</time></trkpt><trkpt lat="45.741955380428976" lon="9.79809332528056"><ele>599.9999999999999</ele><time>2026-04-05T07:24:55Z</time></trkpt><trkpt lat="45.74190806381464" lon="9.798160428129457"><ele>600.0</ele><time>2026-04-05T07:24:57Z</time></trkpt><trkpt lat="45.74184248646241" lon="9.798203584532619"><ele>600.0</ele><time>2026-04-05T07:24:59Z</time></trkpt><trkpt lat="45.74176892459026" lon="9.798229733215614"><ele>600.0</ele><time>2026-04-05T07:25:01Z</time></trkpt><trkpt lat="45.741703099922745" lon="9.798251012006059"><ele>600.0</ele><time>2026-04-05T07:25:03Z</time></trkpt><trkpt lat="45.741642149658475" lon="9.798288296803538"><ele>599.9999999999999</ele><time>2026-04-05T07:25:05Z</time></trkpt><trkpt lat="45.74163698043393" lon="9.798395342103298"><ele>600.0</ele><time>2026-04-05T07:25:07Z</time></trkpt><trkpt lat="45.74172090290407" lon="9.798416369937204"><ele>600.0</ele><time>2026-04-05T07:25:09Z</time></trkpt><trkpt lat="45.741808387295585" lon="9.798350151837825"><ele>600.0</ele><time>2026-04-05T07:25:11Z</time></trkpt><trkpt lat="45.74188738326757" lon="9.798335365536216"><ele>600.0</ele><time>2026-04-05T07:25:13Z</time></trkpt><trkpt lat="45.7419599966241" lon="9.798327977072937"><ele>600.0</ele><time>2026-04-05T07:25:15Z</time></trkpt><trkpt lat="45.74203907954845" lon="9.798297805566044"><ele>600.0</ele><time>2026-04-05T07:25:17Z</time></trkpt><trkpt lat="45.74210481107658" lon="9.798304975624992"><ele>600.0</ele><time>2026-04-05T07:25:19Z</time></trkpt><trkpt lat="45.74217758431478" lon="9.798307638213073"><ele>599.9999999999999</ele><time>2026-04-05T07:25:21Z</time></trkpt><trkpt lat="45.74224454746322" lon="9.798299211584387"><ele>600.0</ele><time>2026-04-05T07:25:23Z</time></trkpt><trkpt lat="45.74231445202817" lon="9.798297217960991"><ele>600.0</ele><time>2026-04-05T07:25:25Z</time></trkpt><trkpt lat="45.74238341852469" lon="9.798278369318956"><ele>600.0</ele><time>2026-04-05T07:25:27Z</time></trkpt><trkpt lat="45.742450397229106" lon="9.7982629939859"><ele>600.0</ele><time>2026-04-05T07:25:29Z</time></trkpt><trkpt lat="45.742520844755255" lon="9.798255320759466"><ele>599.9999999999999</ele><time>2026-04-05T07:25:31Z</time></trkpt><trkpt lat="45.74259279125608" lon="9.798241199674385"><ele>600.0</ele><time>2026-04-05T07:25:33Z</time></trkpt><trkpt lat="45.74266461309681" lon="9.798242009970156"><ele>598.1428571428571</ele><time>2026-04-05T07:25:35Z</time></trkpt><trkpt lat="45.74272940013987" lon="9.798276128149523"><ele>596.2857142857142</ele><time>2026-04-05T07:25:37Z</time></trkpt><trkpt lat="45.74279293153939" lon="9.798323331634833"><ele>594.4285714285714</ele><time>2026-04-05T07:25:39Z</time></trkpt><trkpt lat="45.742837700934956" lon="9.798389764879802"><ele>592.5714285714286</ele><time>2026-04-05T07:25:41Z</time></trkpt><trkpt lat="45.74287746117832" lon="9.79846469275277"><ele>590.7142857142858</ele><time>2026-04-05T07:25:43Z</time></trkpt><trkpt lat="45.742919016968145" lon="9.79854537174412"><ele>588.8571428571429</ele><time>2026-04-05T07:25:45Z</time></trkpt><trkpt lat="45.74294044246806" lon="9.79863102463728"><ele>587.0</ele><time>2026-04-05T07:25:47Z</time></trkpt><trkpt lat="45.74296488817047" lon="9.798726342606173"><ele>591.0</ele><time>2026-04-05T07:25:49Z</time></trkpt><trkpt lat="45.742987036935304" lon="9.798814626347855"><ele>595.0</ele><time>2026-04-05T07:25:51Z</time></trkpt><trkpt lat="45.74300857550157" lon="9.798906370434867"><ele>599.0</ele><time>2026-04-05T07:25:53Z</time></trkpt><trkpt lat="45.74302983193924" lon="9.798992674057411"><ele>603.0</ele><time>2026-04-05T07:25:55Z</time></trkpt><trkpt lat="45.743051477413395" lon="9.799079751366737"><ele>607.0</ele><time>2026-04-05T07:25:57Z</time></trkpt><trkpt lat="45.743085151899635" lon="9.799205685619604"><ele>611.0</ele><time>2026-04-05T07:26:00Z</time></trkpt><trkpt lat="45.743118431142456" lon="9.799290447998127"><ele>615.0</ele><time>2026-04-05T07:26:02Z</time></trkpt><trkpt lat="45.74315893745201" lon="9.79941322842706"><ele>616.8333333333334</ele><time>2026-04-05T07:26:05Z</time></trkpt><trkpt lat="45.743180266279786" lon="9.799498734851827"><ele>618.6666666666666</ele><time>2026-04-05T07:26:07Z</time></trkpt><trkpt lat="45.743216777068625" lon="9.799575699702403"><ele>620.5</ele><time>2026-04-05T07:26:09Z</time></trkpt><trkpt lat="45.743272658571" lon="9.799678191640686"><ele>622.3333333333333</ele><time>2026-04-05T07:26:12Z</time></trkpt><trkpt lat="45.743342556912644" lon="9.799759739903903"><ele>624.1666666666666</ele><time>2026-04-05T07:26:15Z</time></trkpt><trkpt lat="45.74342547637178" lon="9.799817104080644"><ele>626.0</ele><time>2026-04-05T07:26:18Z</time></trkpt><trkpt lat="45.743491680929864" lon="9.799846718023778"><ele>623.5714285714286</ele><time>2026-04-05T07:26:20Z</time></trkpt><trkpt lat="45.743556537487294" lon="9.799860910738076"><ele>621.1428571428571</ele><time>2026-04-05T07:26:22Z</time></trkpt><trkpt lat="45.74362536187136" lon="9.79987768639315"><ele>618.7142857142858</ele><time>2026-04-05T07:26:24Z</time></trkpt><trkpt lat="45.7436956686106" lon="9.799882351236812"><ele>616.2857142857142</ele><time>2026-04-05T07:26:26Z</time></trkpt><trkpt lat="45.743772652736524" lon="9.799863258311065"><ele>613.8571428571429</ele><time>2026-04-05T07:26:28Z</time></trkpt><trkpt lat="45.74384855344411" lon="9.799839969820589"><ele>611.4285714285714</ele><time>2026-04-05T07:26:30Z</time></trkpt><trkpt lat="45.74392122842881" lon="9.799790981533977"><ele>609.0</ele><time>2026-04-05T07:26:32Z</time></trkpt><trkpt lat="45.743981816073315" lon="9.799712165050009"><ele>609.0</ele><time>2026-04-05T07:26:34Z</time></trkpt><trkpt lat="45.74402212594878" lon="9.799617084591983"><ele>609.0</ele><time>2026-04-05T07:26:37Z</time></trkpt><trkpt lat="45.74407984876636" lon="9.799544748174137"><ele>609.0</ele><time>2026-04-05T07:26:40Z</time></trkpt><trkpt lat="45.744137244819036" lon="9.79950441517746"><ele>609.0</ele><time>2026-04-05T07:26:43Z</time></trkpt><trkpt lat="45.74412572378588" lon="9.799594137435543"><ele>609.0</ele><time>2026-04-05T07:27:10Z</time></trkpt><trkpt lat="45.74407638156536" lon="9.79965023885441"><ele>609.0</ele><time>2026-04-05T07:27:12Z</time></trkpt><trkpt lat="45.74401754459454" lon="9.799691191273714"><ele>609.0</ele><time>2026-04-05T07:27:14Z</time></trkpt><trkpt lat="45.743960565676666" lon="9.799765618211511"><ele>609.0</ele><time>2026-04-05T07:27:16Z</time></trkpt><trkpt lat="45.74390637714283" lon="9.799846775163443"><ele>609.0</ele><time>2026-04-05T07:27:18Z</time></trkpt><trkpt lat="45.74384282491011" lon="9.799921546337565"><ele>609.0</ele><time>2026-04-05T07:27:20Z</time></trkpt><trkpt lat="45.74376039730922" lon="9.80001884917942"><ele>609.0</ele><time>2026-04-05T07:27:22Z</time></trkpt><trkpt lat="45.74367580867334" lon="9.800117412469842"><ele>609.0</ele><time>2026-04-05T07:27:24Z</time></trkpt><trkpt lat="45.74358048962923" lon="9.80021385977298"><ele>608.3333333333334</ele><time>2026-04-05T07:27:26Z</time></trkpt><trkpt lat="45.74346045535853" lon="9.800247086191497"><ele>607.6666666666666</ele><time>2026-04-05T07:27:28Z</time></trkpt><trkpt lat="45.74339391513036" lon="9.800251623243712"><ele>607.0</ele><time>2026-04-05T07:27:29Z</time></trkpt><trkpt lat="45.743324701784495" lon="9.80023830156897"><ele>606.3333333333333</ele><time>2026-04-05T07:27:30Z</time></trkpt><trkpt lat="45.743259454008495" lon="9.800213342489359"><ele>605.6666666666666</ele><time>2026-04-05T07:27:31Z</time></trkpt><trkpt lat="45.74319409667698" lon="9.800195363727457"><ele>605.0</ele><time>2026-04-05T07:27:32Z</time></trkpt><trkpt lat="45.74309116922008" lon="9.800178605606225"><ele>605.0</ele><time>2026-04-05T07:27:34Z</time></trkpt><trkpt lat="45.74298439824578" lon="9.800188524719237"><ele>605.0</ele><time>2026-04-05T07:27:36Z</time></trkpt><trkpt lat="45.74288216282036" lon="9.800213013177677"><ele>605.0</ele><time>2026-04-05T07:27:38Z</time></trkpt><trkpt lat="45.74276301179439" lon="9.800270256884104"><ele>605.0</ele><time>2026-04-05T07:27:40Z</time></trkpt><trkpt lat="45.74265003428424" lon="9.80034704649383"><ele>607.5714285714286</ele><time>2026-04-05T07:27:42Z</time></trkpt><trkpt lat="45.74259243458448" lon="9.800391540554365"><ele>610.1428571428571</ele><time>2026-04-05T07:27:43Z</time></trkpt><trkpt lat="45.7425404677951" lon="9.800442796386934"><ele>612.7142857142858</ele><time>2026-04-05T07:27:44Z</time></trkpt><trkpt lat="45.742489276245635" lon="9.80049556027067"><ele>615.2857142857142</ele><time>2026-04-05T07:27:45Z</time></trkpt><trkpt lat="45.7424384778447" lon="9.800553864781977"><ele>617.8571428571429</ele><time>2026-04-05T07:27:46Z</time></trkpt><trkpt lat="45.74234508135389" lon="9.80066890249147"><ele>620.4285714285714</ele><time>2026-04-05T07:27:48Z</time></trkpt><trkpt lat="45.74228583399149" lon="9.800715316452884"><ele>623.0</ele><time>2026-04-05T07:27:49Z</time></trkpt><trkpt lat="45.74219049219507" lon="9.800835882298893"><ele>623.0</ele><time>2026-04-05T07:27:51Z</time></trkpt><trkpt lat="45.742091236522" lon="9.800946935094851"><ele>623.0</ele><time>2026-04-05T07:27:53Z</time></trkpt><trkpt lat="45.74203713887967" lon="9.800994008270239"><ele>623.0</ele><time>2026-04-05T07:27:54Z</time></trkpt><trkpt lat="45.74198311235604" lon="9.801044420552362"><ele>623.0</ele><time>2026-04-05T07:27:55Z</time></trkpt><trkpt lat="45.74188221161093" lon="9.801130248989836"><ele>623.0</ele><time>2026-04-05T07:27:57Z</time></trkpt><trkpt lat="45.74177510478523" lon="9.801206316475522"><ele>624.0</ele><time>2026-04-05T07:27:59Z</time></trkpt><trkpt lat="45.741673169695844" lon="9.801274601839843"><ele>625.0</ele><time>2026-04-05T07:28:01Z</time></trkpt><trkpt lat="45.74156999816033" lon="9.801337032271105"><ele>626.0</ele><time>2026-04-05T07:28:03Z</time></trkpt><trkpt lat="45.74147836194703" lon="9.801405844682325"><ele>627.0</ele><time>2026-04-05T07:28:05Z</time></trkpt><trkpt lat="45.74138667560709" lon="9.801474963322468"><ele>628.0</ele><time>2026-04-05T07:28:07Z</time></trkpt><trkpt lat="45.74130311895056" lon="9.801534785189585"><ele>628.0</ele><time>2026-04-05T07:28:09Z</time></trkpt><trkpt lat="45.741195717824624" lon="9.801637281872111"><ele>628.0</ele><time>2026-04-05T07:28:11Z</time></trkpt><trkpt lat="45.741129029911576" lon="9.801676372618228"><ele>628.0</ele><time>2026-04-05T07:28:13Z</time></trkpt><trkpt lat="45.74104890705801" lon="9.801763969901602"><ele>628.0</ele><time>2026-04-05T07:28:15Z</time></trkpt><trkpt lat="45.74094765361391" lon="9.801855637227517"><ele>628.0</ele><time>2026-04-05T07:28:17Z</time></trkpt><trkpt lat="45.74084850778899" lon="9.801936386650603"><ele>628.0</ele><time>2026-04-05T07:28:19Z</time></trkpt><trkpt lat="45.74079437451262" lon="9.801982717468862"><ele>628.0</ele><time>2026-04-05T07:28:20Z</time></trkpt><trkpt lat="45.74068837351348" lon="9.802063768967084"><ele>628.0</ele><time>2026-04-05T07:28:22Z</time></trkpt><trkpt lat="45.74057482034044" lon="9.802130173857591"><ele>628.0</ele><time>2026-04-05T07:28:24Z</time></trkpt><trkpt lat="45.74046525245272" lon="9.80219713185477"><ele>628.0</ele><time>2026-04-05T07:28:26Z</time></trkpt><trkpt lat="45.74035570402963" lon="9.80226000169792"><ele>628.0</ele><time>2026-04-05T07:28:28Z</time></trkpt><trkpt lat="45.74024785194943" lon="9.802331966915295"><ele>628.0</ele><time>2026-04-05T07:28:30Z</time></trkpt><trkpt lat="45.74013964482356" lon="9.802405189707686"><ele>628.0</ele><time>2026-04-05T07:28:32Z</time></trkpt><trkpt lat="45.74002368261175" lon="9.802449652901146"><ele>628.0</ele><time>2026-04-05T07:28:34Z</time></trkpt><trkpt lat="45.73991096072703" lon="9.802497436709944"><ele>629.6</ele><time>2026-04-05T07:28:36Z</time></trkpt><trkpt lat="45.739804541322655" lon="9.802558448904401"><ele>631.1999999999999</ele><time>2026-04-05T07:28:38Z</time></trkpt><trkpt lat="45.739693958587445" lon="9.802611085286957"><ele>632.8</ele><time>2026-04-05T07:28:40Z</time></trkpt><trkpt lat="45.73958931888066" lon="9.80266594595341"><ele>634.4</ele><time>2026-04-05T07:28:42Z</time></trkpt><trkpt lat="45.739491715254715" lon="9.802724727432057"><ele>636.0</ele><time>2026-04-05T07:28:44Z</time></trkpt><trkpt lat="45.73939852500128" lon="9.80277571877944"><ele>637.6</ele><time>2026-04-05T07:28:46Z</time></trkpt><trkpt lat="45.73930988349743" lon="9.802834755310023"><ele>639.2</ele><time>2026-04-05T07:28:48Z</time></trkpt><trkpt lat="45.73921857975679" lon="9.802886495509727"><ele>640.8000000000001</ele><time>2026-04-05T07:28:50Z</time></trkpt><trkpt lat="45.73912110385172" lon="9.802926800747516"><ele>642.4000000000001</ele><time>2026-04-05T07:28:52Z</time></trkpt><trkpt lat="45.7390081719683" lon="9.802960740895529"><ele>644.0</ele><time>2026-04-05T07:28:54Z</time></trkpt><trkpt lat="45.738925109319105" lon="9.803003784580751"><ele>644.0</ele><time>2026-04-05T07:28:56Z</time></trkpt><trkpt lat="45.73883085369004" lon="9.803043979861688"><ele>644.0</ele><time>2026-04-05T07:28:58Z</time></trkpt><trkpt lat="45.73873969340401" lon="9.803078279220633"><ele>644.0</ele><time>2026-04-05T07:29:00Z</time></trkpt><trkpt lat="45.73865122113006" lon="9.803099948327544"><ele>644.0</ele><time>2026-04-05T07:29:02Z</time></trkpt><trkpt lat="45.73855435888409" lon="9.803137097813758"><ele>644.0</ele><time>2026-04-05T07:29:04Z</time></trkpt><trkpt lat="45.738454976233776" lon="9.803176470402741"><ele>646.2</ele><time>2026-04-05T07:29:06Z</time></trkpt><trkpt lat="45.73834863836891" lon="9.803199870992259"><ele>648.4000000000001</ele><time>2026-04-05T07:29:08Z</time></trkpt><trkpt lat="45.738238247222206" lon="9.803213566121425"><ele>650.6</ele><time>2026-04-05T07:29:10Z</time></trkpt><trkpt lat="45.73814628620327" lon="9.803270514910263"><ele>652.8</ele><time>2026-04-05T07:29:12Z</time></trkpt><trkpt lat="45.73807963837165" lon="9.803296178292577"><ele>655.0</ele><time>2026-04-05T07:29:13Z</time></trkpt><trkpt lat="45.73799072268855" lon="9.803369859333841"><ele>655.0</ele><time>2026-04-05T07:29:15Z</time></trkpt><trkpt lat="45.737906073632594" lon="9.803440289913091"><ele>655.0</ele><time>2026-04-05T07:29:17Z</time></trkpt><trkpt lat="45.737818856627726" lon="9.803502051351199"><ele>655.0</ele><time>2026-04-05T07:29:19Z</time></trkpt><trkpt lat="45.737730346366774" lon="9.803555640919312"><ele>655.0</ele><time>2026-04-05T07:29:21Z</time></trkpt><trkpt lat="45.73763609783845" lon="9.803610838910755"><ele>655.0</ele><time>2026-04-05T07:29:23.001Z</time></trkpt><trkpt lat="45.73754809986215" lon="9.803654239481531"><ele>656.2</ele><time>2026-04-05T07:29:25.001Z</time></trkpt><trkpt lat="45.73746062567317" lon="9.803690748613217"><ele>657.4</ele><time>2026-04-05T07:29:27.001Z</time></trkpt><trkpt lat="45.737374144431584" lon="9.803733983387646"><ele>658.5999999999999</ele><time>2026-04-05T07:29:29.001Z</time></trkpt><trkpt lat="45.737282419242206" lon="9.803788606477822"><ele>659.8</ele><time>2026-04-05T07:29:31.001Z</time></trkpt><trkpt lat="45.73718877709433" lon="9.803847961192629"><ele>661.0</ele><time>2026-04-05T07:29:33.001Z</time></trkpt><trkpt lat="45.73709668973971" lon="9.80391437014858"><ele>661.0</ele><time>2026-04-05T07:29:35.001Z</time></trkpt><trkpt lat="45.737001439597" lon="9.8039749974784"><ele>661.0</ele><time>2026-04-05T07:29:37.001Z</time></trkpt><trkpt lat="45.736910437240894" lon="9.804048572860184"><ele>661.0</ele><time>2026-04-05T07:29:39.001Z</time></trkpt><trkpt lat="45.73681428898968" lon="9.804124299109878"><ele>661.0</ele><time>2026-04-05T07:29:41.001Z</time></trkpt><trkpt lat="45.73671475076747" lon="9.80418826453869"><ele>661.0</ele><time>2026-04-05T07:29:43.001Z</time></trkpt><trkpt lat="45.73661668928788" lon="9.804251190904129"><ele>663.5999999999999</ele><time>2026-04-05T07:29:45.001Z</time></trkpt><trkpt lat="45.7365162651268" lon="9.804310306661177"><ele>666.2</ele><time>2026-04-05T07:29:47.001Z</time></trkpt><trkpt lat="45.73641989265195" lon="9.804355429306023"><ele>668.8</ele><time>2026-04-05T07:29:49.001Z</time></trkpt><trkpt lat="45.7363299253522" lon="9.804393035146546"><ele>671.4000000000001</ele><time>2026-04-05T07:29:51.001Z</time></trkpt><trkpt lat="45.73624302897157" lon="9.804435437818004"><ele>674.0</ele><time>2026-04-05T07:29:53.001Z</time></trkpt><trkpt lat="45.73616192768865" lon="9.80448053291092"><ele>674.0</ele><time>2026-04-05T07:29:55.001Z</time></trkpt><trkpt lat="45.736085592812536" lon="9.804535341715875"><ele>674.0</ele><time>2026-04-05T07:29:57.001Z</time></trkpt><trkpt lat="45.73602966026042" lon="9.804617123132711"><ele>674.0</ele><time>2026-04-05T07:29:59.001Z</time></trkpt><trkpt lat="45.73598186584146" lon="9.80470849635264"><ele>674.0</ele><time>2026-04-05T07:30:01.001Z</time></trkpt><trkpt lat="45.73592750459074" lon="9.804791444717011"><ele>674.0</ele><time>2026-04-05T07:30:03.001Z</time></trkpt><trkpt lat="45.73587555803963" lon="9.804870881135056"><ele>674.0</ele><time>2026-04-05T07:30:05.001Z</time></trkpt><trkpt lat="45.73580916857092" lon="9.804974683549846"><ele>675.8333333333333</ele><time>2026-04-05T07:30:08Z</time></trkpt><trkpt lat="45.73576890005271" lon="9.805062265477838"><ele>677.6666666666666</ele><time>2026-04-05T07:30:10Z</time></trkpt><trkpt lat="45.735723402651224" lon="9.80514033580429"><ele>679.5</ele><time>2026-04-05T07:30:12Z</time></trkpt><trkpt lat="45.735685221101946" lon="9.805255412048682"><ele>681.3333333333334</ele><time>2026-04-05T07:30:15Z</time></trkpt><trkpt lat="45.73565830028528" lon="9.80535283973974"><ele>683.1666666666667</ele><time>2026-04-05T07:30:17Z</time></trkpt><trkpt lat="45.735607885657025" lon="9.80543908461609"><ele>685.0</ele><time>2026-04-05T07:30:20Z</time></trkpt><trkpt lat="45.73554735712493" lon="9.805516671658028"><ele>685.0</ele><time>2026-04-05T07:30:23Z</time></trkpt><trkpt lat="45.735495933296015" lon="9.805578963982668"><ele>685.0</ele><time>2026-04-05T07:30:25Z</time></trkpt><trkpt lat="45.73545023554446" lon="9.805645614619406"><ele>685.0</ele><time>2026-04-05T07:30:27Z</time></trkpt><trkpt lat="45.73538302286489" lon="9.805739603464884"><ele>685.0</ele><time>2026-04-05T07:30:30Z</time></trkpt><trkpt lat="45.735321088529105" lon="9.805808200977719"><ele>685.0</ele><time>2026-04-05T07:30:32Z</time></trkpt><trkpt lat="45.73527087272461" lon="9.805906965752687"><ele>685.0</ele><time>2026-04-05T07:30:34Z</time></trkpt><trkpt lat="45.73522238085835" lon="9.805968875841081"><ele>688.8333333333334</ele><time>2026-04-05T07:30:36Z</time></trkpt><trkpt lat="45.73515692046878" lon="9.806050515567927"><ele>692.6666666666667</ele><time>2026-04-05T07:30:39Z</time></trkpt><trkpt lat="45.735099683577765" lon="9.806116782984912"><ele>696.5</ele><time>2026-04-05T07:30:41Z</time></trkpt><trkpt lat="45.73504311174398" lon="9.806184403458118"><ele>700.3333333333334</ele><time>2026-04-05T07:30:43Z</time></trkpt><trkpt lat="45.734986029087054" lon="9.806273576324626"><ele>704.1666666666666</ele><time>2026-04-05T07:30:45Z</time></trkpt><trkpt lat="45.73491796759829" lon="9.806344509059443"><ele>708.0</ele><time>2026-04-05T07:30:47Z</time></trkpt><trkpt lat="45.73486958608369" lon="9.806408657630467"><ele>708.0</ele><time>2026-04-05T07:30:50Z</time></trkpt><trkpt lat="45.734831199990424" lon="9.806481405610516"><ele>708.0</ele><time>2026-04-05T07:30:52Z</time></trkpt><trkpt lat="45.734786892417034" lon="9.806554169025569"><ele>708.0</ele><time>2026-04-05T07:30:54Z</time></trkpt><trkpt lat="45.73474298975464" lon="9.806628680762197"><ele>708.0</ele><time>2026-04-05T07:30:56Z</time></trkpt><trkpt lat="45.734691659022445" lon="9.806700064660903"><ele>708.0</ele><time>2026-04-05T07:30:58Z</time></trkpt><trkpt lat="45.73462032312881" lon="9.806789664210568"><ele>708.0</ele><time>2026-04-05T07:31:01Z</time></trkpt><trkpt lat="45.73456077084283" lon="9.806884665344288"><ele>709.6666666666666</ele><time>2026-04-05T07:31:04Z</time></trkpt><trkpt lat="45.73449617597196" lon="9.8069678522753"><ele>711.3333333333334</ele><time>2026-04-05T07:31:07Z</time></trkpt><trkpt lat="45.73444331846354" lon="9.807060363665327"><ele>713.0</ele><time>2026-04-05T07:31:11Z</time></trkpt><trkpt lat="45.73439241818834" lon="9.807136564387148"><ele>714.6666666666667</ele><time>2026-04-05T07:31:14Z</time></trkpt><trkpt lat="45.73435645144687" lon="9.80705369925258"><ele>716.3333333333334</ele><time>2026-04-05T07:31:18Z</time></trkpt><trkpt lat="45.73438691045171" lon="9.806947375198673"><ele>718.0</ele><time>2026-04-05T07:31:20Z</time></trkpt><trkpt lat="45.73442262798898" lon="9.806837389464642"><ele>716.3333333333334</ele><time>2026-04-05T07:31:23Z</time></trkpt><trkpt lat="45.73446632744043" lon="9.806727712619434"><ele>714.6666666666667</ele><time>2026-04-05T07:31:26Z</time></trkpt><trkpt lat="45.73446114102448" lon="9.806619286798028"><ele>713.0</ele><time>2026-04-05T07:31:29.001Z</time></trkpt><trkpt lat="45.73443780803489" lon="9.806506757134677"><ele>711.3333333333334</ele><time>2026-04-05T07:31:33.001Z</time></trkpt><trkpt lat="45.73442126915738" lon="9.806386861466905"><ele>709.6666666666666</ele><time>2026-04-05T07:31:36.001Z</time></trkpt><trkpt lat="45.734373355883214" lon="9.806290889383332"><ele>708.0</ele><time>2026-04-05T07:31:39.001Z</time></trkpt><trkpt lat="45.73432263290915" lon="9.806194724286632"><ele>709.2857142857143</ele><time>2026-04-05T07:31:42.001Z</time></trkpt><trkpt lat="45.73428708752077" lon="9.806112437815651"><ele>710.5714285714286</ele><time>2026-04-05T07:31:44Z</time></trkpt><trkpt lat="45.7342430707087" lon="9.806021830797059"><ele>711.8571428571429</ele><time>2026-04-05T07:31:46Z</time></trkpt><trkpt lat="45.734267682427685" lon="9.805915269717682"><ele>713.1428571428571</ele><time>2026-04-05T07:31:49Z</time></trkpt><trkpt lat="45.734331362369076" lon="9.805825541847415"><ele>714.4285714285713</ele><time>2026-04-05T07:31:53Z</time></trkpt><trkpt lat="45.7343937573771" lon="9.805786831002989"><ele>715.7142857142857</ele><time>2026-04-05T07:32:19Z</time></trkpt><trkpt lat="45.7344446524901" lon="9.805727717810523"><ele>717.0</ele><time>2026-04-05T07:32:22Z</time></trkpt><trkpt lat="45.7345156856172" lon="9.805669345659622"><ele>717.0</ele><time>2026-04-05T07:32:26Z</time></trkpt><trkpt lat="45.73457194977415" lon="9.805578192892105"><ele>717.0</ele><time>2026-04-05T07:32:29Z</time></trkpt><trkpt lat="45.73460182267022" lon="9.805467515911717"><ele>717.0</ele><time>2026-04-05T07:32:32Z</time></trkpt><trkpt lat="45.73464979571481" lon="9.805359958076547"><ele>717.0</ele><time>2026-04-05T07:32:35Z</time></trkpt><trkpt lat="45.73467550228386" lon="9.805266163250367"><ele>717.0</ele><time>2026-04-05T07:32:37Z</time></trkpt><trkpt lat="45.734709263064666" lon="9.805185622492544"><ele>717.0</ele><time>2026-04-05T07:32:39Z</time></trkpt><trkpt lat="45.73473043132068" lon="9.805057459769488"><ele>719.8571428571429</ele><time>2026-04-05T07:32:42Z</time></trkpt><trkpt lat="45.73474186352323" lon="9.804968098049931"><ele>722.7142857142857</ele><time>2026-04-05T07:32:44Z</time></trkpt><trkpt lat="45.73475757077681" lon="9.804878205222531"><ele>725.5714285714287</ele><time>2026-04-05T07:32:46Z</time></trkpt><trkpt lat="45.73475555874268" lon="9.804767905994566"><ele>728.4285714285714</ele><time>2026-04-05T07:32:49Z</time></trkpt><trkpt lat="45.73474499545197" lon="9.804676310745327"><ele>731.2857142857143</ele><time>2026-04-05T07:32:51Z</time></trkpt><trkpt lat="45.7347198754334" lon="9.804571032713309"><ele>734.1428571428572</ele><time>2026-04-05T07:32:54Z</time></trkpt><trkpt lat="45.73467518374495" lon="9.804487362416959"><ele>737.0</ele><time>2026-04-05T07:32:57Z</time></trkpt><trkpt lat="45.73462506382296" lon="9.804384226459437"><ele>737.1428571428572</ele><time>2026-04-05T07:33:00Z</time></trkpt><trkpt lat="45.734572882742235" lon="9.804286416910141"><ele>737.2857142857143</ele><time>2026-04-05T07:33:03Z</time></trkpt><trkpt lat="45.734514230498064" lon="9.80421630683966"><ele>737.4285714285714</ele><time>2026-04-05T07:33:05Z</time></trkpt><trkpt lat="45.73447753867938" lon="9.804137261147073"><ele>737.5714285714287</ele><time>2026-04-05T07:33:07Z</time></trkpt><trkpt lat="45.7344264435341" lon="9.804055358767448"><ele>737.7142857142857</ele><time>2026-04-05T07:33:09Z</time></trkpt><trkpt lat="45.7343901531002" lon="9.803970833944824"><ele>737.8571428571429</ele><time>2026-04-05T07:33:11Z</time></trkpt><trkpt lat="45.7343512105653" lon="9.803891821089744"><ele>738.0</ele><time>2026-04-05T07:33:13Z</time></trkpt><trkpt lat="45.7343121420497" lon="9.803810021371069"><ele>743.0</ele><time>2026-04-05T07:33:15Z</time></trkpt><trkpt lat="45.73428025532722" lon="9.803714656533408"><ele>748.0</ele><time>2026-04-05T07:33:17Z</time></trkpt><trkpt lat="45.734236950537095" lon="9.803612688569276"><ele>753.0</ele><time>2026-04-05T07:33:20Z</time></trkpt><trkpt lat="45.73419598683753" lon="9.80352876140342"><ele>758.0</ele><time>2026-04-05T07:33:23Z</time></trkpt><trkpt lat="45.734143399037954" lon="9.803469447988288"><ele>763.0</ele><time>2026-04-05T07:33:25Z</time></trkpt><trkpt lat="45.73408704538596" lon="9.803376013443943"><ele>768.0</ele><time>2026-04-05T07:33:28Z</time></trkpt><trkpt lat="45.73403432909439" lon="9.803324270399186"><ele>773.0</ele><time>2026-04-05T07:33:30Z</time></trkpt><trkpt lat="45.733963743089355" lon="9.80324070003783"><ele>773.0</ele><time>2026-04-05T07:33:33Z</time></trkpt><trkpt lat="45.733910355890394" lon="9.80317794863481"><ele>773.0</ele><time>2026-04-05T07:33:35Z</time></trkpt><trkpt lat="45.73387001330705" lon="9.803107041367062"><ele>773.0</ele><time>2026-04-05T07:33:37Z</time></trkpt><trkpt lat="45.73382655489142" lon="9.803036152843859"><ele>773.0</ele><time>2026-04-05T07:33:39Z</time></trkpt><trkpt lat="45.733764845893774" lon="9.80297510322326"><ele>773.0</ele><time>2026-04-05T07:33:41Z</time></trkpt><trkpt lat="45.73370234398845" lon="9.802907343776239"><ele>773.0</ele><time>2026-04-05T07:33:43Z</time></trkpt><trkpt lat="45.73365217670403" lon="9.802848469960225"><ele>773.0</ele><time>2026-04-05T07:33:45Z</time></trkpt><trkpt lat="45.73357697817319" lon="9.802756266410729"><ele>773.4285714285714</ele><time>2026-04-05T07:33:48Z</time></trkpt><trkpt lat="45.73352032193015" lon="9.802685173823114"><ele>773.8571428571429</ele><time>2026-04-05T07:33:50Z</time></trkpt><trkpt lat="45.73347177664755" lon="9.802609450947225"><ele>774.2857142857142</ele><time>2026-04-05T07:33:52Z</time></trkpt><trkpt lat="45.73342761953259" lon="9.802541650425095"><ele>774.7142857142858</ele><time>2026-04-05T07:33:54Z</time></trkpt><trkpt lat="45.733424892093545" lon="9.802448581528637"><ele>775.1428571428572</ele><time>2026-04-05T07:33:59Z</time></trkpt><trkpt lat="45.73349575028491" lon="9.802421202692122"><ele>775.5714285714286</ele><time>2026-04-05T07:34:02Z</time></trkpt><trkpt lat="45.733535527133604" lon="9.802314211693915"><ele>776.0</ele><time>2026-04-05T07:34:05Z</time></trkpt><trkpt lat="45.7335995548358" lon="9.802264821851969"><ele>776.0</ele><time>2026-04-05T07:34:27Z</time></trkpt><trkpt lat="45.733652705655246" lon="9.80219780625716"><ele>776.0</ele><time>2026-04-05T07:34:29Z</time></trkpt><trkpt lat="45.73370723336091" lon="9.802120654735438"><ele>776.0</ele><time>2026-04-05T07:34:31Z</time></trkpt><trkpt lat="45.73375257589101" lon="9.802054020922638"><ele>776.0</ele><time>2026-04-05T07:34:33Z</time></trkpt><trkpt lat="45.73376957031511" lon="9.801948273400628"><ele>776.0</ele><time>2026-04-05T07:34:36Z</time></trkpt><trkpt lat="45.73378314134488" lon="9.802048079430774"><ele>776.0</ele><time>2026-04-05T07:35:37Z</time></trkpt><trkpt lat="45.73371039635976" lon="9.802067797910208"><ele>776.0</ele><time>2026-04-05T07:35:39Z</time></trkpt><trkpt lat="45.73365190421437" lon="9.802131161344748"><ele>776.0000000000001</ele><time>2026-04-05T07:35:41Z</time></trkpt><trkpt lat="45.73358645635017" lon="9.802226853795192"><ele>776.0</ele><time>2026-04-05T07:35:43Z</time></trkpt><trkpt lat="45.73351323801505" lon="9.80233921855073"><ele>776.0</ele><time>2026-04-05T07:35:45.001Z</time></trkpt><trkpt lat="45.733453301476004" lon="9.802440156924973"><ele>776.0</ele><time>2026-04-05T07:35:47.001Z</time></trkpt><trkpt lat="45.733404315734965" lon="9.80250481986673"><ele>776.0000000000001</ele><time>2026-04-05T07:35:51.001Z</time></trkpt><trkpt lat="45.733338608545616" lon="9.802526024565516"><ele>776.0</ele><time>2026-04-05T07:35:53.001Z</time></trkpt><trkpt lat="45.733312402273754" lon="9.802620855031272"><ele>776.6666666666667</ele><time>2026-04-05T07:35:55.001Z</time></trkpt><trkpt lat="45.73330778186449" lon="9.802724829851261"><ele>777.3333333333334</ele><time>2026-04-05T07:35:57.001Z</time></trkpt><trkpt lat="45.73329466684264" lon="9.802834542686298"><ele>778.0</ele><time>2026-04-05T07:36:00.001Z</time></trkpt><trkpt lat="45.73329505903921" lon="9.802960475313245"><ele>778.6666666666667</ele><time>2026-04-05T07:36:03.001Z</time></trkpt><trkpt lat="45.73328798667468" lon="9.80306338830936"><ele>779.3333333333334</ele><time>2026-04-05T07:36:05.001Z</time></trkpt><trkpt lat="45.73325764161998" lon="9.803157176013682"><ele>780.0</ele><time>2026-04-05T07:36:07.001Z</time></trkpt><trkpt lat="45.73325217668482" lon="9.803253475220963"><ele>780.0</ele><time>2026-04-05T07:36:09.001Z</time></trkpt><trkpt lat="45.73326196370331" lon="9.803367580235921"><ele>780.0</ele><time>2026-04-05T07:36:11.001Z</time></trkpt><trkpt lat="45.73324748852635" lon="9.803487312489834"><ele>780.0</ele><time>2026-04-05T07:36:13.001Z</time></trkpt><trkpt lat="45.733241358890396" lon="9.803611128037113"><ele>780.0</ele><time>2026-04-05T07:36:15Z</time></trkpt><trkpt lat="45.73323153092574" lon="9.803731237770267"><ele>780.0</ele><time>2026-04-05T07:36:17Z</time></trkpt><trkpt lat="45.73323067208255" lon="9.80382733942812"><ele>780.0</ele><time>2026-04-05T07:36:19Z</time></trkpt><trkpt lat="45.73323671067394" lon="9.803926824062257"><ele>782.6666666666666</ele><time>2026-04-05T07:36:21Z</time></trkpt><trkpt lat="45.733239833450945" lon="9.804033914059321"><ele>785.3333333333333</ele><time>2026-04-05T07:36:23Z</time></trkpt><trkpt lat="45.73322253296665" lon="9.80412149864072"><ele>788.0</ele><time>2026-04-05T07:36:25Z</time></trkpt><trkpt lat="45.733186012566655" lon="9.804242247503371"><ele>790.6666666666666</ele><time>2026-04-05T07:36:27Z</time></trkpt><trkpt lat="45.73313804661421" lon="9.804340103013084"><ele>793.3333333333333</ele><time>2026-04-05T07:36:29Z</time></trkpt><trkpt lat="45.73307414869591" lon="9.804438614170815"><ele>796.0</ele><time>2026-04-05T07:36:31Z</time></trkpt><trkpt lat="45.73302007141216" lon="9.804526614009122"><ele>796.1666666666666</ele><time>2026-04-05T07:36:33Z</time></trkpt><trkpt lat="45.7329653362548" lon="9.804625288311577"><ele>796.3333333333333</ele><time>2026-04-05T07:36:35Z</time></trkpt><trkpt lat="45.73289504006062" lon="9.80471434503321"><ele>796.5</ele><time>2026-04-05T07:36:37Z</time></trkpt><trkpt lat="45.73286045790683" lon="9.804824123294951"><ele>796.6666666666667</ele><time>2026-04-05T07:36:39Z</time></trkpt><trkpt lat="45.73283292876715" lon="9.804921819508092"><ele>796.8333333333334</ele><time>2026-04-05T07:36:41Z</time></trkpt><trkpt lat="45.73282781551654" lon="9.80502679337257"><ele>797.0</ele><time>2026-04-05T07:36:43Z</time></trkpt><trkpt lat="45.73282918501326" lon="9.805135963010267"><ele>796.5000000000001</ele><time>2026-04-05T07:36:45Z</time></trkpt><trkpt lat="45.73283872002422" lon="9.805238405260573"><ele>796.0</ele><time>2026-04-05T07:36:47Z</time></trkpt><trkpt lat="45.73284914494293" lon="9.80533898535332"><ele>795.5</ele><time>2026-04-05T07:36:49Z</time></trkpt><trkpt lat="45.73285742938641" lon="9.805459466302386"><ele>795.0</ele><time>2026-04-05T07:36:52Z</time></trkpt><trkpt lat="45.732843258604504" lon="9.805566727161711"><ele>794.5000000000001</ele><time>2026-04-05T07:36:54Z</time></trkpt><trkpt lat="45.73281363603913" lon="9.805648867502939"><ele>794.0</ele><time>2026-04-05T07:37:01Z</time></trkpt><trkpt lat="45.73275294440056" lon="9.805728082810246"><ele>793.7142857142857</ele><time>2026-04-05T07:37:25Z</time></trkpt><trkpt lat="45.73272133871541" lon="9.805814749165279"><ele>793.4285714285713</ele><time>2026-04-05T07:37:28Z</time></trkpt><trkpt lat="45.732697562854014" lon="9.805914394957009"><ele>793.1428571428571</ele><time>2026-04-05T07:37:33Z</time></trkpt><trkpt lat="45.73264740765209" lon="9.805975385981554"><ele>792.8571428571429</ele><time>2026-04-05T07:37:36Z</time></trkpt><trkpt lat="45.73259317938801" lon="9.80608877284168"><ele>792.5714285714286</ele><time>2026-04-05T07:37:39Z</time></trkpt><trkpt lat="45.73257568658034" lon="9.806192819680737"><ele>792.2857142857143</ele><time>2026-04-05T07:37:41Z</time></trkpt><trkpt lat="45.73256889941495" lon="9.806287980868998"><ele>792.0</ele><time>2026-04-05T07:37:43Z</time></trkpt><trkpt lat="45.732559331614205" lon="9.806389967962813"><ele>794.0</ele><time>2026-04-05T07:37:45Z</time></trkpt><trkpt lat="45.73254172969434" lon="9.806500613460042"><ele>796.0</ele><time>2026-04-05T07:37:47.001Z</time></trkpt><trkpt lat="45.732516386519066" lon="9.806591350424187"><ele>798.0</ele><time>2026-04-05T07:37:49.001Z</time></trkpt><trkpt lat="45.73248717406889" lon="9.806723908889602"><ele>800.0</ele><time>2026-04-05T07:37:52.001Z</time></trkpt><trkpt lat="45.73245692461821" lon="9.806818260617161"><ele>802.0</ele><time>2026-04-05T07:37:54.001Z</time></trkpt><trkpt lat="45.73241846464801" lon="9.806913736553108"><ele>804.0</ele><time>2026-04-05T07:37:56.001Z</time></trkpt><trkpt lat="45.732376245824405" lon="9.807007641631357"><ele>804.0</ele><time>2026-04-05T07:37:58.001Z</time></trkpt><trkpt lat="45.73232249516064" lon="9.807086010567252"><ele>804.0</ele><time>2026-04-05T07:38:00.001Z</time></trkpt><trkpt lat="45.73226546245231" lon="9.80717070940896"><ele>804.0</ele><time>2026-04-05T07:38:02.001Z</time></trkpt><trkpt lat="45.73222212602346" lon="9.807261649767794"><ele>804.0</ele><time>2026-04-05T07:38:04.001Z</time></trkpt><trkpt lat="45.73218321641354" lon="9.807376962165751"><ele>804.0</ele><time>2026-04-05T07:38:06.001Z</time></trkpt><trkpt lat="45.73216766821041" lon="9.8074893569126"><ele>804.0</ele><time>2026-04-05T07:38:08.001Z</time></trkpt><trkpt lat="45.73215757042186" lon="9.807601036438998"><ele>804.8333333333334</ele><time>2026-04-05T07:38:10Z</time></trkpt><trkpt lat="45.7321398155814" lon="9.807699155883585"><ele>805.6666666666667</ele><time>2026-04-05T07:38:12Z</time></trkpt><trkpt lat="45.73212209365436" lon="9.80779253271855"><ele>806.5</ele><time>2026-04-05T07:38:14Z</time></trkpt><trkpt lat="45.73210827320808" lon="9.807883776734316"><ele>807.3333333333334</ele><time>2026-04-05T07:38:16Z</time></trkpt><trkpt lat="45.73209308207922" lon="9.807998433466143"><ele>808.1666666666667</ele><time>2026-04-05T07:38:18Z</time></trkpt><trkpt lat="45.73207945454526" lon="9.808122855875636"><ele>809.0</ele><time>2026-04-05T07:38:20Z</time></trkpt><trkpt lat="45.73207113538776" lon="9.808247426711548"><ele>809.0</ele><time>2026-04-05T07:38:22Z</time></trkpt><trkpt lat="45.73203746185578" lon="9.80833826109367"><ele>809.0</ele><time>2026-04-05T07:38:24Z</time></trkpt><trkpt lat="45.732015126478586" lon="9.808425301082087"><ele>809.0</ele><time>2026-04-05T07:38:26Z</time></trkpt><trkpt lat="45.73201789307522" lon="9.80851809033343"><ele>809.0</ele><time>2026-04-05T07:38:28Z</time></trkpt><trkpt lat="45.732028284071426" lon="9.808609084674876"><ele>809.0</ele><time>2026-04-05T07:38:30Z</time></trkpt><trkpt lat="45.732031666921486" lon="9.808699302268648"><ele>809.0</ele><time>2026-04-05T07:38:32Z</time></trkpt><trkpt lat="45.7320248883016" lon="9.808808193061376"><ele>809.0</ele><time>2026-04-05T07:38:35Z</time></trkpt><trkpt lat="45.731988450456306" lon="9.80891219737751"><ele>808.8000000000001</ele><time>2026-04-05T07:38:40Z</time></trkpt><trkpt lat="45.73194549632902" lon="9.809016446639793"><ele>808.6</ele><time>2026-04-05T07:38:42Z</time></trkpt><trkpt lat="45.73190721313404" lon="9.809161381440212"><ele>808.4</ele><time>2026-04-05T07:38:44Z</time></trkpt><trkpt lat="45.73183841884861" lon="9.809293451399329"><ele>808.2</ele><time>2026-04-05T07:38:46Z</time></trkpt><trkpt lat="45.7317340465803" lon="9.80938706891407"><ele>808.0</ele><time>2026-04-05T07:38:48Z</time></trkpt><trkpt lat="45.73163348235893" lon="9.809492541930636"><ele>813.1666666666666</ele><time>2026-04-05T07:38:50Z</time></trkpt><trkpt lat="45.73154256080602" lon="9.809585214691966"><ele>818.3333333333333</ele><time>2026-04-05T07:38:52Z</time></trkpt><trkpt lat="45.73147802411631" lon="9.809646226649267"><ele>823.5</ele><time>2026-04-05T07:38:54Z</time></trkpt><trkpt lat="45.73141918034512" lon="9.809690143801495"><ele>828.6666666666667</ele><time>2026-04-05T07:39:07Z</time></trkpt><trkpt lat="45.7313741802687" lon="9.809754976943859"><ele>833.8333333333334</ele><time>2026-04-05T07:39:15Z</time></trkpt><trkpt lat="45.73131912574627" lon="9.809842060305474"><ele>839.0</ele><time>2026-04-05T07:39:18Z</time></trkpt><trkpt lat="45.73125696171737" lon="9.809903023669836"><ele>839.0000000000001</ele><time>2026-04-05T07:39:20Z</time></trkpt><trkpt lat="45.73121670564178" lon="9.809986815350655"><ele>839.0</ele><time>2026-04-05T07:39:22Z</time></trkpt><trkpt lat="45.731162399009705" lon="9.810059695065261"><ele>839.0</ele><time>2026-04-05T07:39:24Z</time></trkpt><trkpt lat="45.731114863134366" lon="9.810152107268545"><ele>839.0</ele><time>2026-04-05T07:39:26Z</time></trkpt><trkpt lat="45.73111454670161" lon="9.810295141501234"><ele>839.0000000000001</ele><time>2026-04-05T07:39:28Z</time></trkpt><trkpt lat="45.73108360881335" lon="9.81043450561082"><ele>839.0</ele><time>2026-04-05T07:39:30Z</time></trkpt><trkpt lat="45.73106049248664" lon="9.810564543518579"><ele>834.0000000000001</ele><time>2026-04-05T07:39:32Z</time></trkpt><trkpt lat="45.73102953342053" lon="9.810684280642523"><ele>829.0</ele><time>2026-04-05T07:39:34Z</time></trkpt><trkpt lat="45.731026379728746" lon="9.810781650983898"><ele>824.0</ele><time>2026-04-05T07:39:36Z</time></trkpt><trkpt lat="45.73095275901837" lon="9.810809377917323"><ele>819.0</ele><time>2026-04-05T07:39:38Z</time></trkpt><trkpt lat="45.73087795482603" lon="9.81086411224151"><ele>814.0000000000001</ele><time>2026-04-05T07:39:40Z</time></trkpt><trkpt lat="45.730813189012615" lon="9.810941588047244"><ele>809.0</ele><time>2026-04-05T07:39:42Z</time></trkpt><trkpt lat="45.73073869426383" lon="9.810972151747173"><ele>814.1666666666667</ele><time>2026-04-05T07:39:44Z</time></trkpt><trkpt lat="45.730648758454045" lon="9.81102286352515"><ele>819.3333333333334</ele><time>2026-04-05T07:39:46Z</time></trkpt><trkpt lat="45.73057023064176" lon="9.811092206314305"><ele>824.5</ele><time>2026-04-05T07:39:49Z</time></trkpt><trkpt lat="45.73050204589309" lon="9.811147395761845"><ele>829.6666666666667</ele><time>2026-04-05T07:39:51Z</time></trkpt><trkpt lat="45.73043713660855" lon="9.811203148776784"><ele>834.8333333333334</ele><time>2026-04-05T07:39:53Z</time></trkpt><trkpt lat="45.73038894437613" lon="9.811267122604285"><ele>840.0</ele><time>2026-04-05T07:39:55Z</time></trkpt><trkpt lat="45.7303340606231" lon="9.811350901896562"><ele>840.0</ele><time>2026-04-05T07:39:57Z</time></trkpt><trkpt lat="45.730275500779356" lon="9.811438349071544"><ele>840.0</ele><time>2026-04-05T07:39:59Z</time></trkpt><trkpt lat="45.73024240076302" lon="9.811524644060446"><ele>840.0</ele><time>2026-04-05T07:40:01Z</time></trkpt><trkpt lat="45.730213296669106" lon="9.81164201882492"><ele>840.0</ele><time>2026-04-05T07:40:03Z</time></trkpt><trkpt lat="45.73019076587924" lon="9.811787913635454"><ele>840.0</ele><time>2026-04-05T07:40:05Z</time></trkpt><trkpt lat="45.730148010329394" lon="9.811890426198937"><ele>840.0</ele><time>2026-04-05T07:40:07Z</time></trkpt><trkpt lat="45.73004807638348" lon="9.8119058900043"><ele>836.4</ele><time>2026-04-05T07:40:09Z</time></trkpt><trkpt lat="45.72993551741003" lon="9.811949907024736"><ele>832.8</ele><time>2026-04-05T07:40:11Z</time></trkpt><trkpt lat="45.729876900760466" lon="9.811990458865413"><ele>829.2</ele><time>2026-04-05T07:40:12Z</time></trkpt><trkpt lat="45.72978496188808" lon="9.812085979590147"><ele>825.6</ele><time>2026-04-05T07:40:14Z</time></trkpt><trkpt lat="45.72970325081753" lon="9.812165663673605"><ele>822.0</ele><time>2026-04-05T07:40:16Z</time></trkpt><trkpt lat="45.72961509597986" lon="9.812253296763327"><ele>822.0</ele><time>2026-04-05T07:40:18Z</time></trkpt><trkpt lat="45.729554099960154" lon="9.812307077066377"><ele>822.0</ele><time>2026-04-05T07:40:20Z</time></trkpt><trkpt lat="45.729486851515375" lon="9.812377281000138"><ele>822.0</ele><time>2026-04-05T07:40:22Z</time></trkpt><trkpt lat="45.7294251162617" lon="9.812436023527622"><ele>822.0</ele><time>2026-04-05T07:40:24Z</time></trkpt><trkpt lat="45.729363531288485" lon="9.812485019223466"><ele>822.0</ele><time>2026-04-05T07:40:26Z</time></trkpt><trkpt lat="45.72932284217498" lon="9.812575823932312"><ele>822.0</ele><time>2026-04-05T07:40:28Z</time></trkpt><trkpt lat="45.72926487072399" lon="9.81262560406533"><ele>822.0</ele><time>2026-04-05T07:40:30Z</time></trkpt><trkpt lat="45.729184446734116" lon="9.8126826329144"><ele>822.0</ele><time>2026-04-05T07:40:33Z</time></trkpt><trkpt lat="45.72911462433373" lon="9.812746646723156"><ele>822.0</ele><time>2026-04-05T07:40:35Z</time></trkpt><trkpt lat="45.729055276868735" lon="9.812837390159784"><ele>822.0</ele><time>2026-04-05T07:40:37Z</time></trkpt><trkpt lat="45.72897868176099" lon="9.81293746524559"><ele>822.0</ele><time>2026-04-05T07:40:39Z</time></trkpt><trkpt lat="45.72889794704905" lon="9.81302229611673"><ele>822.0</ele><time>2026-04-05T07:40:41Z</time></trkpt><trkpt lat="45.728830022434686" lon="9.813111118601888"><ele>822.0</ele><time>2026-04-05T07:40:43Z</time></trkpt><trkpt lat="45.72876815392004" lon="9.813187894348639"><ele>822.0</ele><time>2026-04-05T07:40:45Z</time></trkpt><trkpt lat="45.72869950994827" lon="9.813246913451742"><ele>822.0</ele><time>2026-04-05T07:40:47Z</time></trkpt><trkpt lat="45.72862727872831" lon="9.813292100740053"><ele>822.0</ele><time>2026-04-05T07:40:49Z</time></trkpt><trkpt lat="45.72854583227344" lon="9.813330334025341"><ele>822.0</ele><time>2026-04-05T07:40:52Z</time></trkpt><trkpt lat="45.728474640243626" lon="9.813398784896803"><ele>822.0</ele><time>2026-04-05T07:40:54Z</time></trkpt><trkpt lat="45.72840097536258" lon="9.813488641062836"><ele>818.3333333333334</ele><time>2026-04-05T07:40:56Z</time></trkpt><trkpt lat="45.72834886928952" lon="9.813583612070914"><ele>814.6666666666667</ele><time>2026-04-05T07:40:58Z</time></trkpt><trkpt lat="45.72827731959263" lon="9.813626624108565"><ele>811.0</ele><time>2026-04-05T07:41:00Z</time></trkpt><trkpt lat="45.72822608203018" lon="9.813704723822166"><ele>807.3333333333334</ele><time>2026-04-05T07:41:02Z</time></trkpt><trkpt lat="45.72815996342356" lon="9.813779180120093"><ele>803.6666666666667</ele><time>2026-04-05T07:41:05Z</time></trkpt><trkpt lat="45.72811188180759" lon="9.81385395324478"><ele>800.0</ele><time>2026-04-05T07:41:08Z</time></trkpt><trkpt lat="45.72807249897428" lon="9.813778617977048"><ele>800.0000000000001</ele><time>2026-04-05T07:41:11Z</time></trkpt><trkpt lat="45.72804361273262" lon="9.813681407254867"><ele>800.0</ele><time>2026-04-05T07:41:13Z</time></trkpt><trkpt lat="45.72797789526322" lon="9.813628138003441"><ele>800.0</ele><time>2026-04-05T07:41:15Z</time></trkpt><trkpt lat="45.72790475648863" lon="9.813586762660034"><ele>800.0</ele><time>2026-04-05T07:41:17Z</time></trkpt><trkpt lat="45.72785260732188" lon="9.813533505735833"><ele>800.0</ele><time>2026-04-05T07:41:19Z</time></trkpt><trkpt lat="45.727782377039894" lon="9.813497803350657"><ele>800.0000000000001</ele><time>2026-04-05T07:41:22Z</time></trkpt><trkpt lat="45.72772028093745" lon="9.813481726355183"><ele>800.0</ele><time>2026-04-05T07:41:24Z</time></trkpt><trkpt lat="45.72764809752096" lon="9.813451051027503"><ele>797.3333333333334</ele><time>2026-04-05T07:41:26Z</time></trkpt><trkpt lat="45.72757694307706" lon="9.813384086443232"><ele>794.6666666666667</ele><time>2026-04-05T07:41:28Z</time></trkpt><trkpt lat="45.72750630309123" lon="9.81335786818557"><ele>792.0</ele><time>2026-04-05T07:42:22Z</time></trkpt><trkpt lat="45.72745341784776" lon="9.813296068725851"><ele>789.3333333333333</ele><time>2026-04-05T07:42:25Z</time></trkpt><trkpt lat="45.72739584896657" lon="9.813226822269645"><ele>786.6666666666666</ele><time>2026-04-05T07:42:30Z</time></trkpt><trkpt lat="45.727338482935075" lon="9.813135830066265"><ele>784.0</ele><time>2026-04-05T07:42:35Z</time></trkpt><trkpt lat="45.72728302130735" lon="9.813041694399395"><ele>784.0</ele><time>2026-04-05T07:42:39Z</time></trkpt><trkpt lat="45.72724084996562" lon="9.812946667313131"><ele>784.0</ele><time>2026-04-05T07:42:42Z</time></trkpt><trkpt lat="45.72716974537289" lon="9.812884822376509"><ele>784.0</ele><time>2026-04-05T07:42:45Z</time></trkpt><trkpt lat="45.72711617979507" lon="9.812819519037747"><ele>784.0</ele><time>2026-04-05T07:42:49Z</time></trkpt><trkpt lat="45.72705786378791" lon="9.812767166539237"><ele>784.0</ele><time>2026-04-05T07:42:52Z</time></trkpt><trkpt lat="45.72700194337098" lon="9.81269151840916"><ele>784.0</ele><time>2026-04-05T07:42:56Z</time></trkpt><trkpt lat="45.72697409741366" lon="9.812602820643827"><ele>784.0</ele><time>2026-04-05T07:42:59Z</time></trkpt><trkpt lat="45.72701727645122" lon="9.812720873385508"><ele>784.0</ele><time>2026-04-05T07:43:41Z</time></trkpt><trkpt lat="45.7270710211783" lon="9.812783064850791"><ele>784.0</ele><time>2026-04-05T07:43:43Z</time></trkpt><trkpt lat="45.72712811879681" lon="9.8128284507004"><ele>784.0</ele><time>2026-04-05T07:43:45Z</time></trkpt><trkpt lat="45.72718725214723" lon="9.812889284314283"><ele>784.0</ele><time>2026-04-05T07:43:47Z</time></trkpt><trkpt lat="45.72724630948187" lon="9.81292553068599"><ele>784.0</ele><time>2026-04-05T07:43:49Z</time></trkpt><trkpt lat="45.72729093058574" lon="9.812994733868306"><ele>784.0</ele><time>2026-04-05T07:43:51Z</time></trkpt><trkpt lat="45.727328359315706" lon="9.813110163642722"><ele>784.0</ele><time>2026-04-05T07:43:53Z</time></trkpt><trkpt lat="45.72739275713863" lon="9.813200950989422"><ele>783.9999999999999</ele><time>2026-04-05T07:43:56Z</time></trkpt><trkpt lat="45.72745315474626" lon="9.813257561539835"><ele>784.0</ele><time>2026-04-05T07:43:59Z</time></trkpt><trkpt lat="45.727523554967696" lon="9.81333952690735"><ele>784.0</ele><time>2026-04-05T07:44:03Z</time></trkpt><trkpt lat="45.72760575841132" lon="9.813384155123668"><ele>784.0</ele><time>2026-04-05T07:44:05.001Z</time></trkpt><trkpt lat="45.72767504486509" lon="9.813320606123085"><ele>783.9999999999999</ele><time>2026-04-05T07:44:08.001Z</time></trkpt><trkpt lat="45.72768503808828" lon="9.813218203857234"><ele>784.0</ele><time>2026-04-05T07:44:19Z</time></trkpt><trkpt lat="45.72764803951238" lon="9.813097134312795"><ele>783.9999999999999</ele><time>2026-04-05T07:44:21Z</time></trkpt><trkpt lat="45.727596942808326" lon="9.813013539477664"><ele>784.0</ele><time>2026-04-05T07:44:23Z</time></trkpt><trkpt lat="45.72758500726868" lon="9.81290096635205"><ele>784.0</ele><time>2026-04-05T07:44:25Z</time></trkpt><trkpt lat="45.72756482340311" lon="9.81279329215648"><ele>784.0</ele><time>2026-04-05T07:44:27Z</time></trkpt><trkpt lat="45.72754245800417" lon="9.812690098215677"><ele>783.9999999999999</ele><time>2026-04-05T07:44:31Z</time></trkpt><trkpt lat="45.72750168102753" lon="9.812565071514056"><ele>784.0</ele><time>2026-04-05T07:44:33Z</time></trkpt><trkpt lat="45.727460546409304" lon="9.812465291890991"><ele>783.7142857142857</ele><time>2026-04-05T07:44:35Z</time></trkpt><trkpt lat="45.727400515320355" lon="9.812406374672099"><ele>783.4285714285714</ele><time>2026-04-05T07:44:37Z</time></trkpt><trkpt lat="45.72738688635393" lon="9.812291933118578"><ele>783.1428571428571</ele><time>2026-04-05T07:44:39Z</time></trkpt><trkpt lat="45.72738774870007" lon="9.812183581249"><ele>782.8571428571429</ele><time>2026-04-05T07:44:42Z</time></trkpt><trkpt lat="45.72737185463891" lon="9.812093507328097"><ele>782.5714285714286</ele><time>2026-04-05T07:44:46Z</time></trkpt><trkpt lat="45.72737829961621" lon="9.811997126158968"><ele>782.2857142857142</ele><time>2026-04-05T07:44:49Z</time></trkpt><trkpt lat="45.72743561381916" lon="9.81192127599931"><ele>782.0</ele><time>2026-04-05T07:45:01Z</time></trkpt><trkpt lat="45.72743009326434" lon="9.81182753871854"><ele>779.8333333333334</ele><time>2026-04-05T07:45:12Z</time></trkpt><trkpt lat="45.72737823238665" lon="9.811746391217993"><ele>777.6666666666667</ele><time>2026-04-05T07:45:15Z</time></trkpt><trkpt lat="45.727397755961526" lon="9.811641878984181"><ele>775.5</ele><time>2026-04-05T07:45:18Z</time></trkpt><trkpt lat="45.72741364628115" lon="9.811535154138998"><ele>773.3333333333333</ele><time>2026-04-05T07:45:21Z</time></trkpt><trkpt lat="45.72735953338868" lon="9.811413808694903"><ele>771.1666666666666</ele><time>2026-04-05T07:45:24Z</time></trkpt><trkpt lat="45.7273378250141" lon="9.81126184892528"><ele>769.0</ele><time>2026-04-05T07:45:26Z</time></trkpt><trkpt lat="45.72731423743428" lon="9.811117510348112"><ele>769.0</ele><time>2026-04-05T07:45:28Z</time></trkpt><trkpt lat="45.727344862201534" lon="9.810994978166832"><ele>769.0</ele><time>2026-04-05T07:45:31Z</time></trkpt><trkpt lat="45.727333283560014" lon="9.810847672452232"><ele>769.0</ele><time>2026-04-05T07:45:34Z</time></trkpt><trkpt lat="45.727364027785136" lon="9.81070950679822"><ele>769.0</ele><time>2026-04-05T07:45:37Z</time></trkpt><trkpt lat="45.727322285514724" lon="9.81056555262304"><ele>769.0</ele><time>2026-04-05T07:45:40Z</time></trkpt><trkpt lat="45.72731192130704" lon="9.810442358902657"><ele>771.1666666666666</ele><time>2026-04-05T07:45:43Z</time></trkpt><trkpt lat="45.72726356724361" lon="9.810375623398485"><ele>773.3333333333333</ele><time>2026-04-05T07:45:45Z</time></trkpt><trkpt lat="45.72720379319381" lon="9.810345656699035"><ele>775.5</ele><time>2026-04-05T07:45:47Z</time></trkpt><trkpt lat="45.72713940235343" lon="9.810291542145315"><ele>777.6666666666667</ele><time>2026-04-05T07:45:52Z</time></trkpt><trkpt lat="45.727068002447815" lon="9.81027481935417"><ele>779.8333333333334</ele><time>2026-04-05T07:45:54Z</time></trkpt><trkpt lat="45.72696321379216" lon="9.810263265025995"><ele>782.0</ele><time>2026-04-05T07:45:56Z</time></trkpt><trkpt lat="45.726879537430186" lon="9.810249870532726"><ele>782.0</ele><time>2026-04-05T07:45:59Z</time></trkpt><trkpt lat="45.7268029585041" lon="9.81022436049706"><ele>782.0</ele><time>2026-04-05T07:46:02Z</time></trkpt><trkpt lat="45.72672939055453" lon="9.810163040046854"><ele>782.0</ele><time>2026-04-05T07:46:06Z</time></trkpt><trkpt lat="45.726651066424594" lon="9.81010072029337"><ele>782.0</ele><time>2026-04-05T07:46:11Z</time></trkpt><trkpt lat="45.72656648583346" lon="9.810056325859316"><ele>782.0</ele><time>2026-04-05T07:46:12Z</time></trkpt><trkpt lat="45.72644680752687" lon="9.810013274093981"><ele>775.2</ele><time>2026-04-05T07:46:14Z</time></trkpt><trkpt lat="45.72633866763029" lon="9.80999436624231"><ele>768.4000000000001</ele><time>2026-04-05T07:46:16Z</time></trkpt><trkpt lat="45.72627527969633" lon="9.809944260816755"><ele>761.5999999999999</ele><time>2026-04-05T07:46:18Z</time></trkpt><trkpt lat="45.726214867116845" lon="9.809887531492686"><ele>754.8</ele><time>2026-04-05T07:46:21Z</time></trkpt><trkpt lat="45.72612766132774" lon="9.809804320687766"><ele>748.0</ele><time>2026-04-05T07:46:24Z</time></trkpt><trkpt lat="45.72602425153955" lon="9.809741973449253"><ele>747.0</ele><time>2026-04-05T07:46:26Z</time></trkpt><trkpt lat="45.725967747588875" lon="9.809691058554206"><ele>746.0</ele><time>2026-04-05T07:46:27Z</time></trkpt><trkpt lat="45.725875875843414" lon="9.809606829263094"><ele>745.0</ele><time>2026-04-05T07:46:29Z</time></trkpt><trkpt lat="45.72581625942066" lon="9.809540892332329"><ele>744.0</ele><time>2026-04-05T07:46:31Z</time></trkpt><trkpt lat="45.72574918151502" lon="9.80948719314187"><ele>743.0</ele><time>2026-04-05T07:46:33Z</time></trkpt><trkpt lat="45.72567026577845" lon="9.809442393744881"><ele>742.0</ele><time>2026-04-05T07:46:35Z</time></trkpt><trkpt lat="45.725595468364766" lon="9.809389745852616"><ele>742.0</ele><time>2026-04-05T07:46:37Z</time></trkpt><trkpt lat="45.72552656010966" lon="9.809354854276181"><ele>742.0</ele><time>2026-04-05T07:46:39Z</time></trkpt><trkpt lat="45.72548002484132" lon="9.809287027618295"><ele>742.0</ele><time>2026-04-05T07:46:42Z</time></trkpt><trkpt lat="45.72543180389572" lon="9.809224844830837"><ele>742.0</ele><time>2026-04-05T07:46:45Z</time></trkpt><trkpt lat="45.72538003308998" lon="9.809131719770535"><ele>742.0</ele><time>2026-04-05T07:46:48Z</time></trkpt><trkpt lat="45.725342358092874" lon="9.809030512714768"><ele>742.0</ele><time>2026-04-05T07:46:50Z</time></trkpt><trkpt lat="45.725277452725926" lon="9.80896572017905"><ele>742.0</ele><time>2026-04-05T07:46:53Z</time></trkpt><trkpt lat="45.72522463262809" lon="9.808910577700404"><ele>735.8333333333334</ele><time>2026-04-05T07:46:55Z</time></trkpt><trkpt lat="45.72516408624369" lon="9.808827385276865"><ele>729.6666666666667</ele><time>2026-04-05T07:46:58Z</time></trkpt><trkpt lat="45.7251116047702" lon="9.808743772552935"><ele>723.5</ele><time>2026-04-05T07:47:00Z</time></trkpt><trkpt lat="45.72505565485532" lon="9.808650286017425"><ele>717.3333333333334</ele><time>2026-04-05T07:47:02Z</time></trkpt><trkpt lat="45.725003551956284" lon="9.808560752945446"><ele>711.1666666666666</ele><time>2026-04-05T07:47:04Z</time></trkpt><trkpt lat="45.72494000107355" lon="9.808465210207407"><ele>705.0</ele><time>2026-04-05T07:47:06Z</time></trkpt><trkpt lat="45.72489992964815" lon="9.808375045509901"><ele>703.4</ele><time>2026-04-05T07:47:08Z</time></trkpt><trkpt lat="45.72485869035685" lon="9.808295369781428"><ele>701.8</ele><time>2026-04-05T07:47:10Z</time></trkpt><trkpt lat="45.72482838225548" lon="9.808164304094246"><ele>700.2</ele><time>2026-04-05T07:47:12Z</time></trkpt><trkpt lat="45.72481190331579" lon="9.80802774940295"><ele>698.6</ele><time>2026-04-05T07:47:14Z</time></trkpt><trkpt lat="45.72479064709755" lon="9.80788554449647"><ele>697.0</ele><time>2026-04-05T07:47:16Z</time></trkpt><trkpt lat="45.724774181444324" lon="9.807742391868066"><ele>694.2</ele><time>2026-04-05T07:47:18Z</time></trkpt><trkpt lat="45.724770883232665" lon="9.80757371257371"><ele>691.4000000000001</ele><time>2026-04-05T07:47:20Z</time></trkpt><trkpt lat="45.724775991435145" lon="9.80744000058844"><ele>688.5999999999999</ele><time>2026-04-05T07:47:22Z</time></trkpt><trkpt lat="45.72478413758373" lon="9.807315041772133"><ele>685.8</ele><time>2026-04-05T07:47:24Z</time></trkpt><trkpt lat="45.724779995255844" lon="9.807202203611586"><ele>683.0</ele><time>2026-04-05T07:47:26Z</time></trkpt><trkpt lat="45.72477125357526" lon="9.807091907567893"><ele>683.0</ele><time>2026-04-05T07:47:28Z</time></trkpt><trkpt lat="45.7247402843387" lon="9.806984075679436"><ele>683.0</ele><time>2026-04-05T07:47:30Z</time></trkpt><trkpt lat="45.724711851602706" lon="9.80690255291718"><ele>683.0</ele><time>2026-04-05T07:47:32Z</time></trkpt><trkpt lat="45.72467658443671" lon="9.806786086313656"><ele>683.0</ele><time>2026-04-05T07:47:34Z</time></trkpt><trkpt lat="45.72467600532613" lon="9.806658876674406"><ele>683.0</ele><time>2026-04-05T07:47:36Z</time></trkpt><trkpt lat="45.72468286516515" lon="9.806555796707318"><ele>683.0</ele><time>2026-04-05T07:47:38Z</time></trkpt><trkpt lat="45.72465937206095" lon="9.80645771956076"><ele>681.3333333333333</ele><time>2026-04-05T07:47:40Z</time></trkpt><trkpt lat="45.72466328845341" lon="9.806358508739159"><ele>679.6666666666666</ele><time>2026-04-05T07:47:42Z</time></trkpt><trkpt lat="45.724628944029156" lon="9.80624527222367"><ele>678.0</ele><time>2026-04-05T07:47:44Z</time></trkpt><trkpt lat="45.724601704440566" lon="9.806153551662382"><ele>676.3333333333334</ele><time>2026-04-05T07:47:46Z</time></trkpt><trkpt lat="45.72463332138006" lon="9.806036870431308"><ele>674.6666666666667</ele><time>2026-04-05T07:48:52Z</time></trkpt><trkpt lat="45.724705712839125" lon="9.806043694466487"><ele>673.0</ele><time>2026-04-05T07:48:55Z</time></trkpt><trkpt lat="45.724771929455926" lon="9.806105363527527"><ele>673.0</ele><time>2026-04-05T07:48:57Z</time></trkpt><trkpt lat="45.72484647237801" lon="9.806197189397798"><ele>673.0</ele><time>2026-04-05T07:48:59Z</time></trkpt><trkpt lat="45.72492163982428" lon="9.80633863776837"><ele>673.0</ele><time>2026-04-05T07:49:01Z</time></trkpt><trkpt lat="45.724980625898006" lon="9.806483600034472"><ele>673.0</ele><time>2026-04-05T07:49:03Z</time></trkpt><trkpt lat="45.72501224694747" lon="9.806641639765077"><ele>673.0</ele><time>2026-04-05T07:49:05Z</time></trkpt><trkpt lat="45.72505151886695" lon="9.806794400049515"><ele>673.0</ele><time>2026-04-05T07:49:07Z</time></trkpt><trkpt lat="45.7251003068215" lon="9.806940980602274"><ele>673.0</ele><time>2026-04-05T07:49:09Z</time></trkpt><trkpt lat="45.72514687150465" lon="9.807073313747267"><ele>673.0</ele><time>2026-04-05T07:49:11Z</time></trkpt><trkpt lat="45.725229821684344" lon="9.80714382576296"><ele>673.0</ele><time>2026-04-05T07:49:13Z</time></trkpt><trkpt lat="45.72530649625679" lon="9.80727368801351"><ele>672.1666666666667</ele><time>2026-04-05T07:49:15Z</time></trkpt><trkpt lat="45.72533797102608" lon="9.807352993877608"><ele>671.3333333333334</ele><time>2026-04-05T07:49:16Z</time></trkpt><trkpt lat="45.72538010877586" lon="9.807425439108282"><ele>670.5</ele><time>2026-04-05T07:49:17Z</time></trkpt><trkpt lat="45.725491033183474" lon="9.80750365713603"><ele>669.6666666666666</ele><time>2026-04-05T07:49:19Z</time></trkpt><trkpt lat="45.725553753427285" lon="9.807539878869795"><ele>668.8333333333333</ele><time>2026-04-05T07:49:20Z</time></trkpt><trkpt lat="45.72565565263986" lon="9.807585723910796"><ele>668.0</ele><time>2026-04-05T07:49:22Z</time></trkpt><trkpt lat="45.725752702354754" lon="9.807720894668961"><ele>667.8</ele><time>2026-04-05T07:49:24Z</time></trkpt><trkpt lat="45.72581384896763" lon="9.807820717165567"><ele>667.5999999999999</ele><time>2026-04-05T07:49:25Z</time></trkpt><trkpt lat="45.72592270601874" lon="9.807845576314577"><ele>667.4000000000001</ele><time>2026-04-05T07:49:27Z</time></trkpt><trkpt lat="45.725984698307464" lon="9.807809907880893"><ele>667.2</ele><time>2026-04-05T07:49:28Z</time></trkpt><trkpt lat="45.72605715850243" lon="9.807671255657862"><ele>667.0</ele><time>2026-04-05T07:49:30Z</time></trkpt><trkpt lat="45.72612528764733" lon="9.80752000822957"><ele>667.0000000000001</ele><time>2026-04-05T07:49:32Z</time></trkpt><trkpt lat="45.72617427061226" lon="9.807457225247722"><ele>667.0</ele><time>2026-04-05T07:49:33Z</time></trkpt><trkpt lat="45.72622886827044" lon="9.807387865909982"><ele>667.0</ele><time>2026-04-05T07:49:34Z</time></trkpt><trkpt lat="45.726285497866996" lon="9.807333493680392"><ele>667.0</ele><time>2026-04-05T07:49:35Z</time></trkpt><trkpt lat="45.72632989775415" lon="9.807268606779425"><ele>667.0</ele><time>2026-04-05T07:49:36Z</time></trkpt><trkpt lat="45.7263844198882" lon="9.807215528340729"><ele>667.0000000000001</ele><time>2026-04-05T07:49:37Z</time></trkpt><trkpt lat="45.72643873104103" lon="9.807161052858392"><ele>667.0</ele><time>2026-04-05T07:49:38Z</time></trkpt><trkpt lat="45.72649496727083" lon="9.807113351854165"><ele>667.0</ele><time>2026-04-05T07:49:39Z</time></trkpt><trkpt lat="45.72655752559285" lon="9.807054262942323"><ele>667.0</ele><time>2026-04-05T07:49:40Z</time></trkpt><trkpt lat="45.726621953271355" lon="9.807003391161667"><ele>667.0</ele><time>2026-04-05T07:49:41Z</time></trkpt><trkpt lat="45.72668810758695" lon="9.806938242749446"><ele>667.0</ele><time>2026-04-05T07:49:42Z</time></trkpt><trkpt lat="45.726753542290446" lon="9.806880100230744"><ele>667.0</ele><time>2026-04-05T07:49:43Z</time></trkpt><trkpt lat="45.72681735421185" lon="9.80683330420967"><ele>667.0</ele><time>2026-04-05T07:49:44Z</time></trkpt><trkpt lat="45.726938121893355" lon="9.806758508210908"><ele>666.5714285714287</ele><time>2026-04-05T07:49:46Z</time></trkpt><trkpt lat="45.727002008846256" lon="9.806727924819057"><ele>666.1428571428571</ele><time>2026-04-05T07:49:47Z</time></trkpt><trkpt lat="45.727066784078005" lon="9.806709255827107"><ele>665.7142857142858</ele><time>2026-04-05T07:49:48Z</time></trkpt><trkpt lat="45.72714997377102" lon="9.806704594805236"><ele>665.2857142857143</ele><time>2026-04-05T07:49:49Z</time></trkpt><trkpt lat="45.72721874100474" lon="9.80671336923364"><ele>664.8571428571429</ele><time>2026-04-05T07:49:50Z</time></trkpt><trkpt lat="45.72728159763635" lon="9.806722840625634"><ele>664.4285714285714</ele><time>2026-04-05T07:49:51Z</time></trkpt><trkpt lat="45.72736511715102" lon="9.806759653272605"><ele>664.0</ele><time>2026-04-05T07:49:53Z</time></trkpt><trkpt lat="45.72742219081018" lon="9.806851691621821"><ele>664.0</ele><time>2026-04-05T07:49:55Z</time></trkpt><trkpt lat="45.72747191741196" lon="9.8069468936513"><ele>664.0</ele><time>2026-04-05T07:49:57Z</time></trkpt><trkpt lat="45.72752145784982" lon="9.807009495418626"><ele>664.0</ele><time>2026-04-05T07:49:59Z</time></trkpt><trkpt lat="45.72756959641572" lon="9.807081105544992"><ele>664.0</ele><time>2026-04-05T07:50:01Z</time></trkpt><trkpt lat="45.72761345072181" lon="9.807150897018994"><ele>664.0</ele><time>2026-04-05T07:50:03Z</time></trkpt><trkpt lat="45.72767288790287" lon="9.807226783219415"><ele>664.0</ele><time>2026-04-05T07:50:05Z</time></trkpt><trkpt lat="45.72775438031719" lon="9.80719635220171"><ele>664.0</ele><time>2026-04-05T07:50:21Z</time></trkpt><trkpt lat="45.72780240523178" lon="9.807269015762342"><ele>664.0</ele><time>2026-04-05T07:50:23Z</time></trkpt><trkpt lat="45.72780608313094" lon="9.807378257716204"><ele>664.0</ele><time>2026-04-05T07:50:25Z</time></trkpt><trkpt lat="45.72778528767568" lon="9.807486994245716"><ele>664.0</ele><time>2026-04-05T07:50:27Z</time></trkpt><trkpt lat="45.72781450305795" lon="9.807582856545356"><ele>664.0</ele><time>2026-04-05T07:50:29Z</time></trkpt><trkpt lat="45.72786553863018" lon="9.80763651508184"><ele>664.0</ele><time>2026-04-05T07:50:31Z</time></trkpt><trkpt lat="45.72792590306613" lon="9.807688176789458"><ele>664.0</ele><time>2026-04-05T07:50:33Z</time></trkpt><trkpt lat="45.72799887576525" lon="9.80773822341727"><ele>664.0</ele><time>2026-04-05T07:50:35Z</time></trkpt><trkpt lat="45.728064115411016" lon="9.80781057793509"><ele>664.0</ele><time>2026-04-05T07:50:37Z</time></trkpt><trkpt lat="45.728107598817196" lon="9.807916804527462"><ele>664.0</ele><time>2026-04-05T07:50:39Z</time></trkpt><trkpt lat="45.72815046777295" lon="9.80803842418451"><ele>664.0</ele><time>2026-04-05T07:50:41Z</time></trkpt><trkpt lat="45.72822345648326" lon="9.808174262777705"><ele>664.0</ele><time>2026-04-05T07:50:43Z</time></trkpt><trkpt lat="45.72832041547961" lon="9.808284166137595"><ele>664.0</ele><time>2026-04-05T07:50:45Z</time></trkpt><trkpt lat="45.728375426662716" lon="9.808337623911479"><ele>664.0</ele><time>2026-04-05T07:50:46Z</time></trkpt><trkpt lat="45.728428902797155" lon="9.808400985584402"><ele>664.0</ele><time>2026-04-05T07:50:47Z</time></trkpt><trkpt lat="45.72848750800307" lon="9.808487881654342"><ele>664.0</ele><time>2026-04-05T07:50:48Z</time></trkpt><trkpt lat="45.728520027201625" lon="9.80860130978281"><ele>664.0</ele><time>2026-04-05T07:50:49Z</time></trkpt><trkpt lat="45.728566238435825" lon="9.808716539663152"><ele>664.0</ele><time>2026-04-05T07:50:50Z</time></trkpt><trkpt lat="45.728593412015044" lon="9.808825802836488"><ele>664.0</ele><time>2026-04-05T07:50:51Z</time></trkpt><trkpt lat="45.72861059183936" lon="9.80893774436364"><ele>666.5</ele><time>2026-04-05T07:50:52Z</time></trkpt><trkpt lat="45.728634736647955" lon="9.809040199692141"><ele>669.0</ele><time>2026-04-05T07:50:53Z</time></trkpt><trkpt lat="45.72866631615371" lon="9.809130615901964"><ele>671.5</ele><time>2026-04-05T07:50:54Z</time></trkpt><trkpt lat="45.72872117982925" lon="9.809177205537429"><ele>674.0</ele><time>2026-04-05T07:50:55Z</time></trkpt><trkpt lat="45.72882473598638" lon="9.809121336094332"><ele>676.5</ele><time>2026-04-05T07:50:57Z</time></trkpt><trkpt lat="45.72890773373995" lon="9.80901394176993"><ele>679.0</ele><time>2026-04-05T07:50:59Z</time></trkpt><trkpt lat="45.72896772825171" lon="9.808914363308086"><ele>679.0</ele><time>2026-04-05T07:51:01Z</time></trkpt><trkpt lat="45.72904131671209" lon="9.808838725915285"><ele>679.0</ele><time>2026-04-05T07:51:03Z</time></trkpt><trkpt lat="45.72912539389469" lon="9.808736833370135"><ele>679.0</ele><time>2026-04-05T07:51:05Z</time></trkpt><trkpt lat="45.72917302454056" lon="9.808662249576471"><ele>679.0</ele><time>2026-04-05T07:51:06Z</time></trkpt><trkpt lat="45.729233851137" lon="9.808592863824975"><ele>679.0</ele><time>2026-04-05T07:51:07Z</time></trkpt><trkpt lat="45.72930004847409" lon="9.808506037979235"><ele>679.0</ele><time>2026-04-05T07:51:08Z</time></trkpt><trkpt lat="45.729340969589074" lon="9.808377464860287"><ele>680.6</ele><time>2026-04-05T07:51:09Z</time></trkpt><trkpt lat="45.72937724710568" lon="9.808231015111684"><ele>682.2</ele><time>2026-04-05T07:51:10Z</time></trkpt><trkpt lat="45.72942351198159" lon="9.808081153785727"><ele>683.8000000000001</ele><time>2026-04-05T07:51:11Z</time></trkpt><trkpt lat="45.72948327458113" lon="9.807950473753936"><ele>685.4000000000001</ele><time>2026-04-05T07:51:12Z</time></trkpt><trkpt lat="45.72953598638408" lon="9.807835511969799"><ele>687.0</ele><time>2026-04-05T07:51:13Z</time></trkpt><trkpt lat="45.72958001033185" lon="9.807727490785583"><ele>687.0</ele><time>2026-04-05T07:51:14Z</time></trkpt><trkpt lat="45.72961717954685" lon="9.807637755646583"><ele>687.0</ele><time>2026-04-05T07:51:15Z</time></trkpt><trkpt lat="45.72962538587685" lon="9.807533417366233"><ele>687.0</ele><time>2026-04-05T07:51:17Z</time></trkpt><trkpt lat="45.72950957361927" lon="9.807568795152593"><ele>687.0</ele><time>2026-04-05T07:51:19Z</time></trkpt><trkpt lat="45.729465592796615" lon="9.807655210875545"><ele>687.0</ele><time>2026-04-05T07:51:20Z</time></trkpt><trkpt lat="45.72941075179817" lon="9.8077278216373"><ele>687.0</ele><time>2026-04-05T07:51:21Z</time></trkpt><trkpt lat="45.72934999981025" lon="9.807809606284884"><ele>681.0</ele><time>2026-04-05T07:51:22Z</time></trkpt><trkpt lat="45.72929262998371" lon="9.80787115175047"><ele>675.0</ele><time>2026-04-05T07:51:23Z</time></trkpt><trkpt lat="45.72922776689864" lon="9.807904717738685"><ele>669.0</ele><time>2026-04-05T07:51:25Z</time></trkpt><trkpt lat="45.729196941190935" lon="9.807801363907604"><ele>663.0</ele><time>2026-04-05T07:51:27Z</time></trkpt><trkpt lat="45.729240082748866" lon="9.807715566669481"><ele>657.0</ele><time>2026-04-05T07:51:28Z</time></trkpt><trkpt lat="45.729291566485465" lon="9.807634728056568"><ele>651.0</ele><time>2026-04-05T07:51:29Z</time></trkpt><trkpt lat="45.72934307408668" lon="9.807542980024301"><ele>650.6666666666666</ele><time>2026-04-05T07:51:30Z</time></trkpt><trkpt lat="45.72938955748236" lon="9.80744204213594"><ele>650.3333333333334</ele><time>2026-04-05T07:51:31Z</time></trkpt><trkpt lat="45.72943714802647" lon="9.807352531577862"><ele>650.0</ele><time>2026-04-05T07:51:32Z</time></trkpt><trkpt lat="45.729458752221404" lon="9.80724699877751"><ele>649.6666666666667</ele><time>2026-04-05T07:51:33Z</time></trkpt><trkpt lat="45.72943552152039" lon="9.807102940841968"><ele>649.3333333333334</ele><time>2026-04-05T07:51:34Z</time></trkpt><trkpt lat="45.72944325361075" lon="9.806959519847425"><ele>649.0</ele><time>2026-04-05T07:51:35Z</time></trkpt><trkpt lat="45.72947013312499" lon="9.806821430045872"><ele>649.0</ele><time>2026-04-05T07:51:36Z</time></trkpt><trkpt lat="45.72949525212551" lon="9.806668419512237"><ele>649.0</ele><time>2026-04-05T07:51:37Z</time></trkpt><trkpt lat="45.729522200959444" lon="9.806523103316636"><ele>649.0</ele><time>2026-04-05T07:51:38Z</time></trkpt><trkpt lat="45.72955833246836" lon="9.806398582747585"><ele>649.0</ele><time>2026-04-05T07:51:39Z</time></trkpt><trkpt lat="45.72960847129471" lon="9.806283082036169"><ele>649.0</ele><time>2026-04-05T07:51:40Z</time></trkpt><trkpt lat="45.729672758585934" lon="9.806185384452757"><ele>649.0</ele><time>2026-04-05T07:51:41Z</time></trkpt><trkpt lat="45.7297070626864" lon="9.806060355748578"><ele>649.0</ele><time>2026-04-05T07:51:42Z</time></trkpt><trkpt lat="45.72972122418509" lon="9.805907679681656"><ele>649.0</ele><time>2026-04-05T07:51:43Z</time></trkpt><trkpt lat="45.72973732872216" lon="9.805758914622556"><ele>649.0</ele><time>2026-04-05T07:51:44Z</time></trkpt><trkpt lat="45.72976434879026" lon="9.805599317317107"><ele>649.0</ele><time>2026-04-05T07:51:45Z</time></trkpt><trkpt lat="45.72977915497239" lon="9.80542925606893"><ele>644.8000000000001</ele><time>2026-04-05T07:51:46Z</time></trkpt><trkpt lat="45.72979927564216" lon="9.805264164469724"><ele>640.6</ele><time>2026-04-05T07:51:47Z</time></trkpt><trkpt lat="45.72983273427702" lon="9.80513232756406"><ele>636.4</ele><time>2026-04-05T07:51:48Z</time></trkpt><trkpt lat="45.72985031375414" lon="9.804985613656397"><ele>632.2</ele><time>2026-04-05T07:51:49Z</time></trkpt><trkpt lat="45.72986825738652" lon="9.804827501312285"><ele>628.0</ele><time>2026-04-05T07:51:50Z</time></trkpt><trkpt lat="45.729880131975094" lon="9.804693155800841"><ele>625.1666666666667</ele><time>2026-04-05T07:51:51Z</time></trkpt><trkpt lat="45.72990502083983" lon="9.804578453112189"><ele>622.3333333333334</ele><time>2026-04-05T07:51:52Z</time></trkpt><trkpt lat="45.729952027833" lon="9.804498813256052"><ele>619.5</ele><time>2026-04-05T07:51:53Z</time></trkpt><trkpt lat="45.72997943363336" lon="9.80439809262457"><ele>616.6666666666666</ele><time>2026-04-05T07:51:54Z</time></trkpt><trkpt lat="45.729983075421195" lon="9.804285506221026"><ele>613.8333333333333</ele><time>2026-04-05T07:51:55Z</time></trkpt><trkpt lat="45.72998186351411" lon="9.804150872397607"><ele>611.0</ele><time>2026-04-05T07:51:56Z</time></trkpt><trkpt lat="45.729985835016244" lon="9.8040007624282"><ele>607.8</ele><time>2026-04-05T07:51:57Z</time></trkpt><trkpt lat="45.730000040931074" lon="9.80384156797434"><ele>604.6</ele><time>2026-04-05T07:51:58Z</time></trkpt><trkpt lat="45.730020094169824" lon="9.803673907695524"><ele>601.4</ele><time>2026-04-05T07:51:59Z</time></trkpt><trkpt lat="45.7300395246437" lon="9.803525067983466"><ele>598.2</ele><time>2026-04-05T07:52:00Z</time></trkpt><trkpt lat="45.7300308860263" lon="9.80337424377244"><ele>595.0</ele><time>2026-04-05T07:52:01Z</time></trkpt><trkpt lat="45.73000856378045" lon="9.80323542811145"><ele>593.0</ele><time>2026-04-05T07:52:02Z</time></trkpt><trkpt lat="45.72997936652842" lon="9.803083603297065"><ele>591.0</ele><time>2026-04-05T07:52:03Z</time></trkpt><trkpt lat="45.7299543149817" lon="9.802931689365154"><ele>589.0</ele><time>2026-04-05T07:52:04Z</time></trkpt><trkpt lat="45.72993827320533" lon="9.80278908151223"><ele>587.0</ele><time>2026-04-05T07:52:05Z</time></trkpt><trkpt lat="45.72992229245106" lon="9.802669370752108"><ele>585.0</ele><time>2026-04-05T07:52:06Z</time></trkpt><trkpt lat="45.72991728436722" lon="9.802562376695622"><ele>583.2</ele><time>2026-04-05T07:52:07Z</time></trkpt><trkpt lat="45.729930903637275" lon="9.802465752798184"><ele>581.4</ele><time>2026-04-05T07:52:08Z</time></trkpt><trkpt lat="45.73000917650219" lon="9.80231224692395"><ele>579.6</ele><time>2026-04-05T07:52:10Z</time></trkpt><trkpt lat="45.730085306767926" lon="9.802262722843116"><ele>577.8</ele><time>2026-04-05T07:52:11Z</time></trkpt><trkpt lat="45.73018740922842" lon="9.80223711237284"><ele>576.0</ele><time>2026-04-05T07:52:12Z</time></trkpt><trkpt lat="45.73024798319355" lon="9.802163865314693"><ele>579.6666666666666</ele><time>2026-04-05T07:52:13Z</time></trkpt><trkpt lat="45.73029921389635" lon="9.802092564743102"><ele>583.3333333333334</ele><time>2026-04-05T07:52:14Z</time></trkpt><trkpt lat="45.730323152405845" lon="9.801999807653155"><ele>587.0</ele><time>2026-04-05T07:52:15Z</time></trkpt><trkpt lat="45.73031217145201" lon="9.801886552388375"><ele>590.6666666666667</ele><time>2026-04-05T07:52:16Z</time></trkpt><trkpt lat="45.73029748208434" lon="9.80177100944131"><ele>594.3333333333334</ele><time>2026-04-05T07:52:17Z</time></trkpt><trkpt lat="45.73032521804343" lon="9.801643228319913"><ele>598.0</ele><time>2026-04-05T07:52:18Z</time></trkpt><trkpt lat="45.730376097755176" lon="9.801532906684415"><ele>598.0</ele><time>2026-04-05T07:52:19Z</time></trkpt><trkpt lat="45.73044407591558" lon="9.801444291877933"><ele>598.0</ele><time>2026-04-05T07:52:20Z</time></trkpt><trkpt lat="45.7304932227017" lon="9.801334821698875"><ele>598.0</ele><time>2026-04-05T07:52:21Z</time></trkpt><trkpt lat="45.73051783996095" lon="9.801204576193987"><ele>598.0</ele><time>2026-04-05T07:52:22Z</time></trkpt><trkpt lat="45.730529090417" lon="9.801070741551433"><ele>598.0</ele><time>2026-04-05T07:52:23Z</time></trkpt><trkpt lat="45.730529182851576" lon="9.800936816693138"><ele>593.6</ele><time>2026-04-05T07:52:24Z</time></trkpt><trkpt lat="45.7305483655332" lon="9.800804936965095"><ele>589.1999999999999</ele><time>2026-04-05T07:52:25Z</time></trkpt><trkpt lat="45.73058398248162" lon="9.80067763576163"><ele>584.8</ele><time>2026-04-05T07:52:26Z</time></trkpt><trkpt lat="45.73062539865031" lon="9.800549487344885"><ele>580.4</ele><time>2026-04-05T07:52:27Z</time></trkpt><trkpt lat="45.73067200734441" lon="9.800423379351178"><ele>576.0</ele><time>2026-04-05T07:52:28Z</time></trkpt><trkpt lat="45.730724093052" lon="9.80030134250264"><ele>576.0</ele><time>2026-04-05T07:52:29Z</time></trkpt><trkpt lat="45.73078099649072" lon="9.800196311769282"><ele>576.0</ele><time>2026-04-05T07:52:30Z</time></trkpt><trkpt lat="45.7308060321674" lon="9.800081399133461"><ele>576.0</ele><time>2026-04-05T07:52:31Z</time></trkpt><trkpt lat="45.73079698041527" lon="9.799927407607612"><ele>576.0</ele><time>2026-04-05T07:52:32Z</time></trkpt><trkpt lat="45.73077904251171" lon="9.799776087492063"><ele>576.0</ele><time>2026-04-05T07:52:33Z</time></trkpt><trkpt lat="45.73077530899957" lon="9.799636713439735"><ele>571.4</ele><time>2026-04-05T07:52:34Z</time></trkpt><trkpt lat="45.73078880329056" lon="9.799515900476814"><ele>566.8</ele><time>2026-04-05T07:52:35Z</time></trkpt><trkpt lat="45.73083329816881" lon="9.799397214275567"><ele>562.1999999999999</ele><time>2026-04-05T07:52:36Z</time></trkpt><trkpt lat="45.730896791836166" lon="9.79929237457502"><ele>557.6</ele><time>2026-04-05T07:52:37Z</time></trkpt><trkpt lat="45.730972008303446" lon="9.799199351592387"><ele>553.0</ele><time>2026-04-05T07:52:38Z</time></trkpt><trkpt lat="45.731048182358045" lon="9.79912928131007"><ele>555.6</ele><time>2026-04-05T07:52:39Z</time></trkpt><trkpt lat="45.731098156551646" lon="9.799009873045167"><ele>558.1999999999999</ele><time>2026-04-05T07:52:41Z</time></trkpt><trkpt lat="45.73099429897966" lon="9.798951677174578"><ele>560.8</ele><time>2026-04-05T07:52:43Z</time></trkpt><trkpt lat="45.730896972823516" lon="9.798973224895947"><ele>563.4</ele><time>2026-04-05T07:52:45Z</time></trkpt><trkpt lat="45.73080755755687" lon="9.798985731568417"><ele>566.0</ele><time>2026-04-05T07:52:46Z</time></trkpt><trkpt lat="45.73071101567066" lon="9.798999065474103"><ele>563.4</ele><time>2026-04-05T07:52:47Z</time></trkpt><trkpt lat="45.73063206788464" lon="9.79907072018093"><ele>560.8</ele><time>2026-04-05T07:52:48Z</time></trkpt><trkpt lat="45.730545677644805" lon="9.799149438727744"><ele>558.1999999999999</ele><time>2026-04-05T07:52:49Z</time></trkpt><trkpt lat="45.73051690808111" lon="9.79927336522604"><ele>555.6</ele><time>2026-04-05T07:52:50Z</time></trkpt><trkpt lat="45.730487337086956" lon="9.79939266530107"><ele>553.0</ele><time>2026-04-05T07:52:51Z</time></trkpt><trkpt lat="45.73045179936796" lon="9.799500991898968"><ele>553.0</ele><time>2026-04-05T07:52:52Z</time></trkpt><trkpt lat="45.73042612447811" lon="9.799611494970996"><ele>553.0</ele><time>2026-04-05T07:52:53Z</time></trkpt><trkpt lat="45.730408061029934" lon="9.799754299309058"><ele>553.0</ele><time>2026-04-05T07:52:55Z</time></trkpt><trkpt lat="45.73031829031709" lon="9.79970290510842"><ele>553.0</ele><time>2026-04-05T07:52:58Z</time></trkpt><trkpt lat="45.730357551674295" lon="9.799549577821898"><ele>553.0</ele><time>2026-04-05T07:53:00Z</time></trkpt><trkpt lat="45.73038019988348" lon="9.799460100988124"><ele>553.0</ele><time>2026-04-05T07:53:01Z</time></trkpt><trkpt lat="45.73039815035072" lon="9.799364098765938"><ele>553.0</ele><time>2026-04-05T07:53:02Z</time></trkpt><trkpt lat="45.73042135086111" lon="9.799263499179258"><ele>553.0</ele><time>2026-04-05T07:53:03Z</time></trkpt><trkpt lat="45.730448070968706" lon="9.79916412857683"><ele>553.0</ele><time>2026-04-05T07:53:04Z</time></trkpt><trkpt lat="45.730474539265636" lon="9.799071975500551"><ele>553.0</ele><time>2026-04-05T07:53:05Z</time></trkpt><trkpt lat="45.730503807355035" lon="9.798988291099406"><ele>553.0</ele><time>2026-04-05T07:53:06Z</time></trkpt><trkpt lat="45.73053621436513" lon="9.798903038842983"><ele>553.0</ele><time>2026-04-05T07:53:07Z</time></trkpt><trkpt lat="45.73057448841766" lon="9.7988156563414"><ele>549.3333333333334</ele><time>2026-04-05T07:53:08Z</time></trkpt><trkpt lat="45.73061724729742" lon="9.798738823885838"><ele>545.6666666666667</ele><time>2026-04-05T07:53:09Z</time></trkpt><trkpt lat="45.73072510089074" lon="9.798643661703137"><ele>542.0</ele><time>2026-04-05T07:53:11Z</time></trkpt><trkpt lat="45.730782538287166" lon="9.798575870828277"><ele>538.3333333333334</ele><time>2026-04-05T07:53:12Z</time></trkpt><trkpt lat="45.73083164757159" lon="9.798517789936637"><ele>534.6666666666666</ele><time>2026-04-05T07:53:13Z</time></trkpt><trkpt lat="45.73089501740261" lon="9.79845454347225"><ele>531.0</ele><time>2026-04-05T07:53:14Z</time></trkpt><trkpt lat="45.7309463322706" lon="9.798384861295855"><ele>531.8333333333334</ele><time>2026-04-05T07:53:15Z</time></trkpt><trkpt lat="45.730993959726916" lon="9.798301439601381"><ele>532.6666666666666</ele><time>2026-04-05T07:53:16Z</time></trkpt><trkpt lat="45.73104831590635" lon="9.798212278418378"><ele>533.5</ele><time>2026-04-05T07:53:17Z</time></trkpt><trkpt lat="45.731098103250105" lon="9.798127011292342"><ele>534.3333333333333</ele><time>2026-04-05T07:53:18Z</time></trkpt><trkpt lat="45.73116859487609" lon="9.798046348667523"><ele>535.1666666666666</ele><time>2026-04-05T07:53:19Z</time></trkpt><trkpt lat="45.731230506413226" lon="9.797949785525127"><ele>536.0</ele><time>2026-04-05T07:53:20Z</time></trkpt><trkpt lat="45.73130437907869" lon="9.797870047028923"><ele>536.0</ele><time>2026-04-05T07:53:21Z</time></trkpt><trkpt lat="45.73140095520447" lon="9.797831277818492"><ele>536.0</ele><time>2026-04-05T07:53:22Z</time></trkpt><trkpt lat="45.731479209560675" lon="9.79779942178771"><ele>536.0</ele><time>2026-04-05T07:53:23Z</time></trkpt><trkpt lat="45.73155884459532" lon="9.797817215990028"><ele>536.0</ele><time>2026-04-05T07:53:24Z</time></trkpt><trkpt lat="45.73162962957573" lon="9.797844506661013"><ele>536.0</ele><time>2026-04-05T07:53:25Z</time></trkpt><trkpt lat="45.73158822440947" lon="9.797610325640248"><ele>532.4</ele><time>2026-04-05T07:53:26Z</time></trkpt><trkpt lat="45.73155193369798" lon="9.797489698281382"><ele>528.8</ele><time>2026-04-05T07:53:28Z</time></trkpt><trkpt lat="45.731485428673" lon="9.797347812468512"><ele>525.1999999999999</ele><time>2026-04-05T07:53:30Z</time></trkpt><trkpt lat="45.731436855968894" lon="9.797250987034474"><ele>521.6</ele><time>2026-04-05T07:53:31Z</time></trkpt><trkpt lat="45.73139224547348" lon="9.797140957425338"><ele>518.0</ele><time>2026-04-05T07:53:32Z</time></trkpt><trkpt lat="45.73134585516669" lon="9.797016090644616"><ele>518.0</ele><time>2026-04-05T07:53:33Z</time></trkpt><trkpt lat="45.73129679874599" lon="9.79688545336536"><ele>518.0</ele><time>2026-04-05T07:53:34Z</time></trkpt><trkpt lat="45.73125254464421" lon="9.796759562903633"><ele>518.0</ele><time>2026-04-05T07:53:35Z</time></trkpt><trkpt lat="45.73120946222635" lon="9.796634346096434"><ele>518.0</ele><time>2026-04-05T07:53:36Z</time></trkpt><trkpt lat="45.731176122212204" lon="9.796520575328186"><ele>518.0</ele><time>2026-04-05T07:53:37Z</time></trkpt><trkpt lat="45.731147992974364" lon="9.796388118996177"><ele>516.6</ele><time>2026-04-05T07:53:38Z</time></trkpt><trkpt lat="45.7311292838721" lon="9.796248229676207"><ele>515.1999999999999</ele><time>2026-04-05T07:53:39Z</time></trkpt><trkpt lat="45.73112497951565" lon="9.79612473568579"><ele>513.8</ele><time>2026-04-05T07:53:40Z</time></trkpt><trkpt lat="45.73113954961253" lon="9.796001342524544"><ele>512.4</ele><time>2026-04-05T07:53:41Z</time></trkpt><trkpt lat="45.73117864715092" lon="9.795868037607189"><ele>511.0</ele><time>2026-04-05T07:53:42Z</time></trkpt><trkpt lat="45.731230595643744" lon="9.795724109769642"><ele>508.0</ele><time>2026-04-05T07:53:43Z</time></trkpt><trkpt lat="45.73128656355443" lon="9.795573738847683"><ele>505.0</ele><time>2026-04-05T07:53:44Z</time></trkpt><trkpt lat="45.73133915173342" lon="9.7954349853875"><ele>502.0</ele><time>2026-04-05T07:53:45Z</time></trkpt><trkpt lat="45.73138657000007" lon="9.795310308281296"><ele>499.0</ele><time>2026-04-05T07:53:46Z</time></trkpt><trkpt lat="45.73143441419921" lon="9.795198712941323"><ele>496.0</ele><time>2026-04-05T07:53:47Z</time></trkpt><trkpt lat="45.73148168364645" lon="9.795098369446036"><ele>491.4</ele><time>2026-04-05T07:53:48Z</time></trkpt><trkpt lat="45.73154256171772" lon="9.794999596284287"><ele>486.8</ele><time>2026-04-05T07:53:49Z</time></trkpt><trkpt lat="45.73162711440483" lon="9.79490829222824"><ele>482.19999999999993</ele><time>2026-04-05T07:53:50Z</time></trkpt><trkpt lat="45.73167838463151" lon="9.794793399864126"><ele>477.59999999999997</ele><time>2026-04-05T07:53:51Z</time></trkpt><trkpt lat="45.731742962286" lon="9.794682192946095"><ele>473.0</ele><time>2026-04-05T07:53:52Z</time></trkpt><trkpt lat="45.731822552936606" lon="9.7946244963829"><ele>472.99999999999994</ele><time>2026-04-05T07:53:53Z</time></trkpt><trkpt lat="45.73186380848401" lon="9.794502747845673"><ele>473.0</ele><time>2026-04-05T07:53:54Z</time></trkpt><trkpt lat="45.73188003104981" lon="9.794370629474773"><ele>473.0</ele><time>2026-04-05T07:53:55Z</time></trkpt><trkpt lat="45.73190618534591" lon="9.794257225693567"><ele>473.0</ele><time>2026-04-05T07:53:56Z</time></trkpt><trkpt lat="45.731935155660544" lon="9.794148836870251"><ele>472.99999999999994</ele><time>2026-04-05T07:53:57Z</time></trkpt><trkpt lat="45.731978713524015" lon="9.794065483456942"><ele>473.0</ele><time>2026-04-05T07:53:58Z</time></trkpt><trkpt lat="45.732069034874336" lon="9.793953526701973"><ele>473.2</ele><time>2026-04-05T07:54:00Z</time></trkpt><trkpt lat="45.732177567504856" lon="9.793920626918789"><ele>473.4</ele><time>2026-04-05T07:54:02Z</time></trkpt><trkpt lat="45.7322816372493" lon="9.793922248817259"><ele>473.59999999999997</ele><time>2026-04-05T07:54:03Z</time></trkpt><trkpt lat="45.73237038937344" lon="9.793871133423172"><ele>473.79999999999995</ele><time>2026-04-05T07:54:04Z</time></trkpt><trkpt lat="45.732448763503996" lon="9.793800896185024"><ele>474.0</ele><time>2026-04-05T07:54:05Z</time></trkpt><trkpt lat="45.73252930474646" lon="9.793726531240946"><ele>474.0</ele><time>2026-04-05T07:54:06Z</time></trkpt><trkpt lat="45.73262940193171" lon="9.793680943695609"><ele>474.0</ele><time>2026-04-05T07:54:07Z</time></trkpt><trkpt lat="45.73272217017876" lon="9.793617329647223"><ele>474.0</ele><time>2026-04-05T07:54:08Z</time></trkpt><trkpt lat="45.73280350917942" lon="9.793566780758356"><ele>474.0</ele><time>2026-04-05T07:54:09Z</time></trkpt><trkpt lat="45.73288342286578" lon="9.793528850442128"><ele>474.0</ele><time>2026-04-05T07:54:10Z</time></trkpt><trkpt lat="45.73296457130562" lon="9.793506982540455"><ele>473.3333333333333</ele><time>2026-04-05T07:54:11Z</time></trkpt><trkpt lat="45.733030993133546" lon="9.793477993510189"><ele>472.66666666666663</ele><time>2026-04-05T07:54:12Z</time></trkpt><trkpt lat="45.7330665845277" lon="9.793332863005556"><ele>472.0</ele><time>2026-04-05T07:54:14Z</time></trkpt><trkpt lat="45.73302526380128" lon="9.793243417464774"><ele>471.3333333333333</ele><time>2026-04-05T07:54:15Z</time></trkpt><trkpt lat="45.732975312454506" lon="9.793167605421283"><ele>470.66666666666663</ele><time>2026-04-05T07:54:16Z</time></trkpt><trkpt lat="45.732922417081426" lon="9.79308591519179"><ele>470.0</ele><time>2026-04-05T07:54:17Z</time></trkpt><trkpt lat="45.73287051433633" lon="9.792994484675067"><ele>469.99999999999994</ele><time>2026-04-05T07:54:18Z</time></trkpt><trkpt lat="45.732830959642406" lon="9.792896921614684"><ele>470.0</ele><time>2026-04-05T07:54:19Z</time></trkpt><trkpt lat="45.73280802220524" lon="9.792780636830974"><ele>470.0</ele><time>2026-04-05T07:54:20Z</time></trkpt><trkpt lat="45.732789206306116" lon="9.79265467062457"><ele>470.0</ele><time>2026-04-05T07:54:21Z</time></trkpt><trkpt lat="45.73278680627912" lon="9.792539716402368"><ele>469.99999999999994</ele><time>2026-04-05T07:54:22Z</time></trkpt><trkpt lat="45.73278050316111" lon="9.792416868040407"><ele>470.0</ele><time>2026-04-05T07:54:23Z</time></trkpt><trkpt lat="45.732783948077284" lon="9.792298373689299"><ele>468.66666666666663</ele><time>2026-04-05T07:54:24Z</time></trkpt><trkpt lat="45.732811308002965" lon="9.792180849101383"><ele>467.3333333333333</ele><time>2026-04-05T07:54:25Z</time></trkpt><trkpt lat="45.7328413421738" lon="9.792058297208188"><ele>466.0</ele><time>2026-04-05T07:54:26Z</time></trkpt><trkpt lat="45.73286923272582" lon="9.791932785810069"><ele>464.66666666666663</ele><time>2026-04-05T07:54:27Z</time></trkpt><trkpt lat="45.732914537288835" lon="9.791826089265411"><ele>463.3333333333333</ele><time>2026-04-05T07:54:28Z</time></trkpt><trkpt lat="45.73297125714564" lon="9.791724340897884"><ele>462.0</ele><time>2026-04-05T07:54:29Z</time></trkpt><trkpt lat="45.73303464684575" lon="9.7916336833307"><ele>459.1666666666667</ele><time>2026-04-05T07:54:30Z</time></trkpt><trkpt lat="45.73310163791688" lon="9.791557936825686"><ele>456.33333333333337</ele><time>2026-04-05T07:54:31Z</time></trkpt><trkpt lat="45.73317490942021" lon="9.791492275264547"><ele>453.5</ele><time>2026-04-05T07:54:32Z</time></trkpt><trkpt lat="45.73325903121159" lon="9.7914620071742"><ele>450.6666666666667</ele><time>2026-04-05T07:54:33Z</time></trkpt><trkpt lat="45.73334267534101" lon="9.791442388212937"><ele>447.83333333333337</ele><time>2026-04-05T07:54:34Z</time></trkpt><trkpt lat="45.7334133534615" lon="9.79139879303204"><ele>445.0</ele><time>2026-04-05T07:54:35Z</time></trkpt><trkpt lat="45.7334883310119" lon="9.791361351362793"><ele>447.0</ele><time>2026-04-05T07:54:36Z</time></trkpt><trkpt lat="45.73355669008812" lon="9.791317395422963"><ele>449.0</ele><time>2026-04-05T07:54:37Z</time></trkpt><trkpt lat="45.73367789826177" lon="9.791237818144278"><ele>451.0</ele><time>2026-04-05T07:54:39Z</time></trkpt><trkpt lat="45.73373031707616" lon="9.79117216398374"><ele>453.0</ele><time>2026-04-05T07:54:40Z</time></trkpt><trkpt lat="45.73380140277346" lon="9.791067335585009"><ele>455.0</ele><time>2026-04-05T07:54:41Z</time></trkpt><trkpt lat="45.73385163140847" lon="9.790968800829997"><ele>454.99999999999994</ele><time>2026-04-05T07:54:42Z</time></trkpt><trkpt lat="45.73389179011015" lon="9.790855258522475"><ele>455.0</ele><time>2026-04-05T07:54:43Z</time></trkpt><trkpt lat="45.73393717058493" lon="9.790752879949084"><ele>455.0</ele><time>2026-04-05T07:54:44Z</time></trkpt><trkpt lat="45.73398168761445" lon="9.790644288019038"><ele>455.0</ele><time>2026-04-05T07:54:45Z</time></trkpt><trkpt lat="45.73403515453129" lon="9.790537363327093"><ele>454.99999999999994</ele><time>2026-04-05T07:54:46Z</time></trkpt><trkpt lat="45.73408772476858" lon="9.79042387378296"><ele>455.0</ele><time>2026-04-05T07:54:47Z</time></trkpt><trkpt lat="45.73415089652447" lon="9.790319633145039"><ele>455.0</ele><time>2026-04-05T07:54:48Z</time></trkpt><trkpt lat="45.73422344559674" lon="9.790221021975263"><ele>455.0</ele><time>2026-04-05T07:54:49Z</time></trkpt><trkpt lat="45.73429813739179" lon="9.790122826733285"><ele>455.0</ele><time>2026-04-05T07:54:50Z</time></trkpt><trkpt lat="45.73437081417012" lon="9.790016854715695"><ele>455.0</ele><time>2026-04-05T07:54:51Z</time></trkpt><trkpt lat="45.73446198963889" lon="9.789933581236683"><ele>455.0</ele><time>2026-04-05T07:54:52Z</time></trkpt><trkpt lat="45.73455077913125" lon="9.789846988705188"><ele>455.2</ele><time>2026-04-05T07:54:53Z</time></trkpt><trkpt lat="45.73462555014007" lon="9.789744036637277"><ele>455.4</ele><time>2026-04-05T07:54:54Z</time></trkpt><trkpt lat="45.73469917493748" lon="9.789641422350135"><ele>455.6</ele><time>2026-04-05T07:54:55Z</time></trkpt><trkpt lat="45.7347729147814" lon="9.789537647035504"><ele>455.8</ele><time>2026-04-05T07:54:56Z</time></trkpt><trkpt lat="45.73485017523955" lon="9.78943727701548"><ele>456.0</ele><time>2026-04-05T07:54:57Z</time></trkpt><trkpt lat="45.73492888872725" lon="9.78934462993825"><ele>455.8</ele><time>2026-04-05T07:54:58Z</time></trkpt><trkpt lat="45.73500734906329" lon="9.789264362024536"><ele>455.6</ele><time>2026-04-05T07:54:59Z</time></trkpt><trkpt lat="45.73508577413439" lon="9.789170670290307"><ele>455.4</ele><time>2026-04-05T07:55:00Z</time></trkpt><trkpt lat="45.735158546110625" lon="9.78907239629495"><ele>455.2</ele><time>2026-04-05T07:55:01Z</time></trkpt><trkpt lat="45.735230917156535" lon="9.788981413001624"><ele>455.0</ele><time>2026-04-05T07:55:02Z</time></trkpt><trkpt lat="45.735306704142765" lon="9.788897459909847"><ele>455.0</ele><time>2026-04-05T07:55:03Z</time></trkpt><trkpt lat="45.73538310434578" lon="9.788813722203933"><ele>455.0</ele><time>2026-04-05T07:55:04Z</time></trkpt><trkpt lat="45.735453700773576" lon="9.788726725418684"><ele>455.0</ele><time>2026-04-05T07:55:05Z</time></trkpt><trkpt lat="45.73552635195535" lon="9.788649454991015"><ele>455.0</ele><time>2026-04-05T07:55:06Z</time></trkpt><trkpt lat="45.73560066355644" lon="9.788583372383698"><ele>455.0</ele><time>2026-04-05T07:55:07Z</time></trkpt><trkpt lat="45.735680982214845" lon="9.788541697037108"><ele>450.16666666666663</ele><time>2026-04-05T07:55:08Z</time></trkpt><trkpt lat="45.73576445405159" lon="9.788498954431093"><ele>445.3333333333333</ele><time>2026-04-05T07:55:09Z</time></trkpt><trkpt lat="45.73583971235721" lon="9.788451128048687"><ele>440.5</ele><time>2026-04-05T07:55:10Z</time></trkpt><trkpt lat="45.73590741905232" lon="9.78837532989127"><ele>435.66666666666663</ele><time>2026-04-05T07:55:11Z</time></trkpt><trkpt lat="45.735960626601575" lon="9.788281775814818"><ele>430.8333333333333</ele><time>2026-04-05T07:55:12Z</time></trkpt><trkpt lat="45.73599681185877" lon="9.788177136845892"><ele>426.0</ele><time>2026-04-05T07:55:13Z</time></trkpt><trkpt lat="45.73604333243246" lon="9.78809637597162"><ele>429.8333333333333</ele><time>2026-04-05T07:55:14Z</time></trkpt><trkpt lat="45.73611667713317" lon="9.78807916375098"><ele>433.66666666666663</ele><time>2026-04-05T07:55:15Z</time></trkpt><trkpt lat="45.736184490037814" lon="9.788069018271626"><ele>437.5</ele><time>2026-04-05T07:55:16Z</time></trkpt><trkpt lat="45.73624937825398" lon="9.788051038386469"><ele>441.3333333333333</ele><time>2026-04-05T07:55:17Z</time></trkpt><trkpt lat="45.73637335739752" lon="9.788020004842728"><ele>445.16666666666663</ele><time>2026-04-05T07:55:19Z</time></trkpt><trkpt lat="45.73643967659251" lon="9.787998471742792"><ele>449.0</ele><time>2026-04-05T07:55:20Z</time></trkpt><trkpt lat="45.73654587949452" lon="9.78791646432203"><ele>449.0</ele><time>2026-04-05T07:55:22Z</time></trkpt><trkpt lat="45.736631152057406" lon="9.787799532087035"><ele>449.0</ele><time>2026-04-05T07:55:24Z</time></trkpt><trkpt lat="45.736690869965805" lon="9.787702555353114"><ele>449.0</ele><time>2026-04-05T07:55:26Z</time></trkpt><trkpt lat="45.73673605965171" lon="9.787625876915861"><ele>449.0</ele><time>2026-04-05T07:55:28Z</time></trkpt><trkpt lat="45.73681105694254" lon="9.787546691424978"><ele>449.0</ele><time>2026-04-05T07:55:30Z</time></trkpt><trkpt lat="45.73687831880721" lon="9.787466270097068"><ele>450.6</ele><time>2026-04-05T07:55:32Z</time></trkpt><trkpt lat="45.736952755269115" lon="9.78738703324"><ele>452.2</ele><time>2026-04-05T07:55:34Z</time></trkpt><trkpt lat="45.737032660798356" lon="9.787306433101625"><ele>453.80000000000007</ele><time>2026-04-05T07:55:36Z</time></trkpt><trkpt lat="45.737133917519586" lon="9.787196627047448"><ele>455.40000000000003</ele><time>2026-04-05T07:55:38Z</time></trkpt><trkpt lat="45.73718673383807" lon="9.787131572693507"><ele>457.0</ele><time>2026-04-05T07:55:39Z</time></trkpt><trkpt lat="45.73723702760223" lon="9.787060900673895"><ele>457.00000000000006</ele><time>2026-04-05T07:55:40Z</time></trkpt><trkpt lat="45.737288440879276" lon="9.786977103543302"><ele>457.0</ele><time>2026-04-05T07:55:41Z</time></trkpt><trkpt lat="45.7373338781815" lon="9.786884922264692"><ele>457.0</ele><time>2026-04-05T07:55:42Z</time></trkpt><trkpt lat="45.737383974328246" lon="9.786788692304064"><ele>457.0</ele><time>2026-04-05T07:55:43Z</time></trkpt><trkpt lat="45.737431296245084" lon="9.78668956804491"><ele>457.00000000000006</ele><time>2026-04-05T07:55:44Z</time></trkpt><trkpt lat="45.737489762516475" lon="9.786599533563555"><ele>457.0</ele><time>2026-04-05T07:55:45Z</time></trkpt><trkpt lat="45.73754545762382" lon="9.786501796262591"><ele>455.20000000000005</ele><time>2026-04-05T07:55:46Z</time></trkpt><trkpt lat="45.737593362342366" lon="9.786395553753835"><ele>453.40000000000003</ele><time>2026-04-05T07:55:47Z</time></trkpt><trkpt lat="45.73762824222804" lon="9.786275623425981"><ele>451.59999999999997</ele><time>2026-04-05T07:55:48Z</time></trkpt><trkpt lat="45.73765100999852" lon="9.786141174370346"><ele>449.79999999999995</ele><time>2026-04-05T07:55:49Z</time></trkpt><trkpt lat="45.73767547541042" lon="9.78601182351813"><ele>448.0</ele><time>2026-04-05T07:55:50Z</time></trkpt><trkpt lat="45.737721135928126" lon="9.785887300942006"><ele>448.0</ele><time>2026-04-05T07:55:51Z</time></trkpt><trkpt lat="45.73778414959982" lon="9.785766531672824"><ele>447.99999999999994</ele><time>2026-04-05T07:55:52Z</time></trkpt><trkpt lat="45.73785279671668" lon="9.785644327282602"><ele>447.99999999999994</ele><time>2026-04-05T07:55:53Z</time></trkpt><trkpt lat="45.737917206557945" lon="9.785506678806973"><ele>448.0</ele><time>2026-04-05T07:55:54Z</time></trkpt><trkpt lat="45.73797946684296" lon="9.785369773579381"><ele>448.0</ele><time>2026-04-05T07:55:55Z</time></trkpt><trkpt lat="45.73804505414326" lon="9.785239887548387"><ele>443.83333333333337</ele><time>2026-04-05T07:55:56Z</time></trkpt><trkpt lat="45.738103629677" lon="9.785133427334566"><ele>439.6666666666667</ele><time>2026-04-05T07:55:57Z</time></trkpt><trkpt lat="45.73815621021563" lon="9.785059762953168"><ele>435.5</ele><time>2026-04-05T07:55:58Z</time></trkpt><trkpt lat="45.73821248268611" lon="9.784993194912623"><ele>431.33333333333337</ele><time>2026-04-05T07:55:59Z</time></trkpt><trkpt lat="45.738259250231444" lon="9.784907286830379"><ele>427.1666666666667</ele><time>2026-04-05T07:56:00Z</time></trkpt><trkpt lat="45.73828721514753" lon="9.784795029305254"><ele>423.0</ele><time>2026-04-05T07:56:01Z</time></trkpt><trkpt lat="45.73832345113694" lon="9.784701960233532"><ele>423.0</ele><time>2026-04-05T07:56:02Z</time></trkpt><trkpt lat="45.738360172465946" lon="9.784610346652391"><ele>423.0</ele><time>2026-04-05T07:56:03Z</time></trkpt><trkpt lat="45.73837958731996" lon="9.78451497708571"><ele>423.0</ele><time>2026-04-05T07:56:04Z</time></trkpt><trkpt lat="45.73840120132115" lon="9.784424858672207"><ele>423.0</ele><time>2026-04-05T07:56:05Z</time></trkpt><trkpt lat="45.73843048498162" lon="9.784343652319144"><ele>423.0</ele><time>2026-04-05T07:56:06Z</time></trkpt><trkpt lat="45.738459126406525" lon="9.784257984341764"><ele>423.0</ele><time>2026-04-05T07:56:07Z</time></trkpt><trkpt lat="45.73848801808246" lon="9.784157289546062"><ele>423.0</ele><time>2026-04-05T07:56:08Z</time></trkpt><trkpt lat="45.73851584333023" lon="9.784046680984062"><ele>424.79999999999995</ele><time>2026-04-05T07:56:09Z</time></trkpt><trkpt lat="45.738534088234054" lon="9.783923272131986"><ele>426.6</ele><time>2026-04-05T07:56:10Z</time></trkpt><trkpt lat="45.73854559881104" lon="9.78379877219613"><ele>428.40000000000003</ele><time>2026-04-05T07:56:11Z</time></trkpt><trkpt lat="45.73854466524103" lon="9.78366677993092"><ele>430.20000000000005</ele><time>2026-04-05T07:56:12Z</time></trkpt><trkpt lat="45.738562554611775" lon="9.783538859575993"><ele>432.0</ele><time>2026-04-05T07:56:13Z</time></trkpt><trkpt lat="45.738595970037544" lon="9.783404353773403"><ele>432.0</ele><time>2026-04-05T07:56:14Z</time></trkpt><trkpt lat="45.73863718342394" lon="9.783269513744154"><ele>432.00000000000006</ele><time>2026-04-05T07:56:15Z</time></trkpt><trkpt lat="45.738676621899316" lon="9.78313756932458"><ele>432.00000000000006</ele><time>2026-04-05T07:56:16Z</time></trkpt><trkpt lat="45.73871436497652" lon="9.783017068304884"><ele>432.0</ele><time>2026-04-05T07:56:17Z</time></trkpt><trkpt lat="45.73875331879357" lon="9.78290271225211"><ele>432.0</ele><time>2026-04-05T07:56:18Z</time></trkpt><trkpt lat="45.73879701823774" lon="9.782790292252301"><ele>432.0</ele><time>2026-04-05T07:56:19Z</time></trkpt><trkpt lat="45.738838369635495" lon="9.782687849766043"><ele>432.0</ele><time>2026-04-05T07:56:20Z</time></trkpt><trkpt lat="45.73887746389089" lon="9.78259505625023"><ele>432.0</ele><time>2026-04-05T07:56:21Z</time></trkpt><trkpt lat="45.73891448736781" lon="9.78249375999395"><ele>432.0</ele><time>2026-04-05T07:56:22Z</time></trkpt><trkpt lat="45.738943988122415" lon="9.782388867510505"><ele>432.0</ele><time>2026-04-05T07:56:23Z</time></trkpt><trkpt lat="45.738959398562024" lon="9.782263343249328"><ele>432.0</ele><time>2026-04-05T07:56:24Z</time></trkpt><trkpt lat="45.7389671914942" lon="9.782113133933374"><ele>429.0</ele><time>2026-04-05T07:56:25Z</time></trkpt><trkpt lat="45.738981969369" lon="9.781977728924394"><ele>426.00000000000006</ele><time>2026-04-05T07:56:26Z</time></trkpt><trkpt lat="45.739005117129096" lon="9.781859027035845"><ele>423.0</ele><time>2026-04-05T07:56:27Z</time></trkpt><trkpt lat="45.739025014136075" lon="9.781730233693718"><ele>420.0</ele><time>2026-04-05T07:56:28Z</time></trkpt><trkpt lat="45.73902817056621" lon="9.781597356358317"><ele>417.0</ele><time>2026-04-05T07:56:29Z</time></trkpt><trkpt lat="45.73903438619265" lon="9.781472893236954"><ele>415.1666666666667</ele><time>2026-04-05T07:56:30Z</time></trkpt><trkpt lat="45.73903234091676" lon="9.781357543585235"><ele>413.33333333333337</ele><time>2026-04-05T07:56:31Z</time></trkpt><trkpt lat="45.73903488009149" lon="9.781253734889761"><ele>411.5</ele><time>2026-04-05T07:56:32Z</time></trkpt><trkpt lat="45.739036069602335" lon="9.781152656764855"><ele>409.6666666666667</ele><time>2026-04-05T07:56:33Z</time></trkpt><trkpt lat="45.739036402475065" lon="9.780970353244493"><ele>407.83333333333337</ele><time>2026-04-05T07:56:35Z</time></trkpt><trkpt lat="45.73904159268585" lon="9.780860349281047"><ele>406.0</ele><time>2026-04-05T07:56:36Z</time></trkpt><trkpt lat="45.73904843589037" lon="9.780749551328745"><ele>405.0</ele><time>2026-04-05T07:56:37Z</time></trkpt><trkpt lat="45.73905103632918" lon="9.780627164715316"><ele>404.0</ele><time>2026-04-05T07:56:38Z</time></trkpt><trkpt lat="45.73905957879003" lon="9.780496753440461"><ele>403.0</ele><time>2026-04-05T07:56:39Z</time></trkpt><trkpt lat="45.73907686711679" lon="9.780364504505195"><ele>402.0</ele><time>2026-04-05T07:56:40Z</time></trkpt><trkpt lat="45.73909581515149" lon="9.780228427276436"><ele>401.0</ele><time>2026-04-05T07:56:41.001Z</time></trkpt><trkpt lat="45.73912052469732" lon="9.780089814672412"><ele>399.4</ele><time>2026-04-05T07:56:42.001Z</time></trkpt><trkpt lat="45.73913943608676" lon="9.779955534769085"><ele>397.8</ele><time>2026-04-05T07:56:43.001Z</time></trkpt><trkpt lat="45.73916454416099" lon="9.779815371685965"><ele>396.2</ele><time>2026-04-05T07:56:44.001Z</time></trkpt><trkpt lat="45.73919451731117" lon="9.779685491915137"><ele>394.59999999999997</ele><time>2026-04-05T07:56:45.001Z</time></trkpt><trkpt lat="45.739214868084716" lon="9.779540841185216"><ele>393.0</ele><time>2026-04-05T07:56:46.001Z</time></trkpt><trkpt lat="45.73924938658952" lon="9.779412148605385"><ele>393.8333333333333</ele><time>2026-04-05T07:56:47.001Z</time></trkpt><trkpt lat="45.73927973561891" lon="9.779291569335152"><ele>394.66666666666663</ele><time>2026-04-05T07:56:48.001Z</time></trkpt><trkpt lat="45.73931998416563" lon="9.779182109080175"><ele>395.5</ele><time>2026-04-05T07:56:49.001Z</time></trkpt><trkpt lat="45.739360407196195" lon="9.779088302907333"><ele>396.3333333333333</ele><time>2026-04-05T07:56:50.001Z</time></trkpt><trkpt lat="45.739401366844476" lon="9.77899999629849"><ele>397.16666666666663</ele><time>2026-04-05T07:56:51.001Z</time></trkpt><trkpt lat="45.739416675104316" lon="9.778885248237213"><ele>398.0</ele><time>2026-04-05T07:56:52.001Z</time></trkpt><trkpt lat="45.73944950713268" lon="9.778798491660162"><ele>397.99999999999994</ele><time>2026-04-05T07:56:53.001Z</time></trkpt><trkpt lat="45.73948062466931" lon="9.778693723403"><ele>398.0</ele><time>2026-04-05T07:56:54.001Z</time></trkpt><trkpt lat="45.73949547610298" lon="9.778573996515926"><ele>398.0</ele><time>2026-04-05T07:56:55.001Z</time></trkpt><trkpt lat="45.739515890451095" lon="9.778464840290821"><ele>398.0</ele><time>2026-04-05T07:56:56Z</time></trkpt><trkpt lat="45.7395358592342" lon="9.778353994161275"><ele>397.99999999999994</ele><time>2026-04-05T07:56:57Z</time></trkpt><trkpt lat="45.739563102813705" lon="9.778240334266005"><ele>398.0</ele><time>2026-04-05T07:56:58Z</time></trkpt><trkpt lat="45.739593447758025" lon="9.778126478623825"><ele>395.2</ele><time>2026-04-05T07:56:59Z</time></trkpt><trkpt lat="45.73963082923153" lon="9.778009311172335"><ele>392.4</ele><time>2026-04-05T07:57:00Z</time></trkpt><trkpt lat="45.7396783064614" lon="9.777883312615351"><ele>389.59999999999997</ele><time>2026-04-05T07:57:01Z</time></trkpt><trkpt lat="45.73971391026888" lon="9.777745025521028"><ele>386.79999999999995</ele><time>2026-04-05T07:57:02Z</time></trkpt><trkpt lat="45.73973840503791" lon="9.777596517035686"><ele>384.0</ele><time>2026-04-05T07:57:03Z</time></trkpt><trkpt lat="45.73975420616841" lon="9.777450795080695"><ele>381.4</ele><time>2026-04-05T07:57:04Z</time></trkpt><trkpt lat="45.73977010210258" lon="9.777310779335629"><ele>378.79999999999995</ele><time>2026-04-05T07:57:05Z</time></trkpt><trkpt lat="45.73978593618447" lon="9.777173558788293"><ele>376.20000000000005</ele><time>2026-04-05T07:57:06Z</time></trkpt><trkpt lat="45.739799306248194" lon="9.777049388607004"><ele>373.6</ele><time>2026-04-05T07:57:07Z</time></trkpt><trkpt lat="45.739805260911766" lon="9.776926991428155"><ele>371.0</ele><time>2026-04-05T07:57:08Z</time></trkpt><trkpt lat="45.739824374990825" lon="9.776813256099175"><ele>369.0</ele><time>2026-04-05T07:57:09Z</time></trkpt><trkpt lat="45.739847459852705" lon="9.776691298328778"><ele>367.0</ele><time>2026-04-05T07:57:10Z</time></trkpt><trkpt lat="45.739876203420934" lon="9.776570257323513"><ele>365.0</ele><time>2026-04-05T07:57:11Z</time></trkpt><trkpt lat="45.739910142550485" lon="9.776467298535257"><ele>363.0</ele><time>2026-04-05T07:57:12Z</time></trkpt><trkpt lat="45.739947562298106" lon="9.776376723039625"><ele>361.0</ele><time>2026-04-05T07:57:13Z</time></trkpt><trkpt lat="45.73999941686796" lon="9.77631747293695"><ele>359.0</ele><time>2026-04-05T07:57:14Z</time></trkpt><trkpt lat="45.74002267248267" lon="9.776206835383633"><ele>359.0</ele><time>2026-04-05T07:57:15Z</time></trkpt><trkpt lat="45.74005352136849" lon="9.776121705882536"><ele>359.0</ele><time>2026-04-05T07:57:16Z</time></trkpt><trkpt lat="45.74008135660298" lon="9.776039180684391"><ele>359.0</ele><time>2026-04-05T07:57:17Z</time></trkpt><trkpt lat="45.7400877867538" lon="9.775895477910108"><ele>359.0</ele><time>2026-04-05T07:57:19Z</time></trkpt><trkpt lat="45.74005426311597" lon="9.775814493778947"><ele>359.0</ele><time>2026-04-05T07:57:20Z</time></trkpt><trkpt lat="45.73997066986064" lon="9.775728396857629"><ele>359.0</ele><time>2026-04-05T07:57:22Z</time></trkpt><trkpt lat="45.73988598749278" lon="9.775647490738073"><ele>357.33333333333337</ele><time>2026-04-05T07:57:24Z</time></trkpt><trkpt lat="45.73984206917374" lon="9.775568312513995"><ele>355.6666666666667</ele><time>2026-04-05T07:57:25Z</time></trkpt><trkpt lat="45.7397935092254" lon="9.775491947656091"><ele>354.0</ele><time>2026-04-05T07:57:26Z</time></trkpt><trkpt lat="45.73975439646519" lon="9.775418218416155"><ele>352.3333333333333</ele><time>2026-04-05T07:57:27Z</time></trkpt><trkpt lat="45.73971958259449" lon="9.775333409065835"><ele>350.66666666666663</ele><time>2026-04-05T07:57:28Z</time></trkpt><trkpt lat="45.73968536994769" lon="9.77524983714597"><ele>349.0</ele><time>2026-04-05T07:57:29Z</time></trkpt><trkpt lat="45.739640467322864" lon="9.775082431833205"><ele>347.2</ele><time>2026-04-05T07:57:31Z</time></trkpt><trkpt lat="45.739591570056" lon="9.774921667132215"><ele>345.4</ele><time>2026-04-05T07:57:33Z</time></trkpt><trkpt lat="45.73956090504588" lon="9.774831792032339"><ele>343.6</ele><time>2026-04-05T07:57:34Z</time></trkpt><trkpt lat="45.73952945903618" lon="9.774739603059412"><ele>341.8</ele><time>2026-04-05T07:57:35Z</time></trkpt><trkpt lat="45.739481936288456" lon="9.774574122980676"><ele>340.0</ele><time>2026-04-05T07:57:37Z</time></trkpt><trkpt lat="45.73946652751483" lon="9.774480726901158"><ele>340.0</ele><time>2026-04-05T07:57:38Z</time></trkpt><trkpt lat="45.73946909428642" lon="9.774374633354784"><ele>340.0</ele><time>2026-04-05T07:57:39Z</time></trkpt><trkpt lat="45.73948718079252" lon="9.774274017263721"><ele>340.0</ele><time>2026-04-05T07:57:40Z</time></trkpt><trkpt lat="45.73956802771723" lon="9.774178278851263"><ele>340.0</ele><time>2026-04-05T07:57:42Z</time></trkpt><trkpt lat="45.73967465741506" lon="9.774145810079565"><ele>340.0</ele><time>2026-04-05T07:57:44Z</time></trkpt><trkpt lat="45.73980315592139" lon="9.774097850498817"><ele>339.16666666666663</ele><time>2026-04-05T07:57:46Z</time></trkpt><trkpt lat="45.73987560226658" lon="9.774069685634242"><ele>338.3333333333333</ele><time>2026-04-05T07:57:47Z</time></trkpt><trkpt lat="45.739952042137155" lon="9.77403640326224"><ele>337.5</ele><time>2026-04-05T07:57:48Z</time></trkpt><trkpt lat="45.74003720620704" lon="9.774003124902393"><ele>336.6666666666667</ele><time>2026-04-05T07:57:49Z</time></trkpt><trkpt lat="45.740124584641514" lon="9.773971650782734"><ele>335.83333333333337</ele><time>2026-04-05T07:57:50Z</time></trkpt><trkpt lat="45.740218808011235" lon="9.77393822026574"><ele>335.0</ele><time>2026-04-05T07:57:51Z</time></trkpt><trkpt lat="45.74030951437637" lon="9.77390629428478"><ele>334.0</ele><time>2026-04-05T07:57:52Z</time></trkpt><trkpt lat="45.740388404391524" lon="9.773878518164144"><ele>333.0</ele><time>2026-04-05T07:57:53Z</time></trkpt><trkpt lat="45.740461680461415" lon="9.773864264159439"><ele>332.0</ele><time>2026-04-05T07:57:54Z</time></trkpt><trkpt lat="45.74055492105928" lon="9.773886978507395"><ele>331.0</ele><time>2026-04-05T07:57:56Z</time></trkpt><trkpt lat="45.74061246246276" lon="9.773923595453867"><ele>330.0</ele><time>2026-04-05T07:57:57Z</time></trkpt><trkpt lat="45.740673915242766" lon="9.774049479954165"><ele>329.0</ele><time>2026-04-05T07:57:59Z</time></trkpt><trkpt lat="45.74073350156537" lon="9.774178237934725"><ele>329.0</ele><time>2026-04-05T07:58:01Z</time></trkpt><trkpt lat="45.74079719358344" lon="9.774277528145596"><ele>329.0</ele><time>2026-04-05T07:58:03Z</time></trkpt><trkpt lat="45.74084060975823" lon="9.774350041266954"><ele>329.0</ele><time>2026-04-05T07:58:08Z</time></trkpt><trkpt lat="45.74089138931374" lon="9.774489520459095"><ele>329.0</ele><time>2026-04-05T07:58:10Z</time></trkpt><trkpt lat="45.740966473389825" lon="9.774612199625102"><ele>329.0</ele><time>2026-04-05T07:58:12Z</time></trkpt><trkpt lat="45.741021014576255" lon="9.774734736734954"><ele>328.5</ele><time>2026-04-05T07:58:14Z</time></trkpt><trkpt lat="45.74106959121746" lon="9.774844459782553"><ele>328.0</ele><time>2026-04-05T07:58:16Z</time></trkpt><trkpt lat="45.7411086199312" lon="9.774942376658633"><ele>327.5</ele><time>2026-04-05T07:58:18Z</time></trkpt><trkpt lat="45.74116726284636" lon="9.775028759163906"><ele>327.0</ele><time>2026-04-05T07:58:21Z</time></trkpt><trkpt lat="45.7411992549486" lon="9.775113986127991"><ele>326.5</ele><time>2026-04-05T07:58:24Z</time></trkpt><trkpt lat="45.74115719886424" lon="9.775038307472949"><ele>326.0</ele><time>2026-04-05T07:58:28Z</time></trkpt><trkpt lat="45.74120175042786" lon="9.774967186325558"><ele>326.0</ele><time>2026-04-05T07:58:30Z</time></trkpt><trkpt lat="45.74126241058991" lon="9.774902653094038"><ele>326.0</ele><time>2026-04-05T07:58:33Z</time></trkpt><trkpt lat="45.74132218632274" lon="9.774861021539296"><ele>326.0</ele><time>2026-04-05T07:58:49Z</time></trkpt><trkpt lat="45.74123081632254" lon="9.774914230666475"><ele>326.0</ele><time>2026-04-05T08:01:03.001Z</time></trkpt><trkpt lat="45.741291229880204" lon="9.774951904298756"><ele>326.0</ele><time>2026-04-05T08:02:49Z</time></trkpt><trkpt lat="45.74127301733395" lon="9.775076258369719"><ele>326.0</ele><time>2026-04-05T08:02:52Z</time></trkpt><trkpt lat="45.741202120519524" lon="9.775064284500825"><ele>326.0</ele><time>2026-04-05T08:02:54Z</time></trkpt><trkpt lat="45.741136781854365" lon="9.775094800117154"><ele>326.0</ele><time>2026-04-05T08:02:57.999Z</time></trkpt><trkpt lat="45.74116975725815" lon="9.775184952076211"><ele>326.0</ele><time>2026-04-05T08:03:00Z</time></trkpt><trkpt lat="45.7412626786072" lon="9.775234997844509"><ele>326.0</ele><time>2026-04-05T08:03:02Z</time></trkpt><trkpt lat="45.741296770988406" lon="9.775312695797027"><ele>326.0</ele><time>2026-04-05T08:03:04Z</time></trkpt><trkpt lat="45.74135232192848" lon="9.775419217629459"><ele>326.0</ele><time>2026-04-05T08:03:06Z</time></trkpt><trkpt lat="45.741406349992346" lon="9.775518391978721"><ele>326.33333333333337</ele><time>2026-04-05T08:03:08Z</time></trkpt><trkpt lat="45.74145123604033" lon="9.775606567952694"><ele>326.6666666666667</ele><time>2026-04-05T08:03:10Z</time></trkpt><trkpt lat="45.741444229298935" lon="9.775717462327785"><ele>327.0</ele><time>2026-04-05T08:03:13Z</time></trkpt><trkpt lat="45.741374616725096" lon="9.775781419684675"><ele>327.3333333333333</ele><time>2026-04-05T08:03:15Z</time></trkpt><trkpt lat="45.74130522091098" lon="9.7758499988603"><ele>327.66666666666663</ele><time>2026-04-05T08:03:17Z</time></trkpt><trkpt lat="45.741248614126384" lon="9.775917636824905"><ele>328.0</ele><time>2026-04-05T08:03:18.999Z</time></trkpt><trkpt lat="45.74119115822406" lon="9.7759678900962"><ele>328.0</ele><time>2026-04-05T08:03:20.999Z</time></trkpt><trkpt lat="45.74112058252034" lon="9.775995061191804"><ele>328.0</ele><time>2026-04-05T08:03:22.999Z</time></trkpt><trkpt lat="45.74105867943344" lon="9.775912093403203"><ele>328.0</ele><time>2026-04-05T08:03:24.999Z</time></trkpt><trkpt lat="45.74100615173289" lon="9.775806980550533"><ele>328.0</ele><time>2026-04-05T08:03:26.999Z</time></trkpt><trkpt lat="45.74095367978658" lon="9.77571140277708"><ele>328.0</ele><time>2026-04-05T08:03:28.999Z</time></trkpt><trkpt lat="45.74089755065713" lon="9.775627677058155"><ele>328.0</ele><time>2026-04-05T08:03:30.999Z</time></trkpt><trkpt lat="45.74084849726033" lon="9.775547498350132"><ele>328.5</ele><time>2026-04-05T08:03:32.999Z</time></trkpt><trkpt lat="45.74079906798363" lon="9.77548350093865"><ele>329.0</ele><time>2026-04-05T08:03:34.999Z</time></trkpt><trkpt lat="45.740751775257614" lon="9.77539206513353"><ele>329.5</ele><time>2026-04-05T08:03:36.999Z</time></trkpt><trkpt lat="45.740694558369135" lon="9.775275356047691"><ele>330.0</ele><time>2026-04-05T08:03:38.999Z</time></trkpt><trkpt lat="45.74064392910199" lon="9.775154551595792"><ele>330.5</ele><time>2026-04-05T08:03:40.999Z</time></trkpt><trkpt lat="45.74060250339029" lon="9.775031715259447"><ele>331.0</ele><time>2026-04-05T08:03:42.999Z</time></trkpt><trkpt lat="45.74055936026056" lon="9.774912212778123"><ele>331.0</ele><time>2026-04-05T08:03:44.999Z</time></trkpt><trkpt lat="45.740522655853596" lon="9.77479001217536"><ele>331.0</ele><time>2026-04-05T08:03:46.999Z</time></trkpt><trkpt lat="45.74049277325333" lon="9.774667334324018"><ele>331.0</ele><time>2026-04-05T08:03:48.999Z</time></trkpt><trkpt lat="45.740455664499855" lon="9.774549524840904"><ele>331.0</ele><time>2026-04-05T08:03:50.999Z</time></trkpt><trkpt lat="45.74042108876862" lon="9.774429246627236"><ele>331.0</ele><time>2026-04-05T08:03:52.999Z</time></trkpt><trkpt lat="45.74038476907988" lon="9.774316108199375"><ele>330.6</ele><time>2026-04-05T08:03:54.999Z</time></trkpt><trkpt lat="45.74034787516362" lon="9.774187465006094"><ele>330.20000000000005</ele><time>2026-04-05T08:03:56.999Z</time></trkpt><trkpt lat="45.74030171897188" lon="9.774056446116985"><ele>329.79999999999995</ele><time>2026-04-05T08:03:58.999Z</time></trkpt><trkpt lat="45.74024055220789" lon="9.773994368874687"><ele>329.4</ele><time>2026-04-05T08:04:00.999Z</time></trkpt><trkpt lat="45.740148134893175" lon="9.773995378912915"><ele>329.0</ele><time>2026-04-05T08:04:03.999Z</time></trkpt><trkpt lat="45.74005829259137" lon="9.773993952539564"><ele>330.0</ele><time>2026-04-05T08:04:06.999Z</time></trkpt><trkpt lat="45.739974934646106" lon="9.773981883620943"><ele>331.0</ele><time>2026-04-05T08:04:09.999Z</time></trkpt><trkpt lat="45.73988961050658" lon="9.774025205997539"><ele>332.0</ele><time>2026-04-05T08:04:12.999Z</time></trkpt><trkpt lat="45.73981598755187" lon="9.774069925270487"><ele>333.0</ele><time>2026-04-05T08:04:15.999Z</time></trkpt><trkpt lat="45.73974512479709" lon="9.774100876037322"><ele>334.0</ele><time>2026-04-05T08:04:18.999Z</time></trkpt><trkpt lat="45.739671511325696" lon="9.774128515798417"><ele>335.0</ele><time>2026-04-05T08:04:21.999Z</time></trkpt><trkpt lat="45.73960167920642" lon="9.774165777521766"><ele>335.0</ele><time>2026-04-05T08:04:24.999Z</time></trkpt><trkpt lat="45.73953094307327" lon="9.774146681149794"><ele>335.0</ele><time>2026-04-05T08:04:27.999Z</time></trkpt><trkpt lat="45.73950130904574" lon="9.774037322294042"><ele>335.0</ele><time>2026-04-05T08:04:30.999Z</time></trkpt><trkpt lat="45.739469004231616" lon="9.77395599690131"><ele>335.0</ele><time>2026-04-05T08:05:00.999Z</time></trkpt><trkpt lat="45.739469227271705" lon="9.773858458664245"><ele>335.0</ele><time>2026-04-05T08:05:02.999Z</time></trkpt><trkpt lat="45.73947557972196" lon="9.77374382300052"><ele>335.0</ele><time>2026-04-05T08:05:04.999Z</time></trkpt><trkpt lat="45.739477691961234" lon="9.773623523358868"><ele>335.0</ele><time>2026-04-05T08:05:06.999Z</time></trkpt><trkpt lat="45.7394749443476" lon="9.773492045717367"><ele>335.0</ele><time>2026-04-05T08:05:09Z</time></trkpt><trkpt lat="45.739470985361486" lon="9.77333192783284"><ele>335.0</ele><time>2026-04-05T08:05:11Z</time></trkpt><trkpt lat="45.739464176401896" lon="9.773144343147221"><ele>335.0</ele><time>2026-04-05T08:05:13Z</time></trkpt><trkpt lat="45.73945359283118" lon="9.773051058670669"><ele>335.0</ele><time>2026-04-05T08:05:14Z</time></trkpt><trkpt lat="45.73943823605022" lon="9.772957047180858"><ele>334.99999999999994</ele><time>2026-04-05T08:05:15Z</time></trkpt><trkpt lat="45.739431456776046" lon="9.772864456643358"><ele>335.0</ele><time>2026-04-05T08:05:16Z</time></trkpt><trkpt lat="45.73942652076399" lon="9.772766923173482"><ele>335.0</ele><time>2026-04-05T08:05:17Z</time></trkpt><trkpt lat="45.73941503695838" lon="9.772673742955073"><ele>335.0</ele><time>2026-04-05T08:05:18Z</time></trkpt><trkpt lat="45.739393427205734" lon="9.772582626112243"><ele>335.0</ele><time>2026-04-05T08:05:19Z</time></trkpt><trkpt lat="45.73937559718021" lon="9.77248526536356"><ele>334.99999999999994</ele><time>2026-04-05T08:05:20Z</time></trkpt><trkpt lat="45.73935722290075" lon="9.772384646599436"><ele>335.0</ele><time>2026-04-05T08:05:21Z</time></trkpt><trkpt lat="45.739336089181826" lon="9.772283528239875"><ele>335.0</ele><time>2026-04-05T08:05:22Z</time></trkpt><trkpt lat="45.73931505939247" lon="9.772180554922882"><ele>335.0</ele><time>2026-04-05T08:05:23Z</time></trkpt><trkpt lat="45.739292732195324" lon="9.772073168907799"><ele>335.0</ele><time>2026-04-05T08:05:24Z</time></trkpt><trkpt lat="45.73926751292873" lon="9.771966163405837"><ele>335.0</ele><time>2026-04-05T08:05:25Z</time></trkpt><trkpt lat="45.73924825791727" lon="9.771846649489976"><ele>335.0</ele><time>2026-04-05T08:05:26Z</time></trkpt><trkpt lat="45.73922875382428" lon="9.771724411493985"><ele>335.0</ele><time>2026-04-05T08:05:27Z</time></trkpt><trkpt lat="45.73920831569664" lon="9.771598240452223"><ele>335.0</ele><time>2026-04-05T08:05:28Z</time></trkpt><trkpt lat="45.73918417346778" lon="9.771462349245917"><ele>335.0</ele><time>2026-04-05T08:05:29Z</time></trkpt><trkpt lat="45.73915323075655" lon="9.771326986184446"><ele>335.0</ele><time>2026-04-05T08:05:30Z</time></trkpt><trkpt lat="45.739114163732474" lon="9.771188483373786"><ele>335.0</ele><time>2026-04-05T08:05:31Z</time></trkpt><trkpt lat="45.73907095518684" lon="9.771047633870712"><ele>335.0</ele><time>2026-04-05T08:05:32Z</time></trkpt><trkpt lat="45.73902288556508" lon="9.770903310187995"><ele>334.0</ele><time>2026-04-05T08:05:33Z</time></trkpt><trkpt lat="45.73897479608232" lon="9.770759204584563"><ele>333.0</ele><time>2026-04-05T08:05:34Z</time></trkpt><trkpt lat="45.73894097029978" lon="9.770610991929448"><ele>332.0</ele><time>2026-04-05T08:05:35Z</time></trkpt><trkpt lat="45.73892798420377" lon="9.770454882745886"><ele>331.0</ele><time>2026-04-05T08:05:36Z</time></trkpt><trkpt lat="45.738938277902626" lon="9.770296419088103"><ele>330.0</ele><time>2026-04-05T08:05:37Z</time></trkpt><trkpt lat="45.73897184770582" lon="9.77013623423054"><ele>328.0</ele><time>2026-04-05T08:05:38Z</time></trkpt><trkpt lat="45.739012880996924" lon="9.769975499999394"><ele>326.0</ele><time>2026-04-05T08:05:39Z</time></trkpt><trkpt lat="45.73904146282883" lon="9.769818824266672"><ele>324.0</ele><time>2026-04-05T08:05:40Z</time></trkpt><trkpt lat="45.73906588870285" lon="9.769681833210202"><ele>322.0</ele><time>2026-04-05T08:05:41Z</time></trkpt><trkpt lat="45.739090061315316" lon="9.769553735429344"><ele>320.0</ele><time>2026-04-05T08:05:42Z</time></trkpt><trkpt lat="45.7391073323479" lon="9.769412773396796"><ele>319.2</ele><time>2026-04-05T08:05:43Z</time></trkpt><trkpt lat="45.73910762531395" lon="9.769262277135109"><ele>318.4</ele><time>2026-04-05T08:05:44Z</time></trkpt><trkpt lat="45.73908365927892" lon="9.769111382723642"><ele>317.6</ele><time>2026-04-05T08:05:45Z</time></trkpt><trkpt lat="45.73906659048914" lon="9.76897147140341"><ele>316.8</ele><time>2026-04-05T08:05:46Z</time></trkpt><trkpt lat="45.73904158664829" lon="9.768840823978923"><ele>316.0</ele><time>2026-04-05T08:05:47Z</time></trkpt><trkpt lat="45.73901327065765" lon="9.768715939912504"><ele>316.0</ele><time>2026-04-05T08:05:48Z</time></trkpt><trkpt lat="45.738980028336066" lon="9.768586322943074"><ele>316.0</ele><time>2026-04-05T08:05:49Z</time></trkpt><trkpt lat="45.73895995541254" lon="9.76845894246821"><ele>316.0</ele><time>2026-04-05T08:05:50Z</time></trkpt><trkpt lat="45.73895035113418" lon="9.768327866511504"><ele>316.0</ele><time>2026-04-05T08:05:51Z</time></trkpt><trkpt lat="45.73895334287527" lon="9.768207076211793"><ele>316.0</ele><time>2026-04-05T08:05:52Z</time></trkpt><trkpt lat="45.73896247032407" lon="9.7681023593138"><ele>316.0</ele><time>2026-04-05T08:05:53Z</time></trkpt><trkpt lat="45.73900102894953" lon="9.76795251904051"><ele>315.16666666666663</ele><time>2026-04-05T08:05:55Z</time></trkpt><trkpt lat="45.739056968255426" lon="9.767834582197356"><ele>314.3333333333333</ele><time>2026-04-05T08:05:57Z</time></trkpt><trkpt lat="45.7390896830724" lon="9.76771087387075"><ele>313.5</ele><time>2026-04-05T08:05:58.999Z</time></trkpt><trkpt lat="45.73908888816008" lon="9.767611545276"><ele>312.6666666666667</ele><time>2026-04-05T08:05:59.999Z</time></trkpt><trkpt lat="45.73908626086665" lon="9.767501025607285"><ele>311.83333333333337</ele><time>2026-04-05T08:06:00.999Z</time></trkpt><trkpt lat="45.73909682413052" lon="9.7673955366287"><ele>311.0</ele><time>2026-04-05T08:06:01.999Z</time></trkpt><trkpt lat="45.73910867192829" lon="9.76728611195866"><ele>309.83333333333337</ele><time>2026-04-05T08:06:02.999Z</time></trkpt><trkpt lat="45.73911780343736" lon="9.767175473338353"><ele>308.6666666666667</ele><time>2026-04-05T08:06:03.999Z</time></trkpt><trkpt lat="45.73911312962709" lon="9.767062562378328"><ele>307.5</ele><time>2026-04-05T08:06:04.999Z</time></trkpt><trkpt lat="45.739093528156616" lon="9.766953452737798"><ele>306.3333333333333</ele><time>2026-04-05T08:06:05.999Z</time></trkpt><trkpt lat="45.7390636346581" lon="9.766850347318849"><ele>305.16666666666663</ele><time>2026-04-05T08:06:06.999Z</time></trkpt><trkpt lat="45.73902827184481" lon="9.766753631610833"><ele>304.0</ele><time>2026-04-05T08:06:07.999Z</time></trkpt><trkpt lat="45.7389902797549" lon="9.766658801730394"><ele>303.57142857142856</ele><time>2026-04-05T08:06:08.999Z</time></trkpt><trkpt lat="45.73896744208829" lon="9.76656821766185"><ele>303.14285714285717</ele><time>2026-04-05T08:06:09.999Z</time></trkpt><trkpt lat="45.7389340406102" lon="9.766476577611652"><ele>302.7142857142857</ele><time>2026-04-05T08:06:10.999Z</time></trkpt><trkpt lat="45.738907552438455" lon="9.766389031525812"><ele>302.2857142857143</ele><time>2026-04-05T08:06:11.999Z</time></trkpt><trkpt lat="45.73887896184809" lon="9.76630276560001"><ele>301.8571428571429</ele><time>2026-04-05T08:06:12.999Z</time></trkpt><trkpt lat="45.738851742736834" lon="9.766211375150045"><ele>301.42857142857144</ele><time>2026-04-05T08:06:13.999Z</time></trkpt><trkpt lat="45.73882647427147" lon="9.76612455052153"><ele>301.0</ele><time>2026-04-05T08:06:14.999Z</time></trkpt><trkpt lat="45.73879986354012" lon="9.766038568965937"><ele>300.66666666666663</ele><time>2026-04-05T08:06:15.999Z</time></trkpt><trkpt lat="45.73877074078689" lon="9.765958017076388"><ele>300.3333333333333</ele><time>2026-04-05T08:06:16.999Z</time></trkpt><trkpt lat="45.73874435197829" lon="9.76587493703561"><ele>300.0</ele><time>2026-04-05T08:06:17.999Z</time></trkpt><trkpt lat="45.7387157109863" lon="9.76579396149154"><ele>299.6666666666667</ele><time>2026-04-05T08:06:18.999Z</time></trkpt><trkpt lat="45.73868835725862" lon="9.76571048872353"><ele>299.33333333333337</ele><time>2026-04-05T08:06:19.999Z</time></trkpt><trkpt lat="45.738639346630094" lon="9.765550515682463"><ele>299.0</ele><time>2026-04-05T08:06:21.999Z</time></trkpt><trkpt lat="45.73858763613975" lon="9.765398032113085"><ele>300.0</ele><time>2026-04-05T08:06:23.999Z</time></trkpt><trkpt lat="45.738540794327136" lon="9.765246906578476"><ele>301.0</ele><time>2026-04-05T08:06:25.999Z</time></trkpt><trkpt lat="45.73849129792342" lon="9.765099736817616"><ele>302.0</ele><time>2026-04-05T08:06:27.999Z</time></trkpt><trkpt lat="45.73844389374494" lon="9.76493742740004"><ele>303.0</ele><time>2026-04-05T08:06:29.999Z</time></trkpt><trkpt lat="45.73840619838856" lon="9.76477388551009"><ele>303.0</ele><time>2026-04-05T08:06:31.999Z</time></trkpt><trkpt lat="45.738381005833894" lon="9.764603916482168"><ele>303.0</ele><time>2026-04-05T08:06:33.999Z</time></trkpt><trkpt lat="45.73834630887531" lon="9.764435755924897"><ele>303.0</ele><time>2026-04-05T08:06:35.999Z</time></trkpt><trkpt lat="45.73832271728051" lon="9.764350024577114"><ele>303.0</ele><time>2026-04-05T08:06:37Z</time></trkpt><trkpt lat="45.73829513705506" lon="9.764262340212179"><ele>303.0</ele><time>2026-04-05T08:06:37.999Z</time></trkpt><trkpt lat="45.73826356527658" lon="9.764175709815797"><ele>303.0</ele><time>2026-04-05T08:06:38.999Z</time></trkpt><trkpt lat="45.73823285432404" lon="9.764084660857158"><ele>302.3333333333333</ele><time>2026-04-05T08:06:39.999Z</time></trkpt><trkpt lat="45.738198734598136" lon="9.763987804396136"><ele>301.6666666666667</ele><time>2026-04-05T08:06:40.999Z</time></trkpt><trkpt lat="45.73816629213849" lon="9.763891035024857"><ele>301.0</ele><time>2026-04-05T08:06:41.999Z</time></trkpt><trkpt lat="45.7381356797196" lon="9.763796007463558"><ele>300.33333333333337</ele><time>2026-04-05T08:06:42.999Z</time></trkpt><trkpt lat="45.73810227343379" lon="9.763709365945356"><ele>299.6666666666667</ele><time>2026-04-05T08:06:43.999Z</time></trkpt><trkpt lat="45.73807097279296" lon="9.763625461954035"><ele>299.0</ele><time>2026-04-05T08:06:44.999Z</time></trkpt><trkpt lat="45.73801130668375" lon="9.763458833244261"><ele>298.2857142857143</ele><time>2026-04-05T08:06:46.999Z</time></trkpt><trkpt lat="45.737980244905316" lon="9.763377111190847"><ele>297.57142857142856</ele><time>2026-04-05T08:06:47.999Z</time></trkpt><trkpt lat="45.737951230662446" lon="9.763293114229974"><ele>296.8571428571429</ele><time>2026-04-05T08:06:48.999Z</time></trkpt><trkpt lat="45.73791949839102" lon="9.76320898913134"><ele>296.1428571428571</ele><time>2026-04-05T08:06:49.999Z</time></trkpt><trkpt lat="45.737890338337856" lon="9.763125804392635"><ele>295.42857142857144</ele><time>2026-04-05T08:06:50.999Z</time></trkpt><trkpt lat="45.73785842722709" lon="9.763044170061127"><ele>294.7142857142857</ele><time>2026-04-05T08:06:51.999Z</time></trkpt><trkpt lat="45.73782266012974" lon="9.762955656188685"><ele>294.0</ele><time>2026-04-05T08:06:52.999Z</time></trkpt><trkpt lat="45.73779762489492" lon="9.762771873150687"><ele>293.7142857142857</ele><time>2026-04-05T08:06:54.999Z</time></trkpt><trkpt lat="45.73777939772404" lon="9.762684153901507"><ele>293.42857142857144</ele><time>2026-04-05T08:06:55.999Z</time></trkpt><trkpt lat="45.7377677817227" lon="9.762590345604043"><ele>293.1428571428571</ele><time>2026-04-05T08:06:56.999Z</time></trkpt><trkpt lat="45.73776236681784" lon="9.762488388186629"><ele>292.8571428571429</ele><time>2026-04-05T08:06:57.999Z</time></trkpt><trkpt lat="45.737745258365145" lon="9.76238683258545"><ele>292.57142857142856</ele><time>2026-04-05T08:06:58.999Z</time></trkpt><trkpt lat="45.73774975186707" lon="9.762290419180282"><ele>292.2857142857143</ele><time>2026-04-05T08:06:59.999Z</time></trkpt><trkpt lat="45.737746077368655" lon="9.762188709522887"><ele>292.0</ele><time>2026-04-05T08:07:00.999Z</time></trkpt><trkpt lat="45.73774969416069" lon="9.76209278560011"><ele>292.0</ele><time>2026-04-05T08:07:01.999Z</time></trkpt><trkpt lat="45.7377568450003" lon="9.761993984925871"><ele>292.0</ele><time>2026-04-05T08:07:02.999Z</time></trkpt><trkpt lat="45.73775517536689" lon="9.76188945803955"><ele>292.0</ele><time>2026-04-05T08:07:03.999Z</time></trkpt><trkpt lat="45.73775816643452" lon="9.761798021559475"><ele>292.0</ele><time>2026-04-05T08:07:04.999Z</time></trkpt><trkpt lat="45.737761594600975" lon="9.761699887981905"><ele>292.0</ele><time>2026-04-05T08:07:05.999Z</time></trkpt><trkpt lat="45.73776064970774" lon="9.761604824802696"><ele>292.0</ele><time>2026-04-05T08:07:06.999Z</time></trkpt><trkpt lat="45.737759578567534" lon="9.761510556290181"><ele>292.0</ele><time>2026-04-05T08:07:07.999Z</time></trkpt><trkpt lat="45.737754466560304" lon="9.761418156245233"><ele>292.0</ele><time>2026-04-05T08:07:08.999Z</time></trkpt><trkpt lat="45.73774418856173" lon="9.761329109913751"><ele>292.0</ele><time>2026-04-05T08:07:09.999Z</time></trkpt><trkpt lat="45.73772274850192" lon="9.761153256855986"><ele>292.0</ele><time>2026-04-05T08:07:12Z</time></trkpt><trkpt lat="45.737703723246064" lon="9.760981240596317"><ele>292.0</ele><time>2026-04-05T08:07:14Z</time></trkpt><trkpt lat="45.737677392064654" lon="9.760812033193346"><ele>292.0</ele><time>2026-04-05T08:07:16Z</time></trkpt><trkpt lat="45.73764030976421" lon="9.760641458590236"><ele>293.0</ele><time>2026-04-05T08:07:18Z</time></trkpt><trkpt lat="45.737612942695556" lon="9.760495088464946"><ele>294.0</ele><time>2026-04-05T08:07:20Z</time></trkpt><trkpt lat="45.73758184612516" lon="9.760350747445028"><ele>295.0</ele><time>2026-04-05T08:07:22Z</time></trkpt><trkpt lat="45.73754539682558" lon="9.760215639617932"><ele>296.0</ele><time>2026-04-05T08:07:24Z</time></trkpt><trkpt lat="45.73750509044414" lon="9.760079440718165"><ele>297.0</ele><time>2026-04-05T08:07:26Z</time></trkpt><trkpt lat="45.737470550981435" lon="9.75994868718534"><ele>297.0</ele><time>2026-04-05T08:07:28Z</time></trkpt><trkpt lat="45.737431891380425" lon="9.759816104355343"><ele>297.0</ele><time>2026-04-05T08:07:30Z</time></trkpt><trkpt lat="45.7373939397285" lon="9.75967739537936"><ele>297.0</ele><time>2026-04-05T08:07:32Z</time></trkpt><trkpt lat="45.73735339488352" lon="9.759542830596073"><ele>297.0</ele><time>2026-04-05T08:07:34Z</time></trkpt><trkpt lat="45.73730957194913" lon="9.759397674350565"><ele>297.0</ele><time>2026-04-05T08:07:36Z</time></trkpt><trkpt lat="45.73726904609467" lon="9.759264290008193"><ele>296.4</ele><time>2026-04-05T08:07:38Z</time></trkpt><trkpt lat="45.73723400925235" lon="9.759135106988417"><ele>295.79999999999995</ele><time>2026-04-05T08:07:40Z</time></trkpt><trkpt lat="45.73718277532711" lon="9.75899949140903"><ele>295.2</ele><time>2026-04-05T08:07:42Z</time></trkpt><trkpt lat="45.737128485083204" lon="9.758872896265073"><ele>294.59999999999997</ele><time>2026-04-05T08:07:44Z</time></trkpt><trkpt lat="45.73706965190133" lon="9.75875225019326"><ele>294.0</ele><time>2026-04-05T08:07:46Z</time></trkpt><trkpt lat="45.73701243819696" lon="9.758627025264103"><ele>294.2</ele><time>2026-04-05T08:07:48Z</time></trkpt><trkpt lat="45.73695423736678" lon="9.75849993622757"><ele>294.4</ele><time>2026-04-05T08:07:50Z</time></trkpt><trkpt lat="45.73689888508068" lon="9.758375965775084"><ele>294.6</ele><time>2026-04-05T08:07:52Z</time></trkpt><trkpt lat="45.7368410254853" lon="9.758256332670623"><ele>294.8</ele><time>2026-04-05T08:07:54Z</time></trkpt><trkpt lat="45.73678513594789" lon="9.758132198435444"><ele>295.0</ele><time>2026-04-05T08:07:56Z</time></trkpt><trkpt lat="45.73673334059457" lon="9.758018543367276"><ele>295.2</ele><time>2026-04-05T08:07:58Z</time></trkpt><trkpt lat="45.73667178143279" lon="9.757892328007712"><ele>295.4</ele><time>2026-04-05T08:08:00Z</time></trkpt><trkpt lat="45.73662934154956" lon="9.757785393330591"><ele>295.6</ele><time>2026-04-05T08:08:02Z</time></trkpt><trkpt lat="45.7365708960946" lon="9.757669755097115"><ele>295.8</ele><time>2026-04-05T08:08:04Z</time></trkpt><trkpt lat="45.73652028157755" lon="9.757552230701076"><ele>296.0</ele><time>2026-04-05T08:08:06Z</time></trkpt><trkpt lat="45.73646149327099" lon="9.757452625852403"><ele>296.0</ele><time>2026-04-05T08:08:08Z</time></trkpt><trkpt lat="45.73640879745991" lon="9.757363712666232"><ele>296.0</ele><time>2026-04-05T08:08:10Z</time></trkpt><trkpt lat="45.73634533463029" lon="9.757328004413274"><ele>296.0</ele><time>2026-04-05T08:08:43.999Z</time></trkpt><trkpt lat="45.7362548067421" lon="9.757244677171355"><ele>296.0</ele><time>2026-04-05T08:08:46.999Z</time></trkpt><trkpt lat="45.736150027151886" lon="9.757249734013735"><ele>296.0</ele><time>2026-04-05T08:08:48.999Z</time></trkpt><trkpt lat="45.736052738839064" lon="9.757256805482566"><ele>297.2</ele><time>2026-04-05T08:08:50.999Z</time></trkpt><trkpt lat="45.735956860949315" lon="9.757220540599924"><ele>298.40000000000003</ele><time>2026-04-05T08:08:52.999Z</time></trkpt><trkpt lat="45.735867507658384" lon="9.757207606153036"><ele>299.6</ele><time>2026-04-05T08:08:54.999Z</time></trkpt><trkpt lat="45.73577357442788" lon="9.757188700973382"><ele>300.8</ele><time>2026-04-05T08:08:56.999Z</time></trkpt><trkpt lat="45.73568286576029" lon="9.757193717559852"><ele>302.0</ele><time>2026-04-05T08:08:58.999Z</time></trkpt><trkpt lat="45.73560303989013" lon="9.757198010690471"><ele>302.00000000000006</ele><time>2026-04-05T08:09:00.999Z</time></trkpt><trkpt lat="45.73553708998835" lon="9.757180292614061"><ele>302.0</ele><time>2026-04-05T08:09:02.999Z</time></trkpt><trkpt lat="45.73546615121434" lon="9.757194755931051"><ele>302.0</ele><time>2026-04-05T08:09:04.999Z</time></trkpt><trkpt lat="45.7353983176981" lon="9.75720412381144"><ele>302.0</ele><time>2026-04-05T08:09:06.999Z</time></trkpt><trkpt lat="45.73532610123679" lon="9.757211223519056"><ele>302.0</ele><time>2026-04-05T08:09:08.999Z</time></trkpt><trkpt lat="45.735255795136645" lon="9.757206403983787"><ele>302.00000000000006</ele><time>2026-04-05T08:09:10.999Z</time></trkpt><trkpt lat="45.73523155990289" lon="9.757075488969837"><ele>302.0</ele><time>2026-04-05T08:09:14.999Z</time></trkpt><trkpt lat="45.73523461662437" lon="9.756964574925114"><ele>302.0</ele><time>2026-04-05T08:09:17Z</time></trkpt><trkpt lat="45.73525088297066" lon="9.757061989073478"><ele>302.0</ele><time>2026-04-05T08:09:38Z</time></trkpt><trkpt lat="45.735252293646894" lon="9.75715396281919"><ele>302.0</ele><time>2026-04-05T08:09:40Z</time></trkpt><trkpt lat="45.7351928834757" lon="9.75724459712444"><ele>302.0</ele><time>2026-04-05T08:09:44Z</time></trkpt><trkpt lat="45.735104606937945" lon="9.757229468567287"><ele>302.0</ele><time>2026-04-05T08:09:46Z</time></trkpt><trkpt lat="45.735019958908744" lon="9.7572395207278"><ele>302.0</ele><time>2026-04-05T08:09:48Z</time></trkpt><trkpt lat="45.73494395734691" lon="9.757239037953328"><ele>302.7142857142857</ele><time>2026-04-05T08:09:50Z</time></trkpt><trkpt lat="45.73486570165621" lon="9.757239887366282"><ele>303.42857142857144</ele><time>2026-04-05T08:09:52Z</time></trkpt><trkpt lat="45.734800014736926" lon="9.757249727028952"><ele>304.1428571428571</ele><time>2026-04-05T08:09:54Z</time></trkpt><trkpt lat="45.73472435868083" lon="9.757251983283524"><ele>304.8571428571429</ele><time>2026-04-05T08:09:56Z</time></trkpt><trkpt lat="45.734655998651135" lon="9.757257901926703"><ele>305.57142857142856</ele><time>2026-04-05T08:09:58Z</time></trkpt><trkpt lat="45.7345857746115" lon="9.757261766560218"><ele>306.2857142857143</ele><time>2026-04-05T08:09:59.999Z</time></trkpt><trkpt lat="45.73450044093681" lon="9.757271085728926"><ele>307.0</ele><time>2026-04-05T08:10:02.999Z</time></trkpt><trkpt lat="45.734408036570606" lon="9.757278679789037"><ele>307.0</ele><time>2026-04-05T08:10:05.999Z</time></trkpt><trkpt lat="45.73434483189358" lon="9.757290195675681"><ele>307.0</ele><time>2026-04-05T08:10:07.999Z</time></trkpt><trkpt lat="45.73426832216352" lon="9.757245788138446"><ele>307.0</ele><time>2026-04-05T08:10:10.999Z</time></trkpt><trkpt lat="45.73419267658018" lon="9.757284076755798"><ele>307.0</ele><time>2026-04-05T08:10:13.999Z</time></trkpt><trkpt lat="45.734132069535235" lon="9.757389068181606"><ele>307.0</ele><time>2026-04-05T08:10:16.999Z</time></trkpt><trkpt lat="45.734049637501116" lon="9.757437473112185"><ele>307.0</ele><time>2026-04-05T08:10:19.999Z</time></trkpt><trkpt lat="45.73399514974624" lon="9.757500390074023"><ele>307.0</ele><time>2026-04-05T08:10:46.999Z</time></trkpt><trkpt lat="45.7339121462217" lon="9.757569853213482"><ele>307.0</ele><time>2026-04-05T08:10:49.999Z</time></trkpt><trkpt lat="45.73383972080568" lon="9.757620045527617"><ele>307.0</ele><time>2026-04-05T08:10:51.999Z</time></trkpt><trkpt lat="45.73374830091146" lon="9.757674094322185"><ele>307.0</ele><time>2026-04-05T08:10:53.999Z</time></trkpt><trkpt lat="45.7336479433473" lon="9.75771521472594"><ele>307.0</ele><time>2026-04-05T08:10:55.999Z</time></trkpt><trkpt lat="45.733529255173416" lon="9.757757762132595"><ele>306.8333333333333</ele><time>2026-04-05T08:10:57.999Z</time></trkpt><trkpt lat="45.733425948683454" lon="9.757810811555716"><ele>306.66666666666663</ele><time>2026-04-05T08:10:59.999Z</time></trkpt><trkpt lat="45.7333669545123" lon="9.757843975263718"><ele>306.5</ele><time>2026-04-05T08:11:00.999Z</time></trkpt><trkpt lat="45.733307360619406" lon="9.757877756452636"><ele>306.3333333333333</ele><time>2026-04-05T08:11:01.999Z</time></trkpt><trkpt lat="45.733249551094595" lon="9.75791499629892"><ele>306.1666666666667</ele><time>2026-04-05T08:11:02.999Z</time></trkpt><trkpt lat="45.73319282525172" lon="9.757961553849213"><ele>306.0</ele><time>2026-04-05T08:11:03.999Z</time></trkpt><trkpt lat="45.733081384898185" lon="9.758035802781905"><ele>306.0</ele><time>2026-04-05T08:11:05.999Z</time></trkpt><trkpt lat="45.733024132352135" lon="9.758074111341505"><ele>306.0</ele><time>2026-04-05T08:11:06.999Z</time></trkpt><trkpt lat="45.73292052535247" lon="9.75816109681184"><ele>306.0</ele><time>2026-04-05T08:11:08.999Z</time></trkpt><trkpt lat="45.7328124542679" lon="9.75824396112971"><ele>306.0</ele><time>2026-04-05T08:11:10.999Z</time></trkpt><trkpt lat="45.732714322451024" lon="9.758315225961727"><ele>306.0</ele><time>2026-04-05T08:11:12.999Z</time></trkpt><trkpt lat="45.732655971556184" lon="9.758358733458678"><ele>305.6</ele><time>2026-04-05T08:11:13.999Z</time></trkpt><trkpt lat="45.732558278672506" lon="9.758424236315374"><ele>305.20000000000005</ele><time>2026-04-05T08:11:15.999Z</time></trkpt><trkpt lat="45.73244213826636" lon="9.758473923553085"><ele>304.79999999999995</ele><time>2026-04-05T08:11:17.999Z</time></trkpt><trkpt lat="45.73232636952379" lon="9.758529568185704"><ele>304.4</ele><time>2026-04-05T08:11:19.999Z</time></trkpt><trkpt lat="45.73225896132928" lon="9.758573104101448"><ele>304.0</ele><time>2026-04-05T08:11:20.999Z</time></trkpt><trkpt lat="45.73214769369725" lon="9.75861490271605"><ele>304.5</ele><time>2026-04-05T08:11:23Z</time></trkpt><trkpt lat="45.73208691757554" lon="9.758646965692588"><ele>305.0</ele><time>2026-04-05T08:11:24Z</time></trkpt><trkpt lat="45.73197298622872" lon="9.758682802294448"><ele>305.5</ele><time>2026-04-05T08:11:26Z</time></trkpt><trkpt lat="45.73191262538504" lon="9.758713817531493"><ele>306.0</ele><time>2026-04-05T08:11:27Z</time></trkpt><trkpt lat="45.73180078480907" lon="9.758736518771594"><ele>306.5</ele><time>2026-04-05T08:11:29Z</time></trkpt><trkpt lat="45.731738273224416" lon="9.758771525222446"><ele>307.0</ele><time>2026-04-05T08:11:30Z</time></trkpt><trkpt lat="45.73161148826286" lon="9.758776346509508"><ele>307.0</ele><time>2026-04-05T08:11:32Z</time></trkpt><trkpt lat="45.73155091373545" lon="9.758803881921658"><ele>307.0</ele><time>2026-04-05T08:11:33Z</time></trkpt><trkpt lat="45.73143161789424" lon="9.758823223504134"><ele>307.0</ele><time>2026-04-05T08:11:35Z</time></trkpt><trkpt lat="45.7313337625322" lon="9.758836304158727"><ele>307.0</ele><time>2026-04-05T08:11:37Z</time></trkpt><trkpt lat="45.73123060076611" lon="9.758858914945325"><ele>307.0</ele><time>2026-04-05T08:11:39Z</time></trkpt><trkpt lat="45.731147302720785" lon="9.758875538020266"><ele>307.0</ele><time>2026-04-05T08:11:41Z</time></trkpt><trkpt lat="45.73107188154282" lon="9.758908059351494"><ele>307.0</ele><time>2026-04-05T08:11:43Z</time></trkpt><trkpt lat="45.7310092882714" lon="9.758936844126637"><ele>307.0</ele><time>2026-04-05T08:11:45Z</time></trkpt><trkpt lat="45.73094859641563" lon="9.758974896280767"><ele>307.0</ele><time>2026-04-05T08:11:47Z</time></trkpt><trkpt lat="45.73086831694313" lon="9.759032315885111"><ele>307.0</ele><time>2026-04-05T08:11:50Z</time></trkpt><trkpt lat="45.730785675176236" lon="9.759085508302256"><ele>307.0</ele><time>2026-04-05T08:11:53Z</time></trkpt><trkpt lat="45.7307084815662" lon="9.759122225517068"><ele>306.8333333333333</ele><time>2026-04-05T08:11:56Z</time></trkpt><trkpt lat="45.730646623328575" lon="9.759164717772688"><ele>306.66666666666663</ele><time>2026-04-05T08:11:58Z</time></trkpt><trkpt lat="45.7305726383115" lon="9.759168312364993"><ele>306.5</ele><time>2026-04-05T08:12:00Z</time></trkpt><trkpt lat="45.73048491135554" lon="9.759202822496906"><ele>306.3333333333333</ele><time>2026-04-05T08:12:03Z</time></trkpt><trkpt lat="45.73042345860373" lon="9.759223442846523"><ele>306.1666666666667</ele><time>2026-04-05T08:12:05Z</time></trkpt><trkpt lat="45.73035556080907" lon="9.759234524473348"><ele>306.0</ele><time>2026-04-05T08:12:07Z</time></trkpt><trkpt lat="45.73026934965691" lon="9.759258881601472"><ele>306.0</ele><time>2026-04-05T08:12:10Z</time></trkpt><trkpt lat="45.73020180601933" lon="9.759261321484772"><ele>306.0</ele><time>2026-04-05T08:12:12Z</time></trkpt><trkpt lat="45.73013879013693" lon="9.759271910471853"><ele>306.0</ele><time>2026-04-05T08:12:14Z</time></trkpt><trkpt lat="45.730040034240254" lon="9.759282412993963"><ele>306.0</ele><time>2026-04-05T08:12:17Z</time></trkpt><trkpt lat="45.72996442047088" lon="9.759289778903234"><ele>306.0</ele><time>2026-04-05T08:12:19Z</time></trkpt><trkpt lat="45.72986119673589" lon="9.759309555118868"><ele>306.0</ele><time>2026-04-05T08:12:22Z</time></trkpt><trkpt lat="45.72979209500726" lon="9.759305847699178"><ele>306.0</ele><time>2026-04-05T08:12:24Z</time></trkpt><trkpt lat="45.729722021979285" lon="9.759309428450413"><ele>306.0</ele><time>2026-04-05T08:12:26Z</time></trkpt><trkpt lat="45.7296547478525" lon="9.759314758785939"><ele>306.0</ele><time>2026-04-05T08:12:28Z</time></trkpt><trkpt lat="45.72958659444852" lon="9.759318794750277"><ele>306.0</ele><time>2026-04-05T08:12:30Z</time></trkpt><trkpt lat="45.72952156085707" lon="9.759317921232817"><ele>306.0</ele><time>2026-04-05T08:12:32Z</time></trkpt><trkpt lat="45.72945404557974" lon="9.759343221807908"><ele>306.0</ele><time>2026-04-05T08:12:34Z</time></trkpt><trkpt lat="45.72937498262256" lon="9.759341182800691"><ele>306.0</ele><time>2026-04-05T08:12:36Z</time></trkpt><trkpt lat="45.729298727039094" lon="9.75934340959335"><ele>305.85714285714283</ele><time>2026-04-05T08:12:38Z</time></trkpt><trkpt lat="45.72922954950479" lon="9.759351160740668"><ele>305.7142857142857</ele><time>2026-04-05T08:12:40Z</time></trkpt><trkpt lat="45.72915903903254" lon="9.759358709997228"><ele>305.57142857142856</ele><time>2026-04-05T08:12:42Z</time></trkpt><trkpt lat="45.729089250514605" lon="9.759368459126387"><ele>305.42857142857144</ele><time>2026-04-05T08:12:44Z</time></trkpt><trkpt lat="45.729001259818936" lon="9.759391465710602"><ele>305.2857142857143</ele><time>2026-04-05T08:12:46Z</time></trkpt><trkpt lat="45.72893925234042" lon="9.759412886821545"><ele>305.14285714285717</ele><time>2026-04-05T08:12:48Z</time></trkpt><trkpt lat="45.7288576724136" lon="9.759438631294891"><ele>305.0</ele><time>2026-04-05T08:12:50Z</time></trkpt><trkpt lat="45.72878765688987" lon="9.759480612229865"><ele>305.83333333333337</ele><time>2026-04-05T08:12:52Z</time></trkpt><trkpt lat="45.728723771504825" lon="9.759506041232617"><ele>306.6666666666667</ele><time>2026-04-05T08:12:54Z</time></trkpt><trkpt lat="45.72864456956048" lon="9.759561342523329"><ele>307.5</ele><time>2026-04-05T08:12:56Z</time></trkpt><trkpt lat="45.72857336962185" lon="9.759596451950218"><ele>308.3333333333333</ele><time>2026-04-05T08:12:58Z</time></trkpt><trkpt lat="45.7284691166512" lon="9.759643321229523"><ele>309.16666666666663</ele><time>2026-04-05T08:13:00.999Z</time></trkpt><trkpt lat="45.72840756693352" lon="9.759677390685436"><ele>310.0</ele><time>2026-04-05T08:13:02.999Z</time></trkpt><trkpt lat="45.728326012242" lon="9.759718669761677"><ele>310.0</ele><time>2026-04-05T08:13:04.999Z</time></trkpt><trkpt lat="45.72823044713321" lon="9.759771556899636"><ele>310.0</ele><time>2026-04-05T08:13:07.999Z</time></trkpt><trkpt lat="45.72816635491454" lon="9.759794159436602"><ele>310.0</ele><time>2026-04-05T08:13:09.999Z</time></trkpt><trkpt lat="45.728071612714764" lon="9.759844845197755"><ele>310.0</ele><time>2026-04-05T08:13:12.999Z</time></trkpt><trkpt lat="45.7279820231768" lon="9.759894843377829"><ele>310.0</ele><time>2026-04-05T08:13:14.999Z</time></trkpt><trkpt lat="45.728032929849874" lon="9.759836446730501"><ele>310.0</ele><time>2026-04-05T08:13:52Z</time></trkpt><trkpt lat="45.72793811616386" lon="9.759902354034981"><ele>310.0</ele><time>2026-04-05T08:14:03Z</time></trkpt><trkpt lat="45.72784148189047" lon="9.759954757224888"><ele>310.0</ele><time>2026-04-05T08:14:04.999Z</time></trkpt><trkpt lat="45.72775068727319" lon="9.759985906442592"><ele>310.0</ele><time>2026-04-05T08:14:06.999Z</time></trkpt><trkpt lat="45.72767047443597" lon="9.760033658766098"><ele>310.0</ele><time>2026-04-05T08:14:08.999Z</time></trkpt><trkpt lat="45.72759291790253" lon="9.76007495761244"><ele>310.0</ele><time>2026-04-05T08:14:10.999Z</time></trkpt><trkpt lat="45.72750340216995" lon="9.760115430758145"><ele>310.0</ele><time>2026-04-05T08:14:12.999Z</time></trkpt><trkpt lat="45.72740472573814" lon="9.760169580176985"><ele>310.0</ele><time>2026-04-05T08:14:14.999Z</time></trkpt><trkpt lat="45.727296178984815" lon="9.760205596858443"><ele>310.0</ele><time>2026-04-05T08:14:16.999Z</time></trkpt><trkpt lat="45.72718919333092" lon="9.760237003751008"><ele>310.0</ele><time>2026-04-05T08:14:18.999Z</time></trkpt><trkpt lat="45.72708690611633" lon="9.760266043088738"><ele>310.0</ele><time>2026-04-05T08:14:20.999Z</time></trkpt><trkpt lat="45.726984948421475" lon="9.760297447821658"><ele>310.75</ele><time>2026-04-05T08:14:22.999Z</time></trkpt><trkpt lat="45.726878057060105" lon="9.760329695988565"><ele>311.5</ele><time>2026-04-05T08:14:24.999Z</time></trkpt><trkpt lat="45.72676739309818" lon="9.760365728964905"><ele>312.25</ele><time>2026-04-05T08:14:26.999Z</time></trkpt><trkpt lat="45.726657145177214" lon="9.760409722462047"><ele>313.0</ele><time>2026-04-05T08:14:28.999Z</time></trkpt><trkpt lat="45.72654537105474" lon="9.760457363071337"><ele>313.0</ele><time>2026-04-05T08:14:30.999Z</time></trkpt><trkpt lat="45.72643400045699" lon="9.760507814957169"><ele>313.0</ele><time>2026-04-05T08:14:32.999Z</time></trkpt><trkpt lat="45.72631895258725" lon="9.760553339212183"><ele>313.0</ele><time>2026-04-05T08:14:34.999Z</time></trkpt><trkpt lat="45.72625054369168" lon="9.760575143311502"><ele>313.0</ele><time>2026-04-05T08:14:35.999Z</time></trkpt><trkpt lat="45.72614016391327" lon="9.76061215029241"><ele>313.0</ele><time>2026-04-05T08:14:37.999Z</time></trkpt><trkpt lat="45.72603391989085" lon="9.76066731230581"><ele>312.4</ele><time>2026-04-05T08:14:39.999Z</time></trkpt><trkpt lat="45.72593930498947" lon="9.760697375599245"><ele>311.8</ele><time>2026-04-05T08:14:41.999Z</time></trkpt><trkpt lat="45.72585078949989" lon="9.76074577691046"><ele>311.2</ele><time>2026-04-05T08:14:43.999Z</time></trkpt><trkpt lat="45.72577166967936" lon="9.760786658581116"><ele>310.6</ele><time>2026-04-05T08:14:45.999Z</time></trkpt><trkpt lat="45.725701799261515" lon="9.760805367328151"><ele>310.0</ele><time>2026-04-05T08:14:47.999Z</time></trkpt><trkpt lat="45.725596809326035" lon="9.760851067050929"><ele>310.0</ele><time>2026-04-05T08:14:49.999Z</time></trkpt><trkpt lat="45.72549464869979" lon="9.760900119422756"><ele>310.0</ele><time>2026-04-05T08:14:51.999Z</time></trkpt><trkpt lat="45.72538781862592" lon="9.760945556615892"><ele>310.0</ele><time>2026-04-05T08:14:53.999Z</time></trkpt><trkpt lat="45.72529081824252" lon="9.760998407614334"><ele>310.0</ele><time>2026-04-05T08:14:55.999Z</time></trkpt><trkpt lat="45.725200794265035" lon="9.76104823745044"><ele>310.0</ele><time>2026-04-05T08:14:57.999Z</time></trkpt><trkpt lat="45.72512176688791" lon="9.761099892151453"><ele>311.0</ele><time>2026-04-05T08:14:59.999Z</time></trkpt><trkpt lat="45.72502503636138" lon="9.761159451438028"><ele>312.0</ele><time>2026-04-05T08:15:01.999Z</time></trkpt><trkpt lat="45.72491943929544" lon="9.761234128729486"><ele>313.0</ele><time>2026-04-05T08:15:03.999Z</time></trkpt><trkpt lat="45.72484044898218" lon="9.761309109970465"><ele>314.0</ele><time>2026-04-05T08:15:05.999Z</time></trkpt><trkpt lat="45.72477430834519" lon="9.761384233836477"><ele>315.0</ele><time>2026-04-05T08:15:07.999Z</time></trkpt><trkpt lat="45.724708082916464" lon="9.761471227490503"><ele>315.0</ele><time>2026-04-05T08:15:09.999Z</time></trkpt><trkpt lat="45.72462923482451" lon="9.761579868199727"><ele>315.0</ele><time>2026-04-05T08:15:11.999Z</time></trkpt><trkpt lat="45.724562781160856" lon="9.761714701741985"><ele>315.0</ele><time>2026-04-05T08:15:13.999Z</time></trkpt><trkpt lat="45.72449848422023" lon="9.761865343620899"><ele>315.0</ele><time>2026-04-05T08:15:15.999Z</time></trkpt><trkpt lat="45.72444189657661" lon="9.761992869151037"><ele>314.75</ele><time>2026-04-05T08:15:17.999Z</time></trkpt><trkpt lat="45.72438754923338" lon="9.762140463189878"><ele>314.5</ele><time>2026-04-05T08:15:19.999Z</time></trkpt><trkpt lat="45.72433203671486" lon="9.762285673027124"><ele>314.25</ele><time>2026-04-05T08:15:21.999Z</time></trkpt><trkpt lat="45.72426104851886" lon="9.762416234247766"><ele>314.0</ele><time>2026-04-05T08:15:23.999Z</time></trkpt><trkpt lat="45.72419120658047" lon="9.762546376213782"><ele>314.0</ele><time>2026-04-05T08:15:25.999Z</time></trkpt><trkpt lat="45.7241110162739" lon="9.762669106838281"><ele>314.0</ele><time>2026-04-05T08:15:27.999Z</time></trkpt><trkpt lat="45.72401994146408" lon="9.762769744716946"><ele>314.0</ele><time>2026-04-05T08:15:29.999Z</time></trkpt><trkpt lat="45.72391942327749" lon="9.762883322591028"><ele>314.0</ele><time>2026-04-05T08:15:31.999Z</time></trkpt><trkpt lat="45.7238318012723" lon="9.762978030522039"><ele>314.25</ele><time>2026-04-05T08:15:33.999Z</time></trkpt><trkpt lat="45.723736380921416" lon="9.763080325934919"><ele>314.5</ele><time>2026-04-05T08:15:36Z</time></trkpt><trkpt lat="45.72364545248234" lon="9.763182095066428"><ele>314.75</ele><time>2026-04-05T08:15:38Z</time></trkpt><trkpt lat="45.72356704133024" lon="9.763299082480964"><ele>315.0</ele><time>2026-04-05T08:15:40Z</time></trkpt><trkpt lat="45.72347107546198" lon="9.763408255160547"><ele>315.0</ele><time>2026-04-05T08:15:42Z</time></trkpt><trkpt lat="45.723393940087895" lon="9.763511570374778"><ele>315.0</ele><time>2026-04-05T08:15:44Z</time></trkpt><trkpt lat="45.72329427016373" lon="9.763621426172131"><ele>315.0</ele><time>2026-04-05T08:15:46Z</time></trkpt><trkpt lat="45.7232227974947" lon="9.763743585106914"><ele>315.0</ele><time>2026-04-05T08:15:48Z</time></trkpt><trkpt lat="45.7231450978229" lon="9.763868905887245"><ele>314.8</ele><time>2026-04-05T08:15:50Z</time></trkpt><trkpt lat="45.72309343729189" lon="9.763927618445607"><ele>314.6</ele><time>2026-04-05T08:15:51Z</time></trkpt><trkpt lat="45.72300017605422" lon="9.764018278154863"><ele>314.4</ele><time>2026-04-05T08:15:53Z</time></trkpt><trkpt lat="45.72290945994879" lon="9.764127084553374"><ele>314.2</ele><time>2026-04-05T08:15:55Z</time></trkpt><trkpt lat="45.722811907371266" lon="9.764227262055448"><ele>314.0</ele><time>2026-04-05T08:15:57Z</time></trkpt><trkpt lat="45.72271353092378" lon="9.764325311571332"><ele>315.25</ele><time>2026-04-05T08:15:59Z</time></trkpt><trkpt lat="45.72261227065007" lon="9.764421413962012"><ele>316.5</ele><time>2026-04-05T08:16:01Z</time></trkpt><trkpt lat="45.72252200233758" lon="9.764523322420093"><ele>317.75</ele><time>2026-04-05T08:16:03Z</time></trkpt><trkpt lat="45.722419339461965" lon="9.764612488961642"><ele>319.0</ele><time>2026-04-05T08:16:05Z</time></trkpt><trkpt lat="45.7223241268301" lon="9.764707194432122"><ele>319.0</ele><time>2026-04-05T08:16:07Z</time></trkpt><trkpt lat="45.72222805012961" lon="9.764798691972407"><ele>319.0</ele><time>2026-04-05T08:16:09Z</time></trkpt><trkpt lat="45.72213387346724" lon="9.764894165430144"><ele>319.0</ele><time>2026-04-05T08:16:11Z</time></trkpt><trkpt lat="45.72203954402875" lon="9.764992766249248"><ele>319.0</ele><time>2026-04-05T08:16:13Z</time></trkpt><trkpt lat="45.72195002810807" lon="9.765088618810214"><ele>319.0</ele><time>2026-04-05T08:16:15Z</time></trkpt><trkpt lat="45.72186029665714" lon="9.765169822106337"><ele>319.0</ele><time>2026-04-05T08:16:17Z</time></trkpt><trkpt lat="45.72176465222562" lon="9.76526172454506"><ele>319.0</ele><time>2026-04-05T08:16:19Z</time></trkpt><trkpt lat="45.72167203640955" lon="9.765360867930374"><ele>319.0</ele><time>2026-04-05T08:16:21Z</time></trkpt><trkpt lat="45.72161736455794" lon="9.765406539952465"><ele>319.0</ele><time>2026-04-05T08:16:22Z</time></trkpt><trkpt lat="45.721526334239186" lon="9.765507133285556"><ele>319.0</ele><time>2026-04-05T08:16:24Z</time></trkpt><trkpt lat="45.72147948695273" lon="9.765567834604274"><ele>319.0</ele><time>2026-04-05T08:16:25Z</time></trkpt><trkpt lat="45.72142725655589" lon="9.765625546405692"><ele>319.0</ele><time>2026-04-05T08:16:26Z</time></trkpt><trkpt lat="45.72137843292021" lon="9.765690043214644"><ele>319.0</ele><time>2026-04-05T08:16:27Z</time></trkpt><trkpt lat="45.7212803250689" lon="9.765793512871612"><ele>319.0</ele><time>2026-04-05T08:16:29Z</time></trkpt><trkpt lat="45.721180197583955" lon="9.765902574529765"><ele>319.0</ele><time>2026-04-05T08:16:31Z</time></trkpt><trkpt lat="45.721140363978165" lon="9.765974409686288"><ele>319.6</ele><time>2026-04-05T08:16:32Z</time></trkpt><trkpt lat="45.7210361222195" lon="9.766074163782154"><ele>320.2</ele><time>2026-04-05T08:16:34Z</time></trkpt><trkpt lat="45.720980544021934" lon="9.766134185834925"><ele>320.8</ele><time>2026-04-05T08:16:35Z</time></trkpt><trkpt lat="45.72089328792015" lon="9.766245720106172"><ele>321.40000000000003</ele><time>2026-04-05T08:16:37Z</time></trkpt><trkpt lat="45.72080641177279" lon="9.76636428458064"><ele>322.0</ele><time>2026-04-05T08:16:39Z</time></trkpt><trkpt lat="45.72071512439436" lon="9.766471619016134"><ele>322.0</ele><time>2026-04-05T08:16:41Z</time></trkpt><trkpt lat="45.72062610037692" lon="9.766583746913607"><ele>322.0</ele><time>2026-04-05T08:16:43Z</time></trkpt><trkpt lat="45.720577720589965" lon="9.76664418725526"><ele>322.0</ele><time>2026-04-05T08:16:44Z</time></trkpt><trkpt lat="45.72049110227521" lon="9.766741494008656"><ele>322.0</ele><time>2026-04-05T08:16:46Z</time></trkpt><trkpt lat="45.72038624970563" lon="9.766837932449912"><ele>322.0</ele><time>2026-04-05T08:16:48Z</time></trkpt><trkpt lat="45.72028832400459" lon="9.76693125649151"><ele>322.8</ele><time>2026-04-05T08:16:50Z</time></trkpt><trkpt lat="45.72018986563397" lon="9.767028823944186"><ele>323.6</ele><time>2026-04-05T08:16:52Z</time></trkpt><trkpt lat="45.7200933100982" lon="9.767111926722045"><ele>324.40000000000003</ele><time>2026-04-05T08:16:54Z</time></trkpt><trkpt lat="45.720043529618664" lon="9.76716859622773"><ele>325.20000000000005</ele><time>2026-04-05T08:16:54.999Z</time></trkpt><trkpt lat="45.71994137273363" lon="9.767262704871568"><ele>326.0</ele><time>2026-04-05T08:16:56.999Z</time></trkpt><trkpt lat="45.719856832052855" lon="9.767377577127906"><ele>326.0</ele><time>2026-04-05T08:16:58.999Z</time></trkpt><trkpt lat="45.719752375782086" lon="9.767466844166202"><ele>326.0</ele><time>2026-04-05T08:17:00.999Z</time></trkpt><trkpt lat="45.71969825989866" lon="9.767514986162704"><ele>326.0</ele><time>2026-04-05T08:17:01.999Z</time></trkpt><trkpt lat="45.719599424746406" lon="9.76759665182112"><ele>326.0</ele><time>2026-04-05T08:17:03.999Z</time></trkpt><trkpt lat="45.71954998866023" lon="9.76765377249069"><ele>326.0</ele><time>2026-04-05T08:17:04.999Z</time></trkpt><trkpt lat="45.71944821158728" lon="9.767752469770311"><ele>325.4</ele><time>2026-04-05T08:17:06.999Z</time></trkpt><trkpt lat="45.71935275842332" lon="9.767853385123013"><ele>324.8</ele><time>2026-04-05T08:17:08.999Z</time></trkpt><trkpt lat="45.719298111338944" lon="9.767905958529186"><ele>324.2</ele><time>2026-04-05T08:17:09.999Z</time></trkpt><trkpt lat="45.719202500690315" lon="9.767998755294007"><ele>323.59999999999997</ele><time>2026-04-05T08:17:11.999Z</time></trkpt><trkpt lat="45.71910147634156" lon="9.768103227860745"><ele>323.0</ele><time>2026-04-05T08:17:13.999Z</time></trkpt><trkpt lat="45.7190028795121" lon="9.768205091682585"><ele>323.0</ele><time>2026-04-05T08:17:15.999Z</time></trkpt><trkpt lat="45.71890580430907" lon="9.768308604293827"><ele>323.0</ele><time>2026-04-05T08:17:17.999Z</time></trkpt><trkpt lat="45.71884023982453" lon="9.768352660522318"><ele>323.0</ele><time>2026-04-05T08:17:18.999Z</time></trkpt><trkpt lat="45.718752784027174" lon="9.76846419030378"><ele>323.0</ele><time>2026-04-05T08:17:20.999Z</time></trkpt><trkpt lat="45.71868727334473" lon="9.768500445512048"><ele>323.0</ele><time>2026-04-05T08:17:21.999Z</time></trkpt><trkpt lat="45.71857989694486" lon="9.768613294424272"><ele>322.79999999999995</ele><time>2026-04-05T08:17:23.999Z</time></trkpt><trkpt lat="45.71848965198904" lon="9.768709823174065"><ele>322.6</ele><time>2026-04-05T08:17:25.999Z</time></trkpt><trkpt lat="45.718433196619166" lon="9.768758633204122"><ele>322.4</ele><time>2026-04-05T08:17:26.999Z</time></trkpt><trkpt lat="45.718336237843886" lon="9.7688508909014"><ele>322.20000000000005</ele><time>2026-04-05T08:17:28.999Z</time></trkpt><trkpt lat="45.71828942382859" lon="9.768911854807534"><ele>322.0</ele><time>2026-04-05T08:17:29.999Z</time></trkpt><trkpt lat="45.7181990809896" lon="9.769022739058515"><ele>322.0</ele><time>2026-04-05T08:17:31.999Z</time></trkpt><trkpt lat="45.71811857982643" lon="9.769136472870086"><ele>322.0</ele><time>2026-04-05T08:17:33.999Z</time></trkpt><trkpt lat="45.718068153403586" lon="9.76919788037398"><ele>322.0</ele><time>2026-04-05T08:17:34.999Z</time></trkpt><trkpt lat="45.71797391560051" lon="9.769312562715248"><ele>322.0</ele><time>2026-04-05T08:17:36.999Z</time></trkpt><trkpt lat="45.71790074738646" lon="9.769448773475311"><ele>322.0</ele><time>2026-04-05T08:17:38.999Z</time></trkpt><trkpt lat="45.71783364765726" lon="9.76956817853682"><ele>322.16666666666663</ele><time>2026-04-05T08:17:41Z</time></trkpt><trkpt lat="45.7177859355375" lon="9.769649405698166"><ele>322.3333333333333</ele><time>2026-04-05T08:17:42Z</time></trkpt><trkpt lat="45.717707216807575" lon="9.769777334001384"><ele>322.5</ele><time>2026-04-05T08:17:44Z</time></trkpt><trkpt lat="45.71766043314394" lon="9.76984616403388"><ele>322.6666666666667</ele><time>2026-04-05T08:17:45Z</time></trkpt><trkpt lat="45.717579773297444" lon="9.76996848047965"><ele>322.83333333333337</ele><time>2026-04-05T08:17:47Z</time></trkpt><trkpt lat="45.71753911713387" lon="9.77003738384341"><ele>323.0</ele><time>2026-04-05T08:17:48Z</time></trkpt><trkpt lat="45.71745682191054" lon="9.770165916847548"><ele>323.59999999999997</ele><time>2026-04-05T08:17:50Z</time></trkpt><trkpt lat="45.71738321407745" lon="9.770299158683446"><ele>324.2</ele><time>2026-04-05T08:17:52Z</time></trkpt><trkpt lat="45.71733136663567" lon="9.770356255614892"><ele>324.8</ele><time>2026-04-05T08:17:53Z</time></trkpt><trkpt lat="45.71725624460478" lon="9.77048799389549"><ele>325.4</ele><time>2026-04-05T08:17:55Z</time></trkpt><trkpt lat="45.71717737848928" lon="9.770629669651308"><ele>326.0</ele><time>2026-04-05T08:17:57Z</time></trkpt><trkpt lat="45.71712474549658" lon="9.770682738451006"><ele>326.0</ele><time>2026-04-05T08:17:58Z</time></trkpt><trkpt lat="45.717058990909926" lon="9.770807800000211"><ele>326.0</ele><time>2026-04-05T08:18:00Z</time></trkpt><trkpt lat="45.717014736459426" lon="9.77089339904106"><ele>326.0</ele><time>2026-04-05T08:18:01Z</time></trkpt><trkpt lat="45.71692429501554" lon="9.771003689518585"><ele>326.0</ele><time>2026-04-05T08:18:03Z</time></trkpt><trkpt lat="45.71688904980371" lon="9.771079177245314"><ele>326.0</ele><time>2026-04-05T08:18:04Z</time></trkpt><trkpt lat="45.71680518062001" lon="9.771198002172225"><ele>325.8</ele><time>2026-04-05T08:18:06Z</time></trkpt><trkpt lat="45.71672014194413" lon="9.771327261791532"><ele>325.6</ele><time>2026-04-05T08:18:08Z</time></trkpt><trkpt lat="45.71664045103119" lon="9.77144139007339"><ele>325.4</ele><time>2026-04-05T08:18:10Z</time></trkpt><trkpt lat="45.71657086871494" lon="9.771539082986619"><ele>325.2</ele><time>2026-04-05T08:18:12Z</time></trkpt><trkpt lat="45.716490774192515" lon="9.771643841288173"><ele>325.0</ele><time>2026-04-05T08:18:14Z</time></trkpt><trkpt lat="45.71643378117329" lon="9.771704550477422"><ele>325.0</ele><time>2026-04-05T08:18:15Z</time></trkpt><trkpt lat="45.71634763624471" lon="9.771824003183358"><ele>325.0</ele><time>2026-04-05T08:18:17Z</time></trkpt><trkpt lat="45.716266124081315" lon="9.771957449492538"><ele>325.0</ele><time>2026-04-05T08:18:19Z</time></trkpt><trkpt lat="45.716175185887415" lon="9.77205158943258"><ele>325.0</ele><time>2026-04-05T08:18:21Z</time></trkpt><trkpt lat="45.71612727463612" lon="9.772111413195116"><ele>325.0</ele><time>2026-04-05T08:18:22Z</time></trkpt><trkpt lat="45.71604251471855" lon="9.772221172556321"><ele>326.0</ele><time>2026-04-05T08:18:24Z</time></trkpt><trkpt lat="45.71595649967405" lon="9.77234206705076"><ele>327.0</ele><time>2026-04-05T08:18:26Z</time></trkpt><trkpt lat="45.715875692288314" lon="9.772448246102709"><ele>328.0</ele><time>2026-04-05T08:18:28Z</time></trkpt><trkpt lat="45.715791673286205" lon="9.772543950406122"><ele>329.0</ele><time>2026-04-05T08:18:30Z</time></trkpt><trkpt lat="45.71571244510547" lon="9.772656733932068"><ele>330.0</ele><time>2026-04-05T08:18:32Z</time></trkpt><trkpt lat="45.71563196205878" lon="9.7727534928467"><ele>330.0</ele><time>2026-04-05T08:18:34Z</time></trkpt><trkpt lat="45.71555284869072" lon="9.77284097780157"><ele>330.0</ele><time>2026-04-05T08:18:36Z</time></trkpt><trkpt lat="45.715489584641745" lon="9.77294409524393"><ele>330.0</ele><time>2026-04-05T08:18:38Z</time></trkpt><trkpt lat="45.715414550965484" lon="9.773022306976364"><ele>330.0</ele><time>2026-04-05T08:18:40Z</time></trkpt><trkpt lat="45.71534054526745" lon="9.773042174455497"><ele>330.0</ele><time>2026-04-05T08:18:41.999Z</time></trkpt><trkpt lat="45.715270982043116" lon="9.772990564309058"><ele>330.0</ele><time>2026-04-05T08:18:43.999Z</time></trkpt><trkpt lat="45.71516661311353" lon="9.7729024175073"><ele>330.0</ele><time>2026-04-05T08:18:45.999Z</time></trkpt><trkpt lat="45.71516101715016" lon="9.772770798642673"><ele>330.0</ele><time>2026-04-05T08:18:47.999Z</time></trkpt><trkpt lat="45.71514035305701" lon="9.772597946645028"><ele>330.0</ele><time>2026-04-05T08:18:49.999Z</time></trkpt><trkpt lat="45.7151275843887" lon="9.772506228429274"><ele>330.0</ele><time>2026-04-05T08:18:50.999Z</time></trkpt><trkpt lat="45.715128575946956" lon="9.772410551264311"><ele>330.0</ele><time>2026-04-05T08:18:51.999Z</time></trkpt><trkpt lat="45.71514127532551" lon="9.77230017291801"><ele>330.0</ele><time>2026-04-05T08:18:52.999Z</time></trkpt><trkpt lat="45.7151552837978" lon="9.77217906318884"><ele>329.6</ele><time>2026-04-05T08:18:53.999Z</time></trkpt><trkpt lat="45.71516282216256" lon="9.772061001265334"><ele>329.2</ele><time>2026-04-05T08:18:54.999Z</time></trkpt><trkpt lat="45.715165402246726" lon="9.771943359330727"><ele>328.79999999999995</ele><time>2026-04-05T08:18:55.999Z</time></trkpt><trkpt lat="45.71517709374796" lon="9.771811333509852"><ele>328.4</ele><time>2026-04-05T08:18:56.999Z</time></trkpt><trkpt lat="45.71519202285704" lon="9.771678038827567"><ele>328.0</ele><time>2026-04-05T08:18:57.999Z</time></trkpt><trkpt lat="45.71519629002889" lon="9.771535222142953"><ele>327.0</ele><time>2026-04-05T08:18:58.999Z</time></trkpt><trkpt lat="45.71519501645161" lon="9.771400988584217"><ele>326.0</ele><time>2026-04-05T08:18:59.999Z</time></trkpt><trkpt lat="45.715192600681846" lon="9.771265060162833"><ele>325.0</ele><time>2026-04-05T08:19:00.999Z</time></trkpt><trkpt lat="45.71519536122253" lon="9.771123009024507"><ele>324.0</ele><time>2026-04-05T08:19:01.999Z</time></trkpt><trkpt lat="45.71519542808021" lon="9.770978395283741"><ele>323.0</ele><time>2026-04-05T08:19:02.999Z</time></trkpt><trkpt lat="45.71518295948308" lon="9.770844987573133"><ele>322.6666666666667</ele><time>2026-04-05T08:19:03.999Z</time></trkpt><trkpt lat="45.71516920682969" lon="9.770712813188995"><ele>322.33333333333337</ele><time>2026-04-05T08:19:04.999Z</time></trkpt><trkpt lat="45.71514534459596" lon="9.770588480042631"><ele>322.0</ele><time>2026-04-05T08:19:05.999Z</time></trkpt><trkpt lat="45.71512149269732" lon="9.770467443057473"><ele>321.6666666666667</ele><time>2026-04-05T08:19:06.999Z</time></trkpt><trkpt lat="45.71509067555226" lon="9.770348701530866"><ele>321.3333333333333</ele><time>2026-04-05T08:19:07.999Z</time></trkpt><trkpt lat="45.71505786092654" lon="9.770238887998108"><ele>321.0</ele><time>2026-04-05T08:19:08.999Z</time></trkpt><trkpt lat="45.71502218329038" lon="9.770134286592805"><ele>321.0</ele><time>2026-04-05T08:19:09.999Z</time></trkpt><trkpt lat="45.714984521460586" lon="9.770032206473676"><ele>321.0</ele><time>2026-04-05T08:19:10.999Z</time></trkpt><trkpt lat="45.71494434839947" lon="9.769934792413386"><ele>321.0</ele><time>2026-04-05T08:19:11.999Z</time></trkpt><trkpt lat="45.71490165299004" lon="9.769842162234646"><ele>321.0</ele><time>2026-04-05T08:19:12.999Z</time></trkpt><trkpt lat="45.71485831402579" lon="9.769758808982967"><ele>321.0</ele><time>2026-04-05T08:19:13.999Z</time></trkpt><trkpt lat="45.714811700140174" lon="9.769671587646975"><ele>321.0</ele><time>2026-04-05T08:19:14.999Z</time></trkpt><trkpt lat="45.71476897375268" lon="9.769591823772188"><ele>320.99999999999994</ele><time>2026-04-05T08:19:15.999Z</time></trkpt><trkpt lat="45.71472181375446" lon="9.769513256247754"><ele>321.0</ele><time>2026-04-05T08:19:16.999Z</time></trkpt><trkpt lat="45.71467136287014" lon="9.769446332392775"><ele>321.0</ele><time>2026-04-05T08:19:17.999Z</time></trkpt><trkpt lat="45.71462306830579" lon="9.769372898506637"><ele>321.0</ele><time>2026-04-05T08:19:18.999Z</time></trkpt><trkpt lat="45.71457591931212" lon="9.769296154353578"><ele>321.0</ele><time>2026-04-05T08:19:19.999Z</time></trkpt><trkpt lat="45.71453285277114" lon="9.769223593970404"><ele>320.99999999999994</ele><time>2026-04-05T08:19:20.999Z</time></trkpt><trkpt lat="45.714485882359966" lon="9.769152653326248"><ele>321.0</ele><time>2026-04-05T08:19:21.999Z</time></trkpt><trkpt lat="45.71444280517926" lon="9.769083806923605"><ele>320.2857142857143</ele><time>2026-04-05T08:19:22.999Z</time></trkpt><trkpt lat="45.71439779160436" lon="9.769014748549942"><ele>319.57142857142856</ele><time>2026-04-05T08:19:23.999Z</time></trkpt><trkpt lat="45.71435165378775" lon="9.768951443799722"><ele>318.8571428571429</ele><time>2026-04-05T08:19:24.999Z</time></trkpt><trkpt lat="45.714307238811685" lon="9.76888010516951"><ele>318.1428571428571</ele><time>2026-04-05T08:19:25.999Z</time></trkpt><trkpt lat="45.714261184908324" lon="9.768804799580776"><ele>317.42857142857144</ele><time>2026-04-05T08:19:26.999Z</time></trkpt><trkpt lat="45.714203425183754" lon="9.76872736858632"><ele>316.7142857142857</ele><time>2026-04-05T08:19:27.999Z</time></trkpt><trkpt lat="45.71414862838677" lon="9.768656798843823"><ele>316.0</ele><time>2026-04-05T08:19:28.999Z</time></trkpt><trkpt lat="45.71409112620808" lon="9.768580285169223"><ele>316.0</ele><time>2026-04-05T08:19:29.999Z</time></trkpt><trkpt lat="45.714032737028404" lon="9.768500440710847"><ele>316.0</ele><time>2026-04-05T08:19:30.999Z</time></trkpt><trkpt lat="45.713972534487546" lon="9.768420752759036"><ele>316.0</ele><time>2026-04-05T08:19:31.999Z</time></trkpt><trkpt lat="45.71390859373142" lon="9.768345742621415"><ele>316.0</ele><time>2026-04-05T08:19:32.999Z</time></trkpt><trkpt lat="45.71384270874626" lon="9.768269350798015"><ele>316.0</ele><time>2026-04-05T08:19:33.999Z</time></trkpt><trkpt lat="45.71377066173574" lon="9.768205888860276"><ele>316.0</ele><time>2026-04-05T08:19:34.999Z</time></trkpt><trkpt lat="45.71369885259714" lon="9.76814690131845"><ele>316.0</ele><time>2026-04-05T08:19:35.999Z</time></trkpt><trkpt lat="45.7136206136211" lon="9.768099775775257"><ele>316.0</ele><time>2026-04-05T08:19:36.999Z</time></trkpt><trkpt lat="45.713549315243895" lon="9.768042925118577"><ele>316.0</ele><time>2026-04-05T08:19:37.999Z</time></trkpt><trkpt lat="45.71347963335264" lon="9.767987323653434"><ele>316.0</ele><time>2026-04-05T08:19:38.999Z</time></trkpt><trkpt lat="45.713411548813795" lon="9.767934301380658"><ele>316.0</ele><time>2026-04-05T08:19:39.999Z</time></trkpt><trkpt lat="45.71333314053262" lon="9.767875281178288"><ele>316.0</ele><time>2026-04-05T08:19:40.999Z</time></trkpt><trkpt lat="45.71326424679388" lon="9.767818434833464"><ele>315.0</ele><time>2026-04-05T08:19:41.999Z</time></trkpt><trkpt lat="45.71318829387358" lon="9.767760167087122"><ele>314.0</ele><time>2026-04-05T08:19:42.999Z</time></trkpt><trkpt lat="45.713110892044" lon="9.767703185433202"><ele>313.0</ele><time>2026-04-05T08:19:43.999Z</time></trkpt><trkpt lat="45.71304997933222" lon="9.767644278044223"><ele>312.0</ele><time>2026-04-05T08:19:44.999Z</time></trkpt><trkpt lat="45.712982325579915" lon="9.767585964460569"><ele>311.0</ele><time>2026-04-05T08:19:45.999Z</time></trkpt><trkpt lat="45.71291561833899" lon="9.767524905434373"><ele>310.0</ele><time>2026-04-05T08:19:47Z</time></trkpt><trkpt lat="45.71284783186545" lon="9.767463578285957"><ele>309.3333333333333</ele><time>2026-04-05T08:19:48Z</time></trkpt><trkpt lat="45.71277990479043" lon="9.767401068832669"><ele>308.66666666666663</ele><time>2026-04-05T08:19:49Z</time></trkpt><trkpt lat="45.71271312007252" lon="9.767339821471792"><ele>308.0</ele><time>2026-04-05T08:19:50Z</time></trkpt><trkpt lat="45.712644193663415" lon="9.76728091166704"><ele>307.3333333333333</ele><time>2026-04-05T08:19:51Z</time></trkpt><trkpt lat="45.712571519595635" lon="9.76721308814697"><ele>306.6666666666667</ele><time>2026-04-05T08:19:52Z</time></trkpt><trkpt lat="45.7124932449893" lon="9.767152237544767"><ele>306.0</ele><time>2026-04-05T08:19:53Z</time></trkpt><trkpt lat="45.7124025228589" lon="9.76709451505742"><ele>306.0</ele><time>2026-04-05T08:19:54Z</time></trkpt><trkpt lat="45.71231603056455" lon="9.76702434506701"><ele>306.0</ele><time>2026-04-05T08:19:55Z</time></trkpt><trkpt lat="45.7122212027055" lon="9.766957267819668"><ele>306.0</ele><time>2026-04-05T08:19:56Z</time></trkpt><trkpt lat="45.71212170782678" lon="9.766891954385809"><ele>306.0</ele><time>2026-04-05T08:19:57Z</time></trkpt><trkpt lat="45.71200943519415" lon="9.766840711014247"><ele>306.0</ele><time>2026-04-05T08:19:58Z</time></trkpt><trkpt lat="45.711893080374786" lon="9.766788015430757"><ele>304.25</ele><time>2026-04-05T08:19:59Z</time></trkpt><trkpt lat="45.71177737886007" lon="9.766725894304072"><ele>302.5</ele><time>2026-04-05T08:20:00Z</time></trkpt><trkpt lat="45.71169670698058" lon="9.766591794311164"><ele>300.75</ele><time>2026-04-05T08:20:01Z</time></trkpt><trkpt lat="45.71160316156621" lon="9.766468207082067"><ele>299.0</ele><time>2026-04-05T08:20:02Z</time></trkpt><trkpt lat="45.7115082302697" lon="9.766339109322102"><ele>299.0</ele><time>2026-04-05T08:20:03Z</time></trkpt><trkpt lat="45.71141508842343" lon="9.766209389762459"><ele>299.0</ele><time>2026-04-05T08:20:04Z</time></trkpt><trkpt lat="45.711312557621675" lon="9.766084745336425"><ele>299.0</ele><time>2026-04-05T08:20:05Z</time></trkpt><trkpt lat="45.71121645428672" lon="9.765951060011975"><ele>299.0</ele><time>2026-04-05T08:20:06Z</time></trkpt><trkpt lat="45.71111973466144" lon="9.765818599985725"><ele>296.75</ele><time>2026-04-05T08:20:07Z</time></trkpt><trkpt lat="45.7110249348485" lon="9.765681825446231"><ele>294.5</ele><time>2026-04-05T08:20:08Z</time></trkpt><trkpt lat="45.71093783536799" lon="9.765533522611449"><ele>292.25</ele><time>2026-04-05T08:20:09Z</time></trkpt><trkpt lat="45.71086822764364" lon="9.765359997275896"><ele>290.0</ele><time>2026-04-05T08:20:10Z</time></trkpt><trkpt lat="45.71080850723359" lon="9.765172184366044"><ele>288.25</ele><time>2026-04-05T08:20:11Z</time></trkpt><trkpt lat="45.710768829342754" lon="9.764973626606855"><ele>286.5</ele><time>2026-04-05T08:20:12Z</time></trkpt><trkpt lat="45.71072665553888" lon="9.764762727187575"><ele>284.75</ele><time>2026-04-05T08:20:13Z</time></trkpt><trkpt lat="45.71068979870259" lon="9.76458418146678"><ele>283.0</ele><time>2026-04-05T08:20:14Z</time></trkpt><trkpt lat="45.71064297737584" lon="9.764399185298075"><ele>282.0</ele><time>2026-04-05T08:20:15Z</time></trkpt><trkpt lat="45.710579841420966" lon="9.7642344325871"><ele>281.0</ele><time>2026-04-05T08:20:16Z</time></trkpt><trkpt lat="45.71050678663136" lon="9.764089009442797"><ele>280.0</ele><time>2026-04-05T08:20:17Z</time></trkpt><trkpt lat="45.71042177557753" lon="9.763954852476648"><ele>279.0</ele><time>2026-04-05T08:20:18Z</time></trkpt><trkpt lat="45.71033511168101" lon="9.76382157125573"><ele>279.0</ele><time>2026-04-05T08:20:19Z</time></trkpt><trkpt lat="45.710252743683505" lon="9.763687030319819"><ele>279.0</ele><time>2026-04-05T08:20:20Z</time></trkpt><trkpt lat="45.71016187027015" lon="9.763563678607857"><ele>279.0</ele><time>2026-04-05T08:20:21Z</time></trkpt><trkpt lat="45.71007876371443" lon="9.76343989004025"><ele>279.0</ele><time>2026-04-05T08:20:22Z</time></trkpt><trkpt lat="45.70998262829548" lon="9.763336303655223"><ele>277.8</ele><time>2026-04-05T08:20:23Z</time></trkpt><trkpt lat="45.70988255869493" lon="9.763263367947813"><ele>276.59999999999997</ele><time>2026-04-05T08:20:24Z</time></trkpt><trkpt lat="45.70978233055374" lon="9.763216440803035"><ele>275.4</ele><time>2026-04-05T08:20:25Z</time></trkpt><trkpt lat="45.709668159774935" lon="9.763195212106279"><ele>274.2</ele><time>2026-04-05T08:20:26Z</time></trkpt><trkpt lat="45.70957048508891" lon="9.763165070087672"><ele>273.0</ele><time>2026-04-05T08:20:27Z</time></trkpt><trkpt lat="45.70947172405408" lon="9.76313645147048"><ele>273.4</ele><time>2026-04-05T08:20:28Z</time></trkpt><trkpt lat="45.70938517984183" lon="9.763092254346839"><ele>273.8</ele><time>2026-04-05T08:20:29Z</time></trkpt><trkpt lat="45.70929550364524" lon="9.763047239655318"><ele>274.2</ele><time>2026-04-05T08:20:30Z</time></trkpt><trkpt lat="45.70921079026637" lon="9.762987439766782"><ele>274.6</ele><time>2026-04-05T08:20:31Z</time></trkpt><trkpt lat="45.70912538899759" lon="9.762928112316379"><ele>275.0</ele><time>2026-04-05T08:20:32Z</time></trkpt><trkpt lat="45.70904934154153" lon="9.762871576969841"><ele>275.0</ele><time>2026-04-05T08:20:33Z</time></trkpt><trkpt lat="45.708971205752874" lon="9.762820307766665"><ele>275.0</ele><time>2026-04-05T08:20:34Z</time></trkpt><trkpt lat="45.708894806628244" lon="9.762767797166099"><ele>275.0</ele><time>2026-04-05T08:20:35Z</time></trkpt><trkpt lat="45.708821540802546" lon="9.76271787839042"><ele>275.0</ele><time>2026-04-05T08:20:36Z</time></trkpt><trkpt lat="45.70875989940021" lon="9.76269179043681"><ele>275.0</ele><time>2026-04-05T08:20:37Z</time></trkpt><trkpt lat="45.70866027938434" lon="9.762632610375341"><ele>275.0</ele><time>2026-04-05T08:20:39Z</time></trkpt><trkpt lat="45.70856138992916" lon="9.762694412753126"><ele>274.0</ele><time>2026-04-05T08:20:40.999Z</time></trkpt><trkpt lat="45.70852796792019" lon="9.762777832008075"><ele>273.0</ele><time>2026-04-05T08:20:41.999Z</time></trkpt><trkpt lat="45.70844865334992" lon="9.762917851104126"><ele>272.0</ele><time>2026-04-05T08:20:43.999Z</time></trkpt><trkpt lat="45.708399767335244" lon="9.762975433315349"><ele>271.0</ele><time>2026-04-05T08:20:44.999Z</time></trkpt><trkpt lat="45.70834822937041" lon="9.763030268337154"><ele>270.0</ele><time>2026-04-05T08:20:45.999Z</time></trkpt><trkpt lat="45.70830077334553" lon="9.763092275808905"><ele>269.0</ele><time>2026-04-05T08:20:46.999Z</time></trkpt><trkpt lat="45.70825253499898" lon="9.763155982863925"><ele>269.0</ele><time>2026-04-05T08:20:47.999Z</time></trkpt><trkpt lat="45.708206395915774" lon="9.763218809514452"><ele>269.0</ele><time>2026-04-05T08:20:48.999Z</time></trkpt><trkpt lat="45.70812569045569" lon="9.763353223767808"><ele>269.0</ele><time>2026-04-05T08:20:50.999Z</time></trkpt><trkpt lat="45.70808874918966" lon="9.763427732147004"><ele>269.0</ele><time>2026-04-05T08:20:51.999Z</time></trkpt><trkpt lat="45.70804734451148" lon="9.763592373522098"><ele>269.0</ele><time>2026-04-05T08:20:53.999Z</time></trkpt><trkpt lat="45.70804519973635" lon="9.763688419506229"><ele>269.0</ele><time>2026-04-05T08:20:54.999Z</time></trkpt><trkpt lat="45.70805319790507" lon="9.76377949035629"><ele>271.0</ele><time>2026-04-05T08:20:55.999Z</time></trkpt><trkpt lat="45.70806603687768" lon="9.763871000828109"><ele>273.0</ele><time>2026-04-05T08:20:56.999Z</time></trkpt><trkpt lat="45.70806395772486" lon="9.764042190152246"><ele>275.0</ele><time>2026-04-05T08:20:58.999Z</time></trkpt><trkpt lat="45.70806847220337" lon="9.76420888515043"><ele>277.0</ele><time>2026-04-05T08:21:00.999Z</time></trkpt><trkpt lat="45.70806306393941" lon="9.764379020845134"><ele>279.0</ele><time>2026-04-05T08:21:02.999Z</time></trkpt><trkpt lat="45.70807253583736" lon="9.764537593945741"><ele>279.0</ele><time>2026-04-05T08:21:04.999Z</time></trkpt><trkpt lat="45.70808017923112" lon="9.764700467803978"><ele>279.0</ele><time>2026-04-05T08:21:06.999Z</time></trkpt><trkpt lat="45.708077357893295" lon="9.764792180120223"><ele>279.0</ele><time>2026-04-05T08:21:07.999Z</time></trkpt><trkpt lat="45.70809377749675" lon="9.76488315551997"><ele>279.0</ele><time>2026-04-05T08:21:08.999Z</time></trkpt><trkpt lat="45.70814582474023" lon="9.76503758359271"><ele>279.0</ele><time>2026-04-05T08:21:10.999Z</time></trkpt><trkpt lat="45.708189040937334" lon="9.765203699476634"><ele>278.1666666666667</ele><time>2026-04-05T08:21:12.999Z</time></trkpt><trkpt lat="45.708223009860134" lon="9.765279940973468"><ele>277.3333333333333</ele><time>2026-04-05T08:21:13.999Z</time></trkpt><trkpt lat="45.70829778927134" lon="9.765412498004562"><ele>276.5</ele><time>2026-04-05T08:21:15.999Z</time></trkpt><trkpt lat="45.70831786242956" lon="9.765507267310856"><ele>275.66666666666663</ele><time>2026-04-05T08:21:16.999Z</time></trkpt><trkpt lat="45.70834634179266" lon="9.765593697543457"><ele>274.8333333333333</ele><time>2026-04-05T08:21:17.999Z</time></trkpt><trkpt lat="45.708374414722456" lon="9.765686922950934"><ele>274.0</ele><time>2026-04-05T08:21:18.999Z</time></trkpt><trkpt lat="45.7084057981829" lon="9.765783940987095"><ele>274.0</ele><time>2026-04-05T08:21:19.999Z</time></trkpt><trkpt lat="45.70844447194167" lon="9.765870497486176"><ele>274.0</ele><time>2026-04-05T08:21:20.999Z</time></trkpt><trkpt lat="45.70848199871418" lon="9.765963554921314"><ele>274.0</ele><time>2026-04-05T08:21:21.999Z</time></trkpt><trkpt lat="45.7085144714392" lon="9.766057275672605"><ele>274.0</ele><time>2026-04-05T08:21:22.999Z</time></trkpt><trkpt lat="45.70854062803985" lon="9.766152593609707"><ele>274.0</ele><time>2026-04-05T08:21:23.999Z</time></trkpt><trkpt lat="45.70857104288235" lon="9.766237202141504"><ele>274.0</ele><time>2026-04-05T08:21:24.999Z</time></trkpt><trkpt lat="45.708615048010145" lon="9.766392828127639"><ele>274.8</ele><time>2026-04-05T08:21:26.999Z</time></trkpt><trkpt lat="45.70864832172279" lon="9.766544116775911"><ele>275.59999999999997</ele><time>2026-04-05T08:21:28.999Z</time></trkpt><trkpt lat="45.70866174656858" lon="9.766688657952917"><ele>276.4</ele><time>2026-04-05T08:21:30.999Z</time></trkpt><trkpt lat="45.708674558347404" lon="9.766818505900005"><ele>277.2</ele><time>2026-04-05T08:21:32.999Z</time></trkpt><trkpt lat="45.70868884176476" lon="9.766941571782338"><ele>278.0</ele><time>2026-04-05T08:21:34.999Z</time></trkpt><trkpt lat="45.708708335093206" lon="9.767070942651689"><ele>278.0</ele><time>2026-04-05T08:21:36.999Z</time></trkpt><trkpt lat="45.708717665390985" lon="9.767204306464738"><ele>278.0</ele><time>2026-04-05T08:21:38.999Z</time></trkpt><trkpt lat="45.70873999266024" lon="9.767340484669461"><ele>278.0</ele><time>2026-04-05T08:21:40.999Z</time></trkpt><trkpt lat="45.70877692885081" lon="9.767492357608944"><ele>278.0</ele><time>2026-04-05T08:21:42.999Z</time></trkpt><trkpt lat="45.708784652343404" lon="9.767654088597343"><ele>278.0</ele><time>2026-04-05T08:21:44.999Z</time></trkpt><trkpt lat="45.708784184265134" lon="9.767814771898594"><ele>277.8</ele><time>2026-04-05T08:21:46.999Z</time></trkpt><trkpt lat="45.70874286619025" lon="9.767956146635857"><ele>277.6</ele><time>2026-04-05T08:21:48.999Z</time></trkpt><trkpt lat="45.708705879512245" lon="9.768037214386048"><ele>277.4</ele><time>2026-04-05T08:21:49.999Z</time></trkpt><trkpt lat="45.70865423796538" lon="9.768182397361953"><ele>277.2</ele><time>2026-04-05T08:21:51.999Z</time></trkpt><trkpt lat="45.708611931532594" lon="9.768253309010577"><ele>277.0</ele><time>2026-04-05T08:21:53Z</time></trkpt><trkpt lat="45.70857165774024" lon="9.768413277174547"><ele>276.1428571428571</ele><time>2026-04-05T08:21:55Z</time></trkpt><trkpt lat="45.708551743137456" lon="9.768513621573018"><ele>275.2857142857143</ele><time>2026-04-05T08:21:56Z</time></trkpt><trkpt lat="45.70853512553076" lon="9.76860673204434"><ele>274.42857142857144</ele><time>2026-04-05T08:21:57Z</time></trkpt><trkpt lat="45.70851058391238" lon="9.768714968086348"><ele>273.57142857142856</ele><time>2026-04-05T08:21:58Z</time></trkpt><trkpt lat="45.708510108059265" lon="9.768814949689279"><ele>272.7142857142857</ele><time>2026-04-05T08:21:59Z</time></trkpt><trkpt lat="45.70849816269881" lon="9.76892440728468"><ele>271.85714285714283</ele><time>2026-04-05T08:22:00Z</time></trkpt><trkpt lat="45.708487201757286" lon="9.769037398026436"><ele>271.0</ele><time>2026-04-05T08:22:01Z</time></trkpt><trkpt lat="45.70847688340063" lon="9.769154221131332"><ele>271.0</ele><time>2026-04-05T08:22:02Z</time></trkpt><trkpt lat="45.70847362426111" lon="9.769269311564223"><ele>271.0</ele><time>2026-04-05T08:22:03Z</time></trkpt><trkpt lat="45.70847440818784" lon="9.769384926089728"><ele>271.0</ele><time>2026-04-05T08:22:04Z</time></trkpt><trkpt lat="45.70847216540701" lon="9.769505468620055"><ele>271.0</ele><time>2026-04-05T08:22:05Z</time></trkpt><trkpt lat="45.7084802383569" lon="9.769622229257592"><ele>271.0</ele><time>2026-04-05T08:22:06Z</time></trkpt><trkpt lat="45.70848780011773" lon="9.769740476880006"><ele>271.0</ele><time>2026-04-05T08:22:07Z</time></trkpt><trkpt lat="45.70850515911031" lon="9.769852969041677"><ele>271.0</ele><time>2026-04-05T08:22:08Z</time></trkpt><trkpt lat="45.70851679207706" lon="9.769973368653144"><ele>271.0</ele><time>2026-04-05T08:22:09Z</time></trkpt><trkpt lat="45.70853381609762" lon="9.770082388859057"><ele>271.0</ele><time>2026-04-05T08:22:10Z</time></trkpt><trkpt lat="45.70854761854632" lon="9.770195141091925"><ele>271.0</ele><time>2026-04-05T08:22:11Z</time></trkpt><trkpt lat="45.70856511625943" lon="9.770299110946002"><ele>271.0</ele><time>2026-04-05T08:22:12Z</time></trkpt><trkpt lat="45.70857465318528" lon="9.77040502667191"><ele>271.0</ele><time>2026-04-05T08:22:13Z</time></trkpt><trkpt lat="45.70859364133259" lon="9.77051013210757"><ele>270.7142857142857</ele><time>2026-04-05T08:22:14Z</time></trkpt><trkpt lat="45.708601318391494" lon="9.770613673653365"><ele>270.42857142857144</ele><time>2026-04-05T08:22:15Z</time></trkpt><trkpt lat="45.70861722067746" lon="9.770711738489036"><ele>270.14285714285717</ele><time>2026-04-05T08:22:16Z</time></trkpt><trkpt lat="45.7086208562317" lon="9.77081419516531"><ele>269.8571428571429</ele><time>2026-04-05T08:22:17Z</time></trkpt><trkpt lat="45.708628925499504" lon="9.770912287479373"><ele>269.5714285714286</ele><time>2026-04-05T08:22:18Z</time></trkpt><trkpt lat="45.708639537869956" lon="9.771005002450599"><ele>269.2857142857143</ele><time>2026-04-05T08:22:19Z</time></trkpt><trkpt lat="45.70864762057896" lon="9.771098405385317"><ele>269.0</ele><time>2026-04-05T08:22:20Z</time></trkpt><trkpt lat="45.708656243606505" lon="9.771189228447579"><ele>269.0</ele><time>2026-04-05T08:22:21Z</time></trkpt><trkpt lat="45.70866638599452" lon="9.77127994323384"><ele>269.0</ele><time>2026-04-05T08:22:22Z</time></trkpt><trkpt lat="45.70868151162001" lon="9.771460065578603"><ele>269.0</ele><time>2026-04-05T08:22:24Z</time></trkpt><trkpt lat="45.70869213706854" lon="9.771549154437528"><ele>269.0</ele><time>2026-04-05T08:22:25Z</time></trkpt><trkpt lat="45.70870446105902" lon="9.771730307010209"><ele>269.0</ele><time>2026-04-05T08:22:27Z</time></trkpt><trkpt lat="45.70870830561687" lon="9.77191009113861"><ele>269.5</ele><time>2026-04-05T08:22:29Z</time></trkpt><trkpt lat="45.708688235045685" lon="9.772087495623293"><ele>270.0</ele><time>2026-04-05T08:22:31Z</time></trkpt><trkpt lat="45.70868153987486" lon="9.772184045956728"><ele>270.5</ele><time>2026-04-05T08:22:32Z</time></trkpt><trkpt lat="45.708682406154445" lon="9.772342103517143"><ele>271.0</ele><time>2026-04-05T08:22:34Z</time></trkpt><trkpt lat="45.70867620152716" lon="9.772438336282738"><ele>271.5</ele><time>2026-04-05T08:22:35Z</time></trkpt><trkpt lat="45.708674729851914" lon="9.772529848121374"><ele>272.0</ele><time>2026-04-05T08:22:36Z</time></trkpt><trkpt lat="45.70873573489472" lon="9.772678871877925"><ele>272.8</ele><time>2026-04-05T08:22:38Z</time></trkpt><trkpt lat="45.708793773135625" lon="9.77272356933265"><ele>273.6</ele><time>2026-04-05T08:22:39Z</time></trkpt><trkpt lat="45.708857436231916" lon="9.772736523452824"><ele>274.40000000000003</ele><time>2026-04-05T08:22:40Z</time></trkpt><trkpt lat="45.70897264607829" lon="9.772758725591668"><ele>275.2</ele><time>2026-04-05T08:22:42Z</time></trkpt><trkpt lat="45.70907834196359" lon="9.772789386866721"><ele>276.0</ele><time>2026-04-05T08:22:44Z</time></trkpt><trkpt lat="45.7091943949675" lon="9.77282700173374"><ele>276.0</ele><time>2026-04-05T08:22:46Z</time></trkpt><trkpt lat="45.70930062610859" lon="9.772874064137204"><ele>276.0</ele><time>2026-04-05T08:22:48Z</time></trkpt><trkpt lat="45.70940597286617" lon="9.772921015942623"><ele>276.0</ele><time>2026-04-05T08:22:50Z</time></trkpt><trkpt lat="45.7094895808903" lon="9.772951192594203"><ele>276.0</ele><time>2026-04-05T08:22:51.999Z</time></trkpt><trkpt lat="45.709539804429575" lon="9.773019581433095"><ele>276.0</ele><time>2026-04-05T08:22:54.999Z</time></trkpt><trkpt lat="45.709623051616354" lon="9.772997241166856"><ele>277.5</ele><time>2026-04-05T08:23:51.999Z</time></trkpt><trkpt lat="45.70969124726327" lon="9.773015716655639"><ele>279.0</ele><time>2026-04-05T08:23:53.999Z</time></trkpt><trkpt lat="45.70975419521995" lon="9.773041356938062"><ele>280.5</ele><time>2026-04-05T08:23:55.999Z</time></trkpt><trkpt lat="45.70983934295738" lon="9.773061620693449"><ele>282.0</ele><time>2026-04-05T08:23:57.999Z</time></trkpt><trkpt lat="45.70993579174741" lon="9.773068497814945"><ele>283.5</ele><time>2026-04-05T08:24:00Z</time></trkpt><trkpt lat="45.71003584769486" lon="9.773094950844143"><ele>285.0</ele><time>2026-04-05T08:24:02Z</time></trkpt><trkpt lat="45.71013608911501" lon="9.773126303568715"><ele>285.0</ele><time>2026-04-05T08:24:04Z</time></trkpt><trkpt lat="45.71022971204742" lon="9.77316553910611"><ele>285.0</ele><time>2026-04-05T08:24:06Z</time></trkpt><trkpt lat="45.71031735041774" lon="9.773201662771877"><ele>285.0</ele><time>2026-04-05T08:24:08Z</time></trkpt><trkpt lat="45.71040322903816" lon="9.773237904406654"><ele>285.0</ele><time>2026-04-05T08:24:10Z</time></trkpt><trkpt lat="45.710491076183985" lon="9.77327558691162"><ele>285.0</ele><time>2026-04-05T08:24:12Z</time></trkpt><trkpt lat="45.710575433662996" lon="9.77331478943405"><ele>286.1666666666667</ele><time>2026-04-05T08:24:14Z</time></trkpt><trkpt lat="45.71066021523242" lon="9.773356259965066"><ele>287.3333333333333</ele><time>2026-04-05T08:24:16Z</time></trkpt><trkpt lat="45.710745734241165" lon="9.773409977317568"><ele>288.5</ele><time>2026-04-05T08:24:18Z</time></trkpt><trkpt lat="45.71081791969514" lon="9.773458534280564"><ele>289.66666666666663</ele><time>2026-04-05T08:24:19.999Z</time></trkpt><trkpt lat="45.710896720068845" lon="9.773498931264117"><ele>290.8333333333333</ele><time>2026-04-05T08:24:21.999Z</time></trkpt><trkpt lat="45.71096642237169" lon="9.77354142592447"><ele>292.0</ele><time>2026-04-05T08:24:23.999Z</time></trkpt><trkpt lat="45.71103957846515" lon="9.773590969615073"><ele>294.8333333333333</ele><time>2026-04-05T08:24:25.999Z</time></trkpt><trkpt lat="45.71111207803308" lon="9.773633729015819"><ele>297.66666666666663</ele><time>2026-04-05T08:24:27.999Z</time></trkpt><trkpt lat="45.71119024946644" lon="9.77367782644555"><ele>300.5</ele><time>2026-04-05T08:24:29.999Z</time></trkpt><trkpt lat="45.71126282746041" lon="9.773746411656374"><ele>303.3333333333333</ele><time>2026-04-05T08:24:31.999Z</time></trkpt><trkpt lat="45.71132976556953" lon="9.773804964002025"><ele>306.1666666666667</ele><time>2026-04-05T08:24:33.999Z</time></trkpt><trkpt lat="45.711402033966536" lon="9.773844722557552"><ele>309.0</ele><time>2026-04-05T08:24:35.999Z</time></trkpt><trkpt lat="45.71146764122661" lon="9.773883598910096"><ele>309.00000000000006</ele><time>2026-04-05T08:24:37.999Z</time></trkpt><trkpt lat="45.711527807186485" lon="9.773923009630533"><ele>309.0</ele><time>2026-04-05T08:24:39.999Z</time></trkpt><trkpt lat="45.71157874437826" lon="9.773987071101397"><ele>309.0</ele><time>2026-04-05T08:24:41.999Z</time></trkpt><trkpt lat="45.711587242141874" lon="9.77410473780177"><ele>309.0</ele><time>2026-04-05T08:24:44.999Z</time></trkpt><trkpt lat="45.71158360382674" lon="9.77419548433253"><ele>309.0</ele><time>2026-04-05T08:24:47.999Z</time></trkpt><trkpt lat="45.711572836969864" lon="9.774299233451794"><ele>309.00000000000006</ele><time>2026-04-05T08:24:51.999Z</time></trkpt><trkpt lat="45.71156092471466" lon="9.774399234580043"><ele>309.0</ele><time>2026-04-05T08:24:54.999Z</time></trkpt><trkpt lat="45.711546116221584" lon="9.774499800780415"><ele>308.3333333333333</ele><time>2026-04-05T08:24:58.999Z</time></trkpt><trkpt lat="45.711549369253845" lon="9.774617153002"><ele>307.6666666666667</ele><time>2026-04-05T08:25:02.999Z</time></trkpt><trkpt lat="45.71154793604075" lon="9.77473541758268"><ele>307.0</ele><time>2026-04-05T08:25:05.999Z</time></trkpt><trkpt lat="45.71155362688607" lon="9.774831585797394"><ele>306.33333333333337</ele><time>2026-04-05T08:25:07.999Z</time></trkpt><trkpt lat="45.71155424669834" lon="9.774948898107112"><ele>305.6666666666667</ele><time>2026-04-05T08:25:09.999Z</time></trkpt><trkpt lat="45.71155589490087" lon="9.775051448814363"><ele>305.0</ele><time>2026-04-05T08:25:11.999Z</time></trkpt><trkpt lat="45.7115685154592" lon="9.775170265490907"><ele>304.1666666666667</ele><time>2026-04-05T08:25:13.999Z</time></trkpt><trkpt lat="45.711568684547025" lon="9.775284696455563"><ele>303.33333333333337</ele><time>2026-04-05T08:25:15.999Z</time></trkpt><trkpt lat="45.7115593778647" lon="9.775406049196755"><ele>302.5</ele><time>2026-04-05T08:25:17.999Z</time></trkpt><trkpt lat="45.71157139937987" lon="9.775534747476614"><ele>301.6666666666667</ele><time>2026-04-05T08:25:19.999Z</time></trkpt><trkpt lat="45.71157360831632" lon="9.77563770080461"><ele>300.8333333333333</ele><time>2026-04-05T08:25:21.999Z</time></trkpt><trkpt lat="45.71157261405135" lon="9.775738751661208"><ele>300.0</ele><time>2026-04-05T08:25:23.999Z</time></trkpt><trkpt lat="45.71161816527078" lon="9.775848295946203"><ele>300.0</ele><time>2026-04-05T08:25:26.999Z</time></trkpt><trkpt lat="45.7116719043348" lon="9.775962078827677"><ele>300.0</ele><time>2026-04-05T08:25:29.999Z</time></trkpt><trkpt lat="45.71172313804381" lon="9.776069194671106"><ele>300.0</ele><time>2026-04-05T08:25:32.999Z</time></trkpt><trkpt lat="45.71177159732639" lon="9.776169482007246"><ele>300.0</ele><time>2026-04-05T08:25:35.999Z</time></trkpt><trkpt lat="45.71180509407234" lon="9.776249506565879"><ele>300.0</ele><time>2026-04-05T08:25:37.999Z</time></trkpt><trkpt lat="45.71181336143273" lon="9.77636114457561"><ele>300.0</ele><time>2026-04-05T08:25:40.999Z</time></trkpt><trkpt lat="45.711828279270954" lon="9.776450848418566"><ele>299.6666666666667</ele><time>2026-04-05T08:25:43.999Z</time></trkpt><trkpt lat="45.711875564761165" lon="9.776546107805054"><ele>299.3333333333333</ele><time>2026-04-05T08:25:46.999Z</time></trkpt><trkpt lat="45.71191057950971" lon="9.776641024547583"><ele>299.0</ele><time>2026-04-05T08:25:49.999Z</time></trkpt><trkpt lat="45.71189235563199" lon="9.776758464003787"><ele>298.66666666666663</ele><time>2026-04-05T08:25:51.999Z</time></trkpt><trkpt lat="45.71183806010538" lon="9.776848626830263"><ele>298.3333333333333</ele><time>2026-04-05T08:25:53.999Z</time></trkpt><trkpt lat="45.71178722585035" lon="9.776936526171056"><ele>298.0</ele><time>2026-04-05T08:25:55.999Z</time></trkpt><trkpt lat="45.71173346351758" lon="9.777014921198655"><ele>297.5</ele><time>2026-04-05T08:25:57.999Z</time></trkpt><trkpt lat="45.71163905729949" lon="9.77707188055511"><ele>297.0</ele><time>2026-04-05T08:26:00.999Z</time></trkpt><trkpt lat="45.71160704100122" lon="9.777173272906646"><ele>296.5</ele><time>2026-04-05T08:26:02.999Z</time></trkpt><trkpt lat="45.71163110380562" lon="9.777272854964849"><ele>296.0</ele><time>2026-04-05T08:26:05Z</time></trkpt><trkpt lat="45.71166429364177" lon="9.777390218415222"><ele>295.5</ele><time>2026-04-05T08:26:08Z</time></trkpt><trkpt lat="45.711673202014985" lon="9.77748363813281"><ele>295.0</ele><time>2026-04-05T08:26:10Z</time></trkpt><trkpt lat="45.71169335673861" lon="9.777582227900709"><ele>295.0</ele><time>2026-04-05T08:26:12Z</time></trkpt><trkpt lat="45.71169474601811" lon="9.77767285122919"><ele>295.0</ele><time>2026-04-05T08:26:14Z</time></trkpt><trkpt lat="45.71170576658423" lon="9.777767997967729"><ele>295.0</ele><time>2026-04-05T08:26:16Z</time></trkpt><trkpt lat="45.711686416733784" lon="9.777871532436732"><ele>295.0</ele><time>2026-04-05T08:26:19Z</time></trkpt><trkpt lat="45.71162260951721" lon="9.77787392507356"><ele>295.0</ele><time>2026-04-05T08:26:22Z</time></trkpt><trkpt lat="45.711532526797676" lon="9.77786087436529"><ele>295.0</ele><time>2026-04-05T08:26:24Z</time></trkpt><trkpt lat="45.71142259127943" lon="9.777882018085434"><ele>294.42857142857144</ele><time>2026-04-05T08:26:26Z</time></trkpt><trkpt lat="45.71135905303653" lon="9.7778968024529"><ele>293.8571428571429</ele><time>2026-04-05T08:26:27Z</time></trkpt><trkpt lat="45.711289360770614" lon="9.777909874960178"><ele>293.2857142857143</ele><time>2026-04-05T08:26:28Z</time></trkpt><trkpt lat="45.71122136029561" lon="9.777926310306711"><ele>292.7142857142857</ele><time>2026-04-05T08:26:29Z</time></trkpt><trkpt lat="45.711153494269595" lon="9.777943434093627"><ele>292.1428571428571</ele><time>2026-04-05T08:26:30Z</time></trkpt><trkpt lat="45.71108902595407" lon="9.777955267639504"><ele>291.57142857142856</ele><time>2026-04-05T08:26:31Z</time></trkpt><trkpt lat="45.71099458205875" lon="9.777976334220087"><ele>291.0</ele><time>2026-04-05T08:26:33Z</time></trkpt><trkpt lat="45.710905694937054" lon="9.77799181007832"><ele>290.0</ele><time>2026-04-05T08:26:35Z</time></trkpt><trkpt lat="45.7108130278289" lon="9.778038725533586"><ele>289.0</ele><time>2026-04-05T08:26:37Z</time></trkpt><trkpt lat="45.710715580523136" lon="9.77805885356908"><ele>288.0</ele><time>2026-04-05T08:26:39Z</time></trkpt><trkpt lat="45.71062803019619" lon="9.778096522558592"><ele>287.0</ele><time>2026-04-05T08:26:41Z</time></trkpt><trkpt lat="45.7105321746056" lon="9.778102189626818"><ele>286.0</ele><time>2026-04-05T08:26:43Z</time></trkpt><trkpt lat="45.710431679784776" lon="9.77809927580645"><ele>286.0</ele><time>2026-04-05T08:26:45Z</time></trkpt><trkpt lat="45.71032405631131" lon="9.77811280237897"><ele>286.0</ele><time>2026-04-05T08:26:47Z</time></trkpt><trkpt lat="45.710221525085146" lon="9.778127986959772"><ele>286.0</ele><time>2026-04-05T08:26:49Z</time></trkpt><trkpt lat="45.71012278759774" lon="9.778128644471172"><ele>286.0</ele><time>2026-04-05T08:26:51Z</time></trkpt><trkpt lat="45.71003789501094" lon="9.778125557535885"><ele>286.0</ele><time>2026-04-05T08:26:53Z</time></trkpt><trkpt lat="45.709958949086584" lon="9.778122893351696"><ele>285.4285714285714</ele><time>2026-04-05T08:26:55Z</time></trkpt><trkpt lat="45.709874876837986" lon="9.77814293773298"><ele>284.85714285714283</ele><time>2026-04-05T08:26:57Z</time></trkpt><trkpt lat="45.70980328121439" lon="9.778167265340874"><ele>284.2857142857143</ele><time>2026-04-05T08:26:58.999Z</time></trkpt><trkpt lat="45.70973105784161" lon="9.778195967523562"><ele>283.71428571428567</ele><time>2026-04-05T08:27:00.999Z</time></trkpt><trkpt lat="45.70966232938759" lon="9.778201688886275"><ele>283.1428571428571</ele><time>2026-04-05T08:27:02.999Z</time></trkpt><trkpt lat="45.70959172151536" lon="9.778205459631735"><ele>282.57142857142856</ele><time>2026-04-05T08:27:04.999Z</time></trkpt><trkpt lat="45.709529759975744" lon="9.778224525946031"><ele>282.0</ele><time>2026-04-05T08:27:06.999Z</time></trkpt><trkpt lat="45.709456495075315" lon="9.778283669202896"><ele>282.3333333333333</ele><time>2026-04-05T08:27:09.999Z</time></trkpt><trkpt lat="45.70938491936277" lon="9.778335432502137"><ele>282.6666666666667</ele><time>2026-04-05T08:27:12.999Z</time></trkpt><trkpt lat="45.70929742249937" lon="9.7783512652138"><ele>283.0</ele><time>2026-04-05T08:27:15.999Z</time></trkpt><trkpt lat="45.70923687576588" lon="9.778324776930779"><ele>283.33333333333337</ele><time>2026-04-05T08:27:17.999Z</time></trkpt><trkpt lat="45.70916004234987" lon="9.77827814999734"><ele>283.6666666666667</ele><time>2026-04-05T08:27:20.999Z</time></trkpt><trkpt lat="45.70908728173938" lon="9.778251908707619"><ele>284.0</ele><time>2026-04-05T08:27:23.999Z</time></trkpt><trkpt lat="45.709088238113026" lon="9.778349618421615"><ele>284.0</ele><time>2026-04-05T08:27:26.999Z</time></trkpt><trkpt lat="45.709134848544636" lon="9.778431823208823"><ele>284.0</ele><time>2026-04-05T08:27:28.999Z</time></trkpt><trkpt lat="45.709177571155784" lon="9.778518189809114"><ele>284.0</ele><time>2026-04-05T08:27:30.999Z</time></trkpt><trkpt lat="45.70922570258071" lon="9.77862161390781"><ele>284.0</ele><time>2026-04-05T08:27:32.999Z</time></trkpt><trkpt lat="45.70927269249696" lon="9.77873527848267"><ele>284.0</ele><time>2026-04-05T08:27:34.999Z</time></trkpt><trkpt lat="45.709310183090345" lon="9.778859415242959"><ele>284.0</ele><time>2026-04-05T08:27:36.999Z</time></trkpt><trkpt lat="45.70934275445738" lon="9.778968453285774"><ele>284.0</ele><time>2026-04-05T08:27:38.999Z</time></trkpt><trkpt lat="45.70931694444528" lon="9.778844004706755"><ele>284.0</ele><time>2026-04-05T08:28:44.999Z</time></trkpt><trkpt lat="45.70927621666729" lon="9.778737118002551"><ele>284.0</ele><time>2026-04-05T08:28:47.999Z</time></trkpt><trkpt lat="45.709220364142524" lon="9.778644910833172"><ele>284.0</ele><time>2026-04-05T08:28:50.999Z</time></trkpt><trkpt lat="45.70918740617604" lon="9.778563283273208"><ele>284.0</ele><time>2026-04-05T08:28:52.999Z</time></trkpt><trkpt lat="45.709145555743554" lon="9.778473826589687"><ele>284.0</ele><time>2026-04-05T08:28:55.999Z</time></trkpt><trkpt lat="45.70911588545981" lon="9.778381235756216"><ele>284.0</ele><time>2026-04-05T08:28:57.999Z</time></trkpt><trkpt lat="45.709039498083264" lon="9.778294696940366"><ele>284.0</ele><time>2026-04-05T08:29:00.999Z</time></trkpt><trkpt lat="45.708982361404274" lon="9.778334273197284"><ele>284.0</ele><time>2026-04-05T08:29:04.999Z</time></trkpt><trkpt lat="45.70895508822268" lon="9.778416938231599"><ele>284.0</ele><time>2026-04-05T08:29:07.999Z</time></trkpt><trkpt lat="45.70883193135839" lon="9.778423298379867"><ele>284.0</ele><time>2026-04-05T08:29:10.999Z</time></trkpt><trkpt lat="45.70872683897504" lon="9.778430661342224"><ele>284.0</ele><time>2026-04-05T08:29:12.999Z</time></trkpt><trkpt lat="45.70864131865545" lon="9.7783851529654"><ele>284.0</ele><time>2026-04-05T08:29:14.999Z</time></trkpt><trkpt lat="45.708577095670485" lon="9.778322674357012"><ele>284.0</ele><time>2026-04-05T08:29:16.999Z</time></trkpt><trkpt lat="45.70848018243271" lon="9.778306160798524"><ele>284.0</ele><time>2026-04-05T08:29:19.999Z</time></trkpt><trkpt lat="45.70842430881014" lon="9.778234147819377"><ele>284.0</ele><time>2026-04-05T08:29:21.999Z</time></trkpt><trkpt lat="45.7083575619785" lon="9.778181762795072"><ele>284.0</ele><time>2026-04-05T08:29:24.999Z</time></trkpt><trkpt lat="45.70829956874988" lon="9.778114202492471"><ele>283.6666666666667</ele><time>2026-04-05T08:29:28.999Z</time></trkpt><trkpt lat="45.70824895507245" lon="9.778018670146597"><ele>283.33333333333337</ele><time>2026-04-05T08:29:31.999Z</time></trkpt><trkpt lat="45.70824959566207" lon="9.777881326250485"><ele>283.0</ele><time>2026-04-05T08:29:34.999Z</time></trkpt><trkpt lat="45.708230093342124" lon="9.777765908051741"><ele>282.6666666666667</ele><time>2026-04-05T08:29:37.999Z</time></trkpt><trkpt lat="45.70819120914135" lon="9.777664767726126"><ele>282.3333333333333</ele><time>2026-04-05T08:29:40.999Z</time></trkpt><trkpt lat="45.70816767763618" lon="9.777564559774024"><ele>282.0</ele><time>2026-04-05T08:29:43.999Z</time></trkpt><trkpt lat="45.70816647984994" lon="9.777468633383375"><ele>281.8571428571429</ele><time>2026-04-05T08:29:47Z</time></trkpt><trkpt lat="45.70814468283333" lon="9.777373802959282"><ele>281.7142857142857</ele><time>2026-04-05T08:29:49.999Z</time></trkpt><trkpt lat="45.70814802703027" lon="9.777252867249606"><ele>281.57142857142856</ele><time>2026-04-05T08:29:52.999Z</time></trkpt><trkpt lat="45.70812328836699" lon="9.777163538461823"><ele>281.42857142857144</ele><time>2026-04-05T08:29:55.999Z</time></trkpt><trkpt lat="45.70813363609292" lon="9.777058415693872"><ele>281.2857142857143</ele><time>2026-04-05T08:29:58.999Z</time></trkpt><trkpt lat="45.70814783851506" lon="9.776968130983871"><ele>281.14285714285717</ele><time>2026-04-05T08:30:00.999Z</time></trkpt><trkpt lat="45.70814375218298" lon="9.776875159941067"><ele>281.0</ele><time>2026-04-05T08:30:02.999Z</time></trkpt><trkpt lat="45.708112257546624" lon="9.776762391191031"><ele>280.5</ele><time>2026-04-05T08:30:05.999Z</time></trkpt><trkpt lat="45.70807715926623" lon="9.776653606421007"><ele>280.0</ele><time>2026-04-05T08:30:08.999Z</time></trkpt><trkpt lat="45.70804510972687" lon="9.776571641478043"><ele>279.5</ele><time>2026-04-05T08:30:10.999Z</time></trkpt><trkpt lat="45.70804051657568" lon="9.776476553892037"><ele>279.0</ele><time>2026-04-05T08:30:12.999Z</time></trkpt><trkpt lat="45.70800828738788" lon="9.7763857133556"><ele>278.5</ele><time>2026-04-05T08:30:14.999Z</time></trkpt><trkpt lat="45.70798942324495" lon="9.776264287349578"><ele>278.0</ele><time>2026-04-05T08:30:18Z</time></trkpt><trkpt lat="45.70798849590151" lon="9.776136949267785"><ele>277.83333333333337</ele><time>2026-04-05T08:30:21Z</time></trkpt><trkpt lat="45.70801329468957" lon="9.776009864097482"><ele>277.6666666666667</ele><time>2026-04-05T08:30:24Z</time></trkpt><trkpt lat="45.70804249799251" lon="9.775889562159316"><ele>277.5</ele><time>2026-04-05T08:30:27Z</time></trkpt><trkpt lat="45.70804932473103" lon="9.775793471576998"><ele>277.3333333333333</ele><time>2026-04-05T08:30:29Z</time></trkpt><trkpt lat="45.70802303571711" lon="9.775699597625957"><ele>277.16666666666663</ele><time>2026-04-05T08:30:32Z</time></trkpt><trkpt lat="45.70801079674775" lon="9.775591867277113"><ele>277.0</ele><time>2026-04-05T08:30:35Z</time></trkpt><trkpt lat="45.70797896913114" lon="9.775502797078822"><ele>277.0</ele><time>2026-04-05T08:30:37Z</time></trkpt><trkpt lat="45.70795632803906" lon="9.77541132502579"><ele>277.0</ele><time>2026-04-05T08:30:39Z</time></trkpt><trkpt lat="45.707930819463925" lon="9.77531908364276"><ele>277.0</ele><time>2026-04-05T08:30:41Z</time></trkpt><trkpt lat="45.70793277811411" lon="9.775174177323489"><ele>277.0</ele><time>2026-04-05T08:30:44Z</time></trkpt><trkpt lat="45.70799555757987" lon="9.775068975580576"><ele>277.0</ele><time>2026-04-05T08:30:46Z</time></trkpt><trkpt lat="45.70802432997215" lon="9.774952114435605"><ele>277.0</ele><time>2026-04-05T08:30:48Z</time></trkpt><trkpt lat="45.708019025015304" lon="9.77485233706176"><ele>277.3333333333333</ele><time>2026-04-05T08:30:50Z</time></trkpt><trkpt lat="45.70802736303499" lon="9.774729045762182"><ele>277.66666666666663</ele><time>2026-04-05T08:30:52Z</time></trkpt><trkpt lat="45.70800654426799" lon="9.774613471397814"><ele>278.0</ele><time>2026-04-05T08:30:54Z</time></trkpt><trkpt lat="45.708010776659656" lon="9.774516328549797"><ele>278.3333333333333</ele><time>2026-04-05T08:30:56Z</time></trkpt><trkpt lat="45.70803609347138" lon="9.774415871861393"><ele>278.6666666666667</ele><time>2026-04-05T08:30:59Z</time></trkpt><trkpt lat="45.707984321489555" lon="9.774328782489826"><ele>279.0</ele><time>2026-04-05T08:31:02Z</time></trkpt><trkpt lat="45.70799150695622" lon="9.77423385779282"><ele>279.0</ele><time>2026-04-05T08:31:05Z</time></trkpt><trkpt lat="45.70800117109372" lon="9.774112382771651"><ele>279.0</ele><time>2026-04-05T08:31:08Z</time></trkpt><trkpt lat="45.70798716332874" lon="9.774014487448037"><ele>279.0</ele><time>2026-04-05T08:31:12Z</time></trkpt><trkpt lat="45.70795184896962" lon="9.77393466619495"><ele>279.0</ele><time>2026-04-05T08:31:17Z</time></trkpt><trkpt lat="45.70796427245074" lon="9.773809457025886"><ele>279.0</ele><time>2026-04-05T08:31:21Z</time></trkpt><trkpt lat="45.70796915427048" lon="9.773700373474545"><ele>279.0</ele><time>2026-04-05T08:31:22.999Z</time></trkpt><trkpt lat="45.70797859329026" lon="9.773605833189803"><ele>278.6666666666667</ele><time>2026-04-05T08:31:24.999Z</time></trkpt><trkpt lat="45.70798517479509" lon="9.773485931259136"><ele>278.3333333333333</ele><time>2026-04-05T08:31:27.999Z</time></trkpt><trkpt lat="45.70804786126585" lon="9.773413598056216"><ele>278.0</ele><time>2026-04-05T08:31:30.999Z</time></trkpt><trkpt lat="45.70801780013828" lon="9.773322645810016"><ele>277.66666666666663</ele><time>2026-04-05T08:31:33.999Z</time></trkpt><trkpt lat="45.70802799955731" lon="9.773180705432162"><ele>277.3333333333333</ele><time>2026-04-05T08:31:36.999Z</time></trkpt><trkpt lat="45.70799548481422" lon="9.773079397617481"><ele>277.0</ele><time>2026-04-05T08:31:38.999Z</time></trkpt><trkpt lat="45.708008821616396" lon="9.772973448181377"><ele>277.0</ele><time>2026-04-05T08:32:16.999Z</time></trkpt><trkpt lat="45.708000158199184" lon="9.772861863996402"><ele>277.0</ele><time>2026-04-05T08:32:22Z</time></trkpt><trkpt lat="45.70800155759484" lon="9.772717909758182"><ele>277.0</ele><time>2026-04-05T08:32:25Z</time></trkpt><trkpt lat="45.70799325205849" lon="9.772626776921637"><ele>277.0</ele><time>2026-04-05T08:32:27Z</time></trkpt><trkpt lat="45.707964992457754" lon="9.772546113157901"><ele>277.0</ele><time>2026-04-05T08:32:31Z</time></trkpt><trkpt lat="45.707962677369316" lon="9.772440496982783"><ele>277.0</ele><time>2026-04-05T08:32:35Z</time></trkpt><trkpt lat="45.707930536351974" lon="9.772338087412882"><ele>276.57142857142856</ele><time>2026-04-05T08:32:38Z</time></trkpt><trkpt lat="45.70792555622974" lon="9.77224587928163"><ele>276.1428571428571</ele><time>2026-04-05T08:32:42Z</time></trkpt><trkpt lat="45.707889156832735" lon="9.772153508468788"><ele>275.7142857142857</ele><time>2026-04-05T08:32:51Z</time></trkpt><trkpt lat="45.70786415484206" lon="9.77205702791686"><ele>275.2857142857143</ele><time>2026-04-05T08:33:03Z</time></trkpt><trkpt lat="45.707860842418334" lon="9.771932569878393"><ele>274.8571428571429</ele><time>2026-04-05T08:33:10.999Z</time></trkpt><trkpt lat="45.70782906375505" lon="9.7718269142693"><ele>274.42857142857144</ele><time>2026-04-05T08:33:14.999Z</time></trkpt><trkpt lat="45.70783788193775" lon="9.771734322540386"><ele>274.0</ele><time>2026-04-05T08:33:23.999Z</time></trkpt><trkpt lat="45.70783811478527" lon="9.77162476179688"><ele>273.42857142857144</ele><time>2026-04-05T08:33:25.999Z</time></trkpt><trkpt lat="45.70779341048573" lon="9.77149028541989"><ele>272.8571428571429</ele><time>2026-04-05T08:33:27.999Z</time></trkpt><trkpt lat="45.707765961630905" lon="9.771396476449718"><ele>272.2857142857143</ele><time>2026-04-05T08:33:29.999Z</time></trkpt><trkpt lat="45.70773459385167" lon="9.771310779866988"><ele>271.7142857142857</ele><time>2026-04-05T08:33:37.999Z</time></trkpt><trkpt lat="45.707706528910414" lon="9.771229287130584"><ele>271.1428571428571</ele><time>2026-04-05T08:33:55.999Z</time></trkpt><trkpt lat="45.707677653972134" lon="9.771130453961083"><ele>270.57142857142856</ele><time>2026-04-05T08:34:00.999Z</time></trkpt><trkpt lat="45.70762149804545" lon="9.771080081833501"><ele>270.0</ele><time>2026-04-05T08:34:04.999Z</time></trkpt><trkpt lat="45.70756400668741" lon="9.770960559030224"><ele>271.3333333333333</ele><time>2026-04-05T08:34:57Z</time></trkpt><trkpt lat="45.70750590667803" lon="9.770884682993698"><ele>272.6666666666667</ele><time>2026-04-05T08:35:03Z</time></trkpt><trkpt lat="45.70746839058916" lon="9.770791981729023"><ele>274.0</ele><time>2026-04-05T08:35:06Z</time></trkpt><trkpt lat="45.70743146451301" lon="9.770712490171354"><ele>275.33333333333337</ele><time>2026-04-05T08:35:08Z</time></trkpt><trkpt lat="45.707401426405724" lon="9.770619192838225"><ele>276.6666666666667</ele><time>2026-04-05T08:35:12Z</time></trkpt><trkpt lat="45.7073453977381" lon="9.770494262045103"><ele>278.0</ele><time>2026-04-05T08:35:14Z</time></trkpt><trkpt lat="45.70731568795363" lon="9.77040256707693"><ele>278.0</ele><time>2026-04-05T08:35:16Z</time></trkpt><trkpt lat="45.70726095127646" lon="9.770325470538749"><ele>278.0</ele><time>2026-04-05T08:35:20Z</time></trkpt><trkpt lat="45.707200861012296" lon="9.770283450553102"><ele>278.0</ele><time>2026-04-05T08:35:25Z</time></trkpt><trkpt lat="45.70715268988865" lon="9.770200385419868"><ele>278.0</ele><time>2026-04-05T08:35:27.999Z</time></trkpt><trkpt lat="45.7071019044461" lon="9.770120795181356"><ele>278.0</ele><time>2026-04-05T08:35:30.999Z</time></trkpt><trkpt lat="45.707025573628215" lon="9.770079989921074"><ele>278.0</ele><time>2026-04-05T08:35:34.999Z</time></trkpt><trkpt lat="45.70694930656651" lon="9.770134766733019"><ele>276.83333333333337</ele><time>2026-04-05T08:35:38.999Z</time></trkpt><trkpt lat="45.70701832970168" lon="9.770102058663173"><ele>275.6666666666667</ele><time>2026-04-05T08:35:53.999Z</time></trkpt><trkpt lat="45.707091787975735" lon="9.770040439029563"><ele>274.5</ele><time>2026-04-05T08:35:58.999Z</time></trkpt><trkpt lat="45.707149409206906" lon="9.769969001125475"><ele>273.3333333333333</ele><time>2026-04-05T08:36:02.999Z</time></trkpt><trkpt lat="45.707209285693615" lon="9.769895322473264"><ele>272.16666666666663</ele><time>2026-04-05T08:36:06.999Z</time></trkpt><trkpt lat="45.707271294311106" lon="9.769914513315223"><ele>271.0</ele><time>2026-04-05T08:36:09.999Z</time></trkpt><trkpt lat="45.70732420441058" lon="9.770002644143911"><ele>271.0</ele><time>2026-04-05T08:36:13.999Z</time></trkpt><trkpt lat="45.707349266545044" lon="9.770105063848085"><ele>271.0</ele><time>2026-04-05T08:36:16.999Z</time></trkpt><trkpt lat="45.70737589195072" lon="9.770191576066836"><ele>271.0</ele><time>2026-04-05T08:36:18.999Z</time></trkpt><trkpt lat="45.70742252693009" lon="9.770295438499483"><ele>271.0</ele><time>2026-04-05T08:36:21.999Z</time></trkpt><trkpt lat="45.70748472689629" lon="9.770367408236925"><ele>271.0</ele><time>2026-04-05T08:36:24.999Z</time></trkpt><trkpt lat="45.70755601075289" lon="9.770394070025967"><ele>271.0</ele><time>2026-04-05T08:36:27.999Z</time></trkpt><trkpt lat="45.70761606280294" lon="9.770340479033143"><ele>271.0</ele><time>2026-04-05T08:36:30.999Z</time></trkpt><trkpt lat="45.707676570501405" lon="9.770267393673501"><ele>271.0</ele><time>2026-04-05T08:36:35Z</time></trkpt><trkpt lat="45.70774211094545" lon="9.770204734690767"><ele>271.0</ele><time>2026-04-05T08:36:39Z</time></trkpt><trkpt lat="45.70781278678863" lon="9.770143549073213"><ele>271.0</ele><time>2026-04-05T08:36:43Z</time></trkpt><trkpt lat="45.70786550967866" lon="9.770089107685182"><ele>271.0</ele><time>2026-04-05T08:36:47Z</time></trkpt><trkpt lat="45.707911606963926" lon="9.770016499156645"><ele>271.0</ele><time>2026-04-05T08:36:50Z</time></trkpt><trkpt lat="45.70798294554557" lon="9.76995993724976"><ele>271.0</ele><time>2026-04-05T08:36:54Z</time></trkpt><trkpt lat="45.70805917452284" lon="9.769890028893261"><ele>271.0</ele><time>2026-04-05T08:37:35.999Z</time></trkpt><trkpt lat="45.708110514901875" lon="9.769818422929527"><ele>271.0</ele><time>2026-04-05T08:37:37.999Z</time></trkpt><trkpt lat="45.70817333136895" lon="9.769747486570026"><ele>271.0</ele><time>2026-04-05T08:37:40.999Z</time></trkpt><trkpt lat="45.70824418924614" lon="9.76969253487628"><ele>271.0</ele><time>2026-04-05T08:37:43.999Z</time></trkpt><trkpt lat="45.70829863605034" lon="9.769635770201218"><ele>271.0</ele><time>2026-04-05T08:37:45.999Z</time></trkpt><trkpt lat="45.70836345917545" lon="9.769557844281527"><ele>271.0</ele><time>2026-04-05T08:37:48.999Z</time></trkpt><trkpt lat="45.70843447546655" lon="9.769489362263869"><ele>271.0</ele><time>2026-04-05T08:37:51.999Z</time></trkpt><trkpt lat="45.70845910801956" lon="9.769361394292382"><ele>271.0</ele><time>2026-04-05T08:37:55.999Z</time></trkpt><trkpt lat="45.70848193825654" lon="9.769263986788951"><ele>271.0</ele><time>2026-04-05T08:37:58.999Z</time></trkpt><trkpt lat="45.70847413497883" lon="9.769157854875557"><ele>271.0</ele><time>2026-04-05T08:38:01.999Z</time></trkpt><trkpt lat="45.708493399071656" lon="9.769054804202048"><ele>271.0</ele><time>2026-04-05T08:38:04.999Z</time></trkpt><trkpt lat="45.708501516161675" lon="9.768954864219891"><ele>271.0</ele><time>2026-04-05T08:38:07.999Z</time></trkpt><trkpt lat="45.70851232581677" lon="9.768856574508828"><ele>271.0</ele><time>2026-04-05T08:38:10.999Z</time></trkpt><trkpt lat="45.70852618634274" lon="9.768762980923292"><ele>271.0</ele><time>2026-04-05T08:38:13.999Z</time></trkpt><trkpt lat="45.70854065035476" lon="9.768667660920261"><ele>271.0</ele><time>2026-04-05T08:38:16.999Z</time></trkpt><trkpt lat="45.70855186771644" lon="9.768544638664952"><ele>271.0</ele><time>2026-04-05T08:38:20.999Z</time></trkpt><trkpt lat="45.70858126986494" lon="9.768447565290925"><ele>271.0</ele><time>2026-04-05T08:38:23.999Z</time></trkpt><trkpt lat="45.708615828455244" lon="9.768330545321882"><ele>271.85714285714283</ele><time>2026-04-05T08:38:27.999Z</time></trkpt><trkpt lat="45.708638194015755" lon="9.768239532296024"><ele>272.7142857142857</ele><time>2026-04-05T08:38:30.999Z</time></trkpt><trkpt lat="45.70866970541805" lon="9.76814570348603"><ele>273.57142857142856</ele><time>2026-04-05T08:38:33.999Z</time></trkpt><trkpt lat="45.70871159543317" lon="9.768063698263118"><ele>274.42857142857144</ele><time>2026-04-05T08:38:36.999Z</time></trkpt><trkpt lat="45.70874702571653" lon="9.767976938448697"><ele>275.2857142857143</ele><time>2026-04-05T08:38:40Z</time></trkpt><trkpt lat="45.708775250313636" lon="9.767883748488709"><ele>276.1428571428571</ele><time>2026-04-05T08:38:43Z</time></trkpt><trkpt lat="45.70880129747038" lon="9.7677874064314"><ele>277.0</ele><time>2026-04-05T08:38:46Z</time></trkpt><trkpt lat="45.708807360013466" lon="9.767689303907288"><ele>277.1428571428571</ele><time>2026-04-05T08:38:49Z</time></trkpt><trkpt lat="45.708800777555815" lon="9.767592428772248"><ele>277.2857142857143</ele><time>2026-04-05T08:38:52Z</time></trkpt><trkpt lat="45.708782917431364" lon="9.767499435272361"><ele>277.42857142857144</ele><time>2026-04-05T08:38:54.999Z</time></trkpt><trkpt lat="45.70877087037059" lon="9.767401774631546"><ele>277.57142857142856</ele><time>2026-04-05T08:38:57.999Z</time></trkpt><trkpt lat="45.70876275560941" lon="9.767307585232558"><ele>277.7142857142857</ele><time>2026-04-05T08:39:00.999Z</time></trkpt><trkpt lat="45.70872663867713" lon="9.767212837469168"><ele>277.85714285714283</ele><time>2026-04-05T08:39:04.999Z</time></trkpt><trkpt lat="45.70865657086101" lon="9.767226236781392"><ele>278.0</ele><time>2026-04-05T08:39:11.999Z</time></trkpt><trkpt lat="45.70872747097065" lon="9.767179851567944"><ele>278.0</ele><time>2026-04-05T08:39:35.999Z</time></trkpt><trkpt lat="45.70871876266284" lon="9.76704888316051"><ele>278.0</ele><time>2026-04-05T08:39:38.999Z</time></trkpt><trkpt lat="45.70870168661126" lon="9.766923631671997"><ele>278.0</ele><time>2026-04-05T08:39:41.999Z</time></trkpt><trkpt lat="45.708686776663406" lon="9.766798567994776"><ele>278.0</ele><time>2026-04-05T08:39:44.999Z</time></trkpt><trkpt lat="45.70867747819223" lon="9.766707480011753"><ele>278.0</ele><time>2026-04-05T08:39:46.999Z</time></trkpt><trkpt lat="45.7086645511472" lon="9.766610502507659"><ele>278.0</ele><time>2026-04-05T08:39:48.999Z</time></trkpt><trkpt lat="45.70864485756033" lon="9.766511703194876"><ele>278.2</ele><time>2026-04-05T08:39:50.999Z</time></trkpt><trkpt lat="45.70861815872391" lon="9.766395901272057"><ele>278.4</ele><time>2026-04-05T08:39:52.999Z</time></trkpt><trkpt lat="45.70859546475146" lon="9.766254012070098"><ele>278.59999999999997</ele><time>2026-04-05T08:39:54.999Z</time></trkpt><trkpt lat="45.708547469346634" lon="9.766135411052897"><ele>278.8</ele><time>2026-04-05T08:39:56.999Z</time></trkpt><trkpt lat="45.708494213536675" lon="9.76600931259699"><ele>279.0</ele><time>2026-04-05T08:39:58.999Z</time></trkpt><trkpt lat="45.70844336686774" lon="9.765882967076534"><ele>278.0</ele><time>2026-04-05T08:40:00.999Z</time></trkpt><trkpt lat="45.70839364819239" lon="9.765755754808868"><ele>277.0</ele><time>2026-04-05T08:40:02.999Z</time></trkpt><trkpt lat="45.70834159841115" lon="9.765629105685978"><ele>276.0</ele><time>2026-04-05T08:40:04.999Z</time></trkpt><trkpt lat="45.70828957712607" lon="9.765492755365978"><ele>275.0</ele><time>2026-04-05T08:40:06.999Z</time></trkpt><trkpt lat="45.708260991977696" lon="9.765351649985735"><ele>274.0</ele><time>2026-04-05T08:40:08.999Z</time></trkpt><trkpt lat="45.708208808399675" lon="9.76521894631774"><ele>275.25</ele><time>2026-04-05T08:40:10.999Z</time></trkpt><trkpt lat="45.70816402211816" lon="9.765063212686162"><ele>276.5</ele><time>2026-04-05T08:40:12.999Z</time></trkpt><trkpt lat="45.708122998036664" lon="9.76491727160159"><ele>277.75</ele><time>2026-04-05T08:40:14.999Z</time></trkpt><trkpt lat="45.708099860777125" lon="9.764760795375787"><ele>279.0</ele><time>2026-04-05T08:40:16.999Z</time></trkpt><trkpt lat="45.70808540537938" lon="9.764600528071128"><ele>279.0</ele><time>2026-04-05T08:40:18.999Z</time></trkpt><trkpt lat="45.708067312740695" lon="9.764425966945488"><ele>279.0</ele><time>2026-04-05T08:40:20.999Z</time></trkpt><trkpt lat="45.70806570046014" lon="9.7643338697023"><ele>279.0</ele><time>2026-04-05T08:40:21.999Z</time></trkpt><trkpt lat="45.708051904175804" lon="9.764163909427939"><ele>279.0</ele><time>2026-04-05T08:40:23.999Z</time></trkpt><trkpt lat="45.70806106953064" lon="9.76397969730467"><ele>279.0</ele><time>2026-04-05T08:40:25.999Z</time></trkpt><trkpt lat="45.70805548033836" lon="9.763888045823494"><ele>278.99999999999994</ele><time>2026-04-05T08:40:26.999Z</time></trkpt><trkpt lat="45.7080533966213" lon="9.763790778001509"><ele>279.0</ele><time>2026-04-05T08:40:27.999Z</time></trkpt><trkpt lat="45.708045488379526" lon="9.763691067804109"><ele>279.0</ele><time>2026-04-05T08:40:28.999Z</time></trkpt><trkpt lat="45.7080373234325" lon="9.76358893363833"><ele>279.0</ele><time>2026-04-05T08:40:29.999Z</time></trkpt><trkpt lat="45.70805829616668" lon="9.763493396054638"><ele>279.0</ele><time>2026-04-05T08:40:30.999Z</time></trkpt><trkpt lat="45.708088093704596" lon="9.763404581197808"><ele>278.99999999999994</ele><time>2026-04-05T08:40:31.999Z</time></trkpt><trkpt lat="45.708131525394485" lon="9.763331965899962"><ele>279.0</ele><time>2026-04-05T08:40:32.999Z</time></trkpt><trkpt lat="45.7082155727495" lon="9.763201438174399"><ele>276.5</ele><time>2026-04-05T08:40:34.999Z</time></trkpt><trkpt lat="45.708306516258574" lon="9.76309004823597"><ele>274.0</ele><time>2026-04-05T08:40:36.999Z</time></trkpt><trkpt lat="45.70838792517997" lon="9.762976989693911"><ele>271.5</ele><time>2026-04-05T08:40:38.999Z</time></trkpt><trkpt lat="45.708471917589534" lon="9.762859746038437"><ele>269.0</ele><time>2026-04-05T08:40:40.999Z</time></trkpt><trkpt lat="45.70856207582661" lon="9.762745475954588"><ele>269.0</ele><time>2026-04-05T08:40:42.999Z</time></trkpt><trkpt lat="45.70863394960699" lon="9.762653464714903"><ele>269.0</ele><time>2026-04-05T08:40:44.999Z</time></trkpt><trkpt lat="45.70873793894195" lon="9.762670742333013"><ele>269.0</ele><time>2026-04-05T08:40:46.999Z</time></trkpt><trkpt lat="45.7088316197036" lon="9.762776595462302"><ele>269.0</ele><time>2026-04-05T08:40:48.999Z</time></trkpt><trkpt lat="45.70889250842764" lon="9.762818940796729"><ele>269.0</ele><time>2026-04-05T08:40:49.999Z</time></trkpt><trkpt lat="45.709005370511925" lon="9.762893933108126"><ele>270.0</ele><time>2026-04-05T08:40:51.999Z</time></trkpt><trkpt lat="45.70911030732671" lon="9.762972682677265"><ele>271.0</ele><time>2026-04-05T08:40:53.999Z</time></trkpt><trkpt lat="45.709221373258536" lon="9.763042237007067"><ele>272.0</ele><time>2026-04-05T08:40:55.999Z</time></trkpt><trkpt lat="45.7093298286358" lon="9.763107934398215"><ele>273.0</ele><time>2026-04-05T08:40:57.999Z</time></trkpt><trkpt lat="45.7094417649612" lon="9.763162486638167"><ele>273.0</ele><time>2026-04-05T08:40:59.999Z</time></trkpt><trkpt lat="45.70955438999348" lon="9.763214060986618"><ele>273.0</ele><time>2026-04-05T08:41:01.999Z</time></trkpt><trkpt lat="45.709668481989546" lon="9.763256300142979"><ele>273.0</ele><time>2026-04-05T08:41:04Z</time></trkpt><trkpt lat="45.70978004192716" lon="9.76330562085133"><ele>273.0</ele><time>2026-04-05T08:41:06Z</time></trkpt><trkpt lat="45.709887731839174" lon="9.76335383144296"><ele>273.0</ele><time>2026-04-05T08:41:08Z</time></trkpt><trkpt lat="45.70994424006893" lon="9.763398719113257"><ele>273.0</ele><time>2026-04-05T08:41:09Z</time></trkpt><trkpt lat="45.71003723872454" lon="9.763500288400017"><ele>273.0</ele><time>2026-04-05T08:41:11Z</time></trkpt><trkpt lat="45.710109045420126" lon="9.763625453314527"><ele>273.0</ele><time>2026-04-05T08:41:13Z</time></trkpt><trkpt lat="45.71019047967382" lon="9.7637392157757"><ele>273.0</ele><time>2026-04-05T08:41:15Z</time></trkpt><trkpt lat="45.71026952453926" lon="9.7638542058241"><ele>274.2</ele><time>2026-04-05T08:41:17Z</time></trkpt><trkpt lat="45.710339960560766" lon="9.763963839532979"><ele>275.4</ele><time>2026-04-05T08:41:19Z</time></trkpt><trkpt lat="45.71041410659561" lon="9.764086111163063"><ele>276.59999999999997</ele><time>2026-04-05T08:41:21Z</time></trkpt><trkpt lat="45.71049675826914" lon="9.764202172082559"><ele>277.8</ele><time>2026-04-05T08:41:23Z</time></trkpt><trkpt lat="45.710554164689235" lon="9.764323305578325"><ele>279.0</ele><time>2026-04-05T08:41:25Z</time></trkpt><trkpt lat="45.710593446736354" lon="9.764395351671205"><ele>279.8</ele><time>2026-04-05T08:41:26Z</time></trkpt><trkpt lat="45.71064063064133" lon="9.764536481278551"><ele>280.59999999999997</ele><time>2026-04-05T08:41:28Z</time></trkpt><trkpt lat="45.710679493249025" lon="9.76468322453768"><ele>281.4</ele><time>2026-04-05T08:41:30Z</time></trkpt><trkpt lat="45.710705330477076" lon="9.764827649794316"><ele>282.2</ele><time>2026-04-05T08:41:32Z</time></trkpt><trkpt lat="45.710750305898074" lon="9.764978630352273"><ele>283.0</ele><time>2026-04-05T08:41:34Z</time></trkpt><trkpt lat="45.71078065938326" lon="9.76512420774431"><ele>284.4</ele><time>2026-04-05T08:41:36Z</time></trkpt><trkpt lat="45.71081954252573" lon="9.765267075967209"><ele>285.8</ele><time>2026-04-05T08:41:38Z</time></trkpt><trkpt lat="45.710853711405726" lon="9.765396818973066"><ele>287.2</ele><time>2026-04-05T08:41:40Z</time></trkpt><trkpt lat="45.71091055026215" lon="9.765536279012242"><ele>288.6</ele><time>2026-04-05T08:41:42Z</time></trkpt><trkpt lat="45.710963381230904" lon="9.765655385621255"><ele>290.0</ele><time>2026-04-05T08:41:44Z</time></trkpt><trkpt lat="45.71103026621269" lon="9.76576402233802"><ele>289.8</ele><time>2026-04-05T08:41:46Z</time></trkpt><trkpt lat="45.71109961735375" lon="9.765862394694452"><ele>289.6</ele><time>2026-04-05T08:41:48Z</time></trkpt><trkpt lat="45.71116182560845" lon="9.76596460210324"><ele>289.4</ele><time>2026-04-05T08:41:50Z</time></trkpt><trkpt lat="45.711211849649644" lon="9.766023495069186"><ele>289.2</ele><time>2026-04-05T08:41:51Z</time></trkpt><trkpt lat="45.71128394676863" lon="9.7661281293334"><ele>289.0</ele><time>2026-04-05T08:41:53Z</time></trkpt><trkpt lat="45.71135591943594" lon="9.76622624149522"><ele>291.0</ele><time>2026-04-05T08:41:55Z</time></trkpt><trkpt lat="45.711432162608816" lon="9.766313953888911"><ele>293.0</ele><time>2026-04-05T08:41:57Z</time></trkpt><trkpt lat="45.711509371169726" lon="9.766403583146273"><ele>295.0</ele><time>2026-04-05T08:41:59Z</time></trkpt><trkpt lat="45.71157084239886" lon="9.76650853509356"><ele>297.0</ele><time>2026-04-05T08:42:01Z</time></trkpt><trkpt lat="45.71165580200308" lon="9.766601170898353"><ele>299.0</ele><time>2026-04-05T08:42:03Z</time></trkpt><trkpt lat="45.711724700734095" lon="9.766687767111929"><ele>299.0</ele><time>2026-04-05T08:42:05Z</time></trkpt><trkpt lat="45.711801678287124" lon="9.76674427138891"><ele>299.0</ele><time>2026-04-05T08:42:07Z</time></trkpt><trkpt lat="45.711900136093206" lon="9.766811503287132"><ele>299.0</ele><time>2026-04-05T08:42:09Z</time></trkpt><trkpt lat="45.71199493161725" lon="9.766861901609484"><ele>299.0</ele><time>2026-04-05T08:42:10.999Z</time></trkpt><trkpt lat="45.712083682306194" lon="9.76692035816525"><ele>299.0</ele><time>2026-04-05T08:42:12.999Z</time></trkpt><trkpt lat="45.71216847487118" lon="9.766964950433648"><ele>300.4</ele><time>2026-04-05T08:42:14.999Z</time></trkpt><trkpt lat="45.71225732413933" lon="9.767014395953286"><ele>301.79999999999995</ele><time>2026-04-05T08:42:16.999Z</time></trkpt><trkpt lat="45.71233026170916" lon="9.76707098741853"><ele>303.20000000000005</ele><time>2026-04-05T08:42:18.999Z</time></trkpt><trkpt lat="45.71241779574089" lon="9.767135840762313"><ele>304.6</ele><time>2026-04-05T08:42:20.999Z</time></trkpt><trkpt lat="45.712508802158" lon="9.767201796971419"><ele>306.0</ele><time>2026-04-05T08:42:22.999Z</time></trkpt><trkpt lat="45.71257020641826" lon="9.767263337880578"><ele>306.0</ele><time>2026-04-05T08:42:24.999Z</time></trkpt><trkpt lat="45.71266095662079" lon="9.767341349327156"><ele>306.0</ele><time>2026-04-05T08:42:26.999Z</time></trkpt><trkpt lat="45.71274104374928" lon="9.767413263958328"><ele>306.0</ele><time>2026-04-05T08:42:28.999Z</time></trkpt><trkpt lat="45.71283143608864" lon="9.767519005724894"><ele>306.0</ele><time>2026-04-05T08:42:30.999Z</time></trkpt><trkpt lat="45.71288667839931" lon="9.76756431460842"><ele>306.0</ele><time>2026-04-05T08:42:31.999Z</time></trkpt><trkpt lat="45.71298703128092" lon="9.767648798634186"><ele>306.8</ele><time>2026-04-05T08:42:33.999Z</time></trkpt><trkpt lat="45.71309452955032" lon="9.767741531540342"><ele>307.6</ele><time>2026-04-05T08:42:35.999Z</time></trkpt><trkpt lat="45.713194855737406" lon="9.767823901320556"><ele>308.4</ele><time>2026-04-05T08:42:37.999Z</time></trkpt><trkpt lat="45.7132953343505" lon="9.767906672775343"><ele>309.2</ele><time>2026-04-05T08:42:39.999Z</time></trkpt><trkpt lat="45.71335175497342" lon="9.76794877070933"><ele>310.0</ele><time>2026-04-05T08:42:40.999Z</time></trkpt><trkpt lat="45.71345065456936" lon="9.768018835081199"><ele>310.0</ele><time>2026-04-05T08:42:42.999Z</time></trkpt><trkpt lat="45.71351318702236" lon="9.768062521275759"><ele>310.0</ele><time>2026-04-05T08:42:43.999Z</time></trkpt><trkpt lat="45.713599399068535" lon="9.768134742703383"><ele>310.0</ele><time>2026-04-05T08:42:45.999Z</time></trkpt><trkpt lat="45.71366004418658" lon="9.768186925018897"><ele>310.0</ele><time>2026-04-05T08:42:46.999Z</time></trkpt><trkpt lat="45.71375469830543" lon="9.768256310154921"><ele>310.0</ele><time>2026-04-05T08:42:48.999Z</time></trkpt><trkpt lat="45.713851224080216" lon="9.768353317835137"><ele>311.2</ele><time>2026-04-05T08:42:50.999Z</time></trkpt><trkpt lat="45.713900094519644" lon="9.768414884616003"><ele>312.4</ele><time>2026-04-05T08:42:52Z</time></trkpt><trkpt lat="45.71398645905021" lon="9.768516686493063"><ele>313.6</ele><time>2026-04-05T08:42:54Z</time></trkpt><trkpt lat="45.71406591377841" lon="9.768633027735785"><ele>314.8</ele><time>2026-04-05T08:42:56Z</time></trkpt><trkpt lat="45.71414977638806" lon="9.76874485671191"><ele>316.0</ele><time>2026-04-05T08:42:58Z</time></trkpt><trkpt lat="45.71423200229683" lon="9.768859754119436"><ele>316.0</ele><time>2026-04-05T08:43:00Z</time></trkpt><trkpt lat="45.71430648067426" lon="9.768982887504622"><ele>316.0</ele><time>2026-04-05T08:43:02Z</time></trkpt><trkpt lat="45.714382821952285" lon="9.769099428219029"><ele>316.0</ele><time>2026-04-05T08:43:04Z</time></trkpt><trkpt lat="45.71442889565514" lon="9.769163667097459"><ele>316.0</ele><time>2026-04-05T08:43:05Z</time></trkpt><trkpt lat="45.714474984771364" lon="9.769227686695045"><ele>316.0</ele><time>2026-04-05T08:43:06Z</time></trkpt><trkpt lat="45.714553367889835" lon="9.769338617472991"><ele>317.0</ele><time>2026-04-05T08:43:08Z</time></trkpt><trkpt lat="45.714596100383524" lon="9.769412774120589"><ele>318.0</ele><time>2026-04-05T08:43:09Z</time></trkpt><trkpt lat="45.71467694468048" lon="9.769532946068791"><ele>319.0</ele><time>2026-04-05T08:43:11Z</time></trkpt><trkpt lat="45.71475951519214" lon="9.769661929275546"><ele>320.0</ele><time>2026-04-05T08:43:13Z</time></trkpt><trkpt lat="45.71482719664985" lon="9.769805112210676"><ele>321.0</ele><time>2026-04-05T08:43:15Z</time></trkpt><trkpt lat="45.71487962019827" lon="9.769942972461537"><ele>321.0</ele><time>2026-04-05T08:43:17Z</time></trkpt><trkpt lat="45.714923776483175" lon="9.770019351273536"><ele>321.0</ele><time>2026-04-05T08:43:18Z</time></trkpt><trkpt lat="45.71497970621982" lon="9.770160726942784"><ele>321.0</ele><time>2026-04-05T08:43:20Z</time></trkpt><trkpt lat="45.71501236201933" lon="9.770252140036304"><ele>321.0</ele><time>2026-04-05T08:43:21Z</time></trkpt><trkpt lat="45.71506635953599" lon="9.770396894149574"><ele>321.0</ele><time>2026-04-05T08:43:23Z</time></trkpt><trkpt lat="45.71509923680397" lon="9.770563913088111"><ele>320.6</ele><time>2026-04-05T08:43:25Z</time></trkpt><trkpt lat="45.71511535601072" lon="9.770654020413753"><ele>320.20000000000005</ele><time>2026-04-05T08:43:26Z</time></trkpt><trkpt lat="45.71514113471752" lon="9.770820531659732"><ele>319.79999999999995</ele><time>2026-04-05T08:43:28Z</time></trkpt><trkpt lat="45.715152903083315" lon="9.770992665813402"><ele>319.4</ele><time>2026-04-05T08:43:30Z</time></trkpt><trkpt lat="45.71515470401329" lon="9.771157937318844"><ele>319.0</ele><time>2026-04-05T08:43:32Z</time></trkpt><trkpt lat="45.71515135588978" lon="9.771313319252943"><ele>319.79999999999995</ele><time>2026-04-05T08:43:34Z</time></trkpt><trkpt lat="45.715145159989255" lon="9.77147286952517"><ele>320.59999999999997</ele><time>2026-04-05T08:43:36Z</time></trkpt><trkpt lat="45.71514288096761" lon="9.771633605954586"><ele>321.4</ele><time>2026-04-05T08:43:38Z</time></trkpt><trkpt lat="45.71512871448797" lon="9.771794715944562"><ele>322.2</ele><time>2026-04-05T08:43:40Z</time></trkpt><trkpt lat="45.715115502641574" lon="9.771940776534661"><ele>323.0</ele><time>2026-04-05T08:43:42Z</time></trkpt><trkpt lat="45.71510347364793" lon="9.77209535453942"><ele>324.0</ele><time>2026-04-05T08:43:44Z</time></trkpt><trkpt lat="45.71509739844437" lon="9.772247559415044"><ele>325.0</ele><time>2026-04-05T08:43:46Z</time></trkpt><trkpt lat="45.71509542453846" lon="9.77238991822211"><ele>326.0</ele><time>2026-04-05T08:43:48Z</time></trkpt><trkpt lat="45.71511075098645" lon="9.772538957054907"><ele>327.0</ele><time>2026-04-05T08:43:50Z</time></trkpt><trkpt lat="45.7151351784334" lon="9.772688471676664"><ele>328.0</ele><time>2026-04-05T08:43:52Z</time></trkpt><trkpt lat="45.715176272237215" lon="9.77283370647765"><ele>328.4</ele><time>2026-04-05T08:43:54Z</time></trkpt><trkpt lat="45.71517148865316" lon="9.772988617163394"><ele>328.79999999999995</ele><time>2026-04-05T08:43:56Z</time></trkpt><trkpt lat="45.715216415439144" lon="9.773110501001575"><ele>329.2</ele><time>2026-04-05T08:43:58Z</time></trkpt><trkpt lat="45.71529167662449" lon="9.773181447027014"><ele>329.6</ele><time>2026-04-05T08:44:00Z</time></trkpt><trkpt lat="45.715387584451534" lon="9.77312083440258"><ele>330.0</ele><time>2026-04-05T08:44:02Z</time></trkpt><trkpt lat="45.7154621587049" lon="9.773025398345487"><ele>330.0</ele><time>2026-04-05T08:44:04Z</time></trkpt><trkpt lat="45.71556080291456" lon="9.772907791431198"><ele>330.0</ele><time>2026-04-05T08:44:06Z</time></trkpt><trkpt lat="45.715619456782534" lon="9.772839402739464"><ele>330.0</ele><time>2026-04-05T08:44:07Z</time></trkpt><trkpt lat="45.7156828704814" lon="9.772749984242878"><ele>330.0</ele><time>2026-04-05T08:44:08Z</time></trkpt><trkpt lat="45.71573364016573" lon="9.772686188752294"><ele>330.0</ele><time>2026-04-05T08:44:09Z</time></trkpt><trkpt lat="45.715798464660544" lon="9.772586440940765"><ele>330.4</ele><time>2026-04-05T08:44:10Z</time></trkpt><trkpt lat="45.71586120641947" lon="9.772499248328966"><ele>330.8</ele><time>2026-04-05T08:44:11Z</time></trkpt><trkpt lat="45.71593013642272" lon="9.772421095568918"><ele>331.20000000000005</ele><time>2026-04-05T08:44:12Z</time></trkpt><trkpt lat="45.71600108080673" lon="9.772305132112459"><ele>331.6</ele><time>2026-04-05T08:44:13Z</time></trkpt><trkpt lat="45.71607291944291" lon="9.77221475555382"><ele>332.0</ele><time>2026-04-05T08:44:14Z</time></trkpt><trkpt lat="45.71615213442412" lon="9.772124506274977"><ele>330.6</ele><time>2026-04-05T08:44:15Z</time></trkpt><trkpt lat="45.71622321295594" lon="9.772027427483994"><ele>329.20000000000005</ele><time>2026-04-05T08:44:16Z</time></trkpt><trkpt lat="45.71630075478907" lon="9.77194790524112"><ele>327.8</ele><time>2026-04-05T08:44:17Z</time></trkpt><trkpt lat="45.7163633663025" lon="9.77184974610676"><ele>326.4</ele><time>2026-04-05T08:44:18Z</time></trkpt><trkpt lat="45.71643159150637" lon="9.771737331954132"><ele>325.0</ele><time>2026-04-05T08:44:18.999Z</time></trkpt><trkpt lat="45.71649642155289" lon="9.771664275810096"><ele>325.0</ele><time>2026-04-05T08:44:19.999Z</time></trkpt><trkpt lat="45.71656546467673" lon="9.77159070009467"><ele>325.0</ele><time>2026-04-05T08:44:20.999Z</time></trkpt><trkpt lat="45.716621812469064" lon="9.771499111325548"><ele>325.0</ele><time>2026-04-05T08:44:21.999Z</time></trkpt><trkpt lat="45.716683608875265" lon="9.771416781888947"><ele>325.0</ele><time>2026-04-05T08:44:22.999Z</time></trkpt><trkpt lat="45.716751151078114" lon="9.771359037748486"><ele>325.0</ele><time>2026-04-05T08:44:23.999Z</time></trkpt><trkpt lat="45.71682885745095" lon="9.771321621565493"><ele>325.0</ele><time>2026-04-05T08:44:24.999Z</time></trkpt><trkpt lat="45.71691187812347" lon="9.771330986827216"><ele>325.8</ele><time>2026-04-05T08:44:25.999Z</time></trkpt><trkpt lat="45.716977924257094" lon="9.77135920299361"><ele>326.6</ele><time>2026-04-05T08:44:26.999Z</time></trkpt><trkpt lat="45.71703917495383" lon="9.771384382911403"><ele>327.4</ele><time>2026-04-05T08:44:27.999Z</time></trkpt><trkpt lat="45.71714950491512" lon="9.771425245249242"><ele>328.2</ele><time>2026-04-05T08:44:29.999Z</time></trkpt><trkpt lat="45.717254586668325" lon="9.771459569264229"><ele>329.0</ele><time>2026-04-05T08:44:31.999Z</time></trkpt><trkpt lat="45.71735480618285" lon="9.77149056109549"><ele>329.0</ele><time>2026-04-05T08:44:33.999Z</time></trkpt><trkpt lat="45.717448696863826" lon="9.771478926693275"><ele>329.0</ele><time>2026-04-05T08:44:35.999Z</time></trkpt><trkpt lat="45.717495925426164" lon="9.77134868105264"><ele>329.0</ele><time>2026-04-05T08:44:37.999Z</time></trkpt><trkpt lat="45.71753721778692" lon="9.77120042302114"><ele>329.0</ele><time>2026-04-05T08:44:39.999Z</time></trkpt><trkpt lat="45.71759646554093" lon="9.771046464240406"><ele>329.0</ele><time>2026-04-05T08:44:41.999Z</time></trkpt><trkpt lat="45.71764361180036" lon="9.770925289820203"><ele>328.4</ele><time>2026-04-05T08:44:43.999Z</time></trkpt><trkpt lat="45.71771425285261" lon="9.770823395336235"><ele>327.79999999999995</ele><time>2026-04-05T08:44:45.999Z</time></trkpt><trkpt lat="45.71778577362325" lon="9.770734375181497"><ele>327.20000000000005</ele><time>2026-04-05T08:44:47.999Z</time></trkpt><trkpt lat="45.71785487022773" lon="9.7706236513171"><ele>326.6</ele><time>2026-04-05T08:44:49.999Z</time></trkpt><trkpt lat="45.71794229658973" lon="9.770566062565814"><ele>326.0</ele><time>2026-04-05T08:44:51.999Z</time></trkpt><trkpt lat="45.7180366701212" lon="9.770651023376498"><ele>327.1666666666667</ele><time>2026-04-05T08:44:53.999Z</time></trkpt><trkpt lat="45.71810793868704" lon="9.77072680431271"><ele>328.33333333333337</ele><time>2026-04-05T08:44:55.999Z</time></trkpt><trkpt lat="45.71818383029999" lon="9.770774322290022"><ele>329.5</ele><time>2026-04-05T08:44:58Z</time></trkpt><trkpt lat="45.71824747095064" lon="9.770809624844574"><ele>330.6666666666667</ele><time>2026-04-05T08:45:00Z</time></trkpt><trkpt lat="45.71830981213302" lon="9.770849798266315"><ele>331.8333333333333</ele><time>2026-04-05T08:45:02Z</time></trkpt><trkpt lat="45.718380447978944" lon="9.770910690783753"><ele>333.0</ele><time>2026-04-05T08:45:05Z</time></trkpt><trkpt lat="45.718452872410296" lon="9.770963192797396"><ele>333.0</ele><time>2026-04-05T08:45:08Z</time></trkpt><trkpt lat="45.71852776762643" lon="9.770929887359678"><ele>333.0</ele><time>2026-04-05T08:45:11Z</time></trkpt><trkpt lat="45.71857813090845" lon="9.770842386502617"><ele>343.0</ele><time>2026-04-05T08:45:15Z</time></trkpt></trkseg></trk></gpx>